<?xml version="1.0" encoding="UTF-8" standalone="no" ?>
<gpx xmlns="http://www.topografix.com/GPX/1/1" xmlns:xsi="http://www.w3.org/2001/XMLSchema-instance" xsi:schemaLocation="http://www.topografix.com/GPX/1/1 http://www.topografix.com/GPX/1/1/gpx.xsd" version="1.1" creator="VisuGPX - https://www.visugpx.com">
  <metadata>
    <name>2018-09-30 Bike ride-Ambérieux-Rancé O v34k</name>
    <desc><![CDATA[2018-09-30 Bike ride-Ambérieux-Rancé O v34k]]></desc>
  </metadata>
  <wpt lat="45.92464" lon="4.73707">
    <ele>237</ele>
    <name><![CDATA[2018-09-30 10:15 (Start)]]></name>
  </wpt>
  <wpt lat="45.9246" lon="4.7371">
    <ele>224</ele>
    <name><![CDATA[2018-09-30 10:15 (End)]]></name>
    <desc><![CDATA[Created by Google My Tracks on Android  Name: 2018-09-30 10:15 Activity type: biking Description: - Total distance: 34.55 km (21.5 mi) Total time: 2:01:21 Moving time: 2:00:01 Average speed: 17.08 km/h (10.6 mi/h) Average moving speed: 17.27 km/h (10.7 mi/h) Max speed: 48.96 km/h (30.4 mi/h) Average pace: 3:31 min/km (5:39 min/mi) Average moving pace: 3:28 min/km (5:35 min/mi) Fastest pace: 1:14 min/km (1:58 min/mi) Max elevation: 337 m (1107 ft) Min elevation: 208 m (682 ft) Elevation gain: 460 m (1509 ft) Max grade: 20 % Min grade: -28 % Recorded: 30/09/2018 10:15]]></desc>
  </wpt>
  <trk>
    <name><![CDATA[2018-09-30 10:15]]></name>
    <trkseg>
      <trkpt lat="45.92464" lon="4.73707">
        <ele>237</ele>
        <time>2018-09-30T08:15:17.087Z</time>
      </trkpt>
      <trkpt lat="45.92471" lon="4.73703">
        <ele>225</ele>
        <time>2018-09-30T08:15:43Z</time>
      </trkpt>
      <trkpt lat="45.92472" lon="4.737">
        <ele>224</ele>
        <time>2018-09-30T08:15:44Z</time>
      </trkpt>
      <trkpt lat="45.92472" lon="4.73688">
        <ele>218</ele>
        <time>2018-09-30T08:15:47Z</time>
      </trkpt>
      <trkpt lat="45.92472" lon="4.73683">
        <ele>217</ele>
        <time>2018-09-30T08:15:48Z</time>
      </trkpt>
      <trkpt lat="45.92472" lon="4.73678">
        <ele>222</ele>
        <time>2018-09-30T08:15:49Z</time>
      </trkpt>
      <trkpt lat="45.92472" lon="4.73665">
        <ele>221</ele>
        <time>2018-09-30T08:15:50Z</time>
      </trkpt>
      <trkpt lat="45.92473" lon="4.73653">
        <ele>217</ele>
        <time>2018-09-30T08:15:52Z</time>
      </trkpt>
      <trkpt lat="45.92474" lon="4.73647">
        <ele>216</ele>
        <time>2018-09-30T08:15:53Z</time>
      </trkpt>
      <trkpt lat="45.92475" lon="4.73635">
        <ele>215</ele>
        <time>2018-09-30T08:15:55Z</time>
      </trkpt>
      <trkpt lat="45.92476" lon="4.73629">
        <ele>215</ele>
        <time>2018-09-30T08:15:56Z</time>
      </trkpt>
      <trkpt lat="45.92477" lon="4.73623">
        <ele>215</ele>
        <time>2018-09-30T08:15:57Z</time>
      </trkpt>
      <trkpt lat="45.92475" lon="4.73615">
        <ele>214</ele>
        <time>2018-09-30T08:15:58Z</time>
      </trkpt>
      <trkpt lat="45.92475" lon="4.73603">
        <ele>213</ele>
        <time>2018-09-30T08:16:00Z</time>
      </trkpt>
      <trkpt lat="45.92475" lon="4.73597">
        <ele>213</ele>
        <time>2018-09-30T08:16:01Z</time>
      </trkpt>
      <trkpt lat="45.92472" lon="4.73585">
        <ele>211</ele>
        <time>2018-09-30T08:16:03Z</time>
      </trkpt>
      <trkpt lat="45.92472" lon="4.73579">
        <ele>211</ele>
        <time>2018-09-30T08:16:04Z</time>
      </trkpt>
      <trkpt lat="45.92471" lon="4.73567">
        <ele>213</ele>
        <time>2018-09-30T08:16:06Z</time>
      </trkpt>
      <trkpt lat="45.92471" lon="4.7356">
        <ele>212</ele>
        <time>2018-09-30T08:16:07Z</time>
      </trkpt>
      <trkpt lat="45.9247" lon="4.73548">
        <ele>212</ele>
        <time>2018-09-30T08:16:10Z</time>
      </trkpt>
      <trkpt lat="45.9247" lon="4.73544">
        <ele>211</ele>
        <time>2018-09-30T08:16:11Z</time>
      </trkpt>
      <trkpt lat="45.92469" lon="4.73534">
        <ele>211</ele>
        <time>2018-09-30T08:16:12Z</time>
      </trkpt>
      <trkpt lat="45.92469" lon="4.7353">
        <ele>211</ele>
        <time>2018-09-30T08:16:13Z</time>
      </trkpt>
      <trkpt lat="45.92469" lon="4.73523">
        <ele>212</ele>
        <time>2018-09-30T08:16:14Z</time>
      </trkpt>
      <trkpt lat="45.92469" lon="4.73516">
        <ele>212</ele>
        <time>2018-09-30T08:16:15Z</time>
      </trkpt>
      <trkpt lat="45.9247" lon="4.73508">
        <ele>211</ele>
        <time>2018-09-30T08:16:16Z</time>
      </trkpt>
      <trkpt lat="45.92468" lon="4.73501">
        <ele>210</ele>
        <time>2018-09-30T08:16:17Z</time>
      </trkpt>
      <trkpt lat="45.92469" lon="4.73493">
        <ele>211</ele>
        <time>2018-09-30T08:16:18Z</time>
      </trkpt>
      <trkpt lat="45.92469" lon="4.73486">
        <ele>211</ele>
        <time>2018-09-30T08:16:19Z</time>
      </trkpt>
      <trkpt lat="45.92469" lon="4.73479">
        <ele>212</ele>
        <time>2018-09-30T08:16:20Z</time>
      </trkpt>
      <trkpt lat="45.92469" lon="4.7347">
        <ele>212</ele>
        <time>2018-09-30T08:16:21Z</time>
      </trkpt>
      <trkpt lat="45.92469" lon="4.73464">
        <ele>211</ele>
        <time>2018-09-30T08:16:22Z</time>
      </trkpt>
      <trkpt lat="45.92469" lon="4.73457">
        <ele>211</ele>
        <time>2018-09-30T08:16:23Z</time>
      </trkpt>
      <trkpt lat="45.92468" lon="4.7345">
        <ele>211</ele>
        <time>2018-09-30T08:16:24Z</time>
      </trkpt>
      <trkpt lat="45.92467" lon="4.73443">
        <ele>212</ele>
        <time>2018-09-30T08:16:25Z</time>
      </trkpt>
      <trkpt lat="45.92465" lon="4.73437">
        <ele>213</ele>
        <time>2018-09-30T08:16:26Z</time>
      </trkpt>
      <trkpt lat="45.92464" lon="4.73431">
        <ele>214</ele>
        <time>2018-09-30T08:16:27Z</time>
      </trkpt>
      <trkpt lat="45.92459" lon="4.73422">
        <ele>215</ele>
        <time>2018-09-30T08:16:29Z</time>
      </trkpt>
      <trkpt lat="45.92455" lon="4.73419">
        <ele>216</ele>
        <time>2018-09-30T08:16:30Z</time>
      </trkpt>
      <trkpt lat="45.9245" lon="4.73416">
        <ele>215</ele>
        <time>2018-09-30T08:16:31Z</time>
      </trkpt>
      <trkpt lat="45.92445" lon="4.73413">
        <ele>216</ele>
        <time>2018-09-30T08:16:32Z</time>
      </trkpt>
      <trkpt lat="45.9244" lon="4.7341">
        <ele>216</ele>
        <time>2018-09-30T08:16:33Z</time>
      </trkpt>
      <trkpt lat="45.92435" lon="4.73406">
        <ele>216</ele>
        <time>2018-09-30T08:16:34Z</time>
      </trkpt>
      <trkpt lat="45.92431" lon="4.73403">
        <ele>215</ele>
        <time>2018-09-30T08:16:35Z</time>
      </trkpt>
      <trkpt lat="45.92428" lon="4.73398">
        <ele>216</ele>
        <time>2018-09-30T08:16:36Z</time>
      </trkpt>
      <trkpt lat="45.92425" lon="4.73392">
        <ele>216</ele>
        <time>2018-09-30T08:16:37Z</time>
      </trkpt>
      <trkpt lat="45.92424" lon="4.73386">
        <ele>216</ele>
        <time>2018-09-30T08:16:38Z</time>
      </trkpt>
      <trkpt lat="45.92423" lon="4.73378">
        <ele>217</ele>
        <time>2018-09-30T08:16:39Z</time>
      </trkpt>
      <trkpt lat="45.92422" lon="4.73372">
        <ele>216</ele>
        <time>2018-09-30T08:16:40Z</time>
      </trkpt>
      <trkpt lat="45.92422" lon="4.73364">
        <ele>216</ele>
        <time>2018-09-30T08:16:41Z</time>
      </trkpt>
      <trkpt lat="45.92421" lon="4.73357">
        <ele>216</ele>
        <time>2018-09-30T08:16:42Z</time>
      </trkpt>
      <trkpt lat="45.92415" lon="4.7335">
        <ele>215</ele>
        <time>2018-09-30T08:16:43Z</time>
      </trkpt>
      <trkpt lat="45.92415" lon="4.73344">
        <ele>216</ele>
        <time>2018-09-30T08:16:44Z</time>
      </trkpt>
      <trkpt lat="45.92414" lon="4.73336">
        <ele>216</ele>
        <time>2018-09-30T08:16:45Z</time>
      </trkpt>
      <trkpt lat="45.92413" lon="4.73329">
        <ele>217</ele>
        <time>2018-09-30T08:16:46Z</time>
      </trkpt>
      <trkpt lat="45.92413" lon="4.73322">
        <ele>217</ele>
        <time>2018-09-30T08:16:47Z</time>
      </trkpt>
      <trkpt lat="45.92414" lon="4.73316">
        <ele>217</ele>
        <time>2018-09-30T08:16:48Z</time>
      </trkpt>
      <trkpt lat="45.92413" lon="4.73308">
        <ele>217</ele>
        <time>2018-09-30T08:16:49Z</time>
      </trkpt>
      <trkpt lat="45.92414" lon="4.73302">
        <ele>219</ele>
        <time>2018-09-30T08:16:50Z</time>
      </trkpt>
      <trkpt lat="45.9241" lon="4.7329">
        <ele>218</ele>
        <time>2018-09-30T08:16:52Z</time>
      </trkpt>
      <trkpt lat="45.92409" lon="4.73284">
        <ele>217</ele>
        <time>2018-09-30T08:16:53Z</time>
      </trkpt>
      <trkpt lat="45.92409" lon="4.73277">
        <ele>217</ele>
        <time>2018-09-30T08:16:54Z</time>
      </trkpt>
      <trkpt lat="45.92409" lon="4.7327">
        <ele>218</ele>
        <time>2018-09-30T08:16:55Z</time>
      </trkpt>
      <trkpt lat="45.92405" lon="4.73262">
        <ele>216</ele>
        <time>2018-09-30T08:16:56Z</time>
      </trkpt>
      <trkpt lat="45.92405" lon="4.73255">
        <ele>215</ele>
        <time>2018-09-30T08:16:57Z</time>
      </trkpt>
      <trkpt lat="45.92405" lon="4.73246">
        <ele>216</ele>
        <time>2018-09-30T08:16:58Z</time>
      </trkpt>
      <trkpt lat="45.92404" lon="4.7324">
        <ele>216</ele>
        <time>2018-09-30T08:16:59Z</time>
      </trkpt>
      <trkpt lat="45.92404" lon="4.73233">
        <ele>217</ele>
        <time>2018-09-30T08:17:00Z</time>
      </trkpt>
      <trkpt lat="45.92405" lon="4.73225">
        <ele>217</ele>
        <time>2018-09-30T08:17:01Z</time>
      </trkpt>
      <trkpt lat="45.92404" lon="4.73218">
        <ele>218</ele>
        <time>2018-09-30T08:17:02Z</time>
      </trkpt>
      <trkpt lat="45.92404" lon="4.73211">
        <ele>218</ele>
        <time>2018-09-30T08:17:03Z</time>
      </trkpt>
      <trkpt lat="45.92404" lon="4.73202">
        <ele>219</ele>
        <time>2018-09-30T08:17:04Z</time>
      </trkpt>
      <trkpt lat="45.92401" lon="4.73195">
        <ele>218</ele>
        <time>2018-09-30T08:17:05Z</time>
      </trkpt>
      <trkpt lat="45.92401" lon="4.73185">
        <ele>218</ele>
        <time>2018-09-30T08:17:06Z</time>
      </trkpt>
      <trkpt lat="45.92401" lon="4.73179">
        <ele>218</ele>
        <time>2018-09-30T08:17:07Z</time>
      </trkpt>
      <trkpt lat="45.92398" lon="4.73172">
        <ele>217</ele>
        <time>2018-09-30T08:17:08Z</time>
      </trkpt>
      <trkpt lat="45.92398" lon="4.73165">
        <ele>217</ele>
        <time>2018-09-30T08:17:09Z</time>
      </trkpt>
      <trkpt lat="45.92398" lon="4.73158">
        <ele>216</ele>
        <time>2018-09-30T08:17:10Z</time>
      </trkpt>
      <trkpt lat="45.92398" lon="4.7315">
        <ele>217</ele>
        <time>2018-09-30T08:17:11Z</time>
      </trkpt>
      <trkpt lat="45.92397" lon="4.73141">
        <ele>216</ele>
        <time>2018-09-30T08:17:12Z</time>
      </trkpt>
      <trkpt lat="45.92395" lon="4.73135">
        <ele>219</ele>
        <time>2018-09-30T08:17:13Z</time>
      </trkpt>
      <trkpt lat="45.92396" lon="4.73129">
        <ele>218</ele>
        <time>2018-09-30T08:17:14Z</time>
      </trkpt>
      <trkpt lat="45.92399" lon="4.73122">
        <ele>219</ele>
        <time>2018-09-30T08:17:15Z</time>
      </trkpt>
      <trkpt lat="45.92403" lon="4.73117">
        <ele>219</ele>
        <time>2018-09-30T08:17:16Z</time>
      </trkpt>
      <trkpt lat="45.92407" lon="4.73112">
        <ele>219</ele>
        <time>2018-09-30T08:17:17Z</time>
      </trkpt>
      <trkpt lat="45.92411" lon="4.73108">
        <ele>219</ele>
        <time>2018-09-30T08:17:18Z</time>
      </trkpt>
      <trkpt lat="45.92416" lon="4.73104">
        <ele>219</ele>
        <time>2018-09-30T08:17:19Z</time>
      </trkpt>
      <trkpt lat="45.92422" lon="4.73101">
        <ele>219</ele>
        <time>2018-09-30T08:17:20Z</time>
      </trkpt>
      <trkpt lat="45.92428" lon="4.73097">
        <ele>219</ele>
        <time>2018-09-30T08:17:21Z</time>
      </trkpt>
      <trkpt lat="45.92433" lon="4.73094">
        <ele>218</ele>
        <time>2018-09-30T08:17:22Z</time>
      </trkpt>
      <trkpt lat="45.92437" lon="4.7309">
        <ele>218</ele>
        <time>2018-09-30T08:17:23Z</time>
      </trkpt>
      <trkpt lat="45.92443" lon="4.73081">
        <ele>215</ele>
        <time>2018-09-30T08:17:25Z</time>
      </trkpt>
      <trkpt lat="45.92448" lon="4.73077">
        <ele>215</ele>
        <time>2018-09-30T08:17:26Z</time>
      </trkpt>
      <trkpt lat="45.92454" lon="4.73072">
        <ele>215</ele>
        <time>2018-09-30T08:17:27Z</time>
      </trkpt>
      <trkpt lat="45.9246" lon="4.73068">
        <ele>216</ele>
        <time>2018-09-30T08:17:28Z</time>
      </trkpt>
      <trkpt lat="45.92466" lon="4.73065">
        <ele>217</ele>
        <time>2018-09-30T08:17:29Z</time>
      </trkpt>
      <trkpt lat="45.92471" lon="4.7306">
        <ele>217</ele>
        <time>2018-09-30T08:17:30Z</time>
      </trkpt>
      <trkpt lat="45.92477" lon="4.73055">
        <ele>217</ele>
        <time>2018-09-30T08:17:31Z</time>
      </trkpt>
      <trkpt lat="45.92483" lon="4.7305">
        <ele>221</ele>
        <time>2018-09-30T08:17:32Z</time>
      </trkpt>
      <trkpt lat="45.92489" lon="4.73045">
        <ele>220</ele>
        <time>2018-09-30T08:17:33Z</time>
      </trkpt>
      <trkpt lat="45.92494" lon="4.7304">
        <ele>220</ele>
        <time>2018-09-30T08:17:34Z</time>
      </trkpt>
      <trkpt lat="45.925" lon="4.73036">
        <ele>219</ele>
        <time>2018-09-30T08:17:35Z</time>
      </trkpt>
      <trkpt lat="45.92505" lon="4.73032">
        <ele>218</ele>
        <time>2018-09-30T08:17:36Z</time>
      </trkpt>
      <trkpt lat="45.92511" lon="4.73028">
        <ele>218</ele>
        <time>2018-09-30T08:17:37Z</time>
      </trkpt>
      <trkpt lat="45.92516" lon="4.73024">
        <ele>218</ele>
        <time>2018-09-30T08:17:38Z</time>
      </trkpt>
      <trkpt lat="45.92521" lon="4.73019">
        <ele>217</ele>
        <time>2018-09-30T08:17:39Z</time>
      </trkpt>
      <trkpt lat="45.92526" lon="4.73015">
        <ele>217</ele>
        <time>2018-09-30T08:17:40Z</time>
      </trkpt>
      <trkpt lat="45.92532" lon="4.73011">
        <ele>217</ele>
        <time>2018-09-30T08:17:41Z</time>
      </trkpt>
      <trkpt lat="45.92538" lon="4.73005">
        <ele>216</ele>
        <time>2018-09-30T08:17:42Z</time>
      </trkpt>
      <trkpt lat="45.92542" lon="4.72999">
        <ele>214</ele>
        <time>2018-09-30T08:17:43Z</time>
      </trkpt>
      <trkpt lat="45.92548" lon="4.72994">
        <ele>214</ele>
        <time>2018-09-30T08:17:44Z</time>
      </trkpt>
      <trkpt lat="45.92552" lon="4.72991">
        <ele>213</ele>
        <time>2018-09-30T08:17:45Z</time>
      </trkpt>
      <trkpt lat="45.92556" lon="4.72987">
        <ele>212</ele>
        <time>2018-09-30T08:17:46Z</time>
      </trkpt>
      <trkpt lat="45.92561" lon="4.72982">
        <ele>212</ele>
        <time>2018-09-30T08:17:47Z</time>
      </trkpt>
      <trkpt lat="45.92566" lon="4.72978">
        <ele>213</ele>
        <time>2018-09-30T08:17:48Z</time>
      </trkpt>
      <trkpt lat="45.92571" lon="4.72974">
        <ele>214</ele>
        <time>2018-09-30T08:17:49Z</time>
      </trkpt>
      <trkpt lat="45.92575" lon="4.7297">
        <ele>215</ele>
        <time>2018-09-30T08:17:50Z</time>
      </trkpt>
      <trkpt lat="45.92579" lon="4.72967">
        <ele>215</ele>
        <time>2018-09-30T08:17:51Z</time>
      </trkpt>
      <trkpt lat="45.92584" lon="4.72962">
        <ele>215</ele>
        <time>2018-09-30T08:17:52Z</time>
      </trkpt>
      <trkpt lat="45.92589" lon="4.7296">
        <ele>215</ele>
        <time>2018-09-30T08:17:53Z</time>
      </trkpt>
      <trkpt lat="45.92594" lon="4.72952">
        <ele>214</ele>
        <time>2018-09-30T08:17:54Z</time>
      </trkpt>
      <trkpt lat="45.92599" lon="4.72947">
        <ele>215</ele>
        <time>2018-09-30T08:17:55Z</time>
      </trkpt>
      <trkpt lat="45.92602" lon="4.72941">
        <ele>214</ele>
        <time>2018-09-30T08:17:56Z</time>
      </trkpt>
      <trkpt lat="45.92607" lon="4.72936">
        <ele>214</ele>
        <time>2018-09-30T08:17:57Z</time>
      </trkpt>
      <trkpt lat="45.9261" lon="4.7293">
        <ele>212</ele>
        <time>2018-09-30T08:17:58Z</time>
      </trkpt>
      <trkpt lat="45.92616" lon="4.72926">
        <ele>211</ele>
        <time>2018-09-30T08:17:59Z</time>
      </trkpt>
      <trkpt lat="45.9262" lon="4.72922">
        <ele>211</ele>
        <time>2018-09-30T08:18:00Z</time>
      </trkpt>
      <trkpt lat="45.92625" lon="4.72918">
        <ele>211</ele>
        <time>2018-09-30T08:18:01Z</time>
      </trkpt>
      <trkpt lat="45.9263" lon="4.72914">
        <ele>210</ele>
        <time>2018-09-30T08:18:02Z</time>
      </trkpt>
      <trkpt lat="45.92634" lon="4.7291">
        <ele>210</ele>
        <time>2018-09-30T08:18:03Z</time>
      </trkpt>
      <trkpt lat="45.92639" lon="4.72907">
        <ele>209</ele>
        <time>2018-09-30T08:18:04Z</time>
      </trkpt>
      <trkpt lat="45.92644" lon="4.72902">
        <ele>209</ele>
        <time>2018-09-30T08:18:05Z</time>
      </trkpt>
      <trkpt lat="45.92649" lon="4.72898">
        <ele>210</ele>
        <time>2018-09-30T08:18:06Z</time>
      </trkpt>
      <trkpt lat="45.92655" lon="4.72894">
        <ele>211</ele>
        <time>2018-09-30T08:18:07Z</time>
      </trkpt>
      <trkpt lat="45.92661" lon="4.72889">
        <ele>211</ele>
        <time>2018-09-30T08:18:08Z</time>
      </trkpt>
      <trkpt lat="45.92666" lon="4.72885">
        <ele>212</ele>
        <time>2018-09-30T08:18:09Z</time>
      </trkpt>
      <trkpt lat="45.92672" lon="4.72881">
        <ele>212</ele>
        <time>2018-09-30T08:18:10Z</time>
      </trkpt>
      <trkpt lat="45.92677" lon="4.72876">
        <ele>213</ele>
        <time>2018-09-30T08:18:11Z</time>
      </trkpt>
      <trkpt lat="45.92681" lon="4.72872">
        <ele>213</ele>
        <time>2018-09-30T08:18:12Z</time>
      </trkpt>
      <trkpt lat="45.92688" lon="4.7287">
        <ele>215</ele>
        <time>2018-09-30T08:18:13Z</time>
      </trkpt>
      <trkpt lat="45.92693" lon="4.72866">
        <ele>216</ele>
        <time>2018-09-30T08:18:14Z</time>
      </trkpt>
      <trkpt lat="45.92698" lon="4.72863">
        <ele>215</ele>
        <time>2018-09-30T08:18:15Z</time>
      </trkpt>
      <trkpt lat="45.92701" lon="4.72859">
        <ele>213</ele>
        <time>2018-09-30T08:18:16Z</time>
      </trkpt>
      <trkpt lat="45.92706" lon="4.72855">
        <ele>213</ele>
        <time>2018-09-30T08:18:17Z</time>
      </trkpt>
      <trkpt lat="45.9271" lon="4.72851">
        <ele>212</ele>
        <time>2018-09-30T08:18:18Z</time>
      </trkpt>
      <trkpt lat="45.92715" lon="4.72847">
        <ele>212</ele>
        <time>2018-09-30T08:18:19Z</time>
      </trkpt>
      <trkpt lat="45.9272" lon="4.72845">
        <ele>211</ele>
        <time>2018-09-30T08:18:20Z</time>
      </trkpt>
      <trkpt lat="45.92725" lon="4.72841">
        <ele>211</ele>
        <time>2018-09-30T08:18:21Z</time>
      </trkpt>
      <trkpt lat="45.92729" lon="4.72838">
        <ele>212</ele>
        <time>2018-09-30T08:18:22Z</time>
      </trkpt>
      <trkpt lat="45.92734" lon="4.72834">
        <ele>213</ele>
        <time>2018-09-30T08:18:23Z</time>
      </trkpt>
      <trkpt lat="45.9274" lon="4.7283">
        <ele>213</ele>
        <time>2018-09-30T08:18:24Z</time>
      </trkpt>
      <trkpt lat="45.92744" lon="4.72825">
        <ele>213</ele>
        <time>2018-09-30T08:18:25Z</time>
      </trkpt>
      <trkpt lat="45.92749" lon="4.72822">
        <ele>214</ele>
        <time>2018-09-30T08:18:26Z</time>
      </trkpt>
      <trkpt lat="45.92753" lon="4.72814">
        <ele>212</ele>
        <time>2018-09-30T08:18:27Z</time>
      </trkpt>
      <trkpt lat="45.92758" lon="4.7281">
        <ele>212</ele>
        <time>2018-09-30T08:18:28Z</time>
      </trkpt>
      <trkpt lat="45.92764" lon="4.72806">
        <ele>211</ele>
        <time>2018-09-30T08:18:29Z</time>
      </trkpt>
      <trkpt lat="45.9277" lon="4.72802">
        <ele>212</ele>
        <time>2018-09-30T08:18:30Z</time>
      </trkpt>
      <trkpt lat="45.92775" lon="4.72798">
        <ele>212</ele>
        <time>2018-09-30T08:18:31Z</time>
      </trkpt>
      <trkpt lat="45.9278" lon="4.72795">
        <ele>212</ele>
        <time>2018-09-30T08:18:32Z</time>
      </trkpt>
      <trkpt lat="45.92785" lon="4.72792">
        <ele>212</ele>
        <time>2018-09-30T08:18:33Z</time>
      </trkpt>
      <trkpt lat="45.92789" lon="4.72789">
        <ele>212</ele>
        <time>2018-09-30T08:18:34Z</time>
      </trkpt>
      <trkpt lat="45.92796" lon="4.72785">
        <ele>211</ele>
        <time>2018-09-30T08:18:36Z</time>
      </trkpt>
      <trkpt lat="45.92798" lon="4.72784">
        <ele>218</ele>
        <time>2018-09-30T08:18:37Z</time>
      </trkpt>
      <trkpt lat="45.92804" lon="4.72788">
        <ele>217</ele>
        <time>2018-09-30T08:18:38Z</time>
      </trkpt>
      <trkpt lat="45.92805" lon="4.72795">
        <ele>216</ele>
        <time>2018-09-30T08:18:39Z</time>
      </trkpt>
      <trkpt lat="45.92808" lon="4.72805">
        <ele>215</ele>
        <time>2018-09-30T08:18:41Z</time>
      </trkpt>
      <trkpt lat="45.92809" lon="4.72811">
        <ele>216</ele>
        <time>2018-09-30T08:18:42Z</time>
      </trkpt>
      <trkpt lat="45.9281" lon="4.7282">
        <ele>216</ele>
        <time>2018-09-30T08:18:43Z</time>
      </trkpt>
      <trkpt lat="45.92811" lon="4.72828">
        <ele>216</ele>
        <time>2018-09-30T08:18:44Z</time>
      </trkpt>
      <trkpt lat="45.92812" lon="4.72839">
        <ele>216</ele>
        <time>2018-09-30T08:18:46Z</time>
      </trkpt>
      <trkpt lat="45.92812" lon="4.72847">
        <ele>214</ele>
        <time>2018-09-30T08:18:47Z</time>
      </trkpt>
      <trkpt lat="45.92813" lon="4.72853">
        <ele>214</ele>
        <time>2018-09-30T08:18:48Z</time>
      </trkpt>
      <trkpt lat="45.92815" lon="4.7286">
        <ele>213</ele>
        <time>2018-09-30T08:18:49Z</time>
      </trkpt>
      <trkpt lat="45.92817" lon="4.72872">
        <ele>212</ele>
        <time>2018-09-30T08:18:51Z</time>
      </trkpt>
      <trkpt lat="45.92819" lon="4.7288">
        <ele>212</ele>
        <time>2018-09-30T08:18:52Z</time>
      </trkpt>
      <trkpt lat="45.9282" lon="4.72888">
        <ele>212</ele>
        <time>2018-09-30T08:18:53Z</time>
      </trkpt>
      <trkpt lat="45.92821" lon="4.72895">
        <ele>212</ele>
        <time>2018-09-30T08:18:54Z</time>
      </trkpt>
      <trkpt lat="45.92823" lon="4.72901">
        <ele>210</ele>
        <time>2018-09-30T08:18:55Z</time>
      </trkpt>
      <trkpt lat="45.92824" lon="4.72908">
        <ele>211</ele>
        <time>2018-09-30T08:18:56Z</time>
      </trkpt>
      <trkpt lat="45.92825" lon="4.72915">
        <ele>212</ele>
        <time>2018-09-30T08:18:57Z</time>
      </trkpt>
      <trkpt lat="45.92827" lon="4.72921">
        <ele>213</ele>
        <time>2018-09-30T08:18:58Z</time>
      </trkpt>
      <trkpt lat="45.92828" lon="4.72929">
        <ele>214</ele>
        <time>2018-09-30T08:18:59Z</time>
      </trkpt>
      <trkpt lat="45.92829" lon="4.72934">
        <ele>214</ele>
        <time>2018-09-30T08:19:00Z</time>
      </trkpt>
      <trkpt lat="45.9283" lon="4.72946">
        <ele>213</ele>
        <time>2018-09-30T08:19:02Z</time>
      </trkpt>
      <trkpt lat="45.92832" lon="4.72955">
        <ele>212</ele>
        <time>2018-09-30T08:19:03Z</time>
      </trkpt>
      <trkpt lat="45.92832" lon="4.72961">
        <ele>213</ele>
        <time>2018-09-30T08:19:04Z</time>
      </trkpt>
      <trkpt lat="45.92833" lon="4.72968">
        <ele>214</ele>
        <time>2018-09-30T08:19:05Z</time>
      </trkpt>
      <trkpt lat="45.92834" lon="4.72977">
        <ele>212</ele>
        <time>2018-09-30T08:19:06Z</time>
      </trkpt>
      <trkpt lat="45.92835" lon="4.72986">
        <ele>213</ele>
        <time>2018-09-30T08:19:07Z</time>
      </trkpt>
      <trkpt lat="45.92835" lon="4.72993">
        <ele>213</ele>
        <time>2018-09-30T08:19:08Z</time>
      </trkpt>
      <trkpt lat="45.92836" lon="4.73002">
        <ele>212</ele>
        <time>2018-09-30T08:19:09Z</time>
      </trkpt>
      <trkpt lat="45.92837" lon="4.7301">
        <ele>212</ele>
        <time>2018-09-30T08:19:10Z</time>
      </trkpt>
      <trkpt lat="45.92839" lon="4.73017">
        <ele>213</ele>
        <time>2018-09-30T08:19:11Z</time>
      </trkpt>
      <trkpt lat="45.9284" lon="4.73024">
        <ele>213</ele>
        <time>2018-09-30T08:19:12Z</time>
      </trkpt>
      <trkpt lat="45.92842" lon="4.73031">
        <ele>214</ele>
        <time>2018-09-30T08:19:13Z</time>
      </trkpt>
      <trkpt lat="45.92843" lon="4.73038">
        <ele>218</ele>
        <time>2018-09-30T08:19:14Z</time>
      </trkpt>
      <trkpt lat="45.92844" lon="4.73045">
        <ele>218</ele>
        <time>2018-09-30T08:19:15Z</time>
      </trkpt>
      <trkpt lat="45.92846" lon="4.73051">
        <ele>217</ele>
        <time>2018-09-30T08:19:16Z</time>
      </trkpt>
      <trkpt lat="45.92847" lon="4.73057">
        <ele>216</ele>
        <time>2018-09-30T08:19:17Z</time>
      </trkpt>
      <trkpt lat="45.92848" lon="4.73063">
        <ele>215</ele>
        <time>2018-09-30T08:19:18Z</time>
      </trkpt>
      <trkpt lat="45.9285" lon="4.7307">
        <ele>216</ele>
        <time>2018-09-30T08:19:19Z</time>
      </trkpt>
      <trkpt lat="45.9285" lon="4.73077">
        <ele>216</ele>
        <time>2018-09-30T08:19:20Z</time>
      </trkpt>
      <trkpt lat="45.92851" lon="4.73084">
        <ele>216</ele>
        <time>2018-09-30T08:19:21Z</time>
      </trkpt>
      <trkpt lat="45.92854" lon="4.73092">
        <ele>218</ele>
        <time>2018-09-30T08:19:23Z</time>
      </trkpt>
      <trkpt lat="45.92857" lon="4.73096">
        <ele>217</ele>
        <time>2018-09-30T08:19:24Z</time>
      </trkpt>
      <trkpt lat="45.92861" lon="4.73097">
        <ele>216</ele>
        <time>2018-09-30T08:19:27Z</time>
      </trkpt>
      <trkpt lat="45.92865" lon="4.73093">
        <ele>216</ele>
        <time>2018-09-30T08:19:28Z</time>
      </trkpt>
      <trkpt lat="45.92873" lon="4.73086">
        <ele>215</ele>
        <time>2018-09-30T08:19:32Z</time>
      </trkpt>
      <trkpt lat="45.92875" lon="4.73084">
        <ele>219</ele>
        <time>2018-09-30T08:19:33Z</time>
      </trkpt>
      <trkpt lat="45.92882" lon="4.73077">
        <ele>216</ele>
        <time>2018-09-30T08:19:37Z</time>
      </trkpt>
      <trkpt lat="45.92883" lon="4.73075">
        <ele>215</ele>
        <time>2018-09-30T08:19:38Z</time>
      </trkpt>
      <trkpt lat="45.92889" lon="4.73066">
        <ele>213</ele>
        <time>2018-09-30T08:19:41Z</time>
      </trkpt>
      <trkpt lat="45.92891" lon="4.73063">
        <ele>213</ele>
        <time>2018-09-30T08:19:42Z</time>
      </trkpt>
      <trkpt lat="45.92893" lon="4.73059">
        <ele>214</ele>
        <time>2018-09-30T08:19:43Z</time>
      </trkpt>
      <trkpt lat="45.92899" lon="4.73051">
        <ele>213</ele>
        <time>2018-09-30T08:19:44Z</time>
      </trkpt>
      <trkpt lat="45.92904" lon="4.7305">
        <ele>214</ele>
        <time>2018-09-30T08:19:45Z</time>
      </trkpt>
      <trkpt lat="45.92908" lon="4.73046">
        <ele>214</ele>
        <time>2018-09-30T08:19:46Z</time>
      </trkpt>
      <trkpt lat="45.92914" lon="4.73041">
        <ele>212</ele>
        <time>2018-09-30T08:19:47Z</time>
      </trkpt>
      <trkpt lat="45.92917" lon="4.73037">
        <ele>213</ele>
        <time>2018-09-30T08:19:48Z</time>
      </trkpt>
      <trkpt lat="45.92921" lon="4.73031">
        <ele>213</ele>
        <time>2018-09-30T08:19:49Z</time>
      </trkpt>
      <trkpt lat="45.92925" lon="4.73023">
        <ele>211</ele>
        <time>2018-09-30T08:19:50Z</time>
      </trkpt>
      <trkpt lat="45.9293" lon="4.73016">
        <ele>210</ele>
        <time>2018-09-30T08:19:51Z</time>
      </trkpt>
      <trkpt lat="45.92933" lon="4.7301">
        <ele>208</ele>
        <time>2018-09-30T08:19:52Z</time>
      </trkpt>
      <trkpt lat="45.92937" lon="4.73004">
        <ele>208</ele>
        <time>2018-09-30T08:19:53Z</time>
      </trkpt>
      <trkpt lat="45.92941" lon="4.72999">
        <ele>208</ele>
        <time>2018-09-30T08:19:54Z</time>
      </trkpt>
      <trkpt lat="45.92947" lon="4.72994">
        <ele>218</ele>
        <time>2018-09-30T08:19:55Z</time>
      </trkpt>
      <trkpt lat="45.92951" lon="4.72989">
        <ele>216</ele>
        <time>2018-09-30T08:19:56Z</time>
      </trkpt>
      <trkpt lat="45.92956" lon="4.72984">
        <ele>214</ele>
        <time>2018-09-30T08:19:57Z</time>
      </trkpt>
      <trkpt lat="45.92961" lon="4.72979">
        <ele>213</ele>
        <time>2018-09-30T08:19:58Z</time>
      </trkpt>
      <trkpt lat="45.92965" lon="4.72973">
        <ele>228</ele>
        <time>2018-09-30T08:19:59Z</time>
      </trkpt>
      <trkpt lat="45.9297" lon="4.72968">
        <ele>224</ele>
        <time>2018-09-30T08:20:00Z</time>
      </trkpt>
      <trkpt lat="45.92973" lon="4.72962">
        <ele>220</ele>
        <time>2018-09-30T08:20:01Z</time>
      </trkpt>
      <trkpt lat="45.92978" lon="4.72958">
        <ele>219</ele>
        <time>2018-09-30T08:20:02Z</time>
      </trkpt>
      <trkpt lat="45.92981" lon="4.72953">
        <ele>217</ele>
        <time>2018-09-30T08:20:03Z</time>
      </trkpt>
      <trkpt lat="45.92984" lon="4.72948">
        <ele>217</ele>
        <time>2018-09-30T08:20:04Z</time>
      </trkpt>
      <trkpt lat="45.92989" lon="4.7294">
        <ele>214</ele>
        <time>2018-09-30T08:20:05Z</time>
      </trkpt>
      <trkpt lat="45.92993" lon="4.72937">
        <ele>213</ele>
        <time>2018-09-30T08:20:06Z</time>
      </trkpt>
      <trkpt lat="45.92996" lon="4.72932">
        <ele>212</ele>
        <time>2018-09-30T08:20:07Z</time>
      </trkpt>
      <trkpt lat="45.93001" lon="4.72927">
        <ele>216</ele>
        <time>2018-09-30T08:20:08Z</time>
      </trkpt>
      <trkpt lat="45.93005" lon="4.72922">
        <ele>214</ele>
        <time>2018-09-30T08:20:09Z</time>
      </trkpt>
      <trkpt lat="45.93008" lon="4.72915">
        <ele>212</ele>
        <time>2018-09-30T08:20:10Z</time>
      </trkpt>
      <trkpt lat="45.93013" lon="4.7291">
        <ele>216</ele>
        <time>2018-09-30T08:20:11Z</time>
      </trkpt>
      <trkpt lat="45.93017" lon="4.72906">
        <ele>215</ele>
        <time>2018-09-30T08:20:12Z</time>
      </trkpt>
      <trkpt lat="45.93022" lon="4.72901">
        <ele>214</ele>
        <time>2018-09-30T08:20:13Z</time>
      </trkpt>
      <trkpt lat="45.93027" lon="4.72896">
        <ele>218</ele>
        <time>2018-09-30T08:20:14Z</time>
      </trkpt>
      <trkpt lat="45.93032" lon="4.7289">
        <ele>217</ele>
        <time>2018-09-30T08:20:15Z</time>
      </trkpt>
      <trkpt lat="45.93036" lon="4.72888">
        <ele>216</ele>
        <time>2018-09-30T08:20:16Z</time>
      </trkpt>
      <trkpt lat="45.93039" lon="4.72883">
        <ele>214</ele>
        <time>2018-09-30T08:20:17Z</time>
      </trkpt>
      <trkpt lat="45.93044" lon="4.72879">
        <ele>214</ele>
        <time>2018-09-30T08:20:18Z</time>
      </trkpt>
      <trkpt lat="45.93048" lon="4.72872">
        <ele>213</ele>
        <time>2018-09-30T08:20:19Z</time>
      </trkpt>
      <trkpt lat="45.93051" lon="4.72865">
        <ele>212</ele>
        <time>2018-09-30T08:20:20Z</time>
      </trkpt>
      <trkpt lat="45.93056" lon="4.72861">
        <ele>211</ele>
        <time>2018-09-30T08:20:21Z</time>
      </trkpt>
      <trkpt lat="45.9306" lon="4.72856">
        <ele>213</ele>
        <time>2018-09-30T08:20:22Z</time>
      </trkpt>
      <trkpt lat="45.93065" lon="4.72851">
        <ele>222</ele>
        <time>2018-09-30T08:20:23Z</time>
      </trkpt>
      <trkpt lat="45.93069" lon="4.72846">
        <ele>220</ele>
        <time>2018-09-30T08:20:24Z</time>
      </trkpt>
      <trkpt lat="45.93072" lon="4.7284">
        <ele>219</ele>
        <time>2018-09-30T08:20:25Z</time>
      </trkpt>
      <trkpt lat="45.93109" lon="4.72805">
        <ele>233</ele>
        <time>2018-09-30T08:20:33Z</time>
      </trkpt>
      <trkpt lat="45.93114" lon="4.72802">
        <ele>230</ele>
        <time>2018-09-30T08:20:34Z</time>
      </trkpt>
      <trkpt lat="45.93118" lon="4.72797">
        <ele>227</ele>
        <time>2018-09-30T08:20:35Z</time>
      </trkpt>
      <trkpt lat="45.93123" lon="4.72791">
        <ele>225</ele>
        <time>2018-09-30T08:20:36Z</time>
      </trkpt>
      <trkpt lat="45.93126" lon="4.72786">
        <ele>222</ele>
        <time>2018-09-30T08:20:37Z</time>
      </trkpt>
      <trkpt lat="45.93131" lon="4.7278">
        <ele>220</ele>
        <time>2018-09-30T08:20:38Z</time>
      </trkpt>
      <trkpt lat="45.93134" lon="4.72776">
        <ele>219</ele>
        <time>2018-09-30T08:20:39Z</time>
      </trkpt>
      <trkpt lat="45.93138" lon="4.72768">
        <ele>217</ele>
        <time>2018-09-30T08:20:40Z</time>
      </trkpt>
      <trkpt lat="45.93142" lon="4.72763">
        <ele>216</ele>
        <time>2018-09-30T08:20:41Z</time>
      </trkpt>
      <trkpt lat="45.93147" lon="4.72758">
        <ele>216</ele>
        <time>2018-09-30T08:20:42Z</time>
      </trkpt>
      <trkpt lat="45.93151" lon="4.72754">
        <ele>217</ele>
        <time>2018-09-30T08:20:43Z</time>
      </trkpt>
      <trkpt lat="45.93156" lon="4.7275">
        <ele>217</ele>
        <time>2018-09-30T08:20:44Z</time>
      </trkpt>
      <trkpt lat="45.9316" lon="4.72743">
        <ele>214</ele>
        <time>2018-09-30T08:20:45Z</time>
      </trkpt>
      <trkpt lat="45.93164" lon="4.72738">
        <ele>215</ele>
        <time>2018-09-30T08:20:46Z</time>
      </trkpt>
      <trkpt lat="45.93168" lon="4.72733">
        <ele>216</ele>
        <time>2018-09-30T08:20:47Z</time>
      </trkpt>
      <trkpt lat="45.93172" lon="4.72727">
        <ele>217</ele>
        <time>2018-09-30T08:20:48Z</time>
      </trkpt>
      <trkpt lat="45.93176" lon="4.72723">
        <ele>217</ele>
        <time>2018-09-30T08:20:49Z</time>
      </trkpt>
      <trkpt lat="45.9318" lon="4.72717">
        <ele>217</ele>
        <time>2018-09-30T08:20:50Z</time>
      </trkpt>
      <trkpt lat="45.93185" lon="4.72711">
        <ele>217</ele>
        <time>2018-09-30T08:20:51Z</time>
      </trkpt>
      <trkpt lat="45.93189" lon="4.72707">
        <ele>217</ele>
        <time>2018-09-30T08:20:52Z</time>
      </trkpt>
      <trkpt lat="45.93193" lon="4.72702">
        <ele>218</ele>
        <time>2018-09-30T08:20:53Z</time>
      </trkpt>
      <trkpt lat="45.93198" lon="4.72695">
        <ele>215</ele>
        <time>2018-09-30T08:20:54Z</time>
      </trkpt>
      <trkpt lat="45.93203" lon="4.72689">
        <ele>215</ele>
        <time>2018-09-30T08:20:55Z</time>
      </trkpt>
      <trkpt lat="45.93207" lon="4.72682">
        <ele>211</ele>
        <time>2018-09-30T08:20:56Z</time>
      </trkpt>
      <trkpt lat="45.93212" lon="4.72676">
        <ele>211</ele>
        <time>2018-09-30T08:20:57Z</time>
      </trkpt>
      <trkpt lat="45.93216" lon="4.72674">
        <ele>213</ele>
        <time>2018-09-30T08:20:58Z</time>
      </trkpt>
      <trkpt lat="45.93221" lon="4.7267">
        <ele>213</ele>
        <time>2018-09-30T08:20:59Z</time>
      </trkpt>
      <trkpt lat="45.93227" lon="4.72663">
        <ele>214</ele>
        <time>2018-09-30T08:21:00Z</time>
      </trkpt>
      <trkpt lat="45.93231" lon="4.72659">
        <ele>214</ele>
        <time>2018-09-30T08:21:01Z</time>
      </trkpt>
      <trkpt lat="45.93236" lon="4.72654">
        <ele>215</ele>
        <time>2018-09-30T08:21:02Z</time>
      </trkpt>
      <trkpt lat="45.9324" lon="4.72648">
        <ele>215</ele>
        <time>2018-09-30T08:21:03Z</time>
      </trkpt>
      <trkpt lat="45.93244" lon="4.72644">
        <ele>216</ele>
        <time>2018-09-30T08:21:04Z</time>
      </trkpt>
      <trkpt lat="45.93247" lon="4.7264">
        <ele>216</ele>
        <time>2018-09-30T08:21:05Z</time>
      </trkpt>
      <trkpt lat="45.93251" lon="4.72636">
        <ele>217</ele>
        <time>2018-09-30T08:21:06Z</time>
      </trkpt>
      <trkpt lat="45.93254" lon="4.7263">
        <ele>216</ele>
        <time>2018-09-30T08:21:07Z</time>
      </trkpt>
      <trkpt lat="45.93258" lon="4.72625">
        <ele>216</ele>
        <time>2018-09-30T08:21:08Z</time>
      </trkpt>
      <trkpt lat="45.93262" lon="4.72621">
        <ele>215</ele>
        <time>2018-09-30T08:21:09Z</time>
      </trkpt>
      <trkpt lat="45.93266" lon="4.72615">
        <ele>215</ele>
        <time>2018-09-30T08:21:10Z</time>
      </trkpt>
      <trkpt lat="45.93271" lon="4.72608">
        <ele>213</ele>
        <time>2018-09-30T08:21:11Z</time>
      </trkpt>
      <trkpt lat="45.93276" lon="4.72603">
        <ele>212</ele>
        <time>2018-09-30T08:21:12Z</time>
      </trkpt>
      <trkpt lat="45.9328" lon="4.72597">
        <ele>211</ele>
        <time>2018-09-30T08:21:13Z</time>
      </trkpt>
      <trkpt lat="45.93285" lon="4.72592">
        <ele>210</ele>
        <time>2018-09-30T08:21:14Z</time>
      </trkpt>
      <trkpt lat="45.9329" lon="4.72587">
        <ele>210</ele>
        <time>2018-09-30T08:21:15Z</time>
      </trkpt>
      <trkpt lat="45.93295" lon="4.72582">
        <ele>210</ele>
        <time>2018-09-30T08:21:16Z</time>
      </trkpt>
      <trkpt lat="45.933" lon="4.72576">
        <ele>210</ele>
        <time>2018-09-30T08:21:17Z</time>
      </trkpt>
      <trkpt lat="45.93307" lon="4.72574">
        <ele>212</ele>
        <time>2018-09-30T08:21:19Z</time>
      </trkpt>
      <trkpt lat="45.93311" lon="4.72567">
        <ele>213</ele>
        <time>2018-09-30T08:21:20Z</time>
      </trkpt>
      <trkpt lat="45.93316" lon="4.7256">
        <ele>215</ele>
        <time>2018-09-30T08:21:21Z</time>
      </trkpt>
      <trkpt lat="45.9332" lon="4.72555">
        <ele>224</ele>
        <time>2018-09-30T08:21:22Z</time>
      </trkpt>
      <trkpt lat="45.93324" lon="4.72548">
        <ele>221</ele>
        <time>2018-09-30T08:21:23Z</time>
      </trkpt>
      <trkpt lat="45.93329" lon="4.72544">
        <ele>220</ele>
        <time>2018-09-30T08:21:24Z</time>
      </trkpt>
      <trkpt lat="45.93333" lon="4.72539">
        <ele>219</ele>
        <time>2018-09-30T08:21:25Z</time>
      </trkpt>
      <trkpt lat="45.93337" lon="4.72534">
        <ele>219</ele>
        <time>2018-09-30T08:21:26Z</time>
      </trkpt>
      <trkpt lat="45.93343" lon="4.72526">
        <ele>215</ele>
        <time>2018-09-30T08:21:27Z</time>
      </trkpt>
      <trkpt lat="45.93347" lon="4.72521">
        <ele>215</ele>
        <time>2018-09-30T08:21:28Z</time>
      </trkpt>
      <trkpt lat="45.93352" lon="4.72515">
        <ele>214</ele>
        <time>2018-09-30T08:21:29Z</time>
      </trkpt>
      <trkpt lat="45.93356" lon="4.7251">
        <ele>214</ele>
        <time>2018-09-30T08:21:30Z</time>
      </trkpt>
      <trkpt lat="45.93361" lon="4.72503">
        <ele>212</ele>
        <time>2018-09-30T08:21:31Z</time>
      </trkpt>
      <trkpt lat="45.93366" lon="4.72498">
        <ele>212</ele>
        <time>2018-09-30T08:21:32Z</time>
      </trkpt>
      <trkpt lat="45.93371" lon="4.72493">
        <ele>212</ele>
        <time>2018-09-30T08:21:33Z</time>
      </trkpt>
      <trkpt lat="45.93373" lon="4.7249">
        <ele>212</ele>
        <time>2018-09-30T08:21:34Z</time>
      </trkpt>
      <trkpt lat="45.93376" lon="4.72484">
        <ele>211</ele>
        <time>2018-09-30T08:21:35Z</time>
      </trkpt>
      <trkpt lat="45.93382" lon="4.72479">
        <ele>208</ele>
        <time>2018-09-30T08:21:36Z</time>
      </trkpt>
      <trkpt lat="45.93387" lon="4.72474">
        <ele>208</ele>
        <time>2018-09-30T08:21:37Z</time>
      </trkpt>
      <trkpt lat="45.93388" lon="4.72468">
        <ele>205</ele>
        <time>2018-09-30T08:21:38Z</time>
      </trkpt>
      <trkpt lat="45.93391" lon="4.72463">
        <ele>206</ele>
        <time>2018-09-30T08:21:39Z</time>
      </trkpt>
      <trkpt lat="45.93395" lon="4.72458">
        <ele>206</ele>
        <time>2018-09-30T08:21:40Z</time>
      </trkpt>
      <trkpt lat="45.93397" lon="4.72448">
        <ele>206</ele>
        <time>2018-09-30T08:21:42Z</time>
      </trkpt>
      <trkpt lat="45.93398" lon="4.72445">
        <ele>206</ele>
        <time>2018-09-30T08:21:43Z</time>
      </trkpt>
      <trkpt lat="45.934" lon="4.72438">
        <ele>206</ele>
        <time>2018-09-30T08:21:45Z</time>
      </trkpt>
      <trkpt lat="45.93405" lon="4.72428">
        <ele>206</ele>
        <time>2018-09-30T08:21:46Z</time>
      </trkpt>
      <trkpt lat="45.93412" lon="4.72419">
        <ele>207</ele>
        <time>2018-09-30T08:21:48Z</time>
      </trkpt>
      <trkpt lat="45.93417" lon="4.72416">
        <ele>207</ele>
        <time>2018-09-30T08:21:49Z</time>
      </trkpt>
      <trkpt lat="45.93421" lon="4.72413">
        <ele>208</ele>
        <time>2018-09-30T08:21:50Z</time>
      </trkpt>
      <trkpt lat="45.93425" lon="4.7241">
        <ele>208</ele>
        <time>2018-09-30T08:21:51Z</time>
      </trkpt>
      <trkpt lat="45.93431" lon="4.72407">
        <ele>208</ele>
        <time>2018-09-30T08:21:52Z</time>
      </trkpt>
      <trkpt lat="45.93435" lon="4.72405">
        <ele>221</ele>
        <time>2018-09-30T08:21:53Z</time>
      </trkpt>
      <trkpt lat="45.9344" lon="4.72402">
        <ele>220</ele>
        <time>2018-09-30T08:21:54Z</time>
      </trkpt>
      <trkpt lat="45.93445" lon="4.72399">
        <ele>218</ele>
        <time>2018-09-30T08:21:55Z</time>
      </trkpt>
      <trkpt lat="45.9345" lon="4.72395">
        <ele>216</ele>
        <time>2018-09-30T08:21:56Z</time>
      </trkpt>
      <trkpt lat="45.93454" lon="4.72391">
        <ele>214</ele>
        <time>2018-09-30T08:21:57Z</time>
      </trkpt>
      <trkpt lat="45.93459" lon="4.72388">
        <ele>214</ele>
        <time>2018-09-30T08:21:58Z</time>
      </trkpt>
      <trkpt lat="45.93464" lon="4.72383">
        <ele>213</ele>
        <time>2018-09-30T08:21:59Z</time>
      </trkpt>
      <trkpt lat="45.93469" lon="4.72377">
        <ele>213</ele>
        <time>2018-09-30T08:22:00Z</time>
      </trkpt>
      <trkpt lat="45.93474" lon="4.72372">
        <ele>210</ele>
        <time>2018-09-30T08:22:01Z</time>
      </trkpt>
      <trkpt lat="45.93478" lon="4.72366">
        <ele>210</ele>
        <time>2018-09-30T08:22:02Z</time>
      </trkpt>
      <trkpt lat="45.93482" lon="4.72361">
        <ele>210</ele>
        <time>2018-09-30T08:22:03Z</time>
      </trkpt>
      <trkpt lat="45.93486" lon="4.72356">
        <ele>210</ele>
        <time>2018-09-30T08:22:04Z</time>
      </trkpt>
      <trkpt lat="45.93489" lon="4.72351">
        <ele>211</ele>
        <time>2018-09-30T08:22:05Z</time>
      </trkpt>
      <trkpt lat="45.93492" lon="4.72345">
        <ele>212</ele>
        <time>2018-09-30T08:22:06Z</time>
      </trkpt>
      <trkpt lat="45.93497" lon="4.7234">
        <ele>211</ele>
        <time>2018-09-30T08:22:07Z</time>
      </trkpt>
      <trkpt lat="45.93502" lon="4.72329">
        <ele>209</ele>
        <time>2018-09-30T08:22:09Z</time>
      </trkpt>
      <trkpt lat="45.93504" lon="4.72324">
        <ele>210</ele>
        <time>2018-09-30T08:22:10Z</time>
      </trkpt>
      <trkpt lat="45.93507" lon="4.7232">
        <ele>211</ele>
        <time>2018-09-30T08:22:11Z</time>
      </trkpt>
      <trkpt lat="45.93511" lon="4.72314">
        <ele>211</ele>
        <time>2018-09-30T08:22:12Z</time>
      </trkpt>
      <trkpt lat="45.93516" lon="4.7231">
        <ele>209</ele>
        <time>2018-09-30T08:22:13Z</time>
      </trkpt>
      <trkpt lat="45.93519" lon="4.72304">
        <ele>207</ele>
        <time>2018-09-30T08:22:14Z</time>
      </trkpt>
      <trkpt lat="45.93523" lon="4.72298">
        <ele>208</ele>
        <time>2018-09-30T08:22:15Z</time>
      </trkpt>
      <trkpt lat="45.93525" lon="4.72292">
        <ele>208</ele>
        <time>2018-09-30T08:22:16Z</time>
      </trkpt>
      <trkpt lat="45.93529" lon="4.72282">
        <ele>210</ele>
        <time>2018-09-30T08:22:18Z</time>
      </trkpt>
      <trkpt lat="45.93532" lon="4.72275">
        <ele>209</ele>
        <time>2018-09-30T08:22:19Z</time>
      </trkpt>
      <trkpt lat="45.93534" lon="4.72269">
        <ele>210</ele>
        <time>2018-09-30T08:22:20Z</time>
      </trkpt>
      <trkpt lat="45.93537" lon="4.72263">
        <ele>208</ele>
        <time>2018-09-30T08:22:21Z</time>
      </trkpt>
      <trkpt lat="45.9354" lon="4.72256">
        <ele>208</ele>
        <time>2018-09-30T08:22:22Z</time>
      </trkpt>
      <trkpt lat="45.93542" lon="4.72249">
        <ele>208</ele>
        <time>2018-09-30T08:22:23Z</time>
      </trkpt>
      <trkpt lat="45.93544" lon="4.72241">
        <ele>207</ele>
        <time>2018-09-30T08:22:24Z</time>
      </trkpt>
      <trkpt lat="45.93547" lon="4.72236">
        <ele>207</ele>
        <time>2018-09-30T08:22:25Z</time>
      </trkpt>
      <trkpt lat="45.9355" lon="4.7223">
        <ele>208</ele>
        <time>2018-09-30T08:22:26Z</time>
      </trkpt>
      <trkpt lat="45.93553" lon="4.72223">
        <ele>208</ele>
        <time>2018-09-30T08:22:27Z</time>
      </trkpt>
      <trkpt lat="45.93558" lon="4.72222">
        <ele>208</ele>
        <time>2018-09-30T08:22:28Z</time>
      </trkpt>
      <trkpt lat="45.93564" lon="4.72223">
        <ele>209</ele>
        <time>2018-09-30T08:22:29Z</time>
      </trkpt>
      <trkpt lat="45.93569" lon="4.72226">
        <ele>208</ele>
        <time>2018-09-30T08:22:30Z</time>
      </trkpt>
      <trkpt lat="45.93574" lon="4.72231">
        <ele>208</ele>
        <time>2018-09-30T08:22:31Z</time>
      </trkpt>
      <trkpt lat="45.93579" lon="4.72233">
        <ele>208</ele>
        <time>2018-09-30T08:22:32Z</time>
      </trkpt>
      <trkpt lat="45.93583" lon="4.72239">
        <ele>207</ele>
        <time>2018-09-30T08:22:33Z</time>
      </trkpt>
      <trkpt lat="45.93588" lon="4.72245">
        <ele>208</ele>
        <time>2018-09-30T08:22:34Z</time>
      </trkpt>
      <trkpt lat="45.93592" lon="4.7225">
        <ele>207</ele>
        <time>2018-09-30T08:22:35Z</time>
      </trkpt>
      <trkpt lat="45.93597" lon="4.72256">
        <ele>207</ele>
        <time>2018-09-30T08:22:36Z</time>
      </trkpt>
      <trkpt lat="45.93601" lon="4.72258">
        <ele>207</ele>
        <time>2018-09-30T08:22:37Z</time>
      </trkpt>
      <trkpt lat="45.93606" lon="4.72265">
        <ele>206</ele>
        <time>2018-09-30T08:22:38Z</time>
      </trkpt>
      <trkpt lat="45.93611" lon="4.72268">
        <ele>206</ele>
        <time>2018-09-30T08:22:39Z</time>
      </trkpt>
      <trkpt lat="45.93615" lon="4.72273">
        <ele>208</ele>
        <time>2018-09-30T08:22:41Z</time>
      </trkpt>
      <trkpt lat="45.9362" lon="4.72276">
        <ele>208</ele>
        <time>2018-09-30T08:22:42Z</time>
      </trkpt>
      <trkpt lat="45.93623" lon="4.72281">
        <ele>209</ele>
        <time>2018-09-30T08:22:43Z</time>
      </trkpt>
      <trkpt lat="45.93628" lon="4.72285">
        <ele>211</ele>
        <time>2018-09-30T08:22:44Z</time>
      </trkpt>
      <trkpt lat="45.93635" lon="4.72292">
        <ele>211</ele>
        <time>2018-09-30T08:22:45Z</time>
      </trkpt>
      <trkpt lat="45.93638" lon="4.72293">
        <ele>211</ele>
        <time>2018-09-30T08:22:46Z</time>
      </trkpt>
      <trkpt lat="45.93644" lon="4.72298">
        <ele>212</ele>
        <time>2018-09-30T08:22:47Z</time>
      </trkpt>
      <trkpt lat="45.93648" lon="4.723">
        <ele>213</ele>
        <time>2018-09-30T08:22:48Z</time>
      </trkpt>
      <trkpt lat="45.93654" lon="4.72308">
        <ele>212</ele>
        <time>2018-09-30T08:22:49Z</time>
      </trkpt>
      <trkpt lat="45.93658" lon="4.72315">
        <ele>211</ele>
        <time>2018-09-30T08:22:50Z</time>
      </trkpt>
      <trkpt lat="45.93664" lon="4.72321">
        <ele>210</ele>
        <time>2018-09-30T08:22:51Z</time>
      </trkpt>
      <trkpt lat="45.93668" lon="4.72326">
        <ele>212</ele>
        <time>2018-09-30T08:22:52Z</time>
      </trkpt>
      <trkpt lat="45.93672" lon="4.7233">
        <ele>212</ele>
        <time>2018-09-30T08:22:53Z</time>
      </trkpt>
      <trkpt lat="45.93677" lon="4.72335">
        <ele>210</ele>
        <time>2018-09-30T08:22:54Z</time>
      </trkpt>
      <trkpt lat="45.93681" lon="4.7234">
        <ele>211</ele>
        <time>2018-09-30T08:22:55Z</time>
      </trkpt>
      <trkpt lat="45.93686" lon="4.72345">
        <ele>211</ele>
        <time>2018-09-30T08:22:56Z</time>
      </trkpt>
      <trkpt lat="45.93691" lon="4.7235">
        <ele>212</ele>
        <time>2018-09-30T08:22:57Z</time>
      </trkpt>
      <trkpt lat="45.93699" lon="4.7236">
        <ele>212</ele>
        <time>2018-09-30T08:22:59Z</time>
      </trkpt>
      <trkpt lat="45.93704" lon="4.72363">
        <ele>212</ele>
        <time>2018-09-30T08:23:00Z</time>
      </trkpt>
      <trkpt lat="45.93708" lon="4.72367">
        <ele>213</ele>
        <time>2018-09-30T08:23:01Z</time>
      </trkpt>
      <trkpt lat="45.93711" lon="4.72373">
        <ele>213</ele>
        <time>2018-09-30T08:23:02Z</time>
      </trkpt>
      <trkpt lat="45.93717" lon="4.72376">
        <ele>214</ele>
        <time>2018-09-30T08:23:03Z</time>
      </trkpt>
      <trkpt lat="45.93722" lon="4.7238">
        <ele>215</ele>
        <time>2018-09-30T08:23:04Z</time>
      </trkpt>
      <trkpt lat="45.93726" lon="4.72383">
        <ele>215</ele>
        <time>2018-09-30T08:23:05Z</time>
      </trkpt>
      <trkpt lat="45.93729" lon="4.72386">
        <ele>215</ele>
        <time>2018-09-30T08:23:06Z</time>
      </trkpt>
      <trkpt lat="45.93733" lon="4.72392">
        <ele>216</ele>
        <time>2018-09-30T08:23:07Z</time>
      </trkpt>
      <trkpt lat="45.93737" lon="4.72396">
        <ele>216</ele>
        <time>2018-09-30T08:23:08Z</time>
      </trkpt>
      <trkpt lat="45.93742" lon="4.72399">
        <ele>214</ele>
        <time>2018-09-30T08:23:09Z</time>
      </trkpt>
      <trkpt lat="45.93748" lon="4.72406">
        <ele>214</ele>
        <time>2018-09-30T08:23:11Z</time>
      </trkpt>
      <trkpt lat="45.93753" lon="4.7241">
        <ele>212</ele>
        <time>2018-09-30T08:23:12Z</time>
      </trkpt>
      <trkpt lat="45.93757" lon="4.72413">
        <ele>214</ele>
        <time>2018-09-30T08:23:13Z</time>
      </trkpt>
      <trkpt lat="45.93762" lon="4.72417">
        <ele>214</ele>
        <time>2018-09-30T08:23:14Z</time>
      </trkpt>
      <trkpt lat="45.93767" lon="4.72421">
        <ele>214</ele>
        <time>2018-09-30T08:23:15Z</time>
      </trkpt>
      <trkpt lat="45.93772" lon="4.72425">
        <ele>214</ele>
        <time>2018-09-30T08:23:16Z</time>
      </trkpt>
      <trkpt lat="45.93777" lon="4.7243">
        <ele>214</ele>
        <time>2018-09-30T08:23:17Z</time>
      </trkpt>
      <trkpt lat="45.93783" lon="4.72435">
        <ele>213</ele>
        <time>2018-09-30T08:23:18Z</time>
      </trkpt>
      <trkpt lat="45.93786" lon="4.72439">
        <ele>213</ele>
        <time>2018-09-30T08:23:19Z</time>
      </trkpt>
      <trkpt lat="45.93791" lon="4.72444">
        <ele>213</ele>
        <time>2018-09-30T08:23:20Z</time>
      </trkpt>
      <trkpt lat="45.93796" lon="4.72451">
        <ele>214</ele>
        <time>2018-09-30T08:23:21Z</time>
      </trkpt>
      <trkpt lat="45.93801" lon="4.72454">
        <ele>213</ele>
        <time>2018-09-30T08:23:22Z</time>
      </trkpt>
      <trkpt lat="45.93806" lon="4.72459">
        <ele>213</ele>
        <time>2018-09-30T08:23:23Z</time>
      </trkpt>
      <trkpt lat="45.9381" lon="4.72464">
        <ele>213</ele>
        <time>2018-09-30T08:23:24Z</time>
      </trkpt>
      <trkpt lat="45.93816" lon="4.7247">
        <ele>214</ele>
        <time>2018-09-30T08:23:25Z</time>
      </trkpt>
      <trkpt lat="45.93824" lon="4.72475">
        <ele>214</ele>
        <time>2018-09-30T08:23:26Z</time>
      </trkpt>
      <trkpt lat="45.93827" lon="4.72479">
        <ele>215</ele>
        <time>2018-09-30T08:23:27Z</time>
      </trkpt>
      <trkpt lat="45.9383" lon="4.72484">
        <ele>215</ele>
        <time>2018-09-30T08:23:28Z</time>
      </trkpt>
      <trkpt lat="45.93837" lon="4.72489">
        <ele>215</ele>
        <time>2018-09-30T08:23:30Z</time>
      </trkpt>
      <trkpt lat="45.93841" lon="4.72492">
        <ele>215</ele>
        <time>2018-09-30T08:23:31Z</time>
      </trkpt>
      <trkpt lat="45.93845" lon="4.72495">
        <ele>214</ele>
        <time>2018-09-30T08:23:32Z</time>
      </trkpt>
      <trkpt lat="45.93849" lon="4.72498">
        <ele>215</ele>
        <time>2018-09-30T08:23:33Z</time>
      </trkpt>
      <trkpt lat="45.93855" lon="4.72506">
        <ele>214</ele>
        <time>2018-09-30T08:23:34Z</time>
      </trkpt>
      <trkpt lat="45.9386" lon="4.72506">
        <ele>215</ele>
        <time>2018-09-30T08:23:35Z</time>
      </trkpt>
      <trkpt lat="45.93864" lon="4.72512">
        <ele>215</ele>
        <time>2018-09-30T08:23:36Z</time>
      </trkpt>
      <trkpt lat="45.93871" lon="4.72512">
        <ele>216</ele>
        <time>2018-09-30T08:23:37Z</time>
      </trkpt>
      <trkpt lat="45.93879" lon="4.72514">
        <ele>216</ele>
        <time>2018-09-30T08:23:39Z</time>
      </trkpt>
      <trkpt lat="45.93884" lon="4.72513">
        <ele>218</ele>
        <time>2018-09-30T08:23:40Z</time>
      </trkpt>
      <trkpt lat="45.93888" lon="4.7251">
        <ele>218</ele>
        <time>2018-09-30T08:23:41Z</time>
      </trkpt>
      <trkpt lat="45.93892" lon="4.72502">
        <ele>219</ele>
        <time>2018-09-30T08:23:42Z</time>
      </trkpt>
      <trkpt lat="45.93898" lon="4.72495">
        <ele>219</ele>
        <time>2018-09-30T08:23:44Z</time>
      </trkpt>
      <trkpt lat="45.93902" lon="4.72489">
        <ele>218</ele>
        <time>2018-09-30T08:23:45Z</time>
      </trkpt>
      <trkpt lat="45.93906" lon="4.72485">
        <ele>219</ele>
        <time>2018-09-30T08:23:46Z</time>
      </trkpt>
      <trkpt lat="45.9391" lon="4.72479">
        <ele>218</ele>
        <time>2018-09-30T08:23:47Z</time>
      </trkpt>
      <trkpt lat="45.93917" lon="4.72471">
        <ele>217</ele>
        <time>2018-09-30T08:23:49Z</time>
      </trkpt>
      <trkpt lat="45.93921" lon="4.72466">
        <ele>217</ele>
        <time>2018-09-30T08:23:50Z</time>
      </trkpt>
      <trkpt lat="45.93925" lon="4.72461">
        <ele>216</ele>
        <time>2018-09-30T08:23:51Z</time>
      </trkpt>
      <trkpt lat="45.93932" lon="4.72454">
        <ele>215</ele>
        <time>2018-09-30T08:23:52Z</time>
      </trkpt>
      <trkpt lat="45.93936" lon="4.72448">
        <ele>215</ele>
        <time>2018-09-30T08:23:53Z</time>
      </trkpt>
      <trkpt lat="45.9394" lon="4.72444">
        <ele>214</ele>
        <time>2018-09-30T08:23:54Z</time>
      </trkpt>
      <trkpt lat="45.93945" lon="4.72438">
        <ele>214</ele>
        <time>2018-09-30T08:23:55Z</time>
      </trkpt>
      <trkpt lat="45.93948" lon="4.72429">
        <ele>211</ele>
        <time>2018-09-30T08:23:56Z</time>
      </trkpt>
      <trkpt lat="45.93953" lon="4.72424">
        <ele>210</ele>
        <time>2018-09-30T08:23:57Z</time>
      </trkpt>
      <trkpt lat="45.93958" lon="4.72417">
        <ele>212</ele>
        <time>2018-09-30T08:23:58Z</time>
      </trkpt>
      <trkpt lat="45.93963" lon="4.72411">
        <ele>212</ele>
        <time>2018-09-30T08:23:59Z</time>
      </trkpt>
      <trkpt lat="45.93967" lon="4.72405">
        <ele>210</ele>
        <time>2018-09-30T08:24:00Z</time>
      </trkpt>
      <trkpt lat="45.93971" lon="4.724">
        <ele>210</ele>
        <time>2018-09-30T08:24:01Z</time>
      </trkpt>
      <trkpt lat="45.93977" lon="4.72394">
        <ele>211</ele>
        <time>2018-09-30T08:24:02Z</time>
      </trkpt>
      <trkpt lat="45.93981" lon="4.72389">
        <ele>211</ele>
        <time>2018-09-30T08:24:03Z</time>
      </trkpt>
      <trkpt lat="45.93987" lon="4.72383">
        <ele>211</ele>
        <time>2018-09-30T08:24:04Z</time>
      </trkpt>
      <trkpt lat="45.93991" lon="4.72378">
        <ele>210</ele>
        <time>2018-09-30T08:24:05Z</time>
      </trkpt>
      <trkpt lat="45.93995" lon="4.72373">
        <ele>210</ele>
        <time>2018-09-30T08:24:06Z</time>
      </trkpt>
      <trkpt lat="45.94001" lon="4.72367">
        <ele>209</ele>
        <time>2018-09-30T08:24:07Z</time>
      </trkpt>
      <trkpt lat="45.94006" lon="4.72363">
        <ele>210</ele>
        <time>2018-09-30T08:24:08Z</time>
      </trkpt>
      <trkpt lat="45.94009" lon="4.72359">
        <ele>209</ele>
        <time>2018-09-30T08:24:09Z</time>
      </trkpt>
      <trkpt lat="45.94013" lon="4.72353">
        <ele>207</ele>
        <time>2018-09-30T08:24:10Z</time>
      </trkpt>
      <trkpt lat="45.94017" lon="4.72347">
        <ele>206</ele>
        <time>2018-09-30T08:24:11Z</time>
      </trkpt>
      <trkpt lat="45.9402" lon="4.72343">
        <ele>205</ele>
        <time>2018-09-30T08:24:12Z</time>
      </trkpt>
      <trkpt lat="45.94023" lon="4.72338">
        <ele>206</ele>
        <time>2018-09-30T08:24:13Z</time>
      </trkpt>
      <trkpt lat="45.94028" lon="4.7233">
        <ele>206</ele>
        <time>2018-09-30T08:24:14Z</time>
      </trkpt>
      <trkpt lat="45.94034" lon="4.72327">
        <ele>203</ele>
        <time>2018-09-30T08:24:15Z</time>
      </trkpt>
      <trkpt lat="45.94038" lon="4.72321">
        <ele>203</ele>
        <time>2018-09-30T08:24:16Z</time>
      </trkpt>
      <trkpt lat="45.94042" lon="4.72315">
        <ele>204</ele>
        <time>2018-09-30T08:24:17Z</time>
      </trkpt>
      <trkpt lat="45.94045" lon="4.72311">
        <ele>206</ele>
        <time>2018-09-30T08:24:18Z</time>
      </trkpt>
      <trkpt lat="45.94048" lon="4.72307">
        <ele>207</ele>
        <time>2018-09-30T08:24:19Z</time>
      </trkpt>
      <trkpt lat="45.94052" lon="4.72302">
        <ele>207</ele>
        <time>2018-09-30T08:24:20Z</time>
      </trkpt>
      <trkpt lat="45.94055" lon="4.72297">
        <ele>209</ele>
        <time>2018-09-30T08:24:21Z</time>
      </trkpt>
      <trkpt lat="45.9406" lon="4.72293">
        <ele>210</ele>
        <time>2018-09-30T08:24:22Z</time>
      </trkpt>
      <trkpt lat="45.94065" lon="4.72289">
        <ele>210</ele>
        <time>2018-09-30T08:24:23Z</time>
      </trkpt>
      <trkpt lat="45.9407" lon="4.72285">
        <ele>210</ele>
        <time>2018-09-30T08:24:24Z</time>
      </trkpt>
      <trkpt lat="45.94077" lon="4.72278">
        <ele>214</ele>
        <time>2018-09-30T08:24:26Z</time>
      </trkpt>
      <trkpt lat="45.94081" lon="4.72277">
        <ele>213</ele>
        <time>2018-09-30T08:24:27Z</time>
      </trkpt>
      <trkpt lat="45.94086" lon="4.72277">
        <ele>211</ele>
        <time>2018-09-30T08:24:28Z</time>
      </trkpt>
      <trkpt lat="45.9409" lon="4.72273">
        <ele>211</ele>
        <time>2018-09-30T08:24:29Z</time>
      </trkpt>
      <trkpt lat="45.94095" lon="4.72271">
        <ele>212</ele>
        <time>2018-09-30T08:24:30Z</time>
      </trkpt>
      <trkpt lat="45.941" lon="4.72269">
        <ele>212</ele>
        <time>2018-09-30T08:24:31Z</time>
      </trkpt>
      <trkpt lat="45.94104" lon="4.7227">
        <ele>212</ele>
        <time>2018-09-30T08:24:32Z</time>
      </trkpt>
      <trkpt lat="45.94109" lon="4.72269">
        <ele>212</ele>
        <time>2018-09-30T08:24:33Z</time>
      </trkpt>
      <trkpt lat="45.94118" lon="4.72272">
        <ele>211</ele>
        <time>2018-09-30T08:24:35Z</time>
      </trkpt>
      <trkpt lat="45.94122" lon="4.72273">
        <ele>212</ele>
        <time>2018-09-30T08:24:36Z</time>
      </trkpt>
      <trkpt lat="45.94131" lon="4.72276">
        <ele>210</ele>
        <time>2018-09-30T08:24:38Z</time>
      </trkpt>
      <trkpt lat="45.94135" lon="4.72278">
        <ele>211</ele>
        <time>2018-09-30T08:24:39Z</time>
      </trkpt>
      <trkpt lat="45.9414" lon="4.7228">
        <ele>211</ele>
        <time>2018-09-30T08:24:40Z</time>
      </trkpt>
      <trkpt lat="45.94143" lon="4.72283">
        <ele>210</ele>
        <time>2018-09-30T08:24:41Z</time>
      </trkpt>
      <trkpt lat="45.94148" lon="4.72286">
        <ele>209</ele>
        <time>2018-09-30T08:24:42Z</time>
      </trkpt>
      <trkpt lat="45.94154" lon="4.72286">
        <ele>211</ele>
        <time>2018-09-30T08:24:43Z</time>
      </trkpt>
      <trkpt lat="45.94159" lon="4.72288">
        <ele>211</ele>
        <time>2018-09-30T08:24:44Z</time>
      </trkpt>
      <trkpt lat="45.94164" lon="4.72287">
        <ele>210</ele>
        <time>2018-09-30T08:24:45Z</time>
      </trkpt>
      <trkpt lat="45.94169" lon="4.72287">
        <ele>209</ele>
        <time>2018-09-30T08:24:46Z</time>
      </trkpt>
      <trkpt lat="45.94175" lon="4.72288">
        <ele>211</ele>
        <time>2018-09-30T08:24:47Z</time>
      </trkpt>
      <trkpt lat="45.94179" lon="4.72289">
        <ele>212</ele>
        <time>2018-09-30T08:24:48Z</time>
      </trkpt>
      <trkpt lat="45.94185" lon="4.72288">
        <ele>212</ele>
        <time>2018-09-30T08:24:49Z</time>
      </trkpt>
      <trkpt lat="45.94191" lon="4.72289">
        <ele>212</ele>
        <time>2018-09-30T08:24:50Z</time>
      </trkpt>
      <trkpt lat="45.94196" lon="4.7229">
        <ele>212</ele>
        <time>2018-09-30T08:24:51Z</time>
      </trkpt>
      <trkpt lat="45.94201" lon="4.7229">
        <ele>211</ele>
        <time>2018-09-30T08:24:52Z</time>
      </trkpt>
      <trkpt lat="45.94207" lon="4.7229">
        <ele>211</ele>
        <time>2018-09-30T08:24:53Z</time>
      </trkpt>
      <trkpt lat="45.94212" lon="4.72292">
        <ele>212</ele>
        <time>2018-09-30T08:24:54Z</time>
      </trkpt>
      <trkpt lat="45.94216" lon="4.72291">
        <ele>213</ele>
        <time>2018-09-30T08:24:55Z</time>
      </trkpt>
      <trkpt lat="45.94221" lon="4.72293">
        <ele>214</ele>
        <time>2018-09-30T08:24:56Z</time>
      </trkpt>
      <trkpt lat="45.94227" lon="4.72294">
        <ele>213</ele>
        <time>2018-09-30T08:24:57Z</time>
      </trkpt>
      <trkpt lat="45.94232" lon="4.72291">
        <ele>212</ele>
        <time>2018-09-30T08:24:58Z</time>
      </trkpt>
      <trkpt lat="45.94236" lon="4.7229">
        <ele>212</ele>
        <time>2018-09-30T08:24:59Z</time>
      </trkpt>
      <trkpt lat="45.94244" lon="4.72289">
        <ele>209</ele>
        <time>2018-09-30T08:25:01Z</time>
      </trkpt>
      <trkpt lat="45.94248" lon="4.72287">
        <ele>208</ele>
        <time>2018-09-30T08:25:02Z</time>
      </trkpt>
      <trkpt lat="45.94256" lon="4.72284">
        <ele>209</ele>
        <time>2018-09-30T08:25:04Z</time>
      </trkpt>
      <trkpt lat="45.9426" lon="4.72281">
        <ele>210</ele>
        <time>2018-09-30T08:25:05Z</time>
      </trkpt>
      <trkpt lat="45.94266" lon="4.72278">
        <ele>215</ele>
        <time>2018-09-30T08:25:07Z</time>
      </trkpt>
      <trkpt lat="45.9427" lon="4.72276">
        <ele>216</ele>
        <time>2018-09-30T08:25:08Z</time>
      </trkpt>
      <trkpt lat="45.94277" lon="4.72276">
        <ele>214</ele>
        <time>2018-09-30T08:25:10Z</time>
      </trkpt>
      <trkpt lat="45.94281" lon="4.72278">
        <ele>213</ele>
        <time>2018-09-30T08:25:11Z</time>
      </trkpt>
      <trkpt lat="45.94286" lon="4.72288">
        <ele>213</ele>
        <time>2018-09-30T08:25:13Z</time>
      </trkpt>
      <trkpt lat="45.94289" lon="4.72294">
        <ele>213</ele>
        <time>2018-09-30T08:25:14Z</time>
      </trkpt>
      <trkpt lat="45.94291" lon="4.72299">
        <ele>213</ele>
        <time>2018-09-30T08:25:15Z</time>
      </trkpt>
      <trkpt lat="45.94294" lon="4.72306">
        <ele>212</ele>
        <time>2018-09-30T08:25:16Z</time>
      </trkpt>
      <trkpt lat="45.94297" lon="4.72313">
        <ele>213</ele>
        <time>2018-09-30T08:25:17Z</time>
      </trkpt>
      <trkpt lat="45.94299" lon="4.72319">
        <ele>211</ele>
        <time>2018-09-30T08:25:18Z</time>
      </trkpt>
      <trkpt lat="45.94302" lon="4.72324">
        <ele>210</ele>
        <time>2018-09-30T08:25:19Z</time>
      </trkpt>
      <trkpt lat="45.94304" lon="4.72329">
        <ele>210</ele>
        <time>2018-09-30T08:25:20Z</time>
      </trkpt>
      <trkpt lat="45.94308" lon="4.72341">
        <ele>211</ele>
        <time>2018-09-30T08:25:22Z</time>
      </trkpt>
      <trkpt lat="45.9431" lon="4.72345">
        <ele>211</ele>
        <time>2018-09-30T08:25:23Z</time>
      </trkpt>
      <trkpt lat="45.94312" lon="4.72351">
        <ele>211</ele>
        <time>2018-09-30T08:25:24Z</time>
      </trkpt>
      <trkpt lat="45.94314" lon="4.72356">
        <ele>215</ele>
        <time>2018-09-30T08:25:25Z</time>
      </trkpt>
      <trkpt lat="45.94316" lon="4.72363">
        <ele>214</ele>
        <time>2018-09-30T08:25:26Z</time>
      </trkpt>
      <trkpt lat="45.9432" lon="4.7237">
        <ele>212</ele>
        <time>2018-09-30T08:25:27Z</time>
      </trkpt>
      <trkpt lat="45.94323" lon="4.72376">
        <ele>212</ele>
        <time>2018-09-30T08:25:28Z</time>
      </trkpt>
      <trkpt lat="45.94325" lon="4.72381">
        <ele>213</ele>
        <time>2018-09-30T08:25:29Z</time>
      </trkpt>
      <trkpt lat="45.94328" lon="4.72388">
        <ele>211</ele>
        <time>2018-09-30T08:25:30Z</time>
      </trkpt>
      <trkpt lat="45.9433" lon="4.72393">
        <ele>215</ele>
        <time>2018-09-30T08:25:31Z</time>
      </trkpt>
      <trkpt lat="45.94334" lon="4.72404">
        <ele>213</ele>
        <time>2018-09-30T08:25:33Z</time>
      </trkpt>
      <trkpt lat="45.94336" lon="4.7241">
        <ele>215</ele>
        <time>2018-09-30T08:25:34Z</time>
      </trkpt>
      <trkpt lat="45.94339" lon="4.72416">
        <ele>214</ele>
        <time>2018-09-30T08:25:35Z</time>
      </trkpt>
      <trkpt lat="45.94342" lon="4.72422">
        <ele>214</ele>
        <time>2018-09-30T08:25:36Z</time>
      </trkpt>
      <trkpt lat="45.94346" lon="4.72428">
        <ele>213</ele>
        <time>2018-09-30T08:25:37Z</time>
      </trkpt>
      <trkpt lat="45.94348" lon="4.72434">
        <ele>212</ele>
        <time>2018-09-30T08:25:38Z</time>
      </trkpt>
      <trkpt lat="45.94351" lon="4.72441">
        <ele>213</ele>
        <time>2018-09-30T08:25:39Z</time>
      </trkpt>
      <trkpt lat="45.94354" lon="4.72445">
        <ele>211</ele>
        <time>2018-09-30T08:25:40Z</time>
      </trkpt>
      <trkpt lat="45.94358" lon="4.72457">
        <ele>215</ele>
        <time>2018-09-30T08:25:42Z</time>
      </trkpt>
      <trkpt lat="45.94361" lon="4.72462">
        <ele>214</ele>
        <time>2018-09-30T08:25:43Z</time>
      </trkpt>
      <trkpt lat="45.94365" lon="4.72472">
        <ele>212</ele>
        <time>2018-09-30T08:25:45Z</time>
      </trkpt>
      <trkpt lat="45.94368" lon="4.72477">
        <ele>211</ele>
        <time>2018-09-30T08:25:46Z</time>
      </trkpt>
      <trkpt lat="45.94371" lon="4.72483">
        <ele>211</ele>
        <time>2018-09-30T08:25:47Z</time>
      </trkpt>
      <trkpt lat="45.94372" lon="4.7249">
        <ele>211</ele>
        <time>2018-09-30T08:25:48Z</time>
      </trkpt>
      <trkpt lat="45.94375" lon="4.72497">
        <ele>210</ele>
        <time>2018-09-30T08:25:49Z</time>
      </trkpt>
      <trkpt lat="45.94377" lon="4.72503">
        <ele>210</ele>
        <time>2018-09-30T08:25:50Z</time>
      </trkpt>
      <trkpt lat="45.94379" lon="4.7251">
        <ele>211</ele>
        <time>2018-09-30T08:25:51Z</time>
      </trkpt>
      <trkpt lat="45.94381" lon="4.72516">
        <ele>211</ele>
        <time>2018-09-30T08:25:52Z</time>
      </trkpt>
      <trkpt lat="45.94383" lon="4.72524">
        <ele>211</ele>
        <time>2018-09-30T08:25:53Z</time>
      </trkpt>
      <trkpt lat="45.94385" lon="4.72531">
        <ele>210</ele>
        <time>2018-09-30T08:25:54Z</time>
      </trkpt>
      <trkpt lat="45.94386" lon="4.72537">
        <ele>210</ele>
        <time>2018-09-30T08:25:55Z</time>
      </trkpt>
      <trkpt lat="45.94388" lon="4.72543">
        <ele>215</ele>
        <time>2018-09-30T08:25:56Z</time>
      </trkpt>
      <trkpt lat="45.9439" lon="4.72551">
        <ele>214</ele>
        <time>2018-09-30T08:25:58Z</time>
      </trkpt>
      <trkpt lat="45.94392" lon="4.72559">
        <ele>222</ele>
        <time>2018-09-30T08:25:59Z</time>
      </trkpt>
      <trkpt lat="45.94395" lon="4.72571">
        <ele>217</ele>
        <time>2018-09-30T08:26:01Z</time>
      </trkpt>
      <trkpt lat="45.94397" lon="4.72578">
        <ele>216</ele>
        <time>2018-09-30T08:26:02Z</time>
      </trkpt>
      <trkpt lat="45.94399" lon="4.72584">
        <ele>215</ele>
        <time>2018-09-30T08:26:03Z</time>
      </trkpt>
      <trkpt lat="45.94401" lon="4.7259">
        <ele>215</ele>
        <time>2018-09-30T08:26:04Z</time>
      </trkpt>
      <trkpt lat="45.94402" lon="4.72596">
        <ele>215</ele>
        <time>2018-09-30T08:26:05Z</time>
      </trkpt>
      <trkpt lat="45.94403" lon="4.72604">
        <ele>214</ele>
        <time>2018-09-30T08:26:06Z</time>
      </trkpt>
      <trkpt lat="45.94404" lon="4.7261">
        <ele>214</ele>
        <time>2018-09-30T08:26:07Z</time>
      </trkpt>
      <trkpt lat="45.94405" lon="4.72618">
        <ele>213</ele>
        <time>2018-09-30T08:26:08Z</time>
      </trkpt>
      <trkpt lat="45.94405" lon="4.72624">
        <ele>213</ele>
        <time>2018-09-30T08:26:09Z</time>
      </trkpt>
      <trkpt lat="45.94407" lon="4.72631">
        <ele>212</ele>
        <time>2018-09-30T08:26:10Z</time>
      </trkpt>
      <trkpt lat="45.94408" lon="4.72642">
        <ele>213</ele>
        <time>2018-09-30T08:26:12Z</time>
      </trkpt>
      <trkpt lat="45.94409" lon="4.72652">
        <ele>212</ele>
        <time>2018-09-30T08:26:13Z</time>
      </trkpt>
      <trkpt lat="45.9441" lon="4.7266">
        <ele>213</ele>
        <time>2018-09-30T08:26:14Z</time>
      </trkpt>
      <trkpt lat="45.9441" lon="4.72666">
        <ele>212</ele>
        <time>2018-09-30T08:26:15Z</time>
      </trkpt>
      <trkpt lat="45.94411" lon="4.72674">
        <ele>212</ele>
        <time>2018-09-30T08:26:16Z</time>
      </trkpt>
      <trkpt lat="45.94412" lon="4.72679">
        <ele>212</ele>
        <time>2018-09-30T08:26:17Z</time>
      </trkpt>
      <trkpt lat="45.94414" lon="4.72686">
        <ele>212</ele>
        <time>2018-09-30T08:26:18Z</time>
      </trkpt>
      <trkpt lat="45.94415" lon="4.72693">
        <ele>212</ele>
        <time>2018-09-30T08:26:19Z</time>
      </trkpt>
      <trkpt lat="45.94415" lon="4.72704">
        <ele>214</ele>
        <time>2018-09-30T08:26:21Z</time>
      </trkpt>
      <trkpt lat="45.94416" lon="4.7271">
        <ele>215</ele>
        <time>2018-09-30T08:26:22Z</time>
      </trkpt>
      <trkpt lat="45.94416" lon="4.72716">
        <ele>214</ele>
        <time>2018-09-30T08:26:23Z</time>
      </trkpt>
      <trkpt lat="45.94417" lon="4.72724">
        <ele>214</ele>
        <time>2018-09-30T08:26:24Z</time>
      </trkpt>
      <trkpt lat="45.94418" lon="4.7273">
        <ele>214</ele>
        <time>2018-09-30T08:26:25Z</time>
      </trkpt>
      <trkpt lat="45.94419" lon="4.72736">
        <ele>214</ele>
        <time>2018-09-30T08:26:26Z</time>
      </trkpt>
      <trkpt lat="45.94419" lon="4.72743">
        <ele>214</ele>
        <time>2018-09-30T08:26:27Z</time>
      </trkpt>
      <trkpt lat="45.9442" lon="4.7275">
        <ele>214</ele>
        <time>2018-09-30T08:26:28Z</time>
      </trkpt>
      <trkpt lat="45.94422" lon="4.72757">
        <ele>213</ele>
        <time>2018-09-30T08:26:29Z</time>
      </trkpt>
      <trkpt lat="45.94422" lon="4.72764">
        <ele>213</ele>
        <time>2018-09-30T08:26:30Z</time>
      </trkpt>
      <trkpt lat="45.94423" lon="4.7277">
        <ele>214</ele>
        <time>2018-09-30T08:26:31Z</time>
      </trkpt>
      <trkpt lat="45.94424" lon="4.72776">
        <ele>214</ele>
        <time>2018-09-30T08:26:32Z</time>
      </trkpt>
      <trkpt lat="45.94425" lon="4.72783">
        <ele>214</ele>
        <time>2018-09-30T08:26:33Z</time>
      </trkpt>
      <trkpt lat="45.94426" lon="4.72791">
        <ele>213</ele>
        <time>2018-09-30T08:26:34Z</time>
      </trkpt>
      <trkpt lat="45.94426" lon="4.72797">
        <ele>213</ele>
        <time>2018-09-30T08:26:35Z</time>
      </trkpt>
      <trkpt lat="45.94427" lon="4.72804">
        <ele>214</ele>
        <time>2018-09-30T08:26:36Z</time>
      </trkpt>
      <trkpt lat="45.94427" lon="4.7281">
        <ele>214</ele>
        <time>2018-09-30T08:26:37Z</time>
      </trkpt>
      <trkpt lat="45.94429" lon="4.72818">
        <ele>214</ele>
        <time>2018-09-30T08:26:38Z</time>
      </trkpt>
      <trkpt lat="45.9443" lon="4.72829">
        <ele>214</ele>
        <time>2018-09-30T08:26:40Z</time>
      </trkpt>
      <trkpt lat="45.9443" lon="4.72835">
        <ele>214</ele>
        <time>2018-09-30T08:26:41Z</time>
      </trkpt>
      <trkpt lat="45.94431" lon="4.72847">
        <ele>214</ele>
        <time>2018-09-30T08:26:43Z</time>
      </trkpt>
      <trkpt lat="45.94431" lon="4.7285">
        <ele>214</ele>
        <time>2018-09-30T08:26:44Z</time>
      </trkpt>
      <trkpt lat="45.94432" lon="4.72861">
        <ele>214</ele>
        <time>2018-09-30T08:26:46Z</time>
      </trkpt>
      <trkpt lat="45.94433" lon="4.72864">
        <ele>215</ele>
        <time>2018-09-30T08:26:47Z</time>
      </trkpt>
      <trkpt lat="45.94434" lon="4.72873">
        <ele>215</ele>
        <time>2018-09-30T08:26:48Z</time>
      </trkpt>
      <trkpt lat="45.94435" lon="4.72879">
        <ele>215</ele>
        <time>2018-09-30T08:26:49Z</time>
      </trkpt>
      <trkpt lat="45.94435" lon="4.72885">
        <ele>215</ele>
        <time>2018-09-30T08:26:51Z</time>
      </trkpt>
      <trkpt lat="45.94436" lon="4.72893">
        <ele>215</ele>
        <time>2018-09-30T08:26:52Z</time>
      </trkpt>
      <trkpt lat="45.94438" lon="4.72904">
        <ele>215</ele>
        <time>2018-09-30T08:26:54Z</time>
      </trkpt>
      <trkpt lat="45.94439" lon="4.7291">
        <ele>215</ele>
        <time>2018-09-30T08:26:55Z</time>
      </trkpt>
      <trkpt lat="45.94441" lon="4.72921">
        <ele>215</ele>
        <time>2018-09-30T08:26:57Z</time>
      </trkpt>
      <trkpt lat="45.94442" lon="4.72926">
        <ele>215</ele>
        <time>2018-09-30T08:26:58Z</time>
      </trkpt>
      <trkpt lat="45.94443" lon="4.72933">
        <ele>215</ele>
        <time>2018-09-30T08:26:59Z</time>
      </trkpt>
      <trkpt lat="45.94445" lon="4.72941">
        <ele>215</ele>
        <time>2018-09-30T08:27:00Z</time>
      </trkpt>
      <trkpt lat="45.94445" lon="4.72948">
        <ele>214</ele>
        <time>2018-09-30T08:27:01Z</time>
      </trkpt>
      <trkpt lat="45.94447" lon="4.72956">
        <ele>214</ele>
        <time>2018-09-30T08:27:02Z</time>
      </trkpt>
      <trkpt lat="45.94448" lon="4.72964">
        <ele>214</ele>
        <time>2018-09-30T08:27:03Z</time>
      </trkpt>
      <trkpt lat="45.94448" lon="4.7297">
        <ele>215</ele>
        <time>2018-09-30T08:27:04Z</time>
      </trkpt>
      <trkpt lat="45.9445" lon="4.72979">
        <ele>214</ele>
        <time>2018-09-30T08:27:05Z</time>
      </trkpt>
      <trkpt lat="45.94452" lon="4.72987">
        <ele>215</ele>
        <time>2018-09-30T08:27:06Z</time>
      </trkpt>
      <trkpt lat="45.94452" lon="4.72996">
        <ele>215</ele>
        <time>2018-09-30T08:27:07Z</time>
      </trkpt>
      <trkpt lat="45.94452" lon="4.73006">
        <ele>214</ele>
        <time>2018-09-30T08:27:08Z</time>
      </trkpt>
      <trkpt lat="45.94453" lon="4.73015">
        <ele>214</ele>
        <time>2018-09-30T08:27:09Z</time>
      </trkpt>
      <trkpt lat="45.94456" lon="4.73025">
        <ele>214</ele>
        <time>2018-09-30T08:27:10Z</time>
      </trkpt>
      <trkpt lat="45.94458" lon="4.73037">
        <ele>214</ele>
        <time>2018-09-30T08:27:11Z</time>
      </trkpt>
      <trkpt lat="45.94459" lon="4.73049">
        <ele>213</ele>
        <time>2018-09-30T08:27:12Z</time>
      </trkpt>
      <trkpt lat="45.9446" lon="4.73059">
        <ele>217</ele>
        <time>2018-09-30T08:27:13Z</time>
      </trkpt>
      <trkpt lat="45.94461" lon="4.7307">
        <ele>215</ele>
        <time>2018-09-30T08:27:14Z</time>
      </trkpt>
      <trkpt lat="45.94463" lon="4.73081">
        <ele>214</ele>
        <time>2018-09-30T08:27:15Z</time>
      </trkpt>
      <trkpt lat="45.94465" lon="4.73091">
        <ele>216</ele>
        <time>2018-09-30T08:27:16Z</time>
      </trkpt>
      <trkpt lat="45.94467" lon="4.73102">
        <ele>215</ele>
        <time>2018-09-30T08:27:17Z</time>
      </trkpt>
      <trkpt lat="45.94468" lon="4.73112">
        <ele>214</ele>
        <time>2018-09-30T08:27:18Z</time>
      </trkpt>
      <trkpt lat="45.94469" lon="4.7312">
        <ele>214</ele>
        <time>2018-09-30T08:27:19Z</time>
      </trkpt>
      <trkpt lat="45.94469" lon="4.7313">
        <ele>213</ele>
        <time>2018-09-30T08:27:20Z</time>
      </trkpt>
      <trkpt lat="45.9447" lon="4.73138">
        <ele>214</ele>
        <time>2018-09-30T08:27:21Z</time>
      </trkpt>
      <trkpt lat="45.94471" lon="4.73146">
        <ele>213</ele>
        <time>2018-09-30T08:27:22Z</time>
      </trkpt>
      <trkpt lat="45.94472" lon="4.73153">
        <ele>214</ele>
        <time>2018-09-30T08:27:23Z</time>
      </trkpt>
      <trkpt lat="45.94474" lon="4.73162">
        <ele>216</ele>
        <time>2018-09-30T08:27:24Z</time>
      </trkpt>
      <trkpt lat="45.94475" lon="4.7317">
        <ele>215</ele>
        <time>2018-09-30T08:27:25Z</time>
      </trkpt>
      <trkpt lat="45.94476" lon="4.73179">
        <ele>214</ele>
        <time>2018-09-30T08:27:26Z</time>
      </trkpt>
      <trkpt lat="45.94477" lon="4.73186">
        <ele>214</ele>
        <time>2018-09-30T08:27:27Z</time>
      </trkpt>
      <trkpt lat="45.94477" lon="4.73193">
        <ele>213</ele>
        <time>2018-09-30T08:27:28Z</time>
      </trkpt>
      <trkpt lat="45.94478" lon="4.732">
        <ele>213</ele>
        <time>2018-09-30T08:27:29Z</time>
      </trkpt>
      <trkpt lat="45.94479" lon="4.73206">
        <ele>212</ele>
        <time>2018-09-30T08:27:30Z</time>
      </trkpt>
      <trkpt lat="45.9448" lon="4.73213">
        <ele>212</ele>
        <time>2018-09-30T08:27:31Z</time>
      </trkpt>
      <trkpt lat="45.94481" lon="4.7322">
        <ele>212</ele>
        <time>2018-09-30T08:27:32Z</time>
      </trkpt>
      <trkpt lat="45.94481" lon="4.73227">
        <ele>212</ele>
        <time>2018-09-30T08:27:33Z</time>
      </trkpt>
      <trkpt lat="45.94482" lon="4.73233">
        <ele>212</ele>
        <time>2018-09-30T08:27:34Z</time>
      </trkpt>
      <trkpt lat="45.94483" lon="4.7324">
        <ele>213</ele>
        <time>2018-09-30T08:27:36Z</time>
      </trkpt>
      <trkpt lat="45.94483" lon="4.73249">
        <ele>213</ele>
        <time>2018-09-30T08:27:37Z</time>
      </trkpt>
      <trkpt lat="45.94486" lon="4.73259">
        <ele>215</ele>
        <time>2018-09-30T08:27:39Z</time>
      </trkpt>
      <trkpt lat="45.94486" lon="4.73264">
        <ele>215</ele>
        <time>2018-09-30T08:27:40Z</time>
      </trkpt>
      <trkpt lat="45.94487" lon="4.73271">
        <ele>214</ele>
        <time>2018-09-30T08:27:41Z</time>
      </trkpt>
      <trkpt lat="45.94487" lon="4.73277">
        <ele>214</ele>
        <time>2018-09-30T08:27:42Z</time>
      </trkpt>
      <trkpt lat="45.94487" lon="4.73287">
        <ele>215</ele>
        <time>2018-09-30T08:27:44Z</time>
      </trkpt>
      <trkpt lat="45.94488" lon="4.73293">
        <ele>215</ele>
        <time>2018-09-30T08:27:45Z</time>
      </trkpt>
      <trkpt lat="45.9449" lon="4.73299">
        <ele>216</ele>
        <time>2018-09-30T08:27:46Z</time>
      </trkpt>
      <trkpt lat="45.94491" lon="4.73305">
        <ele>211</ele>
        <time>2018-09-30T08:27:47Z</time>
      </trkpt>
      <trkpt lat="45.94493" lon="4.73317">
        <ele>213</ele>
        <time>2018-09-30T08:27:49Z</time>
      </trkpt>
      <trkpt lat="45.94494" lon="4.73323">
        <ele>212</ele>
        <time>2018-09-30T08:27:50Z</time>
      </trkpt>
      <trkpt lat="45.94495" lon="4.73332">
        <ele>214</ele>
        <time>2018-09-30T08:27:52Z</time>
      </trkpt>
      <trkpt lat="45.94496" lon="4.7334">
        <ele>215</ele>
        <time>2018-09-30T08:27:53Z</time>
      </trkpt>
      <trkpt lat="45.94497" lon="4.73352">
        <ele>213</ele>
        <time>2018-09-30T08:27:55Z</time>
      </trkpt>
      <trkpt lat="45.94497" lon="4.73357">
        <ele>213</ele>
        <time>2018-09-30T08:27:56Z</time>
      </trkpt>
      <trkpt lat="45.94499" lon="4.73367">
        <ele>214</ele>
        <time>2018-09-30T08:27:58Z</time>
      </trkpt>
      <trkpt lat="45.945" lon="4.73372">
        <ele>215</ele>
        <time>2018-09-30T08:27:59Z</time>
      </trkpt>
      <trkpt lat="45.94501" lon="4.73381">
        <ele>215</ele>
        <time>2018-09-30T08:28:02Z</time>
      </trkpt>
      <trkpt lat="45.94501" lon="4.73385">
        <ele>216</ele>
        <time>2018-09-30T08:28:03Z</time>
      </trkpt>
      <trkpt lat="45.94502" lon="4.73397">
        <ele>219</ele>
        <time>2018-09-30T08:28:06Z</time>
      </trkpt>
      <trkpt lat="45.94502" lon="4.73401">
        <ele>219</ele>
        <time>2018-09-30T08:28:07Z</time>
      </trkpt>
      <trkpt lat="45.94502" lon="4.73411">
        <ele>219</ele>
        <time>2018-09-30T08:28:09Z</time>
      </trkpt>
      <trkpt lat="45.94503" lon="4.73416">
        <ele>219</ele>
        <time>2018-09-30T08:28:10Z</time>
      </trkpt>
      <trkpt lat="45.94502" lon="4.73426">
        <ele>220</ele>
        <time>2018-09-30T08:28:12Z</time>
      </trkpt>
      <trkpt lat="45.94502" lon="4.73431">
        <ele>219</ele>
        <time>2018-09-30T08:28:13Z</time>
      </trkpt>
      <trkpt lat="45.94502" lon="4.73445">
        <ele>219</ele>
        <time>2018-09-30T08:28:14Z</time>
      </trkpt>
      <trkpt lat="45.94502" lon="4.73454">
        <ele>221</ele>
        <time>2018-09-30T08:28:17Z</time>
      </trkpt>
      <trkpt lat="45.94502" lon="4.73458">
        <ele>220</ele>
        <time>2018-09-30T08:28:18Z</time>
      </trkpt>
      <trkpt lat="45.94503" lon="4.73467">
        <ele>219</ele>
        <time>2018-09-30T08:28:20Z</time>
      </trkpt>
      <trkpt lat="45.94503" lon="4.73472">
        <ele>219</ele>
        <time>2018-09-30T08:28:21Z</time>
      </trkpt>
      <trkpt lat="45.94504" lon="4.73486">
        <ele>219</ele>
        <time>2018-09-30T08:28:22Z</time>
      </trkpt>
      <trkpt lat="45.94505" lon="4.73496">
        <ele>217</ele>
        <time>2018-09-30T08:28:25Z</time>
      </trkpt>
      <trkpt lat="45.94505" lon="4.73499">
        <ele>217</ele>
        <time>2018-09-30T08:28:26Z</time>
      </trkpt>
      <trkpt lat="45.94506" lon="4.7351">
        <ele>218</ele>
        <time>2018-09-30T08:28:27Z</time>
      </trkpt>
      <trkpt lat="45.94505" lon="4.73513">
        <ele>217</ele>
        <time>2018-09-30T08:28:28Z</time>
      </trkpt>
      <trkpt lat="45.94504" lon="4.73522">
        <ele>218</ele>
        <time>2018-09-30T08:28:31Z</time>
      </trkpt>
      <trkpt lat="45.94503" lon="4.73532">
        <ele>219</ele>
        <time>2018-09-30T08:28:32Z</time>
      </trkpt>
      <trkpt lat="45.94503" lon="4.73542">
        <ele>219</ele>
        <time>2018-09-30T08:28:35Z</time>
      </trkpt>
      <trkpt lat="45.94503" lon="4.73547">
        <ele>219</ele>
        <time>2018-09-30T08:28:36Z</time>
      </trkpt>
      <trkpt lat="45.94504" lon="4.73551">
        <ele>218</ele>
        <time>2018-09-30T08:28:37Z</time>
      </trkpt>
      <trkpt lat="45.94504" lon="4.73564">
        <ele>218</ele>
        <time>2018-09-30T08:28:38Z</time>
      </trkpt>
      <trkpt lat="45.94503" lon="4.73576">
        <ele>219</ele>
        <time>2018-09-30T08:28:40Z</time>
      </trkpt>
      <trkpt lat="45.94503" lon="4.73582">
        <ele>220</ele>
        <time>2018-09-30T08:28:41Z</time>
      </trkpt>
      <trkpt lat="45.94502" lon="4.73589">
        <ele>221</ele>
        <time>2018-09-30T08:28:42Z</time>
      </trkpt>
      <trkpt lat="45.94501" lon="4.73596">
        <ele>221</ele>
        <time>2018-09-30T08:28:43Z</time>
      </trkpt>
      <trkpt lat="45.94501" lon="4.73603">
        <ele>221</ele>
        <time>2018-09-30T08:28:44Z</time>
      </trkpt>
      <trkpt lat="45.945" lon="4.73609">
        <ele>219</ele>
        <time>2018-09-30T08:28:45Z</time>
      </trkpt>
      <trkpt lat="45.94499" lon="4.73621">
        <ele>220</ele>
        <time>2018-09-30T08:28:47Z</time>
      </trkpt>
      <trkpt lat="45.94498" lon="4.73627">
        <ele>220</ele>
        <time>2018-09-30T08:28:48Z</time>
      </trkpt>
      <trkpt lat="45.94497" lon="4.73639">
        <ele>220</ele>
        <time>2018-09-30T08:28:50Z</time>
      </trkpt>
      <trkpt lat="45.94496" lon="4.73645">
        <ele>221</ele>
        <time>2018-09-30T08:28:51Z</time>
      </trkpt>
      <trkpt lat="45.94494" lon="4.73656">
        <ele>219</ele>
        <time>2018-09-30T08:28:53Z</time>
      </trkpt>
      <trkpt lat="45.94493" lon="4.73662">
        <ele>218</ele>
        <time>2018-09-30T08:28:54Z</time>
      </trkpt>
      <trkpt lat="45.94492" lon="4.73674">
        <ele>218</ele>
        <time>2018-09-30T08:28:56Z</time>
      </trkpt>
      <trkpt lat="45.94491" lon="4.73681">
        <ele>218</ele>
        <time>2018-09-30T08:28:57Z</time>
      </trkpt>
      <trkpt lat="45.9449" lon="4.73687">
        <ele>217</ele>
        <time>2018-09-30T08:28:58Z</time>
      </trkpt>
      <trkpt lat="45.9449" lon="4.73694">
        <ele>218</ele>
        <time>2018-09-30T08:28:59Z</time>
      </trkpt>
      <trkpt lat="45.94488" lon="4.73706">
        <ele>218</ele>
        <time>2018-09-30T08:29:01Z</time>
      </trkpt>
      <trkpt lat="45.94487" lon="4.73714">
        <ele>217</ele>
        <time>2018-09-30T08:29:02Z</time>
      </trkpt>
      <trkpt lat="45.94487" lon="4.73725">
        <ele>217</ele>
        <time>2018-09-30T08:29:04Z</time>
      </trkpt>
      <trkpt lat="45.94486" lon="4.7373">
        <ele>218</ele>
        <time>2018-09-30T08:29:05Z</time>
      </trkpt>
      <trkpt lat="45.94484" lon="4.73743">
        <ele>218</ele>
        <time>2018-09-30T08:29:07Z</time>
      </trkpt>
      <trkpt lat="45.94483" lon="4.73748">
        <ele>218</ele>
        <time>2018-09-30T08:29:08Z</time>
      </trkpt>
      <trkpt lat="45.94481" lon="4.7376">
        <ele>217</ele>
        <time>2018-09-30T08:29:10Z</time>
      </trkpt>
      <trkpt lat="45.9448" lon="4.73765">
        <ele>218</ele>
        <time>2018-09-30T08:29:11Z</time>
      </trkpt>
      <trkpt lat="45.94482" lon="4.73773">
        <ele>219</ele>
        <time>2018-09-30T08:29:13Z</time>
      </trkpt>
      <trkpt lat="45.94485" lon="4.73777">
        <ele>219</ele>
        <time>2018-09-30T08:29:14Z</time>
      </trkpt>
      <trkpt lat="45.94492" lon="4.73777">
        <ele>218</ele>
        <time>2018-09-30T08:29:16Z</time>
      </trkpt>
      <trkpt lat="45.94496" lon="4.73779">
        <ele>218</ele>
        <time>2018-09-30T08:29:17Z</time>
      </trkpt>
      <trkpt lat="45.945" lon="4.73782">
        <ele>220</ele>
        <time>2018-09-30T08:29:18Z</time>
      </trkpt>
      <trkpt lat="45.94504" lon="4.73785">
        <ele>220</ele>
        <time>2018-09-30T08:29:19Z</time>
      </trkpt>
      <trkpt lat="45.94512" lon="4.73792">
        <ele>219</ele>
        <time>2018-09-30T08:29:21Z</time>
      </trkpt>
      <trkpt lat="45.94516" lon="4.73796">
        <ele>219</ele>
        <time>2018-09-30T08:29:22Z</time>
      </trkpt>
      <trkpt lat="45.9452" lon="4.73801">
        <ele>219</ele>
        <time>2018-09-30T08:29:23Z</time>
      </trkpt>
      <trkpt lat="45.94523" lon="4.73805">
        <ele>219</ele>
        <time>2018-09-30T08:29:24Z</time>
      </trkpt>
      <trkpt lat="45.9453" lon="4.73814">
        <ele>218</ele>
        <time>2018-09-30T08:29:26Z</time>
      </trkpt>
      <trkpt lat="45.94533" lon="4.73818">
        <ele>217</ele>
        <time>2018-09-30T08:29:27Z</time>
      </trkpt>
      <trkpt lat="45.94539" lon="4.73819">
        <ele>218</ele>
        <time>2018-09-30T08:29:28Z</time>
      </trkpt>
      <trkpt lat="45.94542" lon="4.73823">
        <ele>217</ele>
        <time>2018-09-30T08:29:29Z</time>
      </trkpt>
      <trkpt lat="45.94549" lon="4.73829">
        <ele>218</ele>
        <time>2018-09-30T08:29:31Z</time>
      </trkpt>
      <trkpt lat="45.94551" lon="4.73832">
        <ele>217</ele>
        <time>2018-09-30T08:29:32Z</time>
      </trkpt>
      <trkpt lat="45.94555" lon="4.73836">
        <ele>218</ele>
        <time>2018-09-30T08:29:33Z</time>
      </trkpt>
      <trkpt lat="45.94559" lon="4.7384">
        <ele>218</ele>
        <time>2018-09-30T08:29:34Z</time>
      </trkpt>
      <trkpt lat="45.94563" lon="4.73844">
        <ele>217</ele>
        <time>2018-09-30T08:29:35Z</time>
      </trkpt>
      <trkpt lat="45.94568" lon="4.73847">
        <ele>217</ele>
        <time>2018-09-30T08:29:36Z</time>
      </trkpt>
      <trkpt lat="45.94571" lon="4.73851">
        <ele>218</ele>
        <time>2018-09-30T08:29:37Z</time>
      </trkpt>
      <trkpt lat="45.94575" lon="4.73855">
        <ele>218</ele>
        <time>2018-09-30T08:29:38Z</time>
      </trkpt>
      <trkpt lat="45.94582" lon="4.73863">
        <ele>218</ele>
        <time>2018-09-30T08:29:40Z</time>
      </trkpt>
      <trkpt lat="45.94585" lon="4.73867">
        <ele>217</ele>
        <time>2018-09-30T08:29:41Z</time>
      </trkpt>
      <trkpt lat="45.94592" lon="4.73875">
        <ele>218</ele>
        <time>2018-09-30T08:29:43Z</time>
      </trkpt>
      <trkpt lat="45.94595" lon="4.73879">
        <ele>217</ele>
        <time>2018-09-30T08:29:44Z</time>
      </trkpt>
      <trkpt lat="45.94602" lon="4.73887">
        <ele>218</ele>
        <time>2018-09-30T08:29:46Z</time>
      </trkpt>
      <trkpt lat="45.94605" lon="4.73891">
        <ele>219</ele>
        <time>2018-09-30T08:29:47Z</time>
      </trkpt>
      <trkpt lat="45.94613" lon="4.73897">
        <ele>219</ele>
        <time>2018-09-30T08:29:49Z</time>
      </trkpt>
      <trkpt lat="45.94616" lon="4.739">
        <ele>220</ele>
        <time>2018-09-30T08:29:50Z</time>
      </trkpt>
      <trkpt lat="45.94619" lon="4.73905">
        <ele>220</ele>
        <time>2018-09-30T08:29:51Z</time>
      </trkpt>
      <trkpt lat="45.94623" lon="4.7391">
        <ele>220</ele>
        <time>2018-09-30T08:29:52Z</time>
      </trkpt>
      <trkpt lat="45.94626" lon="4.73914">
        <ele>221</ele>
        <time>2018-09-30T08:29:53Z</time>
      </trkpt>
      <trkpt lat="45.94629" lon="4.73919">
        <ele>222</ele>
        <time>2018-09-30T08:29:54Z</time>
      </trkpt>
      <trkpt lat="45.94636" lon="4.73928">
        <ele>222</ele>
        <time>2018-09-30T08:29:56Z</time>
      </trkpt>
      <trkpt lat="45.94638" lon="4.73931">
        <ele>222</ele>
        <time>2018-09-30T08:29:57Z</time>
      </trkpt>
      <trkpt lat="45.94644" lon="4.73941">
        <ele>221</ele>
        <time>2018-09-30T08:29:59Z</time>
      </trkpt>
      <trkpt lat="45.94647" lon="4.73945">
        <ele>222</ele>
        <time>2018-09-30T08:30:00Z</time>
      </trkpt>
      <trkpt lat="45.94652" lon="4.73952">
        <ele>221</ele>
        <time>2018-09-30T08:30:02Z</time>
      </trkpt>
      <trkpt lat="45.94655" lon="4.73955">
        <ele>222</ele>
        <time>2018-09-30T08:30:03Z</time>
      </trkpt>
      <trkpt lat="45.94662" lon="4.73963">
        <ele>222</ele>
        <time>2018-09-30T08:30:05Z</time>
      </trkpt>
      <trkpt lat="45.94665" lon="4.73967">
        <ele>222</ele>
        <time>2018-09-30T08:30:06Z</time>
      </trkpt>
      <trkpt lat="45.94669" lon="4.73971">
        <ele>223</ele>
        <time>2018-09-30T08:30:07Z</time>
      </trkpt>
      <trkpt lat="45.94673" lon="4.73976">
        <ele>222</ele>
        <time>2018-09-30T08:30:08Z</time>
      </trkpt>
      <trkpt lat="45.94679" lon="4.73984">
        <ele>222</ele>
        <time>2018-09-30T08:30:10Z</time>
      </trkpt>
      <trkpt lat="45.94682" lon="4.73988">
        <ele>222</ele>
        <time>2018-09-30T08:30:11Z</time>
      </trkpt>
      <trkpt lat="45.94688" lon="4.73996">
        <ele>223</ele>
        <time>2018-09-30T08:30:13Z</time>
      </trkpt>
      <trkpt lat="45.94692" lon="4.73999">
        <ele>223</ele>
        <time>2018-09-30T08:30:14Z</time>
      </trkpt>
      <trkpt lat="45.94697" lon="4.74007">
        <ele>224</ele>
        <time>2018-09-30T08:30:16Z</time>
      </trkpt>
      <trkpt lat="45.947" lon="4.74011">
        <ele>223</ele>
        <time>2018-09-30T08:30:17Z</time>
      </trkpt>
      <trkpt lat="45.94705" lon="4.74018">
        <ele>224</ele>
        <time>2018-09-30T08:30:19Z</time>
      </trkpt>
      <trkpt lat="45.94708" lon="4.74022">
        <ele>224</ele>
        <time>2018-09-30T08:30:20Z</time>
      </trkpt>
      <trkpt lat="45.94712" lon="4.74027">
        <ele>224</ele>
        <time>2018-09-30T08:30:21Z</time>
      </trkpt>
      <trkpt lat="45.94715" lon="4.74031">
        <ele>226</ele>
        <time>2018-09-30T08:30:22Z</time>
      </trkpt>
      <trkpt lat="45.94719" lon="4.74036">
        <ele>226</ele>
        <time>2018-09-30T08:30:23Z</time>
      </trkpt>
      <trkpt lat="45.94722" lon="4.7404">
        <ele>226</ele>
        <time>2018-09-30T08:30:24Z</time>
      </trkpt>
      <trkpt lat="45.94728" lon="4.74047">
        <ele>225</ele>
        <time>2018-09-30T08:30:26Z</time>
      </trkpt>
      <trkpt lat="45.94732" lon="4.74051">
        <ele>225</ele>
        <time>2018-09-30T08:30:27Z</time>
      </trkpt>
      <trkpt lat="45.94738" lon="4.74058">
        <ele>224</ele>
        <time>2018-09-30T08:30:29Z</time>
      </trkpt>
      <trkpt lat="45.94741" lon="4.74063">
        <ele>224</ele>
        <time>2018-09-30T08:30:30Z</time>
      </trkpt>
      <trkpt lat="45.94745" lon="4.74068">
        <ele>225</ele>
        <time>2018-09-30T08:30:31Z</time>
      </trkpt>
      <trkpt lat="45.94748" lon="4.74072">
        <ele>225</ele>
        <time>2018-09-30T08:30:32Z</time>
      </trkpt>
      <trkpt lat="45.94751" lon="4.74077">
        <ele>225</ele>
        <time>2018-09-30T08:30:33Z</time>
      </trkpt>
      <trkpt lat="45.94754" lon="4.74083">
        <ele>226</ele>
        <time>2018-09-30T08:30:34Z</time>
      </trkpt>
      <trkpt lat="45.94758" lon="4.74089">
        <ele>226</ele>
        <time>2018-09-30T08:30:35Z</time>
      </trkpt>
      <trkpt lat="45.94761" lon="4.74093">
        <ele>226</ele>
        <time>2018-09-30T08:30:36Z</time>
      </trkpt>
      <trkpt lat="45.94768" lon="4.741">
        <ele>225</ele>
        <time>2018-09-30T08:30:38Z</time>
      </trkpt>
      <trkpt lat="45.94771" lon="4.74104">
        <ele>225</ele>
        <time>2018-09-30T08:30:39Z</time>
      </trkpt>
      <trkpt lat="45.94775" lon="4.74109">
        <ele>225</ele>
        <time>2018-09-30T08:30:40Z</time>
      </trkpt>
      <trkpt lat="45.94779" lon="4.74114">
        <ele>225</ele>
        <time>2018-09-30T08:30:41Z</time>
      </trkpt>
      <trkpt lat="45.94784" lon="4.74123">
        <ele>227</ele>
        <time>2018-09-30T08:30:43Z</time>
      </trkpt>
      <trkpt lat="45.94787" lon="4.74131">
        <ele>227</ele>
        <time>2018-09-30T08:30:44Z</time>
      </trkpt>
      <trkpt lat="45.9479" lon="4.74135">
        <ele>227</ele>
        <time>2018-09-30T08:30:45Z</time>
      </trkpt>
      <trkpt lat="45.94793" lon="4.7414">
        <ele>226</ele>
        <time>2018-09-30T08:30:46Z</time>
      </trkpt>
      <trkpt lat="45.948" lon="4.74149">
        <ele>229</ele>
        <time>2018-09-30T08:30:48Z</time>
      </trkpt>
      <trkpt lat="45.94801" lon="4.74155">
        <ele>229</ele>
        <time>2018-09-30T08:30:49Z</time>
      </trkpt>
      <trkpt lat="45.94804" lon="4.74159">
        <ele>229</ele>
        <time>2018-09-30T08:30:50Z</time>
      </trkpt>
      <trkpt lat="45.94807" lon="4.74165">
        <ele>229</ele>
        <time>2018-09-30T08:30:51Z</time>
      </trkpt>
      <trkpt lat="45.9481" lon="4.7417">
        <ele>229</ele>
        <time>2018-09-30T08:30:52Z</time>
      </trkpt>
      <trkpt lat="45.94812" lon="4.74176">
        <ele>229</ele>
        <time>2018-09-30T08:30:53Z</time>
      </trkpt>
      <trkpt lat="45.94815" lon="4.7418">
        <ele>228</ele>
        <time>2018-09-30T08:30:54Z</time>
      </trkpt>
      <trkpt lat="45.94818" lon="4.74186">
        <ele>227</ele>
        <time>2018-09-30T08:30:55Z</time>
      </trkpt>
      <trkpt lat="45.94821" lon="4.74192">
        <ele>227</ele>
        <time>2018-09-30T08:30:56Z</time>
      </trkpt>
      <trkpt lat="45.94824" lon="4.742">
        <ele>227</ele>
        <time>2018-09-30T08:30:57Z</time>
      </trkpt>
      <trkpt lat="45.94827" lon="4.74206">
        <ele>226</ele>
        <time>2018-09-30T08:30:58Z</time>
      </trkpt>
      <trkpt lat="45.94831" lon="4.74209">
        <ele>226</ele>
        <time>2018-09-30T08:30:59Z</time>
      </trkpt>
      <trkpt lat="45.94834" lon="4.74218">
        <ele>225</ele>
        <time>2018-09-30T08:31:00Z</time>
      </trkpt>
      <trkpt lat="45.94837" lon="4.74224">
        <ele>226</ele>
        <time>2018-09-30T08:31:01Z</time>
      </trkpt>
      <trkpt lat="45.94842" lon="4.74234">
        <ele>227</ele>
        <time>2018-09-30T08:31:03Z</time>
      </trkpt>
      <trkpt lat="45.94844" lon="4.74239">
        <ele>227</ele>
        <time>2018-09-30T08:31:04Z</time>
      </trkpt>
      <trkpt lat="45.94848" lon="4.74247">
        <ele>227</ele>
        <time>2018-09-30T08:31:06Z</time>
      </trkpt>
      <trkpt lat="45.94851" lon="4.74251">
        <ele>228</ele>
        <time>2018-09-30T08:31:07Z</time>
      </trkpt>
      <trkpt lat="45.94854" lon="4.74256">
        <ele>229</ele>
        <time>2018-09-30T08:31:08Z</time>
      </trkpt>
      <trkpt lat="45.94858" lon="4.74262">
        <ele>229</ele>
        <time>2018-09-30T08:31:09Z</time>
      </trkpt>
      <trkpt lat="45.9486" lon="4.74268">
        <ele>229</ele>
        <time>2018-09-30T08:31:10Z</time>
      </trkpt>
      <trkpt lat="45.94863" lon="4.74273">
        <ele>229</ele>
        <time>2018-09-30T08:31:11Z</time>
      </trkpt>
      <trkpt lat="45.94866" lon="4.74278">
        <ele>229</ele>
        <time>2018-09-30T08:31:12Z</time>
      </trkpt>
      <trkpt lat="45.9487" lon="4.74285">
        <ele>228</ele>
        <time>2018-09-30T08:31:13Z</time>
      </trkpt>
      <trkpt lat="45.94873" lon="4.74292">
        <ele>227</ele>
        <time>2018-09-30T08:31:14Z</time>
      </trkpt>
      <trkpt lat="45.94875" lon="4.74297">
        <ele>228</ele>
        <time>2018-09-30T08:31:15Z</time>
      </trkpt>
      <trkpt lat="45.94878" lon="4.74303">
        <ele>228</ele>
        <time>2018-09-30T08:31:16Z</time>
      </trkpt>
      <trkpt lat="45.94881" lon="4.7431">
        <ele>226</ele>
        <time>2018-09-30T08:31:17Z</time>
      </trkpt>
      <trkpt lat="45.94886" lon="4.74319">
        <ele>227</ele>
        <time>2018-09-30T08:31:19Z</time>
      </trkpt>
      <trkpt lat="45.94888" lon="4.74323">
        <ele>226</ele>
        <time>2018-09-30T08:31:20Z</time>
      </trkpt>
      <trkpt lat="45.94893" lon="4.74329">
        <ele>227</ele>
        <time>2018-09-30T08:31:21Z</time>
      </trkpt>
      <trkpt lat="45.94895" lon="4.74333">
        <ele>228</ele>
        <time>2018-09-30T08:31:22Z</time>
      </trkpt>
      <trkpt lat="45.949" lon="4.74342">
        <ele>228</ele>
        <time>2018-09-30T08:31:24Z</time>
      </trkpt>
      <trkpt lat="45.94904" lon="4.74347">
        <ele>229</ele>
        <time>2018-09-30T08:31:25Z</time>
      </trkpt>
      <trkpt lat="45.94907" lon="4.74352">
        <ele>228</ele>
        <time>2018-09-30T08:31:26Z</time>
      </trkpt>
      <trkpt lat="45.9491" lon="4.74357">
        <ele>228</ele>
        <time>2018-09-30T08:31:27Z</time>
      </trkpt>
      <trkpt lat="45.94916" lon="4.74366">
        <ele>228</ele>
        <time>2018-09-30T08:31:29Z</time>
      </trkpt>
      <trkpt lat="45.94917" lon="4.74373">
        <ele>228</ele>
        <time>2018-09-30T08:31:30Z</time>
      </trkpt>
      <trkpt lat="45.94921" lon="4.74379">
        <ele>229</ele>
        <time>2018-09-30T08:31:32Z</time>
      </trkpt>
      <trkpt lat="45.94924" lon="4.74383">
        <ele>226</ele>
        <time>2018-09-30T08:31:33Z</time>
      </trkpt>
      <trkpt lat="45.94928" lon="4.74392">
        <ele>228</ele>
        <time>2018-09-30T08:31:35Z</time>
      </trkpt>
      <trkpt lat="45.9493" lon="4.74396">
        <ele>229</ele>
        <time>2018-09-30T08:31:36Z</time>
      </trkpt>
      <trkpt lat="45.94936" lon="4.74406">
        <ele>229</ele>
        <time>2018-09-30T08:31:38Z</time>
      </trkpt>
      <trkpt lat="45.94938" lon="4.7441">
        <ele>230</ele>
        <time>2018-09-30T08:31:39Z</time>
      </trkpt>
      <trkpt lat="45.94941" lon="4.74415">
        <ele>230</ele>
        <time>2018-09-30T08:31:40Z</time>
      </trkpt>
      <trkpt lat="45.94945" lon="4.74423">
        <ele>230</ele>
        <time>2018-09-30T08:31:41Z</time>
      </trkpt>
      <trkpt lat="45.94949" lon="4.74428">
        <ele>229</ele>
        <time>2018-09-30T08:31:42Z</time>
      </trkpt>
      <trkpt lat="45.94952" lon="4.74434">
        <ele>229</ele>
        <time>2018-09-30T08:31:43Z</time>
      </trkpt>
      <trkpt lat="45.94955" lon="4.74439">
        <ele>228</ele>
        <time>2018-09-30T08:31:44Z</time>
      </trkpt>
      <trkpt lat="45.94957" lon="4.74444">
        <ele>228</ele>
        <time>2018-09-30T08:31:45Z</time>
      </trkpt>
      <trkpt lat="45.94962" lon="4.74454">
        <ele>224</ele>
        <time>2018-09-30T08:31:47Z</time>
      </trkpt>
      <trkpt lat="45.94964" lon="4.74459">
        <ele>225</ele>
        <time>2018-09-30T08:31:48Z</time>
      </trkpt>
      <trkpt lat="45.94969" lon="4.74469">
        <ele>227</ele>
        <time>2018-09-30T08:31:50Z</time>
      </trkpt>
      <trkpt lat="45.94972" lon="4.74473">
        <ele>228</ele>
        <time>2018-09-30T08:31:51Z</time>
      </trkpt>
      <trkpt lat="45.94977" lon="4.74483">
        <ele>228</ele>
        <time>2018-09-30T08:31:53Z</time>
      </trkpt>
      <trkpt lat="45.94979" lon="4.74491">
        <ele>229</ele>
        <time>2018-09-30T08:31:54Z</time>
      </trkpt>
      <trkpt lat="45.94983" lon="4.74501">
        <ele>230</ele>
        <time>2018-09-30T08:31:56Z</time>
      </trkpt>
      <trkpt lat="45.94986" lon="4.74507">
        <ele>230</ele>
        <time>2018-09-30T08:31:57Z</time>
      </trkpt>
      <trkpt lat="45.9499" lon="4.74517">
        <ele>231</ele>
        <time>2018-09-30T08:31:59Z</time>
      </trkpt>
      <trkpt lat="45.94994" lon="4.74522">
        <ele>231</ele>
        <time>2018-09-30T08:32:00Z</time>
      </trkpt>
      <trkpt lat="45.94999" lon="4.74533">
        <ele>231</ele>
        <time>2018-09-30T08:32:02Z</time>
      </trkpt>
      <trkpt lat="45.95001" lon="4.74538">
        <ele>231</ele>
        <time>2018-09-30T08:32:03Z</time>
      </trkpt>
      <trkpt lat="45.95004" lon="4.74543">
        <ele>231</ele>
        <time>2018-09-30T08:32:04Z</time>
      </trkpt>
      <trkpt lat="45.95007" lon="4.74549">
        <ele>231</ele>
        <time>2018-09-30T08:32:05Z</time>
      </trkpt>
      <trkpt lat="45.95014" lon="4.74557">
        <ele>225</ele>
        <time>2018-09-30T08:32:07Z</time>
      </trkpt>
      <trkpt lat="45.95017" lon="4.74562">
        <ele>226</ele>
        <time>2018-09-30T08:32:08Z</time>
      </trkpt>
      <trkpt lat="45.9502" lon="4.74569">
        <ele>227</ele>
        <time>2018-09-30T08:32:09Z</time>
      </trkpt>
      <trkpt lat="45.95023" lon="4.74574">
        <ele>228</ele>
        <time>2018-09-30T08:32:10Z</time>
      </trkpt>
      <trkpt lat="45.95027" lon="4.74583">
        <ele>224</ele>
        <time>2018-09-30T08:32:12Z</time>
      </trkpt>
      <trkpt lat="45.95029" lon="4.74589">
        <ele>225</ele>
        <time>2018-09-30T08:32:13Z</time>
      </trkpt>
      <trkpt lat="45.95034" lon="4.74598">
        <ele>223</ele>
        <time>2018-09-30T08:32:15Z</time>
      </trkpt>
      <trkpt lat="45.95036" lon="4.74603">
        <ele>225</ele>
        <time>2018-09-30T08:32:16Z</time>
      </trkpt>
      <trkpt lat="45.95038" lon="4.74608">
        <ele>225</ele>
        <time>2018-09-30T08:32:17Z</time>
      </trkpt>
      <trkpt lat="45.95041" lon="4.74614">
        <ele>225</ele>
        <time>2018-09-30T08:32:18Z</time>
      </trkpt>
      <trkpt lat="45.95045" lon="4.74618">
        <ele>224</ele>
        <time>2018-09-30T08:32:19Z</time>
      </trkpt>
      <trkpt lat="45.95048" lon="4.74624">
        <ele>224</ele>
        <time>2018-09-30T08:32:20Z</time>
      </trkpt>
      <trkpt lat="45.95051" lon="4.7463">
        <ele>224</ele>
        <time>2018-09-30T08:32:21Z</time>
      </trkpt>
      <trkpt lat="45.95054" lon="4.74636">
        <ele>224</ele>
        <time>2018-09-30T08:32:22Z</time>
      </trkpt>
      <trkpt lat="45.95058" lon="4.74643">
        <ele>224</ele>
        <time>2018-09-30T08:32:23Z</time>
      </trkpt>
      <trkpt lat="45.95061" lon="4.74648">
        <ele>225</ele>
        <time>2018-09-30T08:32:24Z</time>
      </trkpt>
      <trkpt lat="45.95065" lon="4.74653">
        <ele>225</ele>
        <time>2018-09-30T08:32:25Z</time>
      </trkpt>
      <trkpt lat="45.95068" lon="4.7466">
        <ele>225</ele>
        <time>2018-09-30T08:32:26Z</time>
      </trkpt>
      <trkpt lat="45.95071" lon="4.74665">
        <ele>222</ele>
        <time>2018-09-30T08:32:27Z</time>
      </trkpt>
      <trkpt lat="45.95074" lon="4.74671">
        <ele>222</ele>
        <time>2018-09-30T08:32:28Z</time>
      </trkpt>
      <trkpt lat="45.95078" lon="4.74678">
        <ele>222</ele>
        <time>2018-09-30T08:32:29Z</time>
      </trkpt>
      <trkpt lat="45.9508" lon="4.74684">
        <ele>224</ele>
        <time>2018-09-30T08:32:30Z</time>
      </trkpt>
      <trkpt lat="45.95085" lon="4.74694">
        <ele>227</ele>
        <time>2018-09-30T08:32:32Z</time>
      </trkpt>
      <trkpt lat="45.95088" lon="4.74699">
        <ele>226</ele>
        <time>2018-09-30T08:32:33Z</time>
      </trkpt>
      <trkpt lat="45.95091" lon="4.74705">
        <ele>227</ele>
        <time>2018-09-30T08:32:34Z</time>
      </trkpt>
      <trkpt lat="45.95094" lon="4.7471">
        <ele>228</ele>
        <time>2018-09-30T08:32:35Z</time>
      </trkpt>
      <trkpt lat="45.95097" lon="4.74716">
        <ele>228</ele>
        <time>2018-09-30T08:32:36Z</time>
      </trkpt>
      <trkpt lat="45.951" lon="4.74722">
        <ele>227</ele>
        <time>2018-09-30T08:32:37Z</time>
      </trkpt>
      <trkpt lat="45.95103" lon="4.7473">
        <ele>226</ele>
        <time>2018-09-30T08:32:38Z</time>
      </trkpt>
      <trkpt lat="45.95106" lon="4.74736">
        <ele>226</ele>
        <time>2018-09-30T08:32:39Z</time>
      </trkpt>
      <trkpt lat="45.9511" lon="4.74742">
        <ele>227</ele>
        <time>2018-09-30T08:32:40Z</time>
      </trkpt>
      <trkpt lat="45.95113" lon="4.74747">
        <ele>227</ele>
        <time>2018-09-30T08:32:41Z</time>
      </trkpt>
      <trkpt lat="45.95117" lon="4.74751">
        <ele>228</ele>
        <time>2018-09-30T08:32:42Z</time>
      </trkpt>
      <trkpt lat="45.95121" lon="4.74757">
        <ele>229</ele>
        <time>2018-09-30T08:32:43Z</time>
      </trkpt>
      <trkpt lat="45.95124" lon="4.74763">
        <ele>228</ele>
        <time>2018-09-30T08:32:44Z</time>
      </trkpt>
      <trkpt lat="45.95128" lon="4.74769">
        <ele>227</ele>
        <time>2018-09-30T08:32:45Z</time>
      </trkpt>
      <trkpt lat="45.95132" lon="4.74774">
        <ele>226</ele>
        <time>2018-09-30T08:32:46Z</time>
      </trkpt>
      <trkpt lat="45.95136" lon="4.74779">
        <ele>227</ele>
        <time>2018-09-30T08:32:47Z</time>
      </trkpt>
      <trkpt lat="45.95139" lon="4.74785">
        <ele>226</ele>
        <time>2018-09-30T08:32:48Z</time>
      </trkpt>
      <trkpt lat="45.95143" lon="4.74789">
        <ele>227</ele>
        <time>2018-09-30T08:32:49Z</time>
      </trkpt>
      <trkpt lat="45.95146" lon="4.74794">
        <ele>227</ele>
        <time>2018-09-30T08:32:50Z</time>
      </trkpt>
      <trkpt lat="45.95149" lon="4.74799">
        <ele>227</ele>
        <time>2018-09-30T08:32:51Z</time>
      </trkpt>
      <trkpt lat="45.95155" lon="4.74809">
        <ele>227</ele>
        <time>2018-09-30T08:32:53Z</time>
      </trkpt>
      <trkpt lat="45.95158" lon="4.74813">
        <ele>228</ele>
        <time>2018-09-30T08:32:54Z</time>
      </trkpt>
      <trkpt lat="45.95162" lon="4.74818">
        <ele>228</ele>
        <time>2018-09-30T08:32:55Z</time>
      </trkpt>
      <trkpt lat="45.95164" lon="4.74824">
        <ele>228</ele>
        <time>2018-09-30T08:32:56Z</time>
      </trkpt>
      <trkpt lat="45.95168" lon="4.7483">
        <ele>223</ele>
        <time>2018-09-30T08:32:57Z</time>
      </trkpt>
      <trkpt lat="45.95172" lon="4.74835">
        <ele>225</ele>
        <time>2018-09-30T08:32:58Z</time>
      </trkpt>
      <trkpt lat="45.95176" lon="4.74841">
        <ele>223</ele>
        <time>2018-09-30T08:32:59Z</time>
      </trkpt>
      <trkpt lat="45.95179" lon="4.74847">
        <ele>222</ele>
        <time>2018-09-30T08:33:00Z</time>
      </trkpt>
      <trkpt lat="45.95183" lon="4.74853">
        <ele>223</ele>
        <time>2018-09-30T08:33:01Z</time>
      </trkpt>
      <trkpt lat="45.95187" lon="4.74858">
        <ele>224</ele>
        <time>2018-09-30T08:33:02Z</time>
      </trkpt>
      <trkpt lat="45.9519" lon="4.74863">
        <ele>225</ele>
        <time>2018-09-30T08:33:03Z</time>
      </trkpt>
      <trkpt lat="45.95193" lon="4.7487">
        <ele>222</ele>
        <time>2018-09-30T08:33:04Z</time>
      </trkpt>
      <trkpt lat="45.95196" lon="4.74876">
        <ele>223</ele>
        <time>2018-09-30T08:33:05Z</time>
      </trkpt>
      <trkpt lat="45.95199" lon="4.74881">
        <ele>224</ele>
        <time>2018-09-30T08:33:06Z</time>
      </trkpt>
      <trkpt lat="45.95204" lon="4.7489">
        <ele>225</ele>
        <time>2018-09-30T08:33:08Z</time>
      </trkpt>
      <trkpt lat="45.95207" lon="4.74894">
        <ele>226</ele>
        <time>2018-09-30T08:33:09Z</time>
      </trkpt>
      <trkpt lat="45.95213" lon="4.74904">
        <ele>225</ele>
        <time>2018-09-30T08:33:11Z</time>
      </trkpt>
      <trkpt lat="45.95215" lon="4.74909">
        <ele>222</ele>
        <time>2018-09-30T08:33:12Z</time>
      </trkpt>
      <trkpt lat="45.95218" lon="4.74914">
        <ele>221</ele>
        <time>2018-09-30T08:33:13Z</time>
      </trkpt>
      <trkpt lat="45.95222" lon="4.74919">
        <ele>223</ele>
        <time>2018-09-30T08:33:14Z</time>
      </trkpt>
      <trkpt lat="45.95227" lon="4.74925">
        <ele>224</ele>
        <time>2018-09-30T08:33:15Z</time>
      </trkpt>
      <trkpt lat="45.9523" lon="4.74932">
        <ele>226</ele>
        <time>2018-09-30T08:33:16Z</time>
      </trkpt>
      <trkpt lat="45.95235" lon="4.7494">
        <ele>226</ele>
        <time>2018-09-30T08:33:17Z</time>
      </trkpt>
      <trkpt lat="45.95238" lon="4.74946">
        <ele>227</ele>
        <time>2018-09-30T08:33:18Z</time>
      </trkpt>
      <trkpt lat="45.95244" lon="4.7495">
        <ele>227</ele>
        <time>2018-09-30T08:33:19Z</time>
      </trkpt>
      <trkpt lat="45.95248" lon="4.74956">
        <ele>227</ele>
        <time>2018-09-30T08:33:20Z</time>
      </trkpt>
      <trkpt lat="45.95253" lon="4.7496">
        <ele>227</ele>
        <time>2018-09-30T08:33:21Z</time>
      </trkpt>
      <trkpt lat="45.95257" lon="4.74966">
        <ele>227</ele>
        <time>2018-09-30T08:33:22Z</time>
      </trkpt>
      <trkpt lat="45.95261" lon="4.7497">
        <ele>222</ele>
        <time>2018-09-30T08:33:23Z</time>
      </trkpt>
      <trkpt lat="45.95265" lon="4.74976">
        <ele>223</ele>
        <time>2018-09-30T08:33:24Z</time>
      </trkpt>
      <trkpt lat="45.95268" lon="4.74983">
        <ele>226</ele>
        <time>2018-09-30T08:33:25Z</time>
      </trkpt>
      <trkpt lat="45.95271" lon="4.74988">
        <ele>227</ele>
        <time>2018-09-30T08:33:26Z</time>
      </trkpt>
      <trkpt lat="45.95277" lon="4.74997">
        <ele>228</ele>
        <time>2018-09-30T08:33:28Z</time>
      </trkpt>
      <trkpt lat="45.9528" lon="4.75003">
        <ele>228</ele>
        <time>2018-09-30T08:33:29Z</time>
      </trkpt>
      <trkpt lat="45.95285" lon="4.75008">
        <ele>228</ele>
        <time>2018-09-30T08:33:30Z</time>
      </trkpt>
      <trkpt lat="45.95288" lon="4.75014">
        <ele>228</ele>
        <time>2018-09-30T08:33:31Z</time>
      </trkpt>
      <trkpt lat="45.95292" lon="4.7502">
        <ele>228</ele>
        <time>2018-09-30T08:33:32Z</time>
      </trkpt>
      <trkpt lat="45.95295" lon="4.75026">
        <ele>229</ele>
        <time>2018-09-30T08:33:33Z</time>
      </trkpt>
      <trkpt lat="45.95299" lon="4.75032">
        <ele>228</ele>
        <time>2018-09-30T08:33:34Z</time>
      </trkpt>
      <trkpt lat="45.95303" lon="4.75037">
        <ele>228</ele>
        <time>2018-09-30T08:33:35Z</time>
      </trkpt>
      <trkpt lat="45.95305" lon="4.75044">
        <ele>228</ele>
        <time>2018-09-30T08:33:36Z</time>
      </trkpt>
      <trkpt lat="45.95309" lon="4.75049">
        <ele>228</ele>
        <time>2018-09-30T08:33:37Z</time>
      </trkpt>
      <trkpt lat="45.95313" lon="4.75057">
        <ele>228</ele>
        <time>2018-09-30T08:33:38Z</time>
      </trkpt>
      <trkpt lat="45.95317" lon="4.75063">
        <ele>228</ele>
        <time>2018-09-30T08:33:39Z</time>
      </trkpt>
      <trkpt lat="45.95321" lon="4.75069">
        <ele>229</ele>
        <time>2018-09-30T08:33:40Z</time>
      </trkpt>
      <trkpt lat="45.95326" lon="4.75075">
        <ele>229</ele>
        <time>2018-09-30T08:33:41Z</time>
      </trkpt>
      <trkpt lat="45.9533" lon="4.75082">
        <ele>228</ele>
        <time>2018-09-30T08:33:42Z</time>
      </trkpt>
      <trkpt lat="45.95334" lon="4.75088">
        <ele>228</ele>
        <time>2018-09-30T08:33:43Z</time>
      </trkpt>
      <trkpt lat="45.95337" lon="4.75094">
        <ele>227</ele>
        <time>2018-09-30T08:33:44Z</time>
      </trkpt>
      <trkpt lat="45.95341" lon="4.751">
        <ele>227</ele>
        <time>2018-09-30T08:33:45Z</time>
      </trkpt>
      <trkpt lat="45.95345" lon="4.75105">
        <ele>228</ele>
        <time>2018-09-30T08:33:46Z</time>
      </trkpt>
      <trkpt lat="45.95348" lon="4.75111">
        <ele>228</ele>
        <time>2018-09-30T08:33:47Z</time>
      </trkpt>
      <trkpt lat="45.95352" lon="4.75116">
        <ele>228</ele>
        <time>2018-09-30T08:33:48Z</time>
      </trkpt>
      <trkpt lat="45.95355" lon="4.75122">
        <ele>229</ele>
        <time>2018-09-30T08:33:49Z</time>
      </trkpt>
      <trkpt lat="45.95359" lon="4.75129">
        <ele>228</ele>
        <time>2018-09-30T08:33:50Z</time>
      </trkpt>
      <trkpt lat="45.95362" lon="4.75135">
        <ele>228</ele>
        <time>2018-09-30T08:33:51Z</time>
      </trkpt>
      <trkpt lat="45.95366" lon="4.7514">
        <ele>229</ele>
        <time>2018-09-30T08:33:52Z</time>
      </trkpt>
      <trkpt lat="45.9537" lon="4.75147">
        <ele>229</ele>
        <time>2018-09-30T08:33:53Z</time>
      </trkpt>
      <trkpt lat="45.95375" lon="4.75154">
        <ele>229</ele>
        <time>2018-09-30T08:33:54Z</time>
      </trkpt>
      <trkpt lat="45.95379" lon="4.75161">
        <ele>229</ele>
        <time>2018-09-30T08:33:55Z</time>
      </trkpt>
      <trkpt lat="45.95384" lon="4.75164">
        <ele>229</ele>
        <time>2018-09-30T08:33:56Z</time>
      </trkpt>
      <trkpt lat="45.95387" lon="4.75171">
        <ele>229</ele>
        <time>2018-09-30T08:33:57Z</time>
      </trkpt>
      <trkpt lat="45.95391" lon="4.75177">
        <ele>228</ele>
        <time>2018-09-30T08:33:58Z</time>
      </trkpt>
      <trkpt lat="45.95394" lon="4.75183">
        <ele>228</ele>
        <time>2018-09-30T08:33:59Z</time>
      </trkpt>
      <trkpt lat="45.95397" lon="4.7519">
        <ele>227</ele>
        <time>2018-09-30T08:34:00Z</time>
      </trkpt>
      <trkpt lat="45.95401" lon="4.75196">
        <ele>227</ele>
        <time>2018-09-30T08:34:01Z</time>
      </trkpt>
      <trkpt lat="45.95405" lon="4.75201">
        <ele>227</ele>
        <time>2018-09-30T08:34:02Z</time>
      </trkpt>
      <trkpt lat="45.95408" lon="4.75208">
        <ele>227</ele>
        <time>2018-09-30T08:34:03Z</time>
      </trkpt>
      <trkpt lat="45.95411" lon="4.75215">
        <ele>228</ele>
        <time>2018-09-30T08:34:04Z</time>
      </trkpt>
      <trkpt lat="45.95415" lon="4.75222">
        <ele>228</ele>
        <time>2018-09-30T08:34:05Z</time>
      </trkpt>
      <trkpt lat="45.95417" lon="4.75229">
        <ele>228</ele>
        <time>2018-09-30T08:34:06Z</time>
      </trkpt>
      <trkpt lat="45.95421" lon="4.75236">
        <ele>228</ele>
        <time>2018-09-30T08:34:07Z</time>
      </trkpt>
      <trkpt lat="45.95425" lon="4.75243">
        <ele>228</ele>
        <time>2018-09-30T08:34:08Z</time>
      </trkpt>
      <trkpt lat="45.95427" lon="4.75251">
        <ele>228</ele>
        <time>2018-09-30T08:34:09Z</time>
      </trkpt>
      <trkpt lat="45.95431" lon="4.75258">
        <ele>227</ele>
        <time>2018-09-30T08:34:10Z</time>
      </trkpt>
      <trkpt lat="45.95434" lon="4.75264">
        <ele>223</ele>
        <time>2018-09-30T08:34:11Z</time>
      </trkpt>
      <trkpt lat="45.95437" lon="4.7527">
        <ele>223</ele>
        <time>2018-09-30T08:34:12Z</time>
      </trkpt>
      <trkpt lat="45.95441" lon="4.75276">
        <ele>224</ele>
        <time>2018-09-30T08:34:13Z</time>
      </trkpt>
      <trkpt lat="45.95444" lon="4.75281">
        <ele>224</ele>
        <time>2018-09-30T08:34:14Z</time>
      </trkpt>
      <trkpt lat="45.95447" lon="4.75287">
        <ele>225</ele>
        <time>2018-09-30T08:34:15Z</time>
      </trkpt>
      <trkpt lat="45.95451" lon="4.75293">
        <ele>225</ele>
        <time>2018-09-30T08:34:16Z</time>
      </trkpt>
      <trkpt lat="45.95453" lon="4.753">
        <ele>225</ele>
        <time>2018-09-30T08:34:17Z</time>
      </trkpt>
      <trkpt lat="45.95457" lon="4.75306">
        <ele>224</ele>
        <time>2018-09-30T08:34:18Z</time>
      </trkpt>
      <trkpt lat="45.9546" lon="4.75312">
        <ele>223</ele>
        <time>2018-09-30T08:34:19Z</time>
      </trkpt>
      <trkpt lat="45.95463" lon="4.75319">
        <ele>222</ele>
        <time>2018-09-30T08:34:20Z</time>
      </trkpt>
      <trkpt lat="45.95466" lon="4.75326">
        <ele>223</ele>
        <time>2018-09-30T08:34:21Z</time>
      </trkpt>
      <trkpt lat="45.9547" lon="4.75333">
        <ele>223</ele>
        <time>2018-09-30T08:34:22Z</time>
      </trkpt>
      <trkpt lat="45.95474" lon="4.75338">
        <ele>223</ele>
        <time>2018-09-30T08:34:23Z</time>
      </trkpt>
      <trkpt lat="45.95477" lon="4.75344">
        <ele>223</ele>
        <time>2018-09-30T08:34:24Z</time>
      </trkpt>
      <trkpt lat="45.95482" lon="4.7535">
        <ele>222</ele>
        <time>2018-09-30T08:34:25Z</time>
      </trkpt>
      <trkpt lat="45.95484" lon="4.75356">
        <ele>223</ele>
        <time>2018-09-30T08:34:26Z</time>
      </trkpt>
      <trkpt lat="45.95488" lon="4.75363">
        <ele>223</ele>
        <time>2018-09-30T08:34:27Z</time>
      </trkpt>
      <trkpt lat="45.95491" lon="4.75369">
        <ele>223</ele>
        <time>2018-09-30T08:34:28Z</time>
      </trkpt>
      <trkpt lat="45.95495" lon="4.75378">
        <ele>222</ele>
        <time>2018-09-30T08:34:29Z</time>
      </trkpt>
      <trkpt lat="45.95498" lon="4.75385">
        <ele>222</ele>
        <time>2018-09-30T08:34:30Z</time>
      </trkpt>
      <trkpt lat="45.955" lon="4.75392">
        <ele>224</ele>
        <time>2018-09-30T08:34:31Z</time>
      </trkpt>
      <trkpt lat="45.95502" lon="4.75402">
        <ele>224</ele>
        <time>2018-09-30T08:34:32Z</time>
      </trkpt>
      <trkpt lat="45.95503" lon="4.75412">
        <ele>224</ele>
        <time>2018-09-30T08:34:33Z</time>
      </trkpt>
      <trkpt lat="45.95505" lon="4.75419">
        <ele>222</ele>
        <time>2018-09-30T08:34:34Z</time>
      </trkpt>
      <trkpt lat="45.95507" lon="4.75428">
        <ele>221</ele>
        <time>2018-09-30T08:34:35Z</time>
      </trkpt>
      <trkpt lat="45.95509" lon="4.75437">
        <ele>222</ele>
        <time>2018-09-30T08:34:36Z</time>
      </trkpt>
      <trkpt lat="45.9551" lon="4.75447">
        <ele>222</ele>
        <time>2018-09-30T08:34:37Z</time>
      </trkpt>
      <trkpt lat="45.9551" lon="4.75457">
        <ele>229</ele>
        <time>2018-09-30T08:34:38Z</time>
      </trkpt>
      <trkpt lat="45.9551" lon="4.75466">
        <ele>227</ele>
        <time>2018-09-30T08:34:39Z</time>
      </trkpt>
      <trkpt lat="45.95509" lon="4.75474">
        <ele>227</ele>
        <time>2018-09-30T08:34:40Z</time>
      </trkpt>
      <trkpt lat="45.95512" lon="4.75484">
        <ele>226</ele>
        <time>2018-09-30T08:34:41Z</time>
      </trkpt>
      <trkpt lat="45.95515" lon="4.75493">
        <ele>226</ele>
        <time>2018-09-30T08:34:42Z</time>
      </trkpt>
      <trkpt lat="45.95519" lon="4.75499">
        <ele>226</ele>
        <time>2018-09-30T08:34:43Z</time>
      </trkpt>
      <trkpt lat="45.95523" lon="4.75503">
        <ele>227</ele>
        <time>2018-09-30T08:34:44Z</time>
      </trkpt>
      <trkpt lat="45.95528" lon="4.75506">
        <ele>226</ele>
        <time>2018-09-30T08:34:45Z</time>
      </trkpt>
      <trkpt lat="45.95532" lon="4.75509">
        <ele>220</ele>
        <time>2018-09-30T08:34:46Z</time>
      </trkpt>
      <trkpt lat="45.95536" lon="4.75512">
        <ele>222</ele>
        <time>2018-09-30T08:34:47Z</time>
      </trkpt>
      <trkpt lat="45.9554" lon="4.75517">
        <ele>223</ele>
        <time>2018-09-30T08:34:48Z</time>
      </trkpt>
      <trkpt lat="45.95543" lon="4.75521">
        <ele>223</ele>
        <time>2018-09-30T08:34:49Z</time>
      </trkpt>
      <trkpt lat="45.95548" lon="4.75526">
        <ele>223</ele>
        <time>2018-09-30T08:34:50Z</time>
      </trkpt>
      <trkpt lat="45.95552" lon="4.7553">
        <ele>224</ele>
        <time>2018-09-30T08:34:51Z</time>
      </trkpt>
      <trkpt lat="45.95557" lon="4.75535">
        <ele>224</ele>
        <time>2018-09-30T08:34:52Z</time>
      </trkpt>
      <trkpt lat="45.95563" lon="4.7554">
        <ele>223</ele>
        <time>2018-09-30T08:34:53Z</time>
      </trkpt>
      <trkpt lat="45.95567" lon="4.75544">
        <ele>224</ele>
        <time>2018-09-30T08:34:54Z</time>
      </trkpt>
      <trkpt lat="45.95571" lon="4.75548">
        <ele>223</ele>
        <time>2018-09-30T08:34:55Z</time>
      </trkpt>
      <trkpt lat="45.95575" lon="4.75552">
        <ele>223</ele>
        <time>2018-09-30T08:34:56Z</time>
      </trkpt>
      <trkpt lat="45.95579" lon="4.75557">
        <ele>220</ele>
        <time>2018-09-30T08:34:57Z</time>
      </trkpt>
      <trkpt lat="45.95581" lon="4.75563">
        <ele>218</ele>
        <time>2018-09-30T08:34:58Z</time>
      </trkpt>
      <trkpt lat="45.95585" lon="4.75568">
        <ele>219</ele>
        <time>2018-09-30T08:34:59Z</time>
      </trkpt>
      <trkpt lat="45.95589" lon="4.75572">
        <ele>222</ele>
        <time>2018-09-30T08:35:00Z</time>
      </trkpt>
      <trkpt lat="45.95592" lon="4.75578">
        <ele>222</ele>
        <time>2018-09-30T08:35:01Z</time>
      </trkpt>
      <trkpt lat="45.95595" lon="4.75583">
        <ele>224</ele>
        <time>2018-09-30T08:35:02Z</time>
      </trkpt>
      <trkpt lat="45.95598" lon="4.75587">
        <ele>224</ele>
        <time>2018-09-30T08:35:03Z</time>
      </trkpt>
      <trkpt lat="45.95601" lon="4.75593">
        <ele>224</ele>
        <time>2018-09-30T08:35:04Z</time>
      </trkpt>
      <trkpt lat="45.95604" lon="4.756">
        <ele>224</ele>
        <time>2018-09-30T08:35:05Z</time>
      </trkpt>
      <trkpt lat="45.95607" lon="4.75608">
        <ele>225</ele>
        <time>2018-09-30T08:35:06Z</time>
      </trkpt>
      <trkpt lat="45.95609" lon="4.75615">
        <ele>225</ele>
        <time>2018-09-30T08:35:07Z</time>
      </trkpt>
      <trkpt lat="45.95612" lon="4.7562">
        <ele>225</ele>
        <time>2018-09-30T08:35:08Z</time>
      </trkpt>
      <trkpt lat="45.95614" lon="4.75627">
        <ele>226</ele>
        <time>2018-09-30T08:35:09Z</time>
      </trkpt>
      <trkpt lat="45.95619" lon="4.75637">
        <ele>224</ele>
        <time>2018-09-30T08:35:11Z</time>
      </trkpt>
      <trkpt lat="45.9562" lon="4.75644">
        <ele>223</ele>
        <time>2018-09-30T08:35:12Z</time>
      </trkpt>
      <trkpt lat="45.95621" lon="4.75655">
        <ele>225</ele>
        <time>2018-09-30T08:35:14Z</time>
      </trkpt>
      <trkpt lat="45.95623" lon="4.75662">
        <ele>225</ele>
        <time>2018-09-30T08:35:15Z</time>
      </trkpt>
      <trkpt lat="45.95624" lon="4.75668">
        <ele>225</ele>
        <time>2018-09-30T08:35:16Z</time>
      </trkpt>
      <trkpt lat="45.95624" lon="4.75676">
        <ele>225</ele>
        <time>2018-09-30T08:35:17Z</time>
      </trkpt>
      <trkpt lat="45.95625" lon="4.75684">
        <ele>225</ele>
        <time>2018-09-30T08:35:18Z</time>
      </trkpt>
      <trkpt lat="45.95627" lon="4.75691">
        <ele>225</ele>
        <time>2018-09-30T08:35:19Z</time>
      </trkpt>
      <trkpt lat="45.95628" lon="4.75698">
        <ele>226</ele>
        <time>2018-09-30T08:35:20Z</time>
      </trkpt>
      <trkpt lat="45.95629" lon="4.75706">
        <ele>226</ele>
        <time>2018-09-30T08:35:21Z</time>
      </trkpt>
      <trkpt lat="45.9563" lon="4.75712">
        <ele>225</ele>
        <time>2018-09-30T08:35:22Z</time>
      </trkpt>
      <trkpt lat="45.95631" lon="4.75719">
        <ele>225</ele>
        <time>2018-09-30T08:35:23Z</time>
      </trkpt>
      <trkpt lat="45.95632" lon="4.75726">
        <ele>225</ele>
        <time>2018-09-30T08:35:24Z</time>
      </trkpt>
      <trkpt lat="45.95633" lon="4.75733">
        <ele>225</ele>
        <time>2018-09-30T08:35:25Z</time>
      </trkpt>
      <trkpt lat="45.95633" lon="4.75741">
        <ele>225</ele>
        <time>2018-09-30T08:35:26Z</time>
      </trkpt>
      <trkpt lat="45.95634" lon="4.75748">
        <ele>225</ele>
        <time>2018-09-30T08:35:27Z</time>
      </trkpt>
      <trkpt lat="45.95636" lon="4.75754">
        <ele>225</ele>
        <time>2018-09-30T08:35:28Z</time>
      </trkpt>
      <trkpt lat="45.95636" lon="4.75762">
        <ele>225</ele>
        <time>2018-09-30T08:35:29Z</time>
      </trkpt>
      <trkpt lat="45.95638" lon="4.7577">
        <ele>237</ele>
        <time>2018-09-30T08:35:30Z</time>
      </trkpt>
      <trkpt lat="45.95639" lon="4.75777">
        <ele>233</ele>
        <time>2018-09-30T08:35:31Z</time>
      </trkpt>
      <trkpt lat="45.9564" lon="4.75785">
        <ele>232</ele>
        <time>2018-09-30T08:35:32Z</time>
      </trkpt>
      <trkpt lat="45.95641" lon="4.75793">
        <ele>231</ele>
        <time>2018-09-30T08:35:33Z</time>
      </trkpt>
      <trkpt lat="45.95643" lon="4.758">
        <ele>230</ele>
        <time>2018-09-30T08:35:34Z</time>
      </trkpt>
      <trkpt lat="45.95645" lon="4.75807">
        <ele>230</ele>
        <time>2018-09-30T08:35:35Z</time>
      </trkpt>
      <trkpt lat="45.95646" lon="4.75814">
        <ele>230</ele>
        <time>2018-09-30T08:35:36Z</time>
      </trkpt>
      <trkpt lat="45.95649" lon="4.75821">
        <ele>230</ele>
        <time>2018-09-30T08:35:37Z</time>
      </trkpt>
      <trkpt lat="45.9565" lon="4.75829">
        <ele>229</ele>
        <time>2018-09-30T08:35:38Z</time>
      </trkpt>
      <trkpt lat="45.95652" lon="4.75837">
        <ele>230</ele>
        <time>2018-09-30T08:35:39Z</time>
      </trkpt>
      <trkpt lat="45.95655" lon="4.75844">
        <ele>230</ele>
        <time>2018-09-30T08:35:40Z</time>
      </trkpt>
      <trkpt lat="45.95658" lon="4.75852">
        <ele>229</ele>
        <time>2018-09-30T08:35:41Z</time>
      </trkpt>
      <trkpt lat="45.9566" lon="4.75859">
        <ele>229</ele>
        <time>2018-09-30T08:35:42Z</time>
      </trkpt>
      <trkpt lat="45.95662" lon="4.75865">
        <ele>230</ele>
        <time>2018-09-30T08:35:43Z</time>
      </trkpt>
      <trkpt lat="45.95664" lon="4.75873">
        <ele>230</ele>
        <time>2018-09-30T08:35:44Z</time>
      </trkpt>
      <trkpt lat="45.95666" lon="4.75879">
        <ele>225</ele>
        <time>2018-09-30T08:35:45Z</time>
      </trkpt>
      <trkpt lat="45.95668" lon="4.75886">
        <ele>226</ele>
        <time>2018-09-30T08:35:46Z</time>
      </trkpt>
      <trkpt lat="45.95672" lon="4.75894">
        <ele>226</ele>
        <time>2018-09-30T08:35:47Z</time>
      </trkpt>
      <trkpt lat="45.95674" lon="4.75901">
        <ele>226</ele>
        <time>2018-09-30T08:35:48Z</time>
      </trkpt>
      <trkpt lat="45.95677" lon="4.75909">
        <ele>226</ele>
        <time>2018-09-30T08:35:49Z</time>
      </trkpt>
      <trkpt lat="45.9568" lon="4.75917">
        <ele>226</ele>
        <time>2018-09-30T08:35:50Z</time>
      </trkpt>
      <trkpt lat="45.95683" lon="4.75926">
        <ele>226</ele>
        <time>2018-09-30T08:35:51Z</time>
      </trkpt>
      <trkpt lat="45.95686" lon="4.75934">
        <ele>226</ele>
        <time>2018-09-30T08:35:52Z</time>
      </trkpt>
      <trkpt lat="45.9569" lon="4.75941">
        <ele>226</ele>
        <time>2018-09-30T08:35:53Z</time>
      </trkpt>
      <trkpt lat="45.95694" lon="4.75947">
        <ele>226</ele>
        <time>2018-09-30T08:35:54Z</time>
      </trkpt>
      <trkpt lat="45.95697" lon="4.75954">
        <ele>227</ele>
        <time>2018-09-30T08:35:55Z</time>
      </trkpt>
      <trkpt lat="45.957" lon="4.7596">
        <ele>227</ele>
        <time>2018-09-30T08:35:56Z</time>
      </trkpt>
      <trkpt lat="45.95703" lon="4.75967">
        <ele>228</ele>
        <time>2018-09-30T08:35:57Z</time>
      </trkpt>
      <trkpt lat="45.95707" lon="4.75975">
        <ele>228</ele>
        <time>2018-09-30T08:35:58Z</time>
      </trkpt>
      <trkpt lat="45.95709" lon="4.75984">
        <ele>228</ele>
        <time>2018-09-30T08:35:59Z</time>
      </trkpt>
      <trkpt lat="45.95713" lon="4.75991">
        <ele>228</ele>
        <time>2018-09-30T08:36:00Z</time>
      </trkpt>
      <trkpt lat="45.95716" lon="4.75998">
        <ele>229</ele>
        <time>2018-09-30T08:36:01Z</time>
      </trkpt>
      <trkpt lat="45.95719" lon="4.76004">
        <ele>229</ele>
        <time>2018-09-30T08:36:02Z</time>
      </trkpt>
      <trkpt lat="45.95723" lon="4.7601">
        <ele>229</ele>
        <time>2018-09-30T08:36:03Z</time>
      </trkpt>
      <trkpt lat="45.95726" lon="4.76015">
        <ele>230</ele>
        <time>2018-09-30T08:36:04Z</time>
      </trkpt>
      <trkpt lat="45.95728" lon="4.76022">
        <ele>231</ele>
        <time>2018-09-30T08:36:05Z</time>
      </trkpt>
      <trkpt lat="45.95731" lon="4.76027">
        <ele>231</ele>
        <time>2018-09-30T08:36:06Z</time>
      </trkpt>
      <trkpt lat="45.95734" lon="4.76032">
        <ele>231</ele>
        <time>2018-09-30T08:36:07Z</time>
      </trkpt>
      <trkpt lat="45.95736" lon="4.76038">
        <ele>231</ele>
        <time>2018-09-30T08:36:08Z</time>
      </trkpt>
      <trkpt lat="45.95738" lon="4.76044">
        <ele>231</ele>
        <time>2018-09-30T08:36:09Z</time>
      </trkpt>
      <trkpt lat="45.95741" lon="4.7605">
        <ele>231</ele>
        <time>2018-09-30T08:36:10Z</time>
      </trkpt>
      <trkpt lat="45.95744" lon="4.76056">
        <ele>231</ele>
        <time>2018-09-30T08:36:11Z</time>
      </trkpt>
      <trkpt lat="45.95747" lon="4.76063">
        <ele>231</ele>
        <time>2018-09-30T08:36:12Z</time>
      </trkpt>
      <trkpt lat="45.95749" lon="4.76069">
        <ele>232</ele>
        <time>2018-09-30T08:36:13Z</time>
      </trkpt>
      <trkpt lat="45.95751" lon="4.76076">
        <ele>232</ele>
        <time>2018-09-30T08:36:14Z</time>
      </trkpt>
      <trkpt lat="45.95753" lon="4.76083">
        <ele>232</ele>
        <time>2018-09-30T08:36:15Z</time>
      </trkpt>
      <trkpt lat="45.95755" lon="4.7609">
        <ele>232</ele>
        <time>2018-09-30T08:36:16Z</time>
      </trkpt>
      <trkpt lat="45.95757" lon="4.76098">
        <ele>232</ele>
        <time>2018-09-30T08:36:17Z</time>
      </trkpt>
      <trkpt lat="45.95759" lon="4.76105">
        <ele>227</ele>
        <time>2018-09-30T08:36:18Z</time>
      </trkpt>
      <trkpt lat="45.9576" lon="4.76111">
        <ele>227</ele>
        <time>2018-09-30T08:36:19Z</time>
      </trkpt>
      <trkpt lat="45.95761" lon="4.76117">
        <ele>229</ele>
        <time>2018-09-30T08:36:20Z</time>
      </trkpt>
      <trkpt lat="45.95762" lon="4.76124">
        <ele>230</ele>
        <time>2018-09-30T08:36:21Z</time>
      </trkpt>
      <trkpt lat="45.95763" lon="4.76131">
        <ele>230</ele>
        <time>2018-09-30T08:36:22Z</time>
      </trkpt>
      <trkpt lat="45.95763" lon="4.76138">
        <ele>231</ele>
        <time>2018-09-30T08:36:23Z</time>
      </trkpt>
      <trkpt lat="45.95763" lon="4.76144">
        <ele>231</ele>
        <time>2018-09-30T08:36:24Z</time>
      </trkpt>
      <trkpt lat="45.95764" lon="4.76151">
        <ele>232</ele>
        <time>2018-09-30T08:36:25Z</time>
      </trkpt>
      <trkpt lat="45.95764" lon="4.76159">
        <ele>231</ele>
        <time>2018-09-30T08:36:26Z</time>
      </trkpt>
      <trkpt lat="45.95764" lon="4.76166">
        <ele>232</ele>
        <time>2018-09-30T08:36:27Z</time>
      </trkpt>
      <trkpt lat="45.95765" lon="4.76172">
        <ele>232</ele>
        <time>2018-09-30T08:36:28Z</time>
      </trkpt>
      <trkpt lat="45.95765" lon="4.76179">
        <ele>232</ele>
        <time>2018-09-30T08:36:29Z</time>
      </trkpt>
      <trkpt lat="45.95765" lon="4.76187">
        <ele>232</ele>
        <time>2018-09-30T08:36:30Z</time>
      </trkpt>
      <trkpt lat="45.95765" lon="4.76194">
        <ele>232</ele>
        <time>2018-09-30T08:36:31Z</time>
      </trkpt>
      <trkpt lat="45.95765" lon="4.76203">
        <ele>234</ele>
        <time>2018-09-30T08:36:33Z</time>
      </trkpt>
      <trkpt lat="45.95766" lon="4.7621">
        <ele>234</ele>
        <time>2018-09-30T08:36:34Z</time>
      </trkpt>
      <trkpt lat="45.95767" lon="4.76218">
        <ele>234</ele>
        <time>2018-09-30T08:36:35Z</time>
      </trkpt>
      <trkpt lat="45.95767" lon="4.76224">
        <ele>234</ele>
        <time>2018-09-30T08:36:36Z</time>
      </trkpt>
      <trkpt lat="45.95769" lon="4.76236">
        <ele>233</ele>
        <time>2018-09-30T08:36:38Z</time>
      </trkpt>
      <trkpt lat="45.95769" lon="4.76243">
        <ele>233</ele>
        <time>2018-09-30T08:36:39Z</time>
      </trkpt>
      <trkpt lat="45.95768" lon="4.7625">
        <ele>233</ele>
        <time>2018-09-30T08:36:40Z</time>
      </trkpt>
      <trkpt lat="45.95769" lon="4.76257">
        <ele>233</ele>
        <time>2018-09-30T08:36:41Z</time>
      </trkpt>
      <trkpt lat="45.95769" lon="4.76264">
        <ele>233</ele>
        <time>2018-09-30T08:36:42Z</time>
      </trkpt>
      <trkpt lat="45.95769" lon="4.7627">
        <ele>233</ele>
        <time>2018-09-30T08:36:43Z</time>
      </trkpt>
      <trkpt lat="45.9577" lon="4.76277">
        <ele>233</ele>
        <time>2018-09-30T08:36:44Z</time>
      </trkpt>
      <trkpt lat="45.9577" lon="4.76285">
        <ele>233</ele>
        <time>2018-09-30T08:36:45Z</time>
      </trkpt>
      <trkpt lat="45.9577" lon="4.76297">
        <ele>232</ele>
        <time>2018-09-30T08:36:47Z</time>
      </trkpt>
      <trkpt lat="45.95771" lon="4.76304">
        <ele>240</ele>
        <time>2018-09-30T08:36:48Z</time>
      </trkpt>
      <trkpt lat="45.95772" lon="4.76312">
        <ele>237</ele>
        <time>2018-09-30T08:36:49Z</time>
      </trkpt>
      <trkpt lat="45.95772" lon="4.76321">
        <ele>235</ele>
        <time>2018-09-30T08:36:50Z</time>
      </trkpt>
      <trkpt lat="45.95772" lon="4.76328">
        <ele>234</ele>
        <time>2018-09-30T08:36:51Z</time>
      </trkpt>
      <trkpt lat="45.95772" lon="4.76336">
        <ele>234</ele>
        <time>2018-09-30T08:36:52Z</time>
      </trkpt>
      <trkpt lat="45.95773" lon="4.76343">
        <ele>233</ele>
        <time>2018-09-30T08:36:53Z</time>
      </trkpt>
      <trkpt lat="45.95773" lon="4.76351">
        <ele>233</ele>
        <time>2018-09-30T08:36:54Z</time>
      </trkpt>
      <trkpt lat="45.95774" lon="4.76357">
        <ele>232</ele>
        <time>2018-09-30T08:36:55Z</time>
      </trkpt>
      <trkpt lat="45.95774" lon="4.76365">
        <ele>226</ele>
        <time>2018-09-30T08:36:56Z</time>
      </trkpt>
      <trkpt lat="45.95775" lon="4.76373">
        <ele>227</ele>
        <time>2018-09-30T08:36:57Z</time>
      </trkpt>
      <trkpt lat="45.95775" lon="4.76379">
        <ele>229</ele>
        <time>2018-09-30T08:36:58Z</time>
      </trkpt>
      <trkpt lat="45.95776" lon="4.76387">
        <ele>230</ele>
        <time>2018-09-30T08:36:59Z</time>
      </trkpt>
      <trkpt lat="45.95776" lon="4.76395">
        <ele>231</ele>
        <time>2018-09-30T08:37:00Z</time>
      </trkpt>
      <trkpt lat="45.95777" lon="4.76402">
        <ele>231</ele>
        <time>2018-09-30T08:37:01Z</time>
      </trkpt>
      <trkpt lat="45.95777" lon="4.76409">
        <ele>231</ele>
        <time>2018-09-30T08:37:02Z</time>
      </trkpt>
      <trkpt lat="45.95778" lon="4.76416">
        <ele>232</ele>
        <time>2018-09-30T08:37:03Z</time>
      </trkpt>
      <trkpt lat="45.95779" lon="4.76424">
        <ele>233</ele>
        <time>2018-09-30T08:37:04Z</time>
      </trkpt>
      <trkpt lat="45.9578" lon="4.76431">
        <ele>232</ele>
        <time>2018-09-30T08:37:05Z</time>
      </trkpt>
      <trkpt lat="45.95781" lon="4.76438">
        <ele>232</ele>
        <time>2018-09-30T08:37:06Z</time>
      </trkpt>
      <trkpt lat="45.95781" lon="4.76446">
        <ele>232</ele>
        <time>2018-09-30T08:37:07Z</time>
      </trkpt>
      <trkpt lat="45.95782" lon="4.76454">
        <ele>232</ele>
        <time>2018-09-30T08:37:08Z</time>
      </trkpt>
      <trkpt lat="45.95784" lon="4.76461">
        <ele>232</ele>
        <time>2018-09-30T08:37:09Z</time>
      </trkpt>
      <trkpt lat="45.95785" lon="4.76469">
        <ele>232</ele>
        <time>2018-09-30T08:37:10Z</time>
      </trkpt>
      <trkpt lat="45.95786" lon="4.76476">
        <ele>232</ele>
        <time>2018-09-30T08:37:11Z</time>
      </trkpt>
      <trkpt lat="45.95787" lon="4.76483">
        <ele>232</ele>
        <time>2018-09-30T08:37:12Z</time>
      </trkpt>
      <trkpt lat="45.95788" lon="4.7649">
        <ele>232</ele>
        <time>2018-09-30T08:37:13Z</time>
      </trkpt>
      <trkpt lat="45.95789" lon="4.76497">
        <ele>232</ele>
        <time>2018-09-30T08:37:14Z</time>
      </trkpt>
      <trkpt lat="45.9579" lon="4.76504">
        <ele>232</ele>
        <time>2018-09-30T08:37:15Z</time>
      </trkpt>
      <trkpt lat="45.9579" lon="4.7651">
        <ele>232</ele>
        <time>2018-09-30T08:37:16Z</time>
      </trkpt>
      <trkpt lat="45.95791" lon="4.76518">
        <ele>232</ele>
        <time>2018-09-30T08:37:17Z</time>
      </trkpt>
      <trkpt lat="45.95791" lon="4.76524">
        <ele>233</ele>
        <time>2018-09-30T08:37:18Z</time>
      </trkpt>
      <trkpt lat="45.95793" lon="4.76531">
        <ele>233</ele>
        <time>2018-09-30T08:37:19Z</time>
      </trkpt>
      <trkpt lat="45.95794" lon="4.76537">
        <ele>233</ele>
        <time>2018-09-30T08:37:20Z</time>
      </trkpt>
      <trkpt lat="45.95795" lon="4.76544">
        <ele>233</ele>
        <time>2018-09-30T08:37:21Z</time>
      </trkpt>
      <trkpt lat="45.95796" lon="4.76551">
        <ele>233</ele>
        <time>2018-09-30T08:37:22Z</time>
      </trkpt>
      <trkpt lat="45.95797" lon="4.76557">
        <ele>233</ele>
        <time>2018-09-30T08:37:23Z</time>
      </trkpt>
      <trkpt lat="45.95798" lon="4.76565">
        <ele>233</ele>
        <time>2018-09-30T08:37:24Z</time>
      </trkpt>
      <trkpt lat="45.95799" lon="4.76572">
        <ele>233</ele>
        <time>2018-09-30T08:37:25Z</time>
      </trkpt>
      <trkpt lat="45.958" lon="4.7658">
        <ele>234</ele>
        <time>2018-09-30T08:37:26Z</time>
      </trkpt>
      <trkpt lat="45.95801" lon="4.76587">
        <ele>234</ele>
        <time>2018-09-30T08:37:27Z</time>
      </trkpt>
      <trkpt lat="45.95804" lon="4.76595">
        <ele>233</ele>
        <time>2018-09-30T08:37:28Z</time>
      </trkpt>
      <trkpt lat="45.95804" lon="4.76602">
        <ele>233</ele>
        <time>2018-09-30T08:37:29Z</time>
      </trkpt>
      <trkpt lat="45.95805" lon="4.76609">
        <ele>233</ele>
        <time>2018-09-30T08:37:30Z</time>
      </trkpt>
      <trkpt lat="45.95808" lon="4.76621">
        <ele>233</ele>
        <time>2018-09-30T08:37:32Z</time>
      </trkpt>
      <trkpt lat="45.95808" lon="4.76627">
        <ele>233</ele>
        <time>2018-09-30T08:37:33Z</time>
      </trkpt>
      <trkpt lat="45.9581" lon="4.76634">
        <ele>232</ele>
        <time>2018-09-30T08:37:34Z</time>
      </trkpt>
      <trkpt lat="45.95811" lon="4.76641">
        <ele>233</ele>
        <time>2018-09-30T08:37:35Z</time>
      </trkpt>
      <trkpt lat="45.95812" lon="4.76648">
        <ele>232</ele>
        <time>2018-09-30T08:37:36Z</time>
      </trkpt>
      <trkpt lat="45.95813" lon="4.76657">
        <ele>229</ele>
        <time>2018-09-30T08:37:37Z</time>
      </trkpt>
      <trkpt lat="45.95815" lon="4.76664">
        <ele>230</ele>
        <time>2018-09-30T08:37:38Z</time>
      </trkpt>
      <trkpt lat="45.95816" lon="4.76672">
        <ele>231</ele>
        <time>2018-09-30T08:37:39Z</time>
      </trkpt>
      <trkpt lat="45.95817" lon="4.76678">
        <ele>231</ele>
        <time>2018-09-30T08:37:40Z</time>
      </trkpt>
      <trkpt lat="45.95818" lon="4.76685">
        <ele>231</ele>
        <time>2018-09-30T08:37:41Z</time>
      </trkpt>
      <trkpt lat="45.95819" lon="4.76697">
        <ele>231</ele>
        <time>2018-09-30T08:37:43Z</time>
      </trkpt>
      <trkpt lat="45.95819" lon="4.76703">
        <ele>230</ele>
        <time>2018-09-30T08:37:44Z</time>
      </trkpt>
      <trkpt lat="45.9582" lon="4.76709">
        <ele>230</ele>
        <time>2018-09-30T08:37:45Z</time>
      </trkpt>
      <trkpt lat="45.95821" lon="4.76716">
        <ele>230</ele>
        <time>2018-09-30T08:37:46Z</time>
      </trkpt>
      <trkpt lat="45.95823" lon="4.76726">
        <ele>231</ele>
        <time>2018-09-30T08:37:48Z</time>
      </trkpt>
      <trkpt lat="45.95825" lon="4.76733">
        <ele>231</ele>
        <time>2018-09-30T08:37:49Z</time>
      </trkpt>
      <trkpt lat="45.95826" lon="4.76739">
        <ele>231</ele>
        <time>2018-09-30T08:37:50Z</time>
      </trkpt>
      <trkpt lat="45.95827" lon="4.76746">
        <ele>232</ele>
        <time>2018-09-30T08:37:51Z</time>
      </trkpt>
      <trkpt lat="45.9583" lon="4.76758">
        <ele>232</ele>
        <time>2018-09-30T08:37:53Z</time>
      </trkpt>
      <trkpt lat="45.9583" lon="4.76764">
        <ele>232</ele>
        <time>2018-09-30T08:37:54Z</time>
      </trkpt>
      <trkpt lat="45.95831" lon="4.76771">
        <ele>232</ele>
        <time>2018-09-30T08:37:55Z</time>
      </trkpt>
      <trkpt lat="45.95832" lon="4.76778">
        <ele>231</ele>
        <time>2018-09-30T08:37:56Z</time>
      </trkpt>
      <trkpt lat="45.95834" lon="4.76789">
        <ele>227</ele>
        <time>2018-09-30T08:37:58Z</time>
      </trkpt>
      <trkpt lat="45.95834" lon="4.76797">
        <ele>229</ele>
        <time>2018-09-30T08:37:59Z</time>
      </trkpt>
      <trkpt lat="45.95834" lon="4.76804">
        <ele>229</ele>
        <time>2018-09-30T08:38:00Z</time>
      </trkpt>
      <trkpt lat="45.95834" lon="4.76812">
        <ele>230</ele>
        <time>2018-09-30T08:38:01Z</time>
      </trkpt>
      <trkpt lat="45.95834" lon="4.7682">
        <ele>230</ele>
        <time>2018-09-30T08:38:02Z</time>
      </trkpt>
      <trkpt lat="45.95833" lon="4.76827">
        <ele>230</ele>
        <time>2018-09-30T08:38:03Z</time>
      </trkpt>
      <trkpt lat="45.95831" lon="4.76835">
        <ele>231</ele>
        <time>2018-09-30T08:38:04Z</time>
      </trkpt>
      <trkpt lat="45.95829" lon="4.76842">
        <ele>232</ele>
        <time>2018-09-30T08:38:05Z</time>
      </trkpt>
      <trkpt lat="45.95828" lon="4.76849">
        <ele>227</ele>
        <time>2018-09-30T08:38:06Z</time>
      </trkpt>
      <trkpt lat="45.95827" lon="4.76856">
        <ele>228</ele>
        <time>2018-09-30T08:38:07Z</time>
      </trkpt>
      <trkpt lat="45.95826" lon="4.76863">
        <ele>228</ele>
        <time>2018-09-30T08:38:08Z</time>
      </trkpt>
      <trkpt lat="45.95824" lon="4.76869">
        <ele>230</ele>
        <time>2018-09-30T08:38:09Z</time>
      </trkpt>
      <trkpt lat="45.95821" lon="4.7688">
        <ele>231</ele>
        <time>2018-09-30T08:38:11Z</time>
      </trkpt>
      <trkpt lat="45.95819" lon="4.76887">
        <ele>231</ele>
        <time>2018-09-30T08:38:12Z</time>
      </trkpt>
      <trkpt lat="45.95817" lon="4.76896">
        <ele>233</ele>
        <time>2018-09-30T08:38:13Z</time>
      </trkpt>
      <trkpt lat="45.95816" lon="4.76903">
        <ele>228</ele>
        <time>2018-09-30T08:38:14Z</time>
      </trkpt>
      <trkpt lat="45.95814" lon="4.76911">
        <ele>230</ele>
        <time>2018-09-30T08:38:15Z</time>
      </trkpt>
      <trkpt lat="45.95812" lon="4.76917">
        <ele>231</ele>
        <time>2018-09-30T08:38:16Z</time>
      </trkpt>
      <trkpt lat="45.95812" lon="4.76925">
        <ele>229</ele>
        <time>2018-09-30T08:38:17Z</time>
      </trkpt>
      <trkpt lat="45.95809" lon="4.76932">
        <ele>230</ele>
        <time>2018-09-30T08:38:18Z</time>
      </trkpt>
      <trkpt lat="45.95807" lon="4.76939">
        <ele>231</ele>
        <time>2018-09-30T08:38:19Z</time>
      </trkpt>
      <trkpt lat="45.95806" lon="4.76946">
        <ele>232</ele>
        <time>2018-09-30T08:38:20Z</time>
      </trkpt>
      <trkpt lat="45.95805" lon="4.76954">
        <ele>232</ele>
        <time>2018-09-30T08:38:21Z</time>
      </trkpt>
      <trkpt lat="45.95804" lon="4.76961">
        <ele>234</ele>
        <time>2018-09-30T08:38:22Z</time>
      </trkpt>
      <trkpt lat="45.95803" lon="4.76968">
        <ele>234</ele>
        <time>2018-09-30T08:38:23Z</time>
      </trkpt>
      <trkpt lat="45.95802" lon="4.76977">
        <ele>235</ele>
        <time>2018-09-30T08:38:24Z</time>
      </trkpt>
      <trkpt lat="45.95802" lon="4.76985">
        <ele>235</ele>
        <time>2018-09-30T08:38:25Z</time>
      </trkpt>
      <trkpt lat="45.95801" lon="4.76992">
        <ele>234</ele>
        <time>2018-09-30T08:38:26Z</time>
      </trkpt>
      <trkpt lat="45.95802" lon="4.77">
        <ele>234</ele>
        <time>2018-09-30T08:38:27Z</time>
      </trkpt>
      <trkpt lat="45.95803" lon="4.77007">
        <ele>235</ele>
        <time>2018-09-30T08:38:28Z</time>
      </trkpt>
      <trkpt lat="45.95805" lon="4.77013">
        <ele>236</ele>
        <time>2018-09-30T08:38:29Z</time>
      </trkpt>
      <trkpt lat="45.95807" lon="4.7702">
        <ele>236</ele>
        <time>2018-09-30T08:38:30Z</time>
      </trkpt>
      <trkpt lat="45.95809" lon="4.77024">
        <ele>237</ele>
        <time>2018-09-30T08:38:31Z</time>
      </trkpt>
      <trkpt lat="45.95814" lon="4.77032">
        <ele>237</ele>
        <time>2018-09-30T08:38:32Z</time>
      </trkpt>
      <trkpt lat="45.95817" lon="4.77039">
        <ele>235</ele>
        <time>2018-09-30T08:38:33Z</time>
      </trkpt>
      <trkpt lat="45.9582" lon="4.77045">
        <ele>234</ele>
        <time>2018-09-30T08:38:34Z</time>
      </trkpt>
      <trkpt lat="45.95823" lon="4.77051">
        <ele>234</ele>
        <time>2018-09-30T08:38:35Z</time>
      </trkpt>
      <trkpt lat="45.95826" lon="4.77057">
        <ele>232</ele>
        <time>2018-09-30T08:38:36Z</time>
      </trkpt>
      <trkpt lat="45.95828" lon="4.77063">
        <ele>232</ele>
        <time>2018-09-30T08:38:37Z</time>
      </trkpt>
      <trkpt lat="45.95829" lon="4.7707">
        <ele>232</ele>
        <time>2018-09-30T08:38:38Z</time>
      </trkpt>
      <trkpt lat="45.95833" lon="4.77081">
        <ele>226</ele>
        <time>2018-09-30T08:38:40Z</time>
      </trkpt>
      <trkpt lat="45.95836" lon="4.77087">
        <ele>227</ele>
        <time>2018-09-30T08:38:41Z</time>
      </trkpt>
      <trkpt lat="45.95838" lon="4.77092">
        <ele>228</ele>
        <time>2018-09-30T08:38:42Z</time>
      </trkpt>
      <trkpt lat="45.95839" lon="4.77099">
        <ele>229</ele>
        <time>2018-09-30T08:38:43Z</time>
      </trkpt>
      <trkpt lat="45.95842" lon="4.77105">
        <ele>230</ele>
        <time>2018-09-30T08:38:44Z</time>
      </trkpt>
      <trkpt lat="45.95843" lon="4.77112">
        <ele>230</ele>
        <time>2018-09-30T08:38:45Z</time>
      </trkpt>
      <trkpt lat="45.95845" lon="4.77118">
        <ele>229</ele>
        <time>2018-09-30T08:38:46Z</time>
      </trkpt>
      <trkpt lat="45.95847" lon="4.77125">
        <ele>230</ele>
        <time>2018-09-30T08:38:47Z</time>
      </trkpt>
      <trkpt lat="45.95848" lon="4.77131">
        <ele>230</ele>
        <time>2018-09-30T08:38:48Z</time>
      </trkpt>
      <trkpt lat="45.95851" lon="4.77137">
        <ele>230</ele>
        <time>2018-09-30T08:38:49Z</time>
      </trkpt>
      <trkpt lat="45.95854" lon="4.77149">
        <ele>230</ele>
        <time>2018-09-30T08:38:51Z</time>
      </trkpt>
      <trkpt lat="45.95855" lon="4.77154">
        <ele>230</ele>
        <time>2018-09-30T08:38:52Z</time>
      </trkpt>
      <trkpt lat="45.95857" lon="4.77165">
        <ele>231</ele>
        <time>2018-09-30T08:38:54Z</time>
      </trkpt>
      <trkpt lat="45.95859" lon="4.7717">
        <ele>232</ele>
        <time>2018-09-30T08:38:55Z</time>
      </trkpt>
      <trkpt lat="45.95862" lon="4.77175">
        <ele>232</ele>
        <time>2018-09-30T08:38:56Z</time>
      </trkpt>
      <trkpt lat="45.95864" lon="4.77181">
        <ele>232</ele>
        <time>2018-09-30T08:38:57Z</time>
      </trkpt>
      <trkpt lat="45.95865" lon="4.77188">
        <ele>232</ele>
        <time>2018-09-30T08:38:58Z</time>
      </trkpt>
      <trkpt lat="45.95867" lon="4.77196">
        <ele>233</ele>
        <time>2018-09-30T08:38:59Z</time>
      </trkpt>
      <trkpt lat="45.95869" lon="4.77202">
        <ele>232</ele>
        <time>2018-09-30T08:39:00Z</time>
      </trkpt>
      <trkpt lat="45.9587" lon="4.77209">
        <ele>232</ele>
        <time>2018-09-30T08:39:01Z</time>
      </trkpt>
      <trkpt lat="45.95873" lon="4.77218">
        <ele>231</ele>
        <time>2018-09-30T08:39:02Z</time>
      </trkpt>
      <trkpt lat="45.95875" lon="4.77225">
        <ele>232</ele>
        <time>2018-09-30T08:39:03Z</time>
      </trkpt>
      <trkpt lat="45.95876" lon="4.77232">
        <ele>231</ele>
        <time>2018-09-30T08:39:04Z</time>
      </trkpt>
      <trkpt lat="45.95879" lon="4.77239">
        <ele>230</ele>
        <time>2018-09-30T08:39:05Z</time>
      </trkpt>
      <trkpt lat="45.95881" lon="4.77245">
        <ele>233</ele>
        <time>2018-09-30T08:39:06Z</time>
      </trkpt>
      <trkpt lat="45.95883" lon="4.77252">
        <ele>232</ele>
        <time>2018-09-30T08:39:07Z</time>
      </trkpt>
      <trkpt lat="45.95884" lon="4.77259">
        <ele>232</ele>
        <time>2018-09-30T08:39:08Z</time>
      </trkpt>
      <trkpt lat="45.95885" lon="4.77265">
        <ele>231</ele>
        <time>2018-09-30T08:39:09Z</time>
      </trkpt>
      <trkpt lat="45.95887" lon="4.77271">
        <ele>231</ele>
        <time>2018-09-30T08:39:10Z</time>
      </trkpt>
      <trkpt lat="45.95888" lon="4.77278">
        <ele>231</ele>
        <time>2018-09-30T08:39:11Z</time>
      </trkpt>
      <trkpt lat="45.9589" lon="4.77286">
        <ele>230</ele>
        <time>2018-09-30T08:39:12Z</time>
      </trkpt>
      <trkpt lat="45.95891" lon="4.77293">
        <ele>231</ele>
        <time>2018-09-30T08:39:13Z</time>
      </trkpt>
      <trkpt lat="45.95893" lon="4.773">
        <ele>231</ele>
        <time>2018-09-30T08:39:14Z</time>
      </trkpt>
      <trkpt lat="45.95895" lon="4.77305">
        <ele>232</ele>
        <time>2018-09-30T08:39:15Z</time>
      </trkpt>
      <trkpt lat="45.95897" lon="4.77312">
        <ele>232</ele>
        <time>2018-09-30T08:39:16Z</time>
      </trkpt>
      <trkpt lat="45.95899" lon="4.77319">
        <ele>232</ele>
        <time>2018-09-30T08:39:17Z</time>
      </trkpt>
      <trkpt lat="45.95901" lon="4.7733">
        <ele>232</ele>
        <time>2018-09-30T08:39:19Z</time>
      </trkpt>
      <trkpt lat="45.95902" lon="4.77336">
        <ele>233</ele>
        <time>2018-09-30T08:39:20Z</time>
      </trkpt>
      <trkpt lat="45.95904" lon="4.77342">
        <ele>233</ele>
        <time>2018-09-30T08:39:21Z</time>
      </trkpt>
      <trkpt lat="45.95906" lon="4.77348">
        <ele>230</ele>
        <time>2018-09-30T08:39:22Z</time>
      </trkpt>
      <trkpt lat="45.95911" lon="4.77358">
        <ele>232</ele>
        <time>2018-09-30T08:39:24Z</time>
      </trkpt>
      <trkpt lat="45.95914" lon="4.77365">
        <ele>232</ele>
        <time>2018-09-30T08:39:25Z</time>
      </trkpt>
      <trkpt lat="45.95917" lon="4.77374">
        <ele>230</ele>
        <time>2018-09-30T08:39:26Z</time>
      </trkpt>
      <trkpt lat="45.95918" lon="4.7738">
        <ele>230</ele>
        <time>2018-09-30T08:39:27Z</time>
      </trkpt>
      <trkpt lat="45.95921" lon="4.7739">
        <ele>232</ele>
        <time>2018-09-30T08:39:29Z</time>
      </trkpt>
      <trkpt lat="45.95923" lon="4.77396">
        <ele>231</ele>
        <time>2018-09-30T08:39:30Z</time>
      </trkpt>
      <trkpt lat="45.95925" lon="4.77403">
        <ele>232</ele>
        <time>2018-09-30T08:39:31Z</time>
      </trkpt>
      <trkpt lat="45.95927" lon="4.77408">
        <ele>232</ele>
        <time>2018-09-30T08:39:32Z</time>
      </trkpt>
      <trkpt lat="45.95929" lon="4.77414">
        <ele>232</ele>
        <time>2018-09-30T08:39:33Z</time>
      </trkpt>
      <trkpt lat="45.95931" lon="4.7742">
        <ele>232</ele>
        <time>2018-09-30T08:39:34Z</time>
      </trkpt>
      <trkpt lat="45.95933" lon="4.77426">
        <ele>233</ele>
        <time>2018-09-30T08:39:35Z</time>
      </trkpt>
      <trkpt lat="45.95936" lon="4.77432">
        <ele>233</ele>
        <time>2018-09-30T08:39:36Z</time>
      </trkpt>
      <trkpt lat="45.95938" lon="4.77437">
        <ele>233</ele>
        <time>2018-09-30T08:39:37Z</time>
      </trkpt>
      <trkpt lat="45.9594" lon="4.77443">
        <ele>232</ele>
        <time>2018-09-30T08:39:38Z</time>
      </trkpt>
      <trkpt lat="45.95943" lon="4.77454">
        <ele>233</ele>
        <time>2018-09-30T08:39:40Z</time>
      </trkpt>
      <trkpt lat="45.95945" lon="4.77459">
        <ele>233</ele>
        <time>2018-09-30T08:39:41Z</time>
      </trkpt>
      <trkpt lat="45.95949" lon="4.77469">
        <ele>233</ele>
        <time>2018-09-30T08:39:43Z</time>
      </trkpt>
      <trkpt lat="45.95952" lon="4.77477">
        <ele>234</ele>
        <time>2018-09-30T08:39:44Z</time>
      </trkpt>
      <trkpt lat="45.95956" lon="4.77488">
        <ele>235</ele>
        <time>2018-09-30T08:39:46Z</time>
      </trkpt>
      <trkpt lat="45.95958" lon="4.77494">
        <ele>235</ele>
        <time>2018-09-30T08:39:47Z</time>
      </trkpt>
      <trkpt lat="45.95961" lon="4.77503">
        <ele>236</ele>
        <time>2018-09-30T08:39:49Z</time>
      </trkpt>
      <trkpt lat="45.95963" lon="4.77508">
        <ele>237</ele>
        <time>2018-09-30T08:39:50Z</time>
      </trkpt>
      <trkpt lat="45.95966" lon="4.77512">
        <ele>237</ele>
        <time>2018-09-30T08:39:51Z</time>
      </trkpt>
      <trkpt lat="45.9597" lon="4.7752">
        <ele>236</ele>
        <time>2018-09-30T08:39:52Z</time>
      </trkpt>
      <trkpt lat="45.95974" lon="4.7753">
        <ele>238</ele>
        <time>2018-09-30T08:39:55Z</time>
      </trkpt>
      <trkpt lat="45.95976" lon="4.77532">
        <ele>237</ele>
        <time>2018-09-30T08:39:56Z</time>
      </trkpt>
      <trkpt lat="45.95977" lon="4.77535">
        <ele>238</ele>
        <time>2018-09-30T08:39:57Z</time>
      </trkpt>
      <trkpt lat="45.95982" lon="4.77544">
        <ele>236</ele>
        <time>2018-09-30T08:39:58Z</time>
      </trkpt>
      <trkpt lat="45.95986" lon="4.77554">
        <ele>235</ele>
        <time>2018-09-30T08:40:00Z</time>
      </trkpt>
      <trkpt lat="45.95988" lon="4.77562">
        <ele>234</ele>
        <time>2018-09-30T08:40:01Z</time>
      </trkpt>
      <trkpt lat="45.9599" lon="4.77569">
        <ele>232</ele>
        <time>2018-09-30T08:40:02Z</time>
      </trkpt>
      <trkpt lat="45.95993" lon="4.77575">
        <ele>231</ele>
        <time>2018-09-30T08:40:03Z</time>
      </trkpt>
      <trkpt lat="45.95997" lon="4.77584">
        <ele>231</ele>
        <time>2018-09-30T08:40:05Z</time>
      </trkpt>
      <trkpt lat="45.95999" lon="4.77589">
        <ele>232</ele>
        <time>2018-09-30T08:40:06Z</time>
      </trkpt>
      <trkpt lat="45.96003" lon="4.77598">
        <ele>231</ele>
        <time>2018-09-30T08:40:09Z</time>
      </trkpt>
      <trkpt lat="45.96005" lon="4.776">
        <ele>232</ele>
        <time>2018-09-30T08:40:10Z</time>
      </trkpt>
      <trkpt lat="45.96013" lon="4.77605">
        <ele>228</ele>
        <time>2018-09-30T08:40:13Z</time>
      </trkpt>
      <trkpt lat="45.96016" lon="4.77607">
        <ele>228</ele>
        <time>2018-09-30T08:40:14Z</time>
      </trkpt>
      <trkpt lat="45.96023" lon="4.77614">
        <ele>229</ele>
        <time>2018-09-30T08:40:15Z</time>
      </trkpt>
      <trkpt lat="45.96024" lon="4.77616">
        <ele>228</ele>
        <time>2018-09-30T08:40:16Z</time>
      </trkpt>
      <trkpt lat="45.96028" lon="4.77621">
        <ele>228</ele>
        <time>2018-09-30T08:40:17Z</time>
      </trkpt>
      <trkpt lat="45.96031" lon="4.77625">
        <ele>229</ele>
        <time>2018-09-30T08:40:18Z</time>
      </trkpt>
      <trkpt lat="45.96037" lon="4.77632">
        <ele>228</ele>
        <time>2018-09-30T08:40:20Z</time>
      </trkpt>
      <trkpt lat="45.9604" lon="4.77636">
        <ele>228</ele>
        <time>2018-09-30T08:40:21Z</time>
      </trkpt>
      <trkpt lat="45.96044" lon="4.77641">
        <ele>228</ele>
        <time>2018-09-30T08:40:23Z</time>
      </trkpt>
      <trkpt lat="45.96048" lon="4.77646">
        <ele>228</ele>
        <time>2018-09-30T08:40:24Z</time>
      </trkpt>
      <trkpt lat="45.96053" lon="4.77654">
        <ele>228</ele>
        <time>2018-09-30T08:40:26Z</time>
      </trkpt>
      <trkpt lat="45.96056" lon="4.77658">
        <ele>228</ele>
        <time>2018-09-30T08:40:27Z</time>
      </trkpt>
      <trkpt lat="45.96062" lon="4.77666">
        <ele>227</ele>
        <time>2018-09-30T08:40:29Z</time>
      </trkpt>
      <trkpt lat="45.96065" lon="4.77671">
        <ele>227</ele>
        <time>2018-09-30T08:40:30Z</time>
      </trkpt>
      <trkpt lat="45.96069" lon="4.77675">
        <ele>227</ele>
        <time>2018-09-30T08:40:31Z</time>
      </trkpt>
      <trkpt lat="45.96072" lon="4.7768">
        <ele>228</ele>
        <time>2018-09-30T08:40:32Z</time>
      </trkpt>
      <trkpt lat="45.96077" lon="4.77688">
        <ele>228</ele>
        <time>2018-09-30T08:40:34Z</time>
      </trkpt>
      <trkpt lat="45.96079" lon="4.77693">
        <ele>229</ele>
        <time>2018-09-30T08:40:35Z</time>
      </trkpt>
      <trkpt lat="45.96085" lon="4.77702">
        <ele>230</ele>
        <time>2018-09-30T08:40:37Z</time>
      </trkpt>
      <trkpt lat="45.96088" lon="4.77707">
        <ele>230</ele>
        <time>2018-09-30T08:40:38Z</time>
      </trkpt>
      <trkpt lat="45.96093" lon="4.77714">
        <ele>231</ele>
        <time>2018-09-30T08:40:40Z</time>
      </trkpt>
      <trkpt lat="45.96096" lon="4.77718">
        <ele>231</ele>
        <time>2018-09-30T08:40:41Z</time>
      </trkpt>
      <trkpt lat="45.96101" lon="4.77726">
        <ele>231</ele>
        <time>2018-09-30T08:40:43Z</time>
      </trkpt>
      <trkpt lat="45.96104" lon="4.77731">
        <ele>231</ele>
        <time>2018-09-30T08:40:44Z</time>
      </trkpt>
      <trkpt lat="45.96109" lon="4.77739">
        <ele>231</ele>
        <time>2018-09-30T08:40:46Z</time>
      </trkpt>
      <trkpt lat="45.96112" lon="4.77744">
        <ele>232</ele>
        <time>2018-09-30T08:40:47Z</time>
      </trkpt>
      <trkpt lat="45.96117" lon="4.77752">
        <ele>232</ele>
        <time>2018-09-30T08:40:49Z</time>
      </trkpt>
      <trkpt lat="45.9612" lon="4.77757">
        <ele>233</ele>
        <time>2018-09-30T08:40:50Z</time>
      </trkpt>
      <trkpt lat="45.96125" lon="4.77765">
        <ele>233</ele>
        <time>2018-09-30T08:40:52Z</time>
      </trkpt>
      <trkpt lat="45.96127" lon="4.77769">
        <ele>235</ele>
        <time>2018-09-30T08:40:53Z</time>
      </trkpt>
      <trkpt lat="45.96131" lon="4.77778">
        <ele>235</ele>
        <time>2018-09-30T08:40:55Z</time>
      </trkpt>
      <trkpt lat="45.96134" lon="4.77782">
        <ele>236</ele>
        <time>2018-09-30T08:40:56Z</time>
      </trkpt>
      <trkpt lat="45.96138" lon="4.77792">
        <ele>236</ele>
        <time>2018-09-30T08:40:58Z</time>
      </trkpt>
      <trkpt lat="45.96141" lon="4.77797">
        <ele>237</ele>
        <time>2018-09-30T08:40:59Z</time>
      </trkpt>
      <trkpt lat="45.96144" lon="4.77801">
        <ele>237</ele>
        <time>2018-09-30T08:41:00Z</time>
      </trkpt>
      <trkpt lat="45.96146" lon="4.77808">
        <ele>237</ele>
        <time>2018-09-30T08:41:01Z</time>
      </trkpt>
      <trkpt lat="45.96151" lon="4.77816">
        <ele>236</ele>
        <time>2018-09-30T08:41:03Z</time>
      </trkpt>
      <trkpt lat="45.96153" lon="4.77821">
        <ele>236</ele>
        <time>2018-09-30T08:41:04Z</time>
      </trkpt>
      <trkpt lat="45.96157" lon="4.77826">
        <ele>236</ele>
        <time>2018-09-30T08:41:05Z</time>
      </trkpt>
      <trkpt lat="45.9616" lon="4.77831">
        <ele>235</ele>
        <time>2018-09-30T08:41:06Z</time>
      </trkpt>
      <trkpt lat="45.96165" lon="4.77839">
        <ele>236</ele>
        <time>2018-09-30T08:41:08Z</time>
      </trkpt>
      <trkpt lat="45.96168" lon="4.77844">
        <ele>236</ele>
        <time>2018-09-30T08:41:09Z</time>
      </trkpt>
      <trkpt lat="45.96175" lon="4.77852">
        <ele>238</ele>
        <time>2018-09-30T08:41:11Z</time>
      </trkpt>
      <trkpt lat="45.96179" lon="4.77857">
        <ele>234</ele>
        <time>2018-09-30T08:41:12Z</time>
      </trkpt>
      <trkpt lat="45.96184" lon="4.77868">
        <ele>236</ele>
        <time>2018-09-30T08:41:14Z</time>
      </trkpt>
      <trkpt lat="45.96188" lon="4.77873">
        <ele>237</ele>
        <time>2018-09-30T08:41:15Z</time>
      </trkpt>
      <trkpt lat="45.96194" lon="4.77881">
        <ele>238</ele>
        <time>2018-09-30T08:41:17Z</time>
      </trkpt>
      <trkpt lat="45.96197" lon="4.77886">
        <ele>237</ele>
        <time>2018-09-30T08:41:18Z</time>
      </trkpt>
      <trkpt lat="45.96201" lon="4.77892">
        <ele>237</ele>
        <time>2018-09-30T08:41:19Z</time>
      </trkpt>
      <trkpt lat="45.96203" lon="4.77897">
        <ele>237</ele>
        <time>2018-09-30T08:41:20Z</time>
      </trkpt>
      <trkpt lat="45.96205" lon="4.77903">
        <ele>237</ele>
        <time>2018-09-30T08:41:21Z</time>
      </trkpt>
      <trkpt lat="45.96209" lon="4.7791">
        <ele>236</ele>
        <time>2018-09-30T08:41:22Z</time>
      </trkpt>
      <trkpt lat="45.96213" lon="4.77915">
        <ele>235</ele>
        <time>2018-09-30T08:41:23Z</time>
      </trkpt>
      <trkpt lat="45.96216" lon="4.7792">
        <ele>235</ele>
        <time>2018-09-30T08:41:24Z</time>
      </trkpt>
      <trkpt lat="45.96219" lon="4.77925">
        <ele>235</ele>
        <time>2018-09-30T08:41:25Z</time>
      </trkpt>
      <trkpt lat="45.96222" lon="4.7793">
        <ele>235</ele>
        <time>2018-09-30T08:41:26Z</time>
      </trkpt>
      <trkpt lat="45.96226" lon="4.77935">
        <ele>236</ele>
        <time>2018-09-30T08:41:27Z</time>
      </trkpt>
      <trkpt lat="45.9623" lon="4.7794">
        <ele>236</ele>
        <time>2018-09-30T08:41:28Z</time>
      </trkpt>
      <trkpt lat="45.96234" lon="4.77945">
        <ele>236</ele>
        <time>2018-09-30T08:41:29Z</time>
      </trkpt>
      <trkpt lat="45.96236" lon="4.7795">
        <ele>237</ele>
        <time>2018-09-30T08:41:30Z</time>
      </trkpt>
      <trkpt lat="45.9624" lon="4.77954">
        <ele>238</ele>
        <time>2018-09-30T08:41:31Z</time>
      </trkpt>
      <trkpt lat="45.96243" lon="4.77959">
        <ele>237</ele>
        <time>2018-09-30T08:41:32Z</time>
      </trkpt>
      <trkpt lat="45.96247" lon="4.77965">
        <ele>237</ele>
        <time>2018-09-30T08:41:33Z</time>
      </trkpt>
      <trkpt lat="45.96251" lon="4.77969">
        <ele>236</ele>
        <time>2018-09-30T08:41:34Z</time>
      </trkpt>
      <trkpt lat="45.96256" lon="4.77973">
        <ele>237</ele>
        <time>2018-09-30T08:41:35Z</time>
      </trkpt>
      <trkpt lat="45.9626" lon="4.77978">
        <ele>235</ele>
        <time>2018-09-30T08:41:36Z</time>
      </trkpt>
      <trkpt lat="45.96265" lon="4.77983">
        <ele>236</ele>
        <time>2018-09-30T08:41:37Z</time>
      </trkpt>
      <trkpt lat="45.96268" lon="4.77986">
        <ele>238</ele>
        <time>2018-09-30T08:41:38Z</time>
      </trkpt>
      <trkpt lat="45.96273" lon="4.77993">
        <ele>238</ele>
        <time>2018-09-30T08:41:39Z</time>
      </trkpt>
      <trkpt lat="45.96277" lon="4.77995">
        <ele>239</ele>
        <time>2018-09-30T08:41:40Z</time>
      </trkpt>
      <trkpt lat="45.96282" lon="4.78">
        <ele>239</ele>
        <time>2018-09-30T08:41:41Z</time>
      </trkpt>
      <trkpt lat="45.96287" lon="4.78005">
        <ele>240</ele>
        <time>2018-09-30T08:41:42Z</time>
      </trkpt>
      <trkpt lat="45.96292" lon="4.78008">
        <ele>241</ele>
        <time>2018-09-30T08:41:43Z</time>
      </trkpt>
      <trkpt lat="45.96297" lon="4.78012">
        <ele>240</ele>
        <time>2018-09-30T08:41:44Z</time>
      </trkpt>
      <trkpt lat="45.963" lon="4.78016">
        <ele>241</ele>
        <time>2018-09-30T08:41:45Z</time>
      </trkpt>
      <trkpt lat="45.96304" lon="4.7802">
        <ele>239</ele>
        <time>2018-09-30T08:41:46Z</time>
      </trkpt>
      <trkpt lat="45.96307" lon="4.78023">
        <ele>240</ele>
        <time>2018-09-30T08:41:47Z</time>
      </trkpt>
      <trkpt lat="45.96311" lon="4.78028">
        <ele>239</ele>
        <time>2018-09-30T08:41:48Z</time>
      </trkpt>
      <trkpt lat="45.96316" lon="4.78034">
        <ele>238</ele>
        <time>2018-09-30T08:41:49Z</time>
      </trkpt>
      <trkpt lat="45.9632" lon="4.78038">
        <ele>237</ele>
        <time>2018-09-30T08:41:50Z</time>
      </trkpt>
      <trkpt lat="45.96323" lon="4.78043">
        <ele>238</ele>
        <time>2018-09-30T08:41:51Z</time>
      </trkpt>
      <trkpt lat="45.96326" lon="4.78049">
        <ele>237</ele>
        <time>2018-09-30T08:41:52Z</time>
      </trkpt>
      <trkpt lat="45.96334" lon="4.78051">
        <ele>240</ele>
        <time>2018-09-30T08:41:54Z</time>
      </trkpt>
      <trkpt lat="45.96337" lon="4.78056">
        <ele>240</ele>
        <time>2018-09-30T08:41:55Z</time>
      </trkpt>
      <trkpt lat="45.96341" lon="4.7806">
        <ele>241</ele>
        <time>2018-09-30T08:41:56Z</time>
      </trkpt>
      <trkpt lat="45.96346" lon="4.78066">
        <ele>240</ele>
        <time>2018-09-30T08:41:57Z</time>
      </trkpt>
      <trkpt lat="45.96349" lon="4.78071">
        <ele>241</ele>
        <time>2018-09-30T08:41:58Z</time>
      </trkpt>
      <trkpt lat="45.96353" lon="4.78074">
        <ele>237</ele>
        <time>2018-09-30T08:41:59Z</time>
      </trkpt>
      <trkpt lat="45.96361" lon="4.7808">
        <ele>238</ele>
        <time>2018-09-30T08:42:01Z</time>
      </trkpt>
      <trkpt lat="45.96364" lon="4.78084">
        <ele>239</ele>
        <time>2018-09-30T08:42:02Z</time>
      </trkpt>
      <trkpt lat="45.96368" lon="4.78088">
        <ele>240</ele>
        <time>2018-09-30T08:42:03Z</time>
      </trkpt>
      <trkpt lat="45.96372" lon="4.78091">
        <ele>241</ele>
        <time>2018-09-30T08:42:04Z</time>
      </trkpt>
      <trkpt lat="45.96378" lon="4.78098">
        <ele>241</ele>
        <time>2018-09-30T08:42:06Z</time>
      </trkpt>
      <trkpt lat="45.96379" lon="4.78099">
        <ele>242</ele>
        <time>2018-09-30T08:42:07Z</time>
      </trkpt>
      <trkpt lat="45.9638" lon="4.78101">
        <ele>242</ele>
        <time>2018-09-30T08:42:08Z</time>
      </trkpt>
      <trkpt lat="45.96388" lon="4.78108">
        <ele>243</ele>
        <time>2018-09-30T08:42:09Z</time>
      </trkpt>
      <trkpt lat="45.96393" lon="4.78114">
        <ele>242</ele>
        <time>2018-09-30T08:42:11Z</time>
      </trkpt>
      <trkpt lat="45.96399" lon="4.7812">
        <ele>244</ele>
        <time>2018-09-30T08:42:12Z</time>
      </trkpt>
      <trkpt lat="45.96405" lon="4.78125">
        <ele>245</ele>
        <time>2018-09-30T08:42:14Z</time>
      </trkpt>
      <trkpt lat="45.96409" lon="4.78129">
        <ele>245</ele>
        <time>2018-09-30T08:42:15Z</time>
      </trkpt>
      <trkpt lat="45.96414" lon="4.78132">
        <ele>245</ele>
        <time>2018-09-30T08:42:16Z</time>
      </trkpt>
      <trkpt lat="45.96418" lon="4.78137">
        <ele>245</ele>
        <time>2018-09-30T08:42:17Z</time>
      </trkpt>
      <trkpt lat="45.96423" lon="4.78142">
        <ele>245</ele>
        <time>2018-09-30T08:42:18Z</time>
      </trkpt>
      <trkpt lat="45.96427" lon="4.78146">
        <ele>245</ele>
        <time>2018-09-30T08:42:19Z</time>
      </trkpt>
      <trkpt lat="45.96432" lon="4.78152">
        <ele>244</ele>
        <time>2018-09-30T08:42:20Z</time>
      </trkpt>
      <trkpt lat="45.96436" lon="4.78155">
        <ele>244</ele>
        <time>2018-09-30T08:42:21Z</time>
      </trkpt>
      <trkpt lat="45.9644" lon="4.78159">
        <ele>244</ele>
        <time>2018-09-30T08:42:22Z</time>
      </trkpt>
      <trkpt lat="45.96445" lon="4.78164">
        <ele>244</ele>
        <time>2018-09-30T08:42:23Z</time>
      </trkpt>
      <trkpt lat="45.9645" lon="4.78166">
        <ele>244</ele>
        <time>2018-09-30T08:42:24Z</time>
      </trkpt>
      <trkpt lat="45.96454" lon="4.7817">
        <ele>244</ele>
        <time>2018-09-30T08:42:25Z</time>
      </trkpt>
      <trkpt lat="45.96461" lon="4.78177">
        <ele>243</ele>
        <time>2018-09-30T08:42:27Z</time>
      </trkpt>
      <trkpt lat="45.96465" lon="4.7818">
        <ele>244</ele>
        <time>2018-09-30T08:42:28Z</time>
      </trkpt>
      <trkpt lat="45.96472" lon="4.78184">
        <ele>243</ele>
        <time>2018-09-30T08:42:30Z</time>
      </trkpt>
      <trkpt lat="45.96476" lon="4.78187">
        <ele>243</ele>
        <time>2018-09-30T08:42:31Z</time>
      </trkpt>
      <trkpt lat="45.96482" lon="4.78189">
        <ele>244</ele>
        <time>2018-09-30T08:42:32Z</time>
      </trkpt>
      <trkpt lat="45.96486" lon="4.78193">
        <ele>245</ele>
        <time>2018-09-30T08:42:33Z</time>
      </trkpt>
      <trkpt lat="45.96494" lon="4.78198">
        <ele>242</ele>
        <time>2018-09-30T08:42:35Z</time>
      </trkpt>
      <trkpt lat="45.96498" lon="4.78201">
        <ele>241</ele>
        <time>2018-09-30T08:42:36Z</time>
      </trkpt>
      <trkpt lat="45.96502" lon="4.78205">
        <ele>241</ele>
        <time>2018-09-30T08:42:37Z</time>
      </trkpt>
      <trkpt lat="45.96506" lon="4.78211">
        <ele>240</ele>
        <time>2018-09-30T08:42:38Z</time>
      </trkpt>
      <trkpt lat="45.9651" lon="4.78216">
        <ele>240</ele>
        <time>2018-09-30T08:42:39Z</time>
      </trkpt>
      <trkpt lat="45.96514" lon="4.78223">
        <ele>241</ele>
        <time>2018-09-30T08:42:40Z</time>
      </trkpt>
      <trkpt lat="45.96518" lon="4.7823">
        <ele>241</ele>
        <time>2018-09-30T08:42:41Z</time>
      </trkpt>
      <trkpt lat="45.96521" lon="4.78237">
        <ele>241</ele>
        <time>2018-09-30T08:42:42Z</time>
      </trkpt>
      <trkpt lat="45.96525" lon="4.78243">
        <ele>241</ele>
        <time>2018-09-30T08:42:43Z</time>
      </trkpt>
      <trkpt lat="45.96528" lon="4.78248">
        <ele>241</ele>
        <time>2018-09-30T08:42:44Z</time>
      </trkpt>
      <trkpt lat="45.96531" lon="4.78254">
        <ele>242</ele>
        <time>2018-09-30T08:42:45Z</time>
      </trkpt>
      <trkpt lat="45.96535" lon="4.78257">
        <ele>241</ele>
        <time>2018-09-30T08:42:46Z</time>
      </trkpt>
      <trkpt lat="45.96539" lon="4.78263">
        <ele>241</ele>
        <time>2018-09-30T08:42:47Z</time>
      </trkpt>
      <trkpt lat="45.96542" lon="4.78269">
        <ele>241</ele>
        <time>2018-09-30T08:42:48Z</time>
      </trkpt>
      <trkpt lat="45.96546" lon="4.78273">
        <ele>242</ele>
        <time>2018-09-30T08:42:49Z</time>
      </trkpt>
      <trkpt lat="45.9655" lon="4.78279">
        <ele>241</ele>
        <time>2018-09-30T08:42:50Z</time>
      </trkpt>
      <trkpt lat="45.96554" lon="4.78284">
        <ele>240</ele>
        <time>2018-09-30T08:42:51Z</time>
      </trkpt>
      <trkpt lat="45.96559" lon="4.7829">
        <ele>238</ele>
        <time>2018-09-30T08:42:52Z</time>
      </trkpt>
      <trkpt lat="45.96563" lon="4.78294">
        <ele>237</ele>
        <time>2018-09-30T08:42:53Z</time>
      </trkpt>
      <trkpt lat="45.96567" lon="4.78298">
        <ele>236</ele>
        <time>2018-09-30T08:42:54Z</time>
      </trkpt>
      <trkpt lat="45.9657" lon="4.78302">
        <ele>237</ele>
        <time>2018-09-30T08:42:55Z</time>
      </trkpt>
      <trkpt lat="45.96574" lon="4.78306">
        <ele>237</ele>
        <time>2018-09-30T08:42:56Z</time>
      </trkpt>
      <trkpt lat="45.96582" lon="4.78313">
        <ele>238</ele>
        <time>2018-09-30T08:42:58Z</time>
      </trkpt>
      <trkpt lat="45.96586" lon="4.78317">
        <ele>237</ele>
        <time>2018-09-30T08:42:59Z</time>
      </trkpt>
      <trkpt lat="45.9659" lon="4.78322">
        <ele>236</ele>
        <time>2018-09-30T08:43:00Z</time>
      </trkpt>
      <trkpt lat="45.96594" lon="4.78326">
        <ele>236</ele>
        <time>2018-09-30T08:43:01Z</time>
      </trkpt>
      <trkpt lat="45.96598" lon="4.78328">
        <ele>236</ele>
        <time>2018-09-30T08:43:02Z</time>
      </trkpt>
      <trkpt lat="45.96602" lon="4.78333">
        <ele>237</ele>
        <time>2018-09-30T08:43:03Z</time>
      </trkpt>
      <trkpt lat="45.96609" lon="4.78341">
        <ele>237</ele>
        <time>2018-09-30T08:43:05Z</time>
      </trkpt>
      <trkpt lat="45.96614" lon="4.78343">
        <ele>239</ele>
        <time>2018-09-30T08:43:06Z</time>
      </trkpt>
      <trkpt lat="45.96621" lon="4.78347">
        <ele>240</ele>
        <time>2018-09-30T08:43:08Z</time>
      </trkpt>
      <trkpt lat="45.96624" lon="4.7835">
        <ele>240</ele>
        <time>2018-09-30T08:43:09Z</time>
      </trkpt>
      <trkpt lat="45.96628" lon="4.78353">
        <ele>241</ele>
        <time>2018-09-30T08:43:10Z</time>
      </trkpt>
      <trkpt lat="45.96632" lon="4.78356">
        <ele>241</ele>
        <time>2018-09-30T08:43:11Z</time>
      </trkpt>
      <trkpt lat="45.96636" lon="4.7836">
        <ele>241</ele>
        <time>2018-09-30T08:43:12Z</time>
      </trkpt>
      <trkpt lat="45.9664" lon="4.78364">
        <ele>243</ele>
        <time>2018-09-30T08:43:13Z</time>
      </trkpt>
      <trkpt lat="45.96644" lon="4.78368">
        <ele>244</ele>
        <time>2018-09-30T08:43:14Z</time>
      </trkpt>
      <trkpt lat="45.96647" lon="4.78372">
        <ele>242</ele>
        <time>2018-09-30T08:43:15Z</time>
      </trkpt>
      <trkpt lat="45.96652" lon="4.78376">
        <ele>242</ele>
        <time>2018-09-30T08:43:16Z</time>
      </trkpt>
      <trkpt lat="45.96655" lon="4.7838">
        <ele>243</ele>
        <time>2018-09-30T08:43:17Z</time>
      </trkpt>
      <trkpt lat="45.96662" lon="4.78388">
        <ele>244</ele>
        <time>2018-09-30T08:43:19Z</time>
      </trkpt>
      <trkpt lat="45.96665" lon="4.78392">
        <ele>244</ele>
        <time>2018-09-30T08:43:20Z</time>
      </trkpt>
      <trkpt lat="45.96673" lon="4.78396">
        <ele>245</ele>
        <time>2018-09-30T08:43:23Z</time>
      </trkpt>
      <trkpt lat="45.96679" lon="4.78398">
        <ele>242</ele>
        <time>2018-09-30T08:43:24Z</time>
      </trkpt>
      <trkpt lat="45.96687" lon="4.78403">
        <ele>243</ele>
        <time>2018-09-30T08:43:26Z</time>
      </trkpt>
      <trkpt lat="45.9669" lon="4.78406">
        <ele>243</ele>
        <time>2018-09-30T08:43:27Z</time>
      </trkpt>
      <trkpt lat="45.96694" lon="4.78409">
        <ele>244</ele>
        <time>2018-09-30T08:43:29Z</time>
      </trkpt>
      <trkpt lat="45.96699" lon="4.78415">
        <ele>245</ele>
        <time>2018-09-30T08:43:30Z</time>
      </trkpt>
      <trkpt lat="45.96704" lon="4.78422">
        <ele>243</ele>
        <time>2018-09-30T08:43:32Z</time>
      </trkpt>
      <trkpt lat="45.96707" lon="4.78427">
        <ele>244</ele>
        <time>2018-09-30T08:43:33Z</time>
      </trkpt>
      <trkpt lat="45.96713" lon="4.78433">
        <ele>244</ele>
        <time>2018-09-30T08:43:35Z</time>
      </trkpt>
      <trkpt lat="45.96718" lon="4.78438">
        <ele>244</ele>
        <time>2018-09-30T08:43:36Z</time>
      </trkpt>
      <trkpt lat="45.96724" lon="4.78444">
        <ele>243</ele>
        <time>2018-09-30T08:43:38Z</time>
      </trkpt>
      <trkpt lat="45.96726" lon="4.78449">
        <ele>242</ele>
        <time>2018-09-30T08:43:39Z</time>
      </trkpt>
      <trkpt lat="45.96731" lon="4.78454">
        <ele>242</ele>
        <time>2018-09-30T08:43:40Z</time>
      </trkpt>
      <trkpt lat="45.96737" lon="4.7846">
        <ele>242</ele>
        <time>2018-09-30T08:43:41Z</time>
      </trkpt>
      <trkpt lat="45.9674" lon="4.78463">
        <ele>243</ele>
        <time>2018-09-30T08:43:42Z</time>
      </trkpt>
      <trkpt lat="45.96745" lon="4.78467">
        <ele>242</ele>
        <time>2018-09-30T08:43:43Z</time>
      </trkpt>
      <trkpt lat="45.96753" lon="4.78472">
        <ele>241</ele>
        <time>2018-09-30T08:43:45Z</time>
      </trkpt>
      <trkpt lat="45.96757" lon="4.78478">
        <ele>242</ele>
        <time>2018-09-30T08:43:46Z</time>
      </trkpt>
      <trkpt lat="45.96761" lon="4.78483">
        <ele>242</ele>
        <time>2018-09-30T08:43:47Z</time>
      </trkpt>
      <trkpt lat="45.96765" lon="4.78489">
        <ele>243</ele>
        <time>2018-09-30T08:43:48Z</time>
      </trkpt>
      <trkpt lat="45.96768" lon="4.78493">
        <ele>243</ele>
        <time>2018-09-30T08:43:49Z</time>
      </trkpt>
      <trkpt lat="45.96774" lon="4.78498">
        <ele>243</ele>
        <time>2018-09-30T08:43:50Z</time>
      </trkpt>
      <trkpt lat="45.96779" lon="4.78506">
        <ele>242</ele>
        <time>2018-09-30T08:43:52Z</time>
      </trkpt>
      <trkpt lat="45.96782" lon="4.78511">
        <ele>243</ele>
        <time>2018-09-30T08:43:53Z</time>
      </trkpt>
      <trkpt lat="45.96786" lon="4.78516">
        <ele>242</ele>
        <time>2018-09-30T08:43:54Z</time>
      </trkpt>
      <trkpt lat="45.96789" lon="4.78521">
        <ele>243</ele>
        <time>2018-09-30T08:43:55Z</time>
      </trkpt>
      <trkpt lat="45.96793" lon="4.78527">
        <ele>241</ele>
        <time>2018-09-30T08:43:56Z</time>
      </trkpt>
      <trkpt lat="45.96797" lon="4.78532">
        <ele>240</ele>
        <time>2018-09-30T08:43:57Z</time>
      </trkpt>
      <trkpt lat="45.96802" lon="4.78541">
        <ele>240</ele>
        <time>2018-09-30T08:43:59Z</time>
      </trkpt>
      <trkpt lat="45.96805" lon="4.78547">
        <ele>240</ele>
        <time>2018-09-30T08:44:00Z</time>
      </trkpt>
      <trkpt lat="45.96811" lon="4.78556">
        <ele>239</ele>
        <time>2018-09-30T08:44:02Z</time>
      </trkpt>
      <trkpt lat="45.96814" lon="4.78561">
        <ele>240</ele>
        <time>2018-09-30T08:44:03Z</time>
      </trkpt>
      <trkpt lat="45.96819" lon="4.7857">
        <ele>241</ele>
        <time>2018-09-30T08:44:05Z</time>
      </trkpt>
      <trkpt lat="45.96821" lon="4.78571">
        <ele>239</ele>
        <time>2018-09-30T08:44:06Z</time>
      </trkpt>
      <trkpt lat="45.96824" lon="4.78577">
        <ele>240</ele>
        <time>2018-09-30T08:44:08Z</time>
      </trkpt>
      <trkpt lat="45.96828" lon="4.78585">
        <ele>239</ele>
        <time>2018-09-30T08:44:09Z</time>
      </trkpt>
      <trkpt lat="45.96832" lon="4.78595">
        <ele>240</ele>
        <time>2018-09-30T08:44:11Z</time>
      </trkpt>
      <trkpt lat="45.96833" lon="4.786">
        <ele>242</ele>
        <time>2018-09-30T08:44:12Z</time>
      </trkpt>
      <trkpt lat="45.96837" lon="4.7861">
        <ele>243</ele>
        <time>2018-09-30T08:44:14Z</time>
      </trkpt>
      <trkpt lat="45.96839" lon="4.78616">
        <ele>242</ele>
        <time>2018-09-30T08:44:15Z</time>
      </trkpt>
      <trkpt lat="45.96841" lon="4.78622">
        <ele>242</ele>
        <time>2018-09-30T08:44:16Z</time>
      </trkpt>
      <trkpt lat="45.96846" lon="4.78628">
        <ele>242</ele>
        <time>2018-09-30T08:44:17Z</time>
      </trkpt>
      <trkpt lat="45.96848" lon="4.78635">
        <ele>242</ele>
        <time>2018-09-30T08:44:18Z</time>
      </trkpt>
      <trkpt lat="45.96851" lon="4.7864">
        <ele>241</ele>
        <time>2018-09-30T08:44:19Z</time>
      </trkpt>
      <trkpt lat="45.96853" lon="4.78646">
        <ele>241</ele>
        <time>2018-09-30T08:44:20Z</time>
      </trkpt>
      <trkpt lat="45.96855" lon="4.78652">
        <ele>242</ele>
        <time>2018-09-30T08:44:21Z</time>
      </trkpt>
      <trkpt lat="45.96857" lon="4.78659">
        <ele>242</ele>
        <time>2018-09-30T08:44:22Z</time>
      </trkpt>
      <trkpt lat="45.9686" lon="4.78664">
        <ele>242</ele>
        <time>2018-09-30T08:44:23Z</time>
      </trkpt>
      <trkpt lat="45.96862" lon="4.78669">
        <ele>242</ele>
        <time>2018-09-30T08:44:24Z</time>
      </trkpt>
      <trkpt lat="45.96865" lon="4.78676">
        <ele>242</ele>
        <time>2018-09-30T08:44:25Z</time>
      </trkpt>
      <trkpt lat="45.96867" lon="4.78683">
        <ele>242</ele>
        <time>2018-09-30T08:44:26Z</time>
      </trkpt>
      <trkpt lat="45.9687" lon="4.78689">
        <ele>243</ele>
        <time>2018-09-30T08:44:27Z</time>
      </trkpt>
      <trkpt lat="45.96873" lon="4.78695">
        <ele>244</ele>
        <time>2018-09-30T08:44:28Z</time>
      </trkpt>
      <trkpt lat="45.96875" lon="4.787">
        <ele>244</ele>
        <time>2018-09-30T08:44:29Z</time>
      </trkpt>
      <trkpt lat="45.96879" lon="4.7871">
        <ele>243</ele>
        <time>2018-09-30T08:44:31Z</time>
      </trkpt>
      <trkpt lat="45.96881" lon="4.78716">
        <ele>243</ele>
        <time>2018-09-30T08:44:32Z</time>
      </trkpt>
      <trkpt lat="45.96885" lon="4.78721">
        <ele>243</ele>
        <time>2018-09-30T08:44:33Z</time>
      </trkpt>
      <trkpt lat="45.96887" lon="4.78727">
        <ele>243</ele>
        <time>2018-09-30T08:44:34Z</time>
      </trkpt>
      <trkpt lat="45.96891" lon="4.78733">
        <ele>242</ele>
        <time>2018-09-30T08:44:35Z</time>
      </trkpt>
      <trkpt lat="45.96893" lon="4.78741">
        <ele>242</ele>
        <time>2018-09-30T08:44:36Z</time>
      </trkpt>
      <trkpt lat="45.96896" lon="4.78747">
        <ele>243</ele>
        <time>2018-09-30T08:44:37Z</time>
      </trkpt>
      <trkpt lat="45.969" lon="4.78754">
        <ele>242</ele>
        <time>2018-09-30T08:44:38Z</time>
      </trkpt>
      <trkpt lat="45.96903" lon="4.78761">
        <ele>242</ele>
        <time>2018-09-30T08:44:39Z</time>
      </trkpt>
      <trkpt lat="45.96906" lon="4.78769">
        <ele>243</ele>
        <time>2018-09-30T08:44:40Z</time>
      </trkpt>
      <trkpt lat="45.96908" lon="4.78776">
        <ele>241</ele>
        <time>2018-09-30T08:44:41Z</time>
      </trkpt>
      <trkpt lat="45.9691" lon="4.78782">
        <ele>242</ele>
        <time>2018-09-30T08:44:42Z</time>
      </trkpt>
      <trkpt lat="45.96912" lon="4.78789">
        <ele>241</ele>
        <time>2018-09-30T08:44:43Z</time>
      </trkpt>
      <trkpt lat="45.96916" lon="4.78796">
        <ele>241</ele>
        <time>2018-09-30T08:44:44Z</time>
      </trkpt>
      <trkpt lat="45.9692" lon="4.78804">
        <ele>242</ele>
        <time>2018-09-30T08:44:46Z</time>
      </trkpt>
      <trkpt lat="45.96922" lon="4.78809">
        <ele>242</ele>
        <time>2018-09-30T08:44:47Z</time>
      </trkpt>
      <trkpt lat="45.96927" lon="4.78812">
        <ele>241</ele>
        <time>2018-09-30T08:44:48Z</time>
      </trkpt>
      <trkpt lat="45.9693" lon="4.78816">
        <ele>240</ele>
        <time>2018-09-30T08:44:49Z</time>
      </trkpt>
      <trkpt lat="45.96933" lon="4.7882">
        <ele>241</ele>
        <time>2018-09-30T08:44:50Z</time>
      </trkpt>
      <trkpt lat="45.96938" lon="4.78822">
        <ele>241</ele>
        <time>2018-09-30T08:44:51Z</time>
      </trkpt>
      <trkpt lat="45.96942" lon="4.78827">
        <ele>241</ele>
        <time>2018-09-30T08:44:52Z</time>
      </trkpt>
      <trkpt lat="45.96946" lon="4.78832">
        <ele>241</ele>
        <time>2018-09-30T08:44:53Z</time>
      </trkpt>
      <trkpt lat="45.96949" lon="4.78837">
        <ele>240</ele>
        <time>2018-09-30T08:44:54Z</time>
      </trkpt>
      <trkpt lat="45.96954" lon="4.78843">
        <ele>240</ele>
        <time>2018-09-30T08:44:55Z</time>
      </trkpt>
      <trkpt lat="45.96958" lon="4.78847">
        <ele>239</ele>
        <time>2018-09-30T08:44:56Z</time>
      </trkpt>
      <trkpt lat="45.96963" lon="4.78853">
        <ele>239</ele>
        <time>2018-09-30T08:44:57Z</time>
      </trkpt>
      <trkpt lat="45.96969" lon="4.78861">
        <ele>238</ele>
        <time>2018-09-30T08:44:59Z</time>
      </trkpt>
      <trkpt lat="45.96971" lon="4.78863">
        <ele>240</ele>
        <time>2018-09-30T08:45:00Z</time>
      </trkpt>
      <trkpt lat="45.96974" lon="4.78867">
        <ele>240</ele>
        <time>2018-09-30T08:45:01Z</time>
      </trkpt>
      <trkpt lat="45.96978" lon="4.78872">
        <ele>241</ele>
        <time>2018-09-30T08:45:02Z</time>
      </trkpt>
      <trkpt lat="45.96984" lon="4.7888">
        <ele>241</ele>
        <time>2018-09-30T08:45:04Z</time>
      </trkpt>
      <trkpt lat="45.96987" lon="4.78885">
        <ele>241</ele>
        <time>2018-09-30T08:45:05Z</time>
      </trkpt>
      <trkpt lat="45.96993" lon="4.78891">
        <ele>241</ele>
        <time>2018-09-30T08:45:07Z</time>
      </trkpt>
      <trkpt lat="45.96996" lon="4.78893">
        <ele>241</ele>
        <time>2018-09-30T08:45:08Z</time>
      </trkpt>
      <trkpt lat="45.97" lon="4.78897">
        <ele>241</ele>
        <time>2018-09-30T08:45:09Z</time>
      </trkpt>
      <trkpt lat="45.97004" lon="4.78903">
        <ele>239</ele>
        <time>2018-09-30T08:45:10Z</time>
      </trkpt>
      <trkpt lat="45.97008" lon="4.78908">
        <ele>242</ele>
        <time>2018-09-30T08:45:11Z</time>
      </trkpt>
      <trkpt lat="45.97011" lon="4.78912">
        <ele>242</ele>
        <time>2018-09-30T08:45:12Z</time>
      </trkpt>
      <trkpt lat="45.97017" lon="4.78919">
        <ele>240</ele>
        <time>2018-09-30T08:45:14Z</time>
      </trkpt>
      <trkpt lat="45.9702" lon="4.78922">
        <ele>241</ele>
        <time>2018-09-30T08:45:15Z</time>
      </trkpt>
      <trkpt lat="45.97024" lon="4.7893">
        <ele>241</ele>
        <time>2018-09-30T08:45:17Z</time>
      </trkpt>
      <trkpt lat="45.97027" lon="4.78934">
        <ele>241</ele>
        <time>2018-09-30T08:45:18Z</time>
      </trkpt>
      <trkpt lat="45.9703" lon="4.78939">
        <ele>241</ele>
        <time>2018-09-30T08:45:19Z</time>
      </trkpt>
      <trkpt lat="45.97033" lon="4.78944">
        <ele>241</ele>
        <time>2018-09-30T08:45:20Z</time>
      </trkpt>
      <trkpt lat="45.97039" lon="4.78953">
        <ele>242</ele>
        <time>2018-09-30T08:45:22Z</time>
      </trkpt>
      <trkpt lat="45.97041" lon="4.7896">
        <ele>242</ele>
        <time>2018-09-30T08:45:23Z</time>
      </trkpt>
      <trkpt lat="45.97046" lon="4.78969">
        <ele>241</ele>
        <time>2018-09-30T08:45:25Z</time>
      </trkpt>
      <trkpt lat="45.97048" lon="4.78975">
        <ele>242</ele>
        <time>2018-09-30T08:45:26Z</time>
      </trkpt>
      <trkpt lat="45.97052" lon="4.78985">
        <ele>242</ele>
        <time>2018-09-30T08:45:29Z</time>
      </trkpt>
      <trkpt lat="45.97053" lon="4.78988">
        <ele>243</ele>
        <time>2018-09-30T08:45:30Z</time>
      </trkpt>
      <trkpt lat="45.97054" lon="4.78993">
        <ele>242</ele>
        <time>2018-09-30T08:45:31Z</time>
      </trkpt>
      <trkpt lat="45.97057" lon="4.79005">
        <ele>241</ele>
        <time>2018-09-30T08:45:32Z</time>
      </trkpt>
      <trkpt lat="45.97059" lon="4.79015">
        <ele>242</ele>
        <time>2018-09-30T08:45:34Z</time>
      </trkpt>
      <trkpt lat="45.97062" lon="4.79021">
        <ele>242</ele>
        <time>2018-09-30T08:45:35Z</time>
      </trkpt>
      <trkpt lat="45.97064" lon="4.79028">
        <ele>241</ele>
        <time>2018-09-30T08:45:36Z</time>
      </trkpt>
      <trkpt lat="45.97065" lon="4.79034">
        <ele>241</ele>
        <time>2018-09-30T08:45:37Z</time>
      </trkpt>
      <trkpt lat="45.97066" lon="4.79041">
        <ele>241</ele>
        <time>2018-09-30T08:45:38Z</time>
      </trkpt>
      <trkpt lat="45.97068" lon="4.79048">
        <ele>242</ele>
        <time>2018-09-30T08:45:39Z</time>
      </trkpt>
      <trkpt lat="45.9707" lon="4.79055">
        <ele>241</ele>
        <time>2018-09-30T08:45:40Z</time>
      </trkpt>
      <trkpt lat="45.97072" lon="4.79062">
        <ele>242</ele>
        <time>2018-09-30T08:45:41Z</time>
      </trkpt>
      <trkpt lat="45.97075" lon="4.79066">
        <ele>242</ele>
        <time>2018-09-30T08:45:42Z</time>
      </trkpt>
      <trkpt lat="45.97077" lon="4.79073">
        <ele>242</ele>
        <time>2018-09-30T08:45:43Z</time>
      </trkpt>
      <trkpt lat="45.97079" lon="4.7908">
        <ele>242</ele>
        <time>2018-09-30T08:45:44Z</time>
      </trkpt>
      <trkpt lat="45.9708" lon="4.79088">
        <ele>242</ele>
        <time>2018-09-30T08:45:45Z</time>
      </trkpt>
      <trkpt lat="45.97083" lon="4.79095">
        <ele>240</ele>
        <time>2018-09-30T08:45:46Z</time>
      </trkpt>
      <trkpt lat="45.97085" lon="4.79099">
        <ele>240</ele>
        <time>2018-09-30T08:45:47Z</time>
      </trkpt>
      <trkpt lat="45.97088" lon="4.79109">
        <ele>242</ele>
        <time>2018-09-30T08:45:49Z</time>
      </trkpt>
      <trkpt lat="45.9709" lon="4.79116">
        <ele>243</ele>
        <time>2018-09-30T08:45:50Z</time>
      </trkpt>
      <trkpt lat="45.97094" lon="4.79128">
        <ele>243</ele>
        <time>2018-09-30T08:45:52Z</time>
      </trkpt>
      <trkpt lat="45.97097" lon="4.79133">
        <ele>243</ele>
        <time>2018-09-30T08:45:53Z</time>
      </trkpt>
      <trkpt lat="45.97101" lon="4.7914">
        <ele>241</ele>
        <time>2018-09-30T08:45:54Z</time>
      </trkpt>
      <trkpt lat="45.97104" lon="4.79146">
        <ele>240</ele>
        <time>2018-09-30T08:45:55Z</time>
      </trkpt>
      <trkpt lat="45.97107" lon="4.79152">
        <ele>240</ele>
        <time>2018-09-30T08:45:56Z</time>
      </trkpt>
      <trkpt lat="45.97111" lon="4.79156">
        <ele>240</ele>
        <time>2018-09-30T08:45:57Z</time>
      </trkpt>
      <trkpt lat="45.97116" lon="4.79164">
        <ele>240</ele>
        <time>2018-09-30T08:45:59Z</time>
      </trkpt>
      <trkpt lat="45.9712" lon="4.79171">
        <ele>239</ele>
        <time>2018-09-30T08:46:00Z</time>
      </trkpt>
      <trkpt lat="45.97123" lon="4.79177">
        <ele>238</ele>
        <time>2018-09-30T08:46:01Z</time>
      </trkpt>
      <trkpt lat="45.97125" lon="4.79184">
        <ele>237</ele>
        <time>2018-09-30T08:46:02Z</time>
      </trkpt>
      <trkpt lat="45.97126" lon="4.79189">
        <ele>239</ele>
        <time>2018-09-30T08:46:03Z</time>
      </trkpt>
      <trkpt lat="45.97129" lon="4.79195">
        <ele>240</ele>
        <time>2018-09-30T08:46:04Z</time>
      </trkpt>
      <trkpt lat="45.97132" lon="4.79203">
        <ele>240</ele>
        <time>2018-09-30T08:46:05Z</time>
      </trkpt>
      <trkpt lat="45.97135" lon="4.79208">
        <ele>241</ele>
        <time>2018-09-30T08:46:06Z</time>
      </trkpt>
      <trkpt lat="45.97138" lon="4.79217">
        <ele>240</ele>
        <time>2018-09-30T08:46:08Z</time>
      </trkpt>
      <trkpt lat="45.97141" lon="4.79222">
        <ele>240</ele>
        <time>2018-09-30T08:46:09Z</time>
      </trkpt>
      <trkpt lat="45.97145" lon="4.79232">
        <ele>240</ele>
        <time>2018-09-30T08:46:11Z</time>
      </trkpt>
      <trkpt lat="45.97148" lon="4.79237">
        <ele>240</ele>
        <time>2018-09-30T08:46:12Z</time>
      </trkpt>
      <trkpt lat="45.9715" lon="4.79243">
        <ele>240</ele>
        <time>2018-09-30T08:46:13Z</time>
      </trkpt>
      <trkpt lat="45.97152" lon="4.79249">
        <ele>240</ele>
        <time>2018-09-30T08:46:14Z</time>
      </trkpt>
      <trkpt lat="45.97157" lon="4.79259">
        <ele>240</ele>
        <time>2018-09-30T08:46:16Z</time>
      </trkpt>
      <trkpt lat="45.97159" lon="4.79264">
        <ele>241</ele>
        <time>2018-09-30T08:46:17Z</time>
      </trkpt>
      <trkpt lat="45.97162" lon="4.7927">
        <ele>241</ele>
        <time>2018-09-30T08:46:18Z</time>
      </trkpt>
      <trkpt lat="45.97164" lon="4.79275">
        <ele>241</ele>
        <time>2018-09-30T08:46:19Z</time>
      </trkpt>
      <trkpt lat="45.97167" lon="4.79285">
        <ele>242</ele>
        <time>2018-09-30T08:46:21Z</time>
      </trkpt>
      <trkpt lat="45.97169" lon="4.79291">
        <ele>242</ele>
        <time>2018-09-30T08:46:22Z</time>
      </trkpt>
      <trkpt lat="45.97171" lon="4.79297">
        <ele>242</ele>
        <time>2018-09-30T08:46:23Z</time>
      </trkpt>
      <trkpt lat="45.97172" lon="4.79303">
        <ele>242</ele>
        <time>2018-09-30T08:46:24Z</time>
      </trkpt>
      <trkpt lat="45.97175" lon="4.79311">
        <ele>242</ele>
        <time>2018-09-30T08:46:25Z</time>
      </trkpt>
      <trkpt lat="45.97177" lon="4.79318">
        <ele>241</ele>
        <time>2018-09-30T08:46:26Z</time>
      </trkpt>
      <trkpt lat="45.97179" lon="4.79323">
        <ele>241</ele>
        <time>2018-09-30T08:46:27Z</time>
      </trkpt>
      <trkpt lat="45.97181" lon="4.79329">
        <ele>242</ele>
        <time>2018-09-30T08:46:28Z</time>
      </trkpt>
      <trkpt lat="45.97187" lon="4.79338">
        <ele>243</ele>
        <time>2018-09-30T08:46:30Z</time>
      </trkpt>
      <trkpt lat="45.97189" lon="4.79346">
        <ele>239</ele>
        <time>2018-09-30T08:46:31Z</time>
      </trkpt>
      <trkpt lat="45.97191" lon="4.79352">
        <ele>240</ele>
        <time>2018-09-30T08:46:32Z</time>
      </trkpt>
      <trkpt lat="45.97194" lon="4.79357">
        <ele>239</ele>
        <time>2018-09-30T08:46:33Z</time>
      </trkpt>
      <trkpt lat="45.97197" lon="4.79363">
        <ele>240</ele>
        <time>2018-09-30T08:46:34Z</time>
      </trkpt>
      <trkpt lat="45.97199" lon="4.79368">
        <ele>240</ele>
        <time>2018-09-30T08:46:35Z</time>
      </trkpt>
      <trkpt lat="45.97202" lon="4.79374">
        <ele>240</ele>
        <time>2018-09-30T08:46:36Z</time>
      </trkpt>
      <trkpt lat="45.97204" lon="4.7938">
        <ele>240</ele>
        <time>2018-09-30T08:46:37Z</time>
      </trkpt>
      <trkpt lat="45.97208" lon="4.79389">
        <ele>241</ele>
        <time>2018-09-30T08:46:39Z</time>
      </trkpt>
      <trkpt lat="45.97211" lon="4.79394">
        <ele>242</ele>
        <time>2018-09-30T08:46:40Z</time>
      </trkpt>
      <trkpt lat="45.97213" lon="4.794">
        <ele>242</ele>
        <time>2018-09-30T08:46:41Z</time>
      </trkpt>
      <trkpt lat="45.97215" lon="4.79406">
        <ele>241</ele>
        <time>2018-09-30T08:46:42Z</time>
      </trkpt>
      <trkpt lat="45.97218" lon="4.79416">
        <ele>241</ele>
        <time>2018-09-30T08:46:44Z</time>
      </trkpt>
      <trkpt lat="45.97219" lon="4.79423">
        <ele>236</ele>
        <time>2018-09-30T08:46:45Z</time>
      </trkpt>
      <trkpt lat="45.97224" lon="4.79434">
        <ele>237</ele>
        <time>2018-09-30T08:46:47Z</time>
      </trkpt>
      <trkpt lat="45.97226" lon="4.79438">
        <ele>239</ele>
        <time>2018-09-30T08:46:48Z</time>
      </trkpt>
      <trkpt lat="45.97231" lon="4.79447">
        <ele>239</ele>
        <time>2018-09-30T08:46:50Z</time>
      </trkpt>
      <trkpt lat="45.97234" lon="4.79452">
        <ele>240</ele>
        <time>2018-09-30T08:46:51Z</time>
      </trkpt>
      <trkpt lat="45.97238" lon="4.79461">
        <ele>239</ele>
        <time>2018-09-30T08:46:53Z</time>
      </trkpt>
      <trkpt lat="45.97239" lon="4.79466">
        <ele>240</ele>
        <time>2018-09-30T08:46:54Z</time>
      </trkpt>
      <trkpt lat="45.97242" lon="4.79476">
        <ele>240</ele>
        <time>2018-09-30T08:46:56Z</time>
      </trkpt>
      <trkpt lat="45.97243" lon="4.79482">
        <ele>240</ele>
        <time>2018-09-30T08:46:57Z</time>
      </trkpt>
      <trkpt lat="45.97245" lon="4.79492">
        <ele>240</ele>
        <time>2018-09-30T08:46:59Z</time>
      </trkpt>
      <trkpt lat="45.97246" lon="4.79495">
        <ele>241</ele>
        <time>2018-09-30T08:47:00Z</time>
      </trkpt>
      <trkpt lat="45.97249" lon="4.79507">
        <ele>241</ele>
        <time>2018-09-30T08:47:02Z</time>
      </trkpt>
      <trkpt lat="45.9725" lon="4.79512">
        <ele>242</ele>
        <time>2018-09-30T08:47:03Z</time>
      </trkpt>
      <trkpt lat="45.97251" lon="4.79523">
        <ele>242</ele>
        <time>2018-09-30T08:47:05Z</time>
      </trkpt>
      <trkpt lat="45.97252" lon="4.79529">
        <ele>242</ele>
        <time>2018-09-30T08:47:06Z</time>
      </trkpt>
      <trkpt lat="45.97254" lon="4.79541">
        <ele>243</ele>
        <time>2018-09-30T08:47:08Z</time>
      </trkpt>
      <trkpt lat="45.97255" lon="4.79547">
        <ele>243</ele>
        <time>2018-09-30T08:47:09Z</time>
      </trkpt>
      <trkpt lat="45.97256" lon="4.79553">
        <ele>243</ele>
        <time>2018-09-30T08:47:10Z</time>
      </trkpt>
      <trkpt lat="45.97257" lon="4.79559">
        <ele>243</ele>
        <time>2018-09-30T08:47:11Z</time>
      </trkpt>
      <trkpt lat="45.9726" lon="4.79571">
        <ele>243</ele>
        <time>2018-09-30T08:47:13Z</time>
      </trkpt>
      <trkpt lat="45.97261" lon="4.79577">
        <ele>243</ele>
        <time>2018-09-30T08:47:14Z</time>
      </trkpt>
      <trkpt lat="45.97262" lon="4.79586">
        <ele>244</ele>
        <time>2018-09-30T08:47:16Z</time>
      </trkpt>
      <trkpt lat="45.97261" lon="4.79594">
        <ele>245</ele>
        <time>2018-09-30T08:47:17Z</time>
      </trkpt>
      <trkpt lat="45.9726" lon="4.79605">
        <ele>247</ele>
        <time>2018-09-30T08:47:19Z</time>
      </trkpt>
      <trkpt lat="45.9726" lon="4.7961">
        <ele>248</ele>
        <time>2018-09-30T08:47:20Z</time>
      </trkpt>
      <trkpt lat="45.97258" lon="4.79622">
        <ele>249</ele>
        <time>2018-09-30T08:47:22Z</time>
      </trkpt>
      <trkpt lat="45.97257" lon="4.79626">
        <ele>250</ele>
        <time>2018-09-30T08:47:23Z</time>
      </trkpt>
      <trkpt lat="45.97258" lon="4.79638">
        <ele>249</ele>
        <time>2018-09-30T08:47:25Z</time>
      </trkpt>
      <trkpt lat="45.97258" lon="4.79645">
        <ele>249</ele>
        <time>2018-09-30T08:47:26Z</time>
      </trkpt>
      <trkpt lat="45.97257" lon="4.7965">
        <ele>249</ele>
        <time>2018-09-30T08:47:27Z</time>
      </trkpt>
      <trkpt lat="45.97253" lon="4.79656">
        <ele>250</ele>
        <time>2018-09-30T08:47:28Z</time>
      </trkpt>
      <trkpt lat="45.97254" lon="4.79664">
        <ele>248</ele>
        <time>2018-09-30T08:47:29Z</time>
      </trkpt>
      <trkpt lat="45.97253" lon="4.79672">
        <ele>247</ele>
        <time>2018-09-30T08:47:30Z</time>
      </trkpt>
      <trkpt lat="45.97251" lon="4.79679">
        <ele>248</ele>
        <time>2018-09-30T08:47:31Z</time>
      </trkpt>
      <trkpt lat="45.9725" lon="4.79685">
        <ele>248</ele>
        <time>2018-09-30T08:47:32Z</time>
      </trkpt>
      <trkpt lat="45.97249" lon="4.79697">
        <ele>248</ele>
        <time>2018-09-30T08:47:34Z</time>
      </trkpt>
      <trkpt lat="45.97248" lon="4.79704">
        <ele>248</ele>
        <time>2018-09-30T08:47:35Z</time>
      </trkpt>
      <trkpt lat="45.97247" lon="4.79711">
        <ele>249</ele>
        <time>2018-09-30T08:47:36Z</time>
      </trkpt>
      <trkpt lat="45.97246" lon="4.79718">
        <ele>249</ele>
        <time>2018-09-30T08:47:37Z</time>
      </trkpt>
      <trkpt lat="45.97245" lon="4.79729">
        <ele>250</ele>
        <time>2018-09-30T08:47:39Z</time>
      </trkpt>
      <trkpt lat="45.97245" lon="4.79731">
        <ele>250</ele>
        <time>2018-09-30T08:47:40Z</time>
      </trkpt>
      <trkpt lat="45.97245" lon="4.79734">
        <ele>250</ele>
        <time>2018-09-30T08:47:41Z</time>
      </trkpt>
      <trkpt lat="45.97243" lon="4.79744">
        <ele>251</ele>
        <time>2018-09-30T08:47:42Z</time>
      </trkpt>
      <trkpt lat="45.97241" lon="4.79755">
        <ele>252</ele>
        <time>2018-09-30T08:47:44Z</time>
      </trkpt>
      <trkpt lat="45.9724" lon="4.79759">
        <ele>252</ele>
        <time>2018-09-30T08:47:45Z</time>
      </trkpt>
      <trkpt lat="45.97239" lon="4.79765">
        <ele>253</ele>
        <time>2018-09-30T08:47:46Z</time>
      </trkpt>
      <trkpt lat="45.97239" lon="4.79772">
        <ele>253</ele>
        <time>2018-09-30T08:47:47Z</time>
      </trkpt>
      <trkpt lat="45.97238" lon="4.79779">
        <ele>253</ele>
        <time>2018-09-30T08:47:48Z</time>
      </trkpt>
      <trkpt lat="45.97238" lon="4.79786">
        <ele>253</ele>
        <time>2018-09-30T08:47:49Z</time>
      </trkpt>
      <trkpt lat="45.97237" lon="4.79795">
        <ele>251</ele>
        <time>2018-09-30T08:47:50Z</time>
      </trkpt>
      <trkpt lat="45.97237" lon="4.79801">
        <ele>251</ele>
        <time>2018-09-30T08:47:51Z</time>
      </trkpt>
      <trkpt lat="45.97238" lon="4.79807">
        <ele>252</ele>
        <time>2018-09-30T08:47:52Z</time>
      </trkpt>
      <trkpt lat="45.97238" lon="4.79815">
        <ele>251</ele>
        <time>2018-09-30T08:47:53Z</time>
      </trkpt>
      <trkpt lat="45.97236" lon="4.79828">
        <ele>251</ele>
        <time>2018-09-30T08:47:55Z</time>
      </trkpt>
      <trkpt lat="45.97237" lon="4.79834">
        <ele>250</ele>
        <time>2018-09-30T08:47:56Z</time>
      </trkpt>
      <trkpt lat="45.97238" lon="4.79845">
        <ele>251</ele>
        <time>2018-09-30T08:47:58Z</time>
      </trkpt>
      <trkpt lat="45.97239" lon="4.79852">
        <ele>252</ele>
        <time>2018-09-30T08:47:59Z</time>
      </trkpt>
      <trkpt lat="45.9724" lon="4.79858">
        <ele>253</ele>
        <time>2018-09-30T08:48:00Z</time>
      </trkpt>
      <trkpt lat="45.97242" lon="4.79865">
        <ele>252</ele>
        <time>2018-09-30T08:48:01Z</time>
      </trkpt>
      <trkpt lat="45.97241" lon="4.79875">
        <ele>253</ele>
        <time>2018-09-30T08:48:04Z</time>
      </trkpt>
      <trkpt lat="45.97245" lon="4.79884">
        <ele>252</ele>
        <time>2018-09-30T08:48:05Z</time>
      </trkpt>
      <trkpt lat="45.97247" lon="4.79895">
        <ele>253</ele>
        <time>2018-09-30T08:48:09Z</time>
      </trkpt>
      <trkpt lat="45.97248" lon="4.79897">
        <ele>253</ele>
        <time>2018-09-30T08:48:10Z</time>
      </trkpt>
      <trkpt lat="45.97246" lon="4.79908">
        <ele>252</ele>
        <time>2018-09-30T08:48:15Z</time>
      </trkpt>
      <trkpt lat="45.97244" lon="4.7991">
        <ele>252</ele>
        <time>2018-09-30T08:48:16Z</time>
      </trkpt>
      <trkpt lat="45.97237" lon="4.79914">
        <ele>251</ele>
        <time>2018-09-30T08:48:17Z</time>
      </trkpt>
      <trkpt lat="45.97233" lon="4.79915">
        <ele>251</ele>
        <time>2018-09-30T08:48:18Z</time>
      </trkpt>
      <trkpt lat="45.97227" lon="4.79917">
        <ele>252</ele>
        <time>2018-09-30T08:48:20Z</time>
      </trkpt>
      <trkpt lat="45.97221" lon="4.79918">
        <ele>252</ele>
        <time>2018-09-30T08:48:21Z</time>
      </trkpt>
      <trkpt lat="45.97212" lon="4.7992">
        <ele>253</ele>
        <time>2018-09-30T08:48:23Z</time>
      </trkpt>
      <trkpt lat="45.97208" lon="4.7992">
        <ele>253</ele>
        <time>2018-09-30T08:48:24Z</time>
      </trkpt>
      <trkpt lat="45.972" lon="4.79921">
        <ele>255</ele>
        <time>2018-09-30T08:48:26Z</time>
      </trkpt>
      <trkpt lat="45.97195" lon="4.79922">
        <ele>255</ele>
        <time>2018-09-30T08:48:27Z</time>
      </trkpt>
      <trkpt lat="45.97189" lon="4.79924">
        <ele>253</ele>
        <time>2018-09-30T08:48:29Z</time>
      </trkpt>
      <trkpt lat="45.97186" lon="4.79925">
        <ele>252</ele>
        <time>2018-09-30T08:48:30Z</time>
      </trkpt>
      <trkpt lat="45.97178" lon="4.79927">
        <ele>252</ele>
        <time>2018-09-30T08:48:32Z</time>
      </trkpt>
      <trkpt lat="45.97174" lon="4.79928">
        <ele>252</ele>
        <time>2018-09-30T08:48:33Z</time>
      </trkpt>
      <trkpt lat="45.97169" lon="4.79929">
        <ele>253</ele>
        <time>2018-09-30T08:48:35Z</time>
      </trkpt>
      <trkpt lat="45.97164" lon="4.7993">
        <ele>252</ele>
        <time>2018-09-30T08:48:36Z</time>
      </trkpt>
      <trkpt lat="45.97155" lon="4.79931">
        <ele>253</ele>
        <time>2018-09-30T08:48:38Z</time>
      </trkpt>
      <trkpt lat="45.97151" lon="4.79931">
        <ele>254</ele>
        <time>2018-09-30T08:48:39Z</time>
      </trkpt>
      <trkpt lat="45.97144" lon="4.79932">
        <ele>251</ele>
        <time>2018-09-30T08:48:41Z</time>
      </trkpt>
      <trkpt lat="45.9714" lon="4.79932">
        <ele>252</ele>
        <time>2018-09-30T08:48:42Z</time>
      </trkpt>
      <trkpt lat="45.97133" lon="4.79935">
        <ele>251</ele>
        <time>2018-09-30T08:48:45Z</time>
      </trkpt>
      <trkpt lat="45.97127" lon="4.79937">
        <ele>251</ele>
        <time>2018-09-30T08:48:46Z</time>
      </trkpt>
      <trkpt lat="45.9712" lon="4.79941">
        <ele>250</ele>
        <time>2018-09-30T08:48:48Z</time>
      </trkpt>
      <trkpt lat="45.97116" lon="4.79942">
        <ele>250</ele>
        <time>2018-09-30T08:48:49Z</time>
      </trkpt>
      <trkpt lat="45.97108" lon="4.79948">
        <ele>250</ele>
        <time>2018-09-30T08:48:51Z</time>
      </trkpt>
      <trkpt lat="45.97104" lon="4.7995">
        <ele>250</ele>
        <time>2018-09-30T08:48:52Z</time>
      </trkpt>
      <trkpt lat="45.97095" lon="4.79954">
        <ele>249</ele>
        <time>2018-09-30T08:48:54Z</time>
      </trkpt>
      <trkpt lat="45.97091" lon="4.79955">
        <ele>249</ele>
        <time>2018-09-30T08:48:55Z</time>
      </trkpt>
      <trkpt lat="45.97085" lon="4.79957">
        <ele>251</ele>
        <time>2018-09-30T08:48:57Z</time>
      </trkpt>
      <trkpt lat="45.97081" lon="4.79959">
        <ele>252</ele>
        <time>2018-09-30T08:48:58Z</time>
      </trkpt>
      <trkpt lat="45.97076" lon="4.79959">
        <ele>252</ele>
        <time>2018-09-30T08:48:59Z</time>
      </trkpt>
      <trkpt lat="45.97072" lon="4.7996">
        <ele>251</ele>
        <time>2018-09-30T08:49:00Z</time>
      </trkpt>
      <trkpt lat="45.97064" lon="4.7996">
        <ele>251</ele>
        <time>2018-09-30T08:49:02Z</time>
      </trkpt>
      <trkpt lat="45.9706" lon="4.79961">
        <ele>251</ele>
        <time>2018-09-30T08:49:03Z</time>
      </trkpt>
      <trkpt lat="45.97051" lon="4.79961">
        <ele>250</ele>
        <time>2018-09-30T08:49:05Z</time>
      </trkpt>
      <trkpt lat="45.97046" lon="4.79961">
        <ele>251</ele>
        <time>2018-09-30T08:49:06Z</time>
      </trkpt>
      <trkpt lat="45.9704" lon="4.7996">
        <ele>250</ele>
        <time>2018-09-30T08:49:08Z</time>
      </trkpt>
      <trkpt lat="45.97036" lon="4.79958">
        <ele>249</ele>
        <time>2018-09-30T08:49:09Z</time>
      </trkpt>
      <trkpt lat="45.97031" lon="4.79957">
        <ele>248</ele>
        <time>2018-09-30T08:49:10Z</time>
      </trkpt>
      <trkpt lat="45.97026" lon="4.79956">
        <ele>249</ele>
        <time>2018-09-30T08:49:11Z</time>
      </trkpt>
      <trkpt lat="45.97017" lon="4.79953">
        <ele>248</ele>
        <time>2018-09-30T08:49:13Z</time>
      </trkpt>
      <trkpt lat="45.97013" lon="4.79954">
        <ele>245</ele>
        <time>2018-09-30T08:49:14Z</time>
      </trkpt>
      <trkpt lat="45.97008" lon="4.79953">
        <ele>244</ele>
        <time>2018-09-30T08:49:15Z</time>
      </trkpt>
      <trkpt lat="45.97004" lon="4.79954">
        <ele>246</ele>
        <time>2018-09-30T08:49:16Z</time>
      </trkpt>
      <trkpt lat="45.96999" lon="4.79953">
        <ele>246</ele>
        <time>2018-09-30T08:49:17Z</time>
      </trkpt>
      <trkpt lat="45.96991" lon="4.79955">
        <ele>245</ele>
        <time>2018-09-30T08:49:18Z</time>
      </trkpt>
      <trkpt lat="45.96985" lon="4.79955">
        <ele>245</ele>
        <time>2018-09-30T08:49:19Z</time>
      </trkpt>
      <trkpt lat="45.96981" lon="4.79953">
        <ele>241</ele>
        <time>2018-09-30T08:49:20Z</time>
      </trkpt>
      <trkpt lat="45.96974" lon="4.7995">
        <ele>242</ele>
        <time>2018-09-30T08:49:21Z</time>
      </trkpt>
      <trkpt lat="45.96969" lon="4.79948">
        <ele>242</ele>
        <time>2018-09-30T08:49:22Z</time>
      </trkpt>
      <trkpt lat="45.96963" lon="4.79948">
        <ele>244</ele>
        <time>2018-09-30T08:49:23Z</time>
      </trkpt>
      <trkpt lat="45.9696" lon="4.79949">
        <ele>244</ele>
        <time>2018-09-30T08:49:24Z</time>
      </trkpt>
      <trkpt lat="45.96954" lon="4.79949">
        <ele>245</ele>
        <time>2018-09-30T08:49:25Z</time>
      </trkpt>
      <trkpt lat="45.96951" lon="4.79952">
        <ele>246</ele>
        <time>2018-09-30T08:49:26Z</time>
      </trkpt>
      <trkpt lat="45.96949" lon="4.7996">
        <ele>247</ele>
        <time>2018-09-30T08:49:28Z</time>
      </trkpt>
      <trkpt lat="45.96949" lon="4.79966">
        <ele>249</ele>
        <time>2018-09-30T08:49:29Z</time>
      </trkpt>
      <trkpt lat="45.96953" lon="4.79972">
        <ele>250</ele>
        <time>2018-09-30T08:49:31Z</time>
      </trkpt>
      <trkpt lat="45.96956" lon="4.79978">
        <ele>251</ele>
        <time>2018-09-30T08:49:32Z</time>
      </trkpt>
      <trkpt lat="45.96962" lon="4.79983">
        <ele>253</ele>
        <time>2018-09-30T08:49:34Z</time>
      </trkpt>
      <trkpt lat="45.96965" lon="4.79987">
        <ele>253</ele>
        <time>2018-09-30T08:49:35Z</time>
      </trkpt>
      <trkpt lat="45.96968" lon="4.79994">
        <ele>252</ele>
        <time>2018-09-30T08:49:37Z</time>
      </trkpt>
      <trkpt lat="45.96973" lon="4.79999">
        <ele>253</ele>
        <time>2018-09-30T08:49:38Z</time>
      </trkpt>
      <trkpt lat="45.96978" lon="4.80007">
        <ele>252</ele>
        <time>2018-09-30T08:49:40Z</time>
      </trkpt>
      <trkpt lat="45.96981" lon="4.80012">
        <ele>252</ele>
        <time>2018-09-30T08:49:41Z</time>
      </trkpt>
      <trkpt lat="45.96988" lon="4.8002">
        <ele>253</ele>
        <time>2018-09-30T08:49:43Z</time>
      </trkpt>
      <trkpt lat="45.96991" lon="4.80024">
        <ele>253</ele>
        <time>2018-09-30T08:49:44Z</time>
      </trkpt>
      <trkpt lat="45.96997" lon="4.80031">
        <ele>254</ele>
        <time>2018-09-30T08:49:46Z</time>
      </trkpt>
      <trkpt lat="45.96999" lon="4.80033">
        <ele>255</ele>
        <time>2018-09-30T08:49:47Z</time>
      </trkpt>
      <trkpt lat="45.97003" lon="4.80036">
        <ele>254</ele>
        <time>2018-09-30T08:49:49Z</time>
      </trkpt>
      <trkpt lat="45.97009" lon="4.80041">
        <ele>254</ele>
        <time>2018-09-30T08:49:50Z</time>
      </trkpt>
      <trkpt lat="45.97017" lon="4.80046">
        <ele>252</ele>
        <time>2018-09-30T08:49:52Z</time>
      </trkpt>
      <trkpt lat="45.97021" lon="4.80048">
        <ele>252</ele>
        <time>2018-09-30T08:49:53Z</time>
      </trkpt>
      <trkpt lat="45.97027" lon="4.80055">
        <ele>253</ele>
        <time>2018-09-30T08:49:55Z</time>
      </trkpt>
      <trkpt lat="45.97029" lon="4.8006">
        <ele>253</ele>
        <time>2018-09-30T08:49:56Z</time>
      </trkpt>
      <trkpt lat="45.97033" lon="4.8007">
        <ele>255</ele>
        <time>2018-09-30T08:49:58Z</time>
      </trkpt>
      <trkpt lat="45.97034" lon="4.80075">
        <ele>255</ele>
        <time>2018-09-30T08:49:59Z</time>
      </trkpt>
      <trkpt lat="45.97039" lon="4.80085">
        <ele>255</ele>
        <time>2018-09-30T08:50:01Z</time>
      </trkpt>
      <trkpt lat="45.97041" lon="4.8009">
        <ele>255</ele>
        <time>2018-09-30T08:50:02Z</time>
      </trkpt>
      <trkpt lat="45.97047" lon="4.80099">
        <ele>255</ele>
        <time>2018-09-30T08:50:04Z</time>
      </trkpt>
      <trkpt lat="45.9705" lon="4.80103">
        <ele>255</ele>
        <time>2018-09-30T08:50:05Z</time>
      </trkpt>
      <trkpt lat="45.97055" lon="4.8011">
        <ele>256</ele>
        <time>2018-09-30T08:50:07Z</time>
      </trkpt>
      <trkpt lat="45.97056" lon="4.80112">
        <ele>256</ele>
        <time>2018-09-30T08:50:08Z</time>
      </trkpt>
      <trkpt lat="45.9706" lon="4.80117">
        <ele>257</ele>
        <time>2018-09-30T08:50:10Z</time>
      </trkpt>
      <trkpt lat="45.97065" lon="4.80125">
        <ele>257</ele>
        <time>2018-09-30T08:50:11Z</time>
      </trkpt>
      <trkpt lat="45.97071" lon="4.80133">
        <ele>256</ele>
        <time>2018-09-30T08:50:13Z</time>
      </trkpt>
      <trkpt lat="45.97074" lon="4.80136">
        <ele>256</ele>
        <time>2018-09-30T08:50:14Z</time>
      </trkpt>
      <trkpt lat="45.97079" lon="4.80143">
        <ele>254</ele>
        <time>2018-09-30T08:50:17Z</time>
      </trkpt>
      <trkpt lat="45.97081" lon="4.80146">
        <ele>254</ele>
        <time>2018-09-30T08:50:18Z</time>
      </trkpt>
      <trkpt lat="45.97087" lon="4.80155">
        <ele>254</ele>
        <time>2018-09-30T08:50:21Z</time>
      </trkpt>
      <trkpt lat="45.9709" lon="4.80158">
        <ele>255</ele>
        <time>2018-09-30T08:50:22Z</time>
      </trkpt>
      <trkpt lat="45.97094" lon="4.80165">
        <ele>257</ele>
        <time>2018-09-30T08:50:24Z</time>
      </trkpt>
      <trkpt lat="45.97096" lon="4.80168">
        <ele>257</ele>
        <time>2018-09-30T08:50:25Z</time>
      </trkpt>
      <trkpt lat="45.97102" lon="4.80176">
        <ele>256</ele>
        <time>2018-09-30T08:50:28Z</time>
      </trkpt>
      <trkpt lat="45.97103" lon="4.80179">
        <ele>258</ele>
        <time>2018-09-30T08:50:29Z</time>
      </trkpt>
      <trkpt lat="45.97109" lon="4.80188">
        <ele>258</ele>
        <time>2018-09-30T08:50:32Z</time>
      </trkpt>
      <trkpt lat="45.97111" lon="4.80192">
        <ele>258</ele>
        <time>2018-09-30T08:50:33Z</time>
      </trkpt>
      <trkpt lat="45.97116" lon="4.80201">
        <ele>258</ele>
        <time>2018-09-30T08:50:36Z</time>
      </trkpt>
      <trkpt lat="45.97118" lon="4.80204">
        <ele>258</ele>
        <time>2018-09-30T08:50:37Z</time>
      </trkpt>
      <trkpt lat="45.97123" lon="4.80214">
        <ele>256</ele>
        <time>2018-09-30T08:50:40Z</time>
      </trkpt>
      <trkpt lat="45.97125" lon="4.80217">
        <ele>258</ele>
        <time>2018-09-30T08:50:41Z</time>
      </trkpt>
      <trkpt lat="45.9713" lon="4.80227">
        <ele>259</ele>
        <time>2018-09-30T08:50:44Z</time>
      </trkpt>
      <trkpt lat="45.97131" lon="4.8023">
        <ele>259</ele>
        <time>2018-09-30T08:50:45Z</time>
      </trkpt>
      <trkpt lat="45.97136" lon="4.8024">
        <ele>257</ele>
        <time>2018-09-30T08:50:49Z</time>
      </trkpt>
      <trkpt lat="45.97137" lon="4.80243">
        <ele>257</ele>
        <time>2018-09-30T08:50:50Z</time>
      </trkpt>
      <trkpt lat="45.9714" lon="4.80252">
        <ele>257</ele>
        <time>2018-09-30T08:50:53Z</time>
      </trkpt>
      <trkpt lat="45.97142" lon="4.80256">
        <ele>255</ele>
        <time>2018-09-30T08:50:54Z</time>
      </trkpt>
      <trkpt lat="45.97144" lon="4.80265">
        <ele>256</ele>
        <time>2018-09-30T08:50:56Z</time>
      </trkpt>
      <trkpt lat="45.97145" lon="4.80269">
        <ele>256</ele>
        <time>2018-09-30T08:50:57Z</time>
      </trkpt>
      <trkpt lat="45.97148" lon="4.80278">
        <ele>259</ele>
        <time>2018-09-30T08:51:00Z</time>
      </trkpt>
      <trkpt lat="45.97149" lon="4.80282">
        <ele>259</ele>
        <time>2018-09-30T08:51:01Z</time>
      </trkpt>
      <trkpt lat="45.97154" lon="4.80297">
        <ele>258</ele>
        <time>2018-09-30T08:51:02Z</time>
      </trkpt>
      <trkpt lat="45.97157" lon="4.80308">
        <ele>259</ele>
        <time>2018-09-30T08:51:04Z</time>
      </trkpt>
      <trkpt lat="45.97158" lon="4.80314">
        <ele>259</ele>
        <time>2018-09-30T08:51:05Z</time>
      </trkpt>
      <trkpt lat="45.97161" lon="4.80324">
        <ele>258</ele>
        <time>2018-09-30T08:51:07Z</time>
      </trkpt>
      <trkpt lat="45.97162" lon="4.8033">
        <ele>257</ele>
        <time>2018-09-30T08:51:08Z</time>
      </trkpt>
      <trkpt lat="45.97164" lon="4.8034">
        <ele>256</ele>
        <time>2018-09-30T08:51:11Z</time>
      </trkpt>
      <trkpt lat="45.97165" lon="4.80344">
        <ele>257</ele>
        <time>2018-09-30T08:51:12Z</time>
      </trkpt>
      <trkpt lat="45.97169" lon="4.80355">
        <ele>256</ele>
        <time>2018-09-30T08:51:13Z</time>
      </trkpt>
      <trkpt lat="45.97171" lon="4.8036">
        <ele>257</ele>
        <time>2018-09-30T08:51:14Z</time>
      </trkpt>
      <trkpt lat="45.97174" lon="4.80371">
        <ele>258</ele>
        <time>2018-09-30T08:51:16Z</time>
      </trkpt>
      <trkpt lat="45.97176" lon="4.80376">
        <ele>258</ele>
        <time>2018-09-30T08:51:17Z</time>
      </trkpt>
      <trkpt lat="45.9718" lon="4.80386">
        <ele>259</ele>
        <time>2018-09-30T08:51:19Z</time>
      </trkpt>
      <trkpt lat="45.97182" lon="4.80392">
        <ele>259</ele>
        <time>2018-09-30T08:51:20Z</time>
      </trkpt>
      <trkpt lat="45.97186" lon="4.80403">
        <ele>258</ele>
        <time>2018-09-30T08:51:22Z</time>
      </trkpt>
      <trkpt lat="45.97188" lon="4.80407">
        <ele>257</ele>
        <time>2018-09-30T08:51:23Z</time>
      </trkpt>
      <trkpt lat="45.9719" lon="4.80417">
        <ele>259</ele>
        <time>2018-09-30T08:51:26Z</time>
      </trkpt>
      <trkpt lat="45.97194" lon="4.80426">
        <ele>258</ele>
        <time>2018-09-30T08:51:27Z</time>
      </trkpt>
      <trkpt lat="45.97198" lon="4.80437">
        <ele>259</ele>
        <time>2018-09-30T08:51:30Z</time>
      </trkpt>
      <trkpt lat="45.972" lon="4.80444">
        <ele>258</ele>
        <time>2018-09-30T08:51:31Z</time>
      </trkpt>
      <trkpt lat="45.97202" lon="4.80452">
        <ele>261</ele>
        <time>2018-09-30T08:51:33Z</time>
      </trkpt>
      <trkpt lat="45.97204" lon="4.80459">
        <ele>261</ele>
        <time>2018-09-30T08:51:34Z</time>
      </trkpt>
      <trkpt lat="45.97208" lon="4.8047">
        <ele>263</ele>
        <time>2018-09-30T08:51:38Z</time>
      </trkpt>
      <trkpt lat="45.97209" lon="4.80474">
        <ele>264</ele>
        <time>2018-09-30T08:51:39Z</time>
      </trkpt>
      <trkpt lat="45.97212" lon="4.80485">
        <ele>265</ele>
        <time>2018-09-30T08:51:42Z</time>
      </trkpt>
      <trkpt lat="45.97213" lon="4.80489">
        <ele>265</ele>
        <time>2018-09-30T08:51:43Z</time>
      </trkpt>
      <trkpt lat="45.97216" lon="4.80497">
        <ele>265</ele>
        <time>2018-09-30T08:51:45Z</time>
      </trkpt>
      <trkpt lat="45.9722" lon="4.8051">
        <ele>266</ele>
        <time>2018-09-30T08:51:46Z</time>
      </trkpt>
      <trkpt lat="45.97223" lon="4.80522">
        <ele>266</ele>
        <time>2018-09-30T08:51:50Z</time>
      </trkpt>
      <trkpt lat="45.97224" lon="4.80525">
        <ele>267</ele>
        <time>2018-09-30T08:51:51Z</time>
      </trkpt>
      <trkpt lat="45.97227" lon="4.80533">
        <ele>267</ele>
        <time>2018-09-30T08:51:53Z</time>
      </trkpt>
      <trkpt lat="45.97228" lon="4.80537">
        <ele>268</ele>
        <time>2018-09-30T08:51:54Z</time>
      </trkpt>
      <trkpt lat="45.97229" lon="4.80542">
        <ele>268</ele>
        <time>2018-09-30T08:51:55Z</time>
      </trkpt>
      <trkpt lat="45.97232" lon="4.80559">
        <ele>268</ele>
        <time>2018-09-30T08:51:56Z</time>
      </trkpt>
      <trkpt lat="45.97234" lon="4.80566">
        <ele>270</ele>
        <time>2018-09-30T08:51:59Z</time>
      </trkpt>
      <trkpt lat="45.97235" lon="4.80574">
        <ele>271</ele>
        <time>2018-09-30T08:52:00Z</time>
      </trkpt>
      <trkpt lat="45.97237" lon="4.80583">
        <ele>272</ele>
        <time>2018-09-30T08:52:02Z</time>
      </trkpt>
      <trkpt lat="45.97239" lon="4.80589">
        <ele>271</ele>
        <time>2018-09-30T08:52:03Z</time>
      </trkpt>
      <trkpt lat="45.9724" lon="4.80599">
        <ele>273</ele>
        <time>2018-09-30T08:52:05Z</time>
      </trkpt>
      <trkpt lat="45.97241" lon="4.80605">
        <ele>273</ele>
        <time>2018-09-30T08:52:06Z</time>
      </trkpt>
      <trkpt lat="45.97242" lon="4.80617">
        <ele>275</ele>
        <time>2018-09-30T08:52:08Z</time>
      </trkpt>
      <trkpt lat="45.97242" lon="4.80623">
        <ele>275</ele>
        <time>2018-09-30T08:52:09Z</time>
      </trkpt>
      <trkpt lat="45.97243" lon="4.80634">
        <ele>269</ele>
        <time>2018-09-30T08:52:11Z</time>
      </trkpt>
      <trkpt lat="45.97243" lon="4.8064">
        <ele>272</ele>
        <time>2018-09-30T08:52:12Z</time>
      </trkpt>
      <trkpt lat="45.97244" lon="4.80653">
        <ele>271</ele>
        <time>2018-09-30T08:52:14Z</time>
      </trkpt>
      <trkpt lat="45.97246" lon="4.80661">
        <ele>271</ele>
        <time>2018-09-30T08:52:15Z</time>
      </trkpt>
      <trkpt lat="45.97247" lon="4.80667">
        <ele>270</ele>
        <time>2018-09-30T08:52:16Z</time>
      </trkpt>
      <trkpt lat="45.97248" lon="4.80673">
        <ele>270</ele>
        <time>2018-09-30T08:52:17Z</time>
      </trkpt>
      <trkpt lat="45.97247" lon="4.80686">
        <ele>270</ele>
        <time>2018-09-30T08:52:19Z</time>
      </trkpt>
      <trkpt lat="45.97247" lon="4.80692">
        <ele>271</ele>
        <time>2018-09-30T08:52:20Z</time>
      </trkpt>
      <trkpt lat="45.97247" lon="4.80704">
        <ele>271</ele>
        <time>2018-09-30T08:52:22Z</time>
      </trkpt>
      <trkpt lat="45.97248" lon="4.8071">
        <ele>271</ele>
        <time>2018-09-30T08:52:23Z</time>
      </trkpt>
      <trkpt lat="45.97247" lon="4.80721">
        <ele>272</ele>
        <time>2018-09-30T08:52:25Z</time>
      </trkpt>
      <trkpt lat="45.97247" lon="4.80726">
        <ele>273</ele>
        <time>2018-09-30T08:52:26Z</time>
      </trkpt>
      <trkpt lat="45.97247" lon="4.80731">
        <ele>273</ele>
        <time>2018-09-30T08:52:27Z</time>
      </trkpt>
      <trkpt lat="45.97248" lon="4.80739">
        <ele>273</ele>
        <time>2018-09-30T08:52:28Z</time>
      </trkpt>
      <trkpt lat="45.97249" lon="4.8075">
        <ele>273</ele>
        <time>2018-09-30T08:52:30Z</time>
      </trkpt>
      <trkpt lat="45.97249" lon="4.80756">
        <ele>273</ele>
        <time>2018-09-30T08:52:31Z</time>
      </trkpt>
      <trkpt lat="45.97249" lon="4.80763">
        <ele>272</ele>
        <time>2018-09-30T08:52:32Z</time>
      </trkpt>
      <trkpt lat="45.9725" lon="4.8077">
        <ele>272</ele>
        <time>2018-09-30T08:52:33Z</time>
      </trkpt>
      <trkpt lat="45.97251" lon="4.80778">
        <ele>271</ele>
        <time>2018-09-30T08:52:34Z</time>
      </trkpt>
      <trkpt lat="45.97253" lon="4.80787">
        <ele>269</ele>
        <time>2018-09-30T08:52:35Z</time>
      </trkpt>
      <trkpt lat="45.97253" lon="4.80793">
        <ele>269</ele>
        <time>2018-09-30T08:52:36Z</time>
      </trkpt>
      <trkpt lat="45.97255" lon="4.80801">
        <ele>268</ele>
        <time>2018-09-30T08:52:37Z</time>
      </trkpt>
      <trkpt lat="45.97256" lon="4.80806">
        <ele>268</ele>
        <time>2018-09-30T08:52:38Z</time>
      </trkpt>
      <trkpt lat="45.97258" lon="4.80813">
        <ele>267</ele>
        <time>2018-09-30T08:52:39Z</time>
      </trkpt>
      <trkpt lat="45.97261" lon="4.80825">
        <ele>268</ele>
        <time>2018-09-30T08:52:41Z</time>
      </trkpt>
      <trkpt lat="45.97263" lon="4.80831">
        <ele>268</ele>
        <time>2018-09-30T08:52:42Z</time>
      </trkpt>
      <trkpt lat="45.97265" lon="4.80836">
        <ele>269</ele>
        <time>2018-09-30T08:52:43Z</time>
      </trkpt>
      <trkpt lat="45.97269" lon="4.80841">
        <ele>269</ele>
        <time>2018-09-30T08:52:44Z</time>
      </trkpt>
      <trkpt lat="45.97273" lon="4.80846">
        <ele>269</ele>
        <time>2018-09-30T08:52:45Z</time>
      </trkpt>
      <trkpt lat="45.97277" lon="4.8085">
        <ele>270</ele>
        <time>2018-09-30T08:52:46Z</time>
      </trkpt>
      <trkpt lat="45.97285" lon="4.80854">
        <ele>269</ele>
        <time>2018-09-30T08:52:48Z</time>
      </trkpt>
      <trkpt lat="45.97289" lon="4.80855">
        <ele>269</ele>
        <time>2018-09-30T08:52:49Z</time>
      </trkpt>
      <trkpt lat="45.97298" lon="4.80859">
        <ele>269</ele>
        <time>2018-09-30T08:52:51Z</time>
      </trkpt>
      <trkpt lat="45.97302" lon="4.8086">
        <ele>269</ele>
        <time>2018-09-30T08:52:52Z</time>
      </trkpt>
      <trkpt lat="45.97307" lon="4.80862">
        <ele>269</ele>
        <time>2018-09-30T08:52:54Z</time>
      </trkpt>
      <trkpt lat="45.97313" lon="4.80866">
        <ele>269</ele>
        <time>2018-09-30T08:52:55Z</time>
      </trkpt>
      <trkpt lat="45.97319" lon="4.80872">
        <ele>269</ele>
        <time>2018-09-30T08:52:59Z</time>
      </trkpt>
      <trkpt lat="45.97321" lon="4.80874">
        <ele>268</ele>
        <time>2018-09-30T08:53:00Z</time>
      </trkpt>
      <trkpt lat="45.97327" lon="4.80882">
        <ele>270</ele>
        <time>2018-09-30T08:53:03Z</time>
      </trkpt>
      <trkpt lat="45.97329" lon="4.80885">
        <ele>265</ele>
        <time>2018-09-30T08:53:04Z</time>
      </trkpt>
      <trkpt lat="45.97333" lon="4.80892">
        <ele>267</ele>
        <time>2018-09-30T08:53:06Z</time>
      </trkpt>
      <trkpt lat="45.97335" lon="4.80896">
        <ele>268</ele>
        <time>2018-09-30T08:53:07Z</time>
      </trkpt>
      <trkpt lat="45.9734" lon="4.80907">
        <ele>269</ele>
        <time>2018-09-30T08:53:10Z</time>
      </trkpt>
      <trkpt lat="45.97341" lon="4.8091">
        <ele>269</ele>
        <time>2018-09-30T08:53:11Z</time>
      </trkpt>
      <trkpt lat="45.97344" lon="4.80922">
        <ele>269</ele>
        <time>2018-09-30T08:53:14Z</time>
      </trkpt>
      <trkpt lat="45.97345" lon="4.80925">
        <ele>270</ele>
        <time>2018-09-30T08:53:15Z</time>
      </trkpt>
      <trkpt lat="45.97348" lon="4.80934">
        <ele>270</ele>
        <time>2018-09-30T08:53:18Z</time>
      </trkpt>
      <trkpt lat="45.97349" lon="4.80937">
        <ele>271</ele>
        <time>2018-09-30T08:53:19Z</time>
      </trkpt>
      <trkpt lat="45.97352" lon="4.80949">
        <ele>272</ele>
        <time>2018-09-30T08:53:23Z</time>
      </trkpt>
      <trkpt lat="45.97352" lon="4.80952">
        <ele>273</ele>
        <time>2018-09-30T08:53:24Z</time>
      </trkpt>
      <trkpt lat="45.97354" lon="4.80962">
        <ele>273</ele>
        <time>2018-09-30T08:53:27Z</time>
      </trkpt>
      <trkpt lat="45.97354" lon="4.80966">
        <ele>272</ele>
        <time>2018-09-30T08:53:28Z</time>
      </trkpt>
      <trkpt lat="45.97356" lon="4.80975">
        <ele>271</ele>
        <time>2018-09-30T08:53:30Z</time>
      </trkpt>
      <trkpt lat="45.97357" lon="4.8098">
        <ele>272</ele>
        <time>2018-09-30T08:53:31Z</time>
      </trkpt>
      <trkpt lat="45.97358" lon="4.80989">
        <ele>273</ele>
        <time>2018-09-30T08:53:33Z</time>
      </trkpt>
      <trkpt lat="45.97359" lon="4.80994">
        <ele>273</ele>
        <time>2018-09-30T08:53:34Z</time>
      </trkpt>
      <trkpt lat="45.97361" lon="4.81009">
        <ele>274</ele>
        <time>2018-09-30T08:53:35Z</time>
      </trkpt>
      <trkpt lat="45.97362" lon="4.81021">
        <ele>272</ele>
        <time>2018-09-30T08:53:37Z</time>
      </trkpt>
      <trkpt lat="45.97363" lon="4.81027">
        <ele>272</ele>
        <time>2018-09-30T08:53:38Z</time>
      </trkpt>
      <trkpt lat="45.97364" lon="4.81038">
        <ele>272</ele>
        <time>2018-09-30T08:53:40Z</time>
      </trkpt>
      <trkpt lat="45.97365" lon="4.81043">
        <ele>273</ele>
        <time>2018-09-30T08:53:41Z</time>
      </trkpt>
      <trkpt lat="45.97367" lon="4.81049">
        <ele>271</ele>
        <time>2018-09-30T08:53:42Z</time>
      </trkpt>
      <trkpt lat="45.97369" lon="4.81054">
        <ele>272</ele>
        <time>2018-09-30T08:53:43Z</time>
      </trkpt>
      <trkpt lat="45.97373" lon="4.81065">
        <ele>272</ele>
        <time>2018-09-30T08:53:45Z</time>
      </trkpt>
      <trkpt lat="45.97374" lon="4.81067">
        <ele>272</ele>
        <time>2018-09-30T08:53:46Z</time>
      </trkpt>
      <trkpt lat="45.97376" lon="4.81078">
        <ele>273</ele>
        <time>2018-09-30T08:53:50Z</time>
      </trkpt>
      <trkpt lat="45.97378" lon="4.81082">
        <ele>274</ele>
        <time>2018-09-30T08:53:51Z</time>
      </trkpt>
      <trkpt lat="45.97381" lon="4.81095">
        <ele>274</ele>
        <time>2018-09-30T08:53:52Z</time>
      </trkpt>
      <trkpt lat="45.97383" lon="4.81108">
        <ele>274</ele>
        <time>2018-09-30T08:53:55Z</time>
      </trkpt>
      <trkpt lat="45.97384" lon="4.81117">
        <ele>274</ele>
        <time>2018-09-30T08:53:56Z</time>
      </trkpt>
      <trkpt lat="45.97385" lon="4.81128">
        <ele>274</ele>
        <time>2018-09-30T08:53:58Z</time>
      </trkpt>
      <trkpt lat="45.97385" lon="4.81133">
        <ele>272</ele>
        <time>2018-09-30T08:53:59Z</time>
      </trkpt>
      <trkpt lat="45.97387" lon="4.81146">
        <ele>269</ele>
        <time>2018-09-30T08:54:01Z</time>
      </trkpt>
      <trkpt lat="45.97388" lon="4.81152">
        <ele>268</ele>
        <time>2018-09-30T08:54:02Z</time>
      </trkpt>
      <trkpt lat="45.9739" lon="4.81161">
        <ele>267</ele>
        <time>2018-09-30T08:54:04Z</time>
      </trkpt>
      <trkpt lat="45.97391" lon="4.81167">
        <ele>266</ele>
        <time>2018-09-30T08:54:05Z</time>
      </trkpt>
      <trkpt lat="45.97392" lon="4.81174">
        <ele>265</ele>
        <time>2018-09-30T08:54:06Z</time>
      </trkpt>
      <trkpt lat="45.97392" lon="4.8118">
        <ele>263</ele>
        <time>2018-09-30T08:54:07Z</time>
      </trkpt>
      <trkpt lat="45.97393" lon="4.81187">
        <ele>263</ele>
        <time>2018-09-30T08:54:08Z</time>
      </trkpt>
      <trkpt lat="45.97394" lon="4.81193">
        <ele>263</ele>
        <time>2018-09-30T08:54:09Z</time>
      </trkpt>
      <trkpt lat="45.97395" lon="4.81204">
        <ele>264</ele>
        <time>2018-09-30T08:54:11Z</time>
      </trkpt>
      <trkpt lat="45.97395" lon="4.8121">
        <ele>263</ele>
        <time>2018-09-30T08:54:12Z</time>
      </trkpt>
      <trkpt lat="45.97393" lon="4.81222">
        <ele>261</ele>
        <time>2018-09-30T08:54:14Z</time>
      </trkpt>
      <trkpt lat="45.97395" lon="4.81231">
        <ele>262</ele>
        <time>2018-09-30T08:54:15Z</time>
      </trkpt>
      <trkpt lat="45.97396" lon="4.81242">
        <ele>262</ele>
        <time>2018-09-30T08:54:17Z</time>
      </trkpt>
      <trkpt lat="45.97396" lon="4.81244">
        <ele>264</ele>
        <time>2018-09-30T08:54:18Z</time>
      </trkpt>
      <trkpt lat="45.97395" lon="4.81257">
        <ele>264</ele>
        <time>2018-09-30T08:54:21Z</time>
      </trkpt>
      <trkpt lat="45.97395" lon="4.8126">
        <ele>265</ele>
        <time>2018-09-30T08:54:22Z</time>
      </trkpt>
      <trkpt lat="45.97395" lon="4.81264">
        <ele>265</ele>
        <time>2018-09-30T08:54:23Z</time>
      </trkpt>
      <trkpt lat="45.97393" lon="4.81278">
        <ele>266</ele>
        <time>2018-09-30T08:54:24Z</time>
      </trkpt>
      <trkpt lat="45.97394" lon="4.81287">
        <ele>264</ele>
        <time>2018-09-30T08:54:26Z</time>
      </trkpt>
      <trkpt lat="45.97393" lon="4.81293">
        <ele>264</ele>
        <time>2018-09-30T08:54:27Z</time>
      </trkpt>
      <trkpt lat="45.97392" lon="4.81298">
        <ele>264</ele>
        <time>2018-09-30T08:54:29Z</time>
      </trkpt>
      <trkpt lat="45.9739" lon="4.81307">
        <ele>265</ele>
        <time>2018-09-30T08:54:30Z</time>
      </trkpt>
      <trkpt lat="45.97388" lon="4.81316">
        <ele>266</ele>
        <time>2018-09-30T08:54:33Z</time>
      </trkpt>
      <trkpt lat="45.97385" lon="4.81326">
        <ele>267</ele>
        <time>2018-09-30T08:54:34Z</time>
      </trkpt>
      <trkpt lat="45.97383" lon="4.81338">
        <ele>262</ele>
        <time>2018-09-30T08:54:38Z</time>
      </trkpt>
      <trkpt lat="45.97382" lon="4.81342">
        <ele>264</ele>
        <time>2018-09-30T08:54:39Z</time>
      </trkpt>
      <trkpt lat="45.97382" lon="4.81351">
        <ele>267</ele>
        <time>2018-09-30T08:54:41Z</time>
      </trkpt>
      <trkpt lat="45.97382" lon="4.81356">
        <ele>267</ele>
        <time>2018-09-30T08:54:42Z</time>
      </trkpt>
      <trkpt lat="45.97383" lon="4.81365">
        <ele>268</ele>
        <time>2018-09-30T08:54:44Z</time>
      </trkpt>
      <trkpt lat="45.97384" lon="4.81369">
        <ele>269</ele>
        <time>2018-09-30T08:54:45Z</time>
      </trkpt>
      <trkpt lat="45.97385" lon="4.8138">
        <ele>271</ele>
        <time>2018-09-30T08:54:48Z</time>
      </trkpt>
      <trkpt lat="45.97386" lon="4.81385">
        <ele>271</ele>
        <time>2018-09-30T08:54:49Z</time>
      </trkpt>
      <trkpt lat="45.97389" lon="4.81396">
        <ele>273</ele>
        <time>2018-09-30T08:54:52Z</time>
      </trkpt>
      <trkpt lat="45.9739" lon="4.814">
        <ele>274</ele>
        <time>2018-09-30T08:54:53Z</time>
      </trkpt>
      <trkpt lat="45.97393" lon="4.81407">
        <ele>274</ele>
        <time>2018-09-30T08:54:55Z</time>
      </trkpt>
      <trkpt lat="45.97395" lon="4.81411">
        <ele>274</ele>
        <time>2018-09-30T08:54:56Z</time>
      </trkpt>
      <trkpt lat="45.97401" lon="4.81422">
        <ele>274</ele>
        <time>2018-09-30T08:54:57Z</time>
      </trkpt>
      <trkpt lat="45.97406" lon="4.81428">
        <ele>273</ele>
        <time>2018-09-30T08:55:00Z</time>
      </trkpt>
      <trkpt lat="45.97412" lon="4.81436">
        <ele>273</ele>
        <time>2018-09-30T08:55:01Z</time>
      </trkpt>
      <trkpt lat="45.97419" lon="4.81443">
        <ele>273</ele>
        <time>2018-09-30T08:55:04Z</time>
      </trkpt>
      <trkpt lat="45.9742" lon="4.81445">
        <ele>273</ele>
        <time>2018-09-30T08:55:05Z</time>
      </trkpt>
      <trkpt lat="45.97425" lon="4.81452">
        <ele>275</ele>
        <time>2018-09-30T08:55:08Z</time>
      </trkpt>
      <trkpt lat="45.97426" lon="4.81454">
        <ele>276</ele>
        <time>2018-09-30T08:55:09Z</time>
      </trkpt>
      <trkpt lat="45.9743" lon="4.81464">
        <ele>275</ele>
        <time>2018-09-30T08:55:10Z</time>
      </trkpt>
      <trkpt lat="45.97432" lon="4.81469">
        <ele>275</ele>
        <time>2018-09-30T08:55:11Z</time>
      </trkpt>
      <trkpt lat="45.97434" lon="4.81479">
        <ele>275</ele>
        <time>2018-09-30T08:55:13Z</time>
      </trkpt>
      <trkpt lat="45.97435" lon="4.81481">
        <ele>274</ele>
        <time>2018-09-30T08:55:14Z</time>
      </trkpt>
      <trkpt lat="45.97436" lon="4.81491">
        <ele>275</ele>
        <time>2018-09-30T08:55:17Z</time>
      </trkpt>
      <trkpt lat="45.97437" lon="4.81494">
        <ele>276</ele>
        <time>2018-09-30T08:55:18Z</time>
      </trkpt>
      <trkpt lat="45.97437" lon="4.81506">
        <ele>276</ele>
        <time>2018-09-30T08:55:21Z</time>
      </trkpt>
      <trkpt lat="45.97437" lon="4.81511">
        <ele>276</ele>
        <time>2018-09-30T08:55:22Z</time>
      </trkpt>
      <trkpt lat="45.97437" lon="4.81523">
        <ele>276</ele>
        <time>2018-09-30T08:55:25Z</time>
      </trkpt>
      <trkpt lat="45.97438" lon="4.81527">
        <ele>278</ele>
        <time>2018-09-30T08:55:26Z</time>
      </trkpt>
      <trkpt lat="45.97438" lon="4.81539">
        <ele>283</ele>
        <time>2018-09-30T08:55:29Z</time>
      </trkpt>
      <trkpt lat="45.97438" lon="4.81543">
        <ele>283</ele>
        <time>2018-09-30T08:55:30Z</time>
      </trkpt>
      <trkpt lat="45.97438" lon="4.81555">
        <ele>283</ele>
        <time>2018-09-30T08:55:33Z</time>
      </trkpt>
      <trkpt lat="45.97437" lon="4.8156">
        <ele>283</ele>
        <time>2018-09-30T08:55:34Z</time>
      </trkpt>
      <trkpt lat="45.97437" lon="4.81564">
        <ele>284</ele>
        <time>2018-09-30T08:55:35Z</time>
      </trkpt>
      <trkpt lat="45.97436" lon="4.81579">
        <ele>284</ele>
        <time>2018-09-30T08:55:36Z</time>
      </trkpt>
      <trkpt lat="45.97436" lon="4.81592">
        <ele>283</ele>
        <time>2018-09-30T08:55:40Z</time>
      </trkpt>
      <trkpt lat="45.97436" lon="4.81596">
        <ele>282</ele>
        <time>2018-09-30T08:55:41Z</time>
      </trkpt>
      <trkpt lat="45.97437" lon="4.81607">
        <ele>281</ele>
        <time>2018-09-30T08:55:44Z</time>
      </trkpt>
      <trkpt lat="45.97437" lon="4.81611">
        <ele>282</ele>
        <time>2018-09-30T08:55:45Z</time>
      </trkpt>
      <trkpt lat="45.97438" lon="4.81623">
        <ele>280</ele>
        <time>2018-09-30T08:55:48Z</time>
      </trkpt>
      <trkpt lat="45.97438" lon="4.81627">
        <ele>280</ele>
        <time>2018-09-30T08:55:49Z</time>
      </trkpt>
      <trkpt lat="45.97439" lon="4.81638">
        <ele>277</ele>
        <time>2018-09-30T08:55:52Z</time>
      </trkpt>
      <trkpt lat="45.9744" lon="4.81641">
        <ele>277</ele>
        <time>2018-09-30T08:55:53Z</time>
      </trkpt>
      <trkpt lat="45.9744" lon="4.81652">
        <ele>279</ele>
        <time>2018-09-30T08:55:56Z</time>
      </trkpt>
      <trkpt lat="45.9744" lon="4.81656">
        <ele>279</ele>
        <time>2018-09-30T08:55:57Z</time>
      </trkpt>
      <trkpt lat="45.97441" lon="4.81666">
        <ele>278</ele>
        <time>2018-09-30T08:56:00Z</time>
      </trkpt>
      <trkpt lat="45.9744" lon="4.8167">
        <ele>278</ele>
        <time>2018-09-30T08:56:01Z</time>
      </trkpt>
      <trkpt lat="45.9744" lon="4.8168">
        <ele>279</ele>
        <time>2018-09-30T08:56:04Z</time>
      </trkpt>
      <trkpt lat="45.97439" lon="4.81684">
        <ele>280</ele>
        <time>2018-09-30T08:56:05Z</time>
      </trkpt>
      <trkpt lat="45.97439" lon="4.81695">
        <ele>282</ele>
        <time>2018-09-30T08:56:08Z</time>
      </trkpt>
      <trkpt lat="45.97439" lon="4.81699">
        <ele>282</ele>
        <time>2018-09-30T08:56:09Z</time>
      </trkpt>
      <trkpt lat="45.97439" lon="4.8171">
        <ele>284</ele>
        <time>2018-09-30T08:56:12Z</time>
      </trkpt>
      <trkpt lat="45.97438" lon="4.81714">
        <ele>285</ele>
        <time>2018-09-30T08:56:13Z</time>
      </trkpt>
      <trkpt lat="45.97438" lon="4.81725">
        <ele>286</ele>
        <time>2018-09-30T08:56:16Z</time>
      </trkpt>
      <trkpt lat="45.97438" lon="4.81728">
        <ele>287</ele>
        <time>2018-09-30T08:56:17Z</time>
      </trkpt>
      <trkpt lat="45.97437" lon="4.81739">
        <ele>287</ele>
        <time>2018-09-30T08:56:20Z</time>
      </trkpt>
      <trkpt lat="45.97437" lon="4.81742">
        <ele>287</ele>
        <time>2018-09-30T08:56:21Z</time>
      </trkpt>
      <trkpt lat="45.97437" lon="4.81753">
        <ele>286</ele>
        <time>2018-09-30T08:56:24Z</time>
      </trkpt>
      <trkpt lat="45.97437" lon="4.81756">
        <ele>287</ele>
        <time>2018-09-30T08:56:25Z</time>
      </trkpt>
      <trkpt lat="45.97438" lon="4.81767">
        <ele>287</ele>
        <time>2018-09-30T08:56:28Z</time>
      </trkpt>
      <trkpt lat="45.97437" lon="4.8177">
        <ele>289</ele>
        <time>2018-09-30T08:56:29Z</time>
      </trkpt>
      <trkpt lat="45.97437" lon="4.81783">
        <ele>290</ele>
        <time>2018-09-30T08:56:33Z</time>
      </trkpt>
      <trkpt lat="45.97437" lon="4.81786">
        <ele>290</ele>
        <time>2018-09-30T08:56:34Z</time>
      </trkpt>
      <trkpt lat="45.97438" lon="4.81797">
        <ele>292</ele>
        <time>2018-09-30T08:56:37Z</time>
      </trkpt>
      <trkpt lat="45.97438" lon="4.818">
        <ele>293</ele>
        <time>2018-09-30T08:56:38Z</time>
      </trkpt>
      <trkpt lat="45.97439" lon="4.81811">
        <ele>294</ele>
        <time>2018-09-30T08:56:42Z</time>
      </trkpt>
      <trkpt lat="45.9744" lon="4.81814">
        <ele>294</ele>
        <time>2018-09-30T08:56:43Z</time>
      </trkpt>
      <trkpt lat="45.97441" lon="4.81823">
        <ele>295</ele>
        <time>2018-09-30T08:56:46Z</time>
      </trkpt>
      <trkpt lat="45.97441" lon="4.81827">
        <ele>295</ele>
        <time>2018-09-30T08:56:47Z</time>
      </trkpt>
      <trkpt lat="45.97442" lon="4.81838">
        <ele>296</ele>
        <time>2018-09-30T08:56:50Z</time>
      </trkpt>
      <trkpt lat="45.97443" lon="4.81842">
        <ele>295</ele>
        <time>2018-09-30T08:56:51Z</time>
      </trkpt>
      <trkpt lat="45.97444" lon="4.81854">
        <ele>296</ele>
        <time>2018-09-30T08:56:52Z</time>
      </trkpt>
      <trkpt lat="45.97445" lon="4.81856">
        <ele>296</ele>
        <time>2018-09-30T08:56:53Z</time>
      </trkpt>
      <trkpt lat="45.97445" lon="4.81867">
        <ele>296</ele>
        <time>2018-09-30T08:56:57Z</time>
      </trkpt>
      <trkpt lat="45.97446" lon="4.8187">
        <ele>296</ele>
        <time>2018-09-30T08:56:58Z</time>
      </trkpt>
      <trkpt lat="45.97447" lon="4.8188">
        <ele>296</ele>
        <time>2018-09-30T08:57:01Z</time>
      </trkpt>
      <trkpt lat="45.97448" lon="4.81883">
        <ele>297</ele>
        <time>2018-09-30T08:57:02Z</time>
      </trkpt>
      <trkpt lat="45.9745" lon="4.81894">
        <ele>296</ele>
        <time>2018-09-30T08:57:05Z</time>
      </trkpt>
      <trkpt lat="45.9745" lon="4.81898">
        <ele>296</ele>
        <time>2018-09-30T08:57:06Z</time>
      </trkpt>
      <trkpt lat="45.97452" lon="4.8191">
        <ele>298</ele>
        <time>2018-09-30T08:57:09Z</time>
      </trkpt>
      <trkpt lat="45.97452" lon="4.81914">
        <ele>297</ele>
        <time>2018-09-30T08:57:10Z</time>
      </trkpt>
      <trkpt lat="45.97453" lon="4.81924">
        <ele>298</ele>
        <time>2018-09-30T08:57:13Z</time>
      </trkpt>
      <trkpt lat="45.97454" lon="4.81927">
        <ele>299</ele>
        <time>2018-09-30T08:57:14Z</time>
      </trkpt>
      <trkpt lat="45.97455" lon="4.81937">
        <ele>298</ele>
        <time>2018-09-30T08:57:17Z</time>
      </trkpt>
      <trkpt lat="45.97456" lon="4.81941">
        <ele>298</ele>
        <time>2018-09-30T08:57:18Z</time>
      </trkpt>
      <trkpt lat="45.97457" lon="4.81952">
        <ele>299</ele>
        <time>2018-09-30T08:57:21Z</time>
      </trkpt>
      <trkpt lat="45.97458" lon="4.81955">
        <ele>298</ele>
        <time>2018-09-30T08:57:22Z</time>
      </trkpt>
      <trkpt lat="45.97458" lon="4.81966">
        <ele>299</ele>
        <time>2018-09-30T08:57:25Z</time>
      </trkpt>
      <trkpt lat="45.97459" lon="4.81969">
        <ele>300</ele>
        <time>2018-09-30T08:57:26Z</time>
      </trkpt>
      <trkpt lat="45.9746" lon="4.81981">
        <ele>301</ele>
        <time>2018-09-30T08:57:30Z</time>
      </trkpt>
      <trkpt lat="45.9746" lon="4.81984">
        <ele>301</ele>
        <time>2018-09-30T08:57:31Z</time>
      </trkpt>
      <trkpt lat="45.97461" lon="4.81993">
        <ele>292</ele>
        <time>2018-09-30T08:57:34Z</time>
      </trkpt>
      <trkpt lat="45.97462" lon="4.81997">
        <ele>295</ele>
        <time>2018-09-30T08:57:35Z</time>
      </trkpt>
      <trkpt lat="45.97463" lon="4.82007">
        <ele>300</ele>
        <time>2018-09-30T08:57:38Z</time>
      </trkpt>
      <trkpt lat="45.97463" lon="4.8201">
        <ele>300</ele>
        <time>2018-09-30T08:57:39Z</time>
      </trkpt>
      <trkpt lat="45.97465" lon="4.82021">
        <ele>301</ele>
        <time>2018-09-30T08:57:42Z</time>
      </trkpt>
      <trkpt lat="45.97465" lon="4.82025">
        <ele>301</ele>
        <time>2018-09-30T08:57:43Z</time>
      </trkpt>
      <trkpt lat="45.97466" lon="4.82036">
        <ele>285</ele>
        <time>2018-09-30T08:57:46Z</time>
      </trkpt>
      <trkpt lat="45.97466" lon="4.8204">
        <ele>291</ele>
        <time>2018-09-30T08:57:47Z</time>
      </trkpt>
      <trkpt lat="45.97467" lon="4.82051">
        <ele>295</ele>
        <time>2018-09-30T08:57:50Z</time>
      </trkpt>
      <trkpt lat="45.97468" lon="4.82055">
        <ele>298</ele>
        <time>2018-09-30T08:57:51Z</time>
      </trkpt>
      <trkpt lat="45.97468" lon="4.82066">
        <ele>299</ele>
        <time>2018-09-30T08:57:54Z</time>
      </trkpt>
      <trkpt lat="45.97468" lon="4.8207">
        <ele>300</ele>
        <time>2018-09-30T08:57:55Z</time>
      </trkpt>
      <trkpt lat="45.97467" lon="4.82082">
        <ele>300</ele>
        <time>2018-09-30T08:57:58Z</time>
      </trkpt>
      <trkpt lat="45.97467" lon="4.82086">
        <ele>300</ele>
        <time>2018-09-30T08:57:59Z</time>
      </trkpt>
      <trkpt lat="45.97465" lon="4.82094">
        <ele>302</ele>
        <time>2018-09-30T08:58:01Z</time>
      </trkpt>
      <trkpt lat="45.97464" lon="4.82098">
        <ele>302</ele>
        <time>2018-09-30T08:58:02Z</time>
      </trkpt>
      <trkpt lat="45.97462" lon="4.82107">
        <ele>302</ele>
        <time>2018-09-30T08:58:04Z</time>
      </trkpt>
      <trkpt lat="45.9746" lon="4.82111">
        <ele>303</ele>
        <time>2018-09-30T08:58:05Z</time>
      </trkpt>
      <trkpt lat="45.97457" lon="4.82119">
        <ele>302</ele>
        <time>2018-09-30T08:58:07Z</time>
      </trkpt>
      <trkpt lat="45.97455" lon="4.82122">
        <ele>302</ele>
        <time>2018-09-30T08:58:08Z</time>
      </trkpt>
      <trkpt lat="45.97451" lon="4.82129">
        <ele>303</ele>
        <time>2018-09-30T08:58:10Z</time>
      </trkpt>
      <trkpt lat="45.97448" lon="4.82132">
        <ele>301</ele>
        <time>2018-09-30T08:58:11Z</time>
      </trkpt>
      <trkpt lat="45.97444" lon="4.82139">
        <ele>302</ele>
        <time>2018-09-30T08:58:13Z</time>
      </trkpt>
      <trkpt lat="45.97442" lon="4.82142">
        <ele>302</ele>
        <time>2018-09-30T08:58:14Z</time>
      </trkpt>
      <trkpt lat="45.97436" lon="4.82151">
        <ele>281</ele>
        <time>2018-09-30T08:58:17Z</time>
      </trkpt>
      <trkpt lat="45.97434" lon="4.82154">
        <ele>288</ele>
        <time>2018-09-30T08:58:18Z</time>
      </trkpt>
      <trkpt lat="45.97428" lon="4.82161">
        <ele>295</ele>
        <time>2018-09-30T08:58:21Z</time>
      </trkpt>
      <trkpt lat="45.97425" lon="4.82164">
        <ele>297</ele>
        <time>2018-09-30T08:58:22Z</time>
      </trkpt>
      <trkpt lat="45.9742" lon="4.82169">
        <ele>299</ele>
        <time>2018-09-30T08:58:24Z</time>
      </trkpt>
      <trkpt lat="45.97418" lon="4.82172">
        <ele>300</ele>
        <time>2018-09-30T08:58:25Z</time>
      </trkpt>
      <trkpt lat="45.97413" lon="4.82178">
        <ele>301</ele>
        <time>2018-09-30T08:58:27Z</time>
      </trkpt>
      <trkpt lat="45.9741" lon="4.8218">
        <ele>301</ele>
        <time>2018-09-30T08:58:28Z</time>
      </trkpt>
      <trkpt lat="45.97404" lon="4.82188">
        <ele>304</ele>
        <time>2018-09-30T08:58:31Z</time>
      </trkpt>
      <trkpt lat="45.97402" lon="4.82191">
        <ele>304</ele>
        <time>2018-09-30T08:58:32Z</time>
      </trkpt>
      <trkpt lat="45.97396" lon="4.822">
        <ele>294</ele>
        <time>2018-09-30T08:58:35Z</time>
      </trkpt>
      <trkpt lat="45.97395" lon="4.82203">
        <ele>296</ele>
        <time>2018-09-30T08:58:36Z</time>
      </trkpt>
      <trkpt lat="45.97391" lon="4.82215">
        <ele>303</ele>
        <time>2018-09-30T08:58:39Z</time>
      </trkpt>
      <trkpt lat="45.9739" lon="4.82219">
        <ele>305</ele>
        <time>2018-09-30T08:58:40Z</time>
      </trkpt>
      <trkpt lat="45.97388" lon="4.82228">
        <ele>307</ele>
        <time>2018-09-30T08:58:42Z</time>
      </trkpt>
      <trkpt lat="45.97388" lon="4.82232">
        <ele>306</ele>
        <time>2018-09-30T08:58:43Z</time>
      </trkpt>
      <trkpt lat="45.97387" lon="4.82241">
        <ele>306</ele>
        <time>2018-09-30T08:58:45Z</time>
      </trkpt>
      <trkpt lat="45.97386" lon="4.82255">
        <ele>307</ele>
        <time>2018-09-30T08:58:46Z</time>
      </trkpt>
      <trkpt lat="45.97386" lon="4.82261">
        <ele>309</ele>
        <time>2018-09-30T08:58:48Z</time>
      </trkpt>
      <trkpt lat="45.97386" lon="4.82271">
        <ele>309</ele>
        <time>2018-09-30T08:58:49Z</time>
      </trkpt>
      <trkpt lat="45.97386" lon="4.82282">
        <ele>309</ele>
        <time>2018-09-30T08:58:51Z</time>
      </trkpt>
      <trkpt lat="45.97386" lon="4.82288">
        <ele>308</ele>
        <time>2018-09-30T08:58:52Z</time>
      </trkpt>
      <trkpt lat="45.97385" lon="4.823">
        <ele>308</ele>
        <time>2018-09-30T08:58:54Z</time>
      </trkpt>
      <trkpt lat="45.97385" lon="4.82306">
        <ele>308</ele>
        <time>2018-09-30T08:58:55Z</time>
      </trkpt>
      <trkpt lat="45.97385" lon="4.82318">
        <ele>308</ele>
        <time>2018-09-30T08:58:58Z</time>
      </trkpt>
      <trkpt lat="45.97385" lon="4.82322">
        <ele>295</ele>
        <time>2018-09-30T08:58:59Z</time>
      </trkpt>
      <trkpt lat="45.97384" lon="4.82331">
        <ele>294</ele>
        <time>2018-09-30T08:59:01Z</time>
      </trkpt>
      <trkpt lat="45.97384" lon="4.82335">
        <ele>300</ele>
        <time>2018-09-30T08:59:02Z</time>
      </trkpt>
      <trkpt lat="45.97384" lon="4.82348">
        <ele>301</ele>
        <time>2018-09-30T08:59:03Z</time>
      </trkpt>
      <trkpt lat="45.97383" lon="4.82353">
        <ele>304</ele>
        <time>2018-09-30T08:59:04Z</time>
      </trkpt>
      <trkpt lat="45.97383" lon="4.82365">
        <ele>305</ele>
        <time>2018-09-30T08:59:06Z</time>
      </trkpt>
      <trkpt lat="45.97382" lon="4.82371">
        <ele>306</ele>
        <time>2018-09-30T08:59:07Z</time>
      </trkpt>
      <trkpt lat="45.97382" lon="4.82378">
        <ele>306</ele>
        <time>2018-09-30T08:59:08Z</time>
      </trkpt>
      <trkpt lat="45.97382" lon="4.82385">
        <ele>307</ele>
        <time>2018-09-30T08:59:09Z</time>
      </trkpt>
      <trkpt lat="45.97382" lon="4.82397">
        <ele>308</ele>
        <time>2018-09-30T08:59:11Z</time>
      </trkpt>
      <trkpt lat="45.97383" lon="4.82402">
        <ele>308</ele>
        <time>2018-09-30T08:59:12Z</time>
      </trkpt>
      <trkpt lat="45.97383" lon="4.82409">
        <ele>308</ele>
        <time>2018-09-30T08:59:13Z</time>
      </trkpt>
      <trkpt lat="45.97383" lon="4.82415">
        <ele>308</ele>
        <time>2018-09-30T08:59:14Z</time>
      </trkpt>
      <trkpt lat="45.97382" lon="4.82423">
        <ele>309</ele>
        <time>2018-09-30T08:59:15Z</time>
      </trkpt>
      <trkpt lat="45.97382" lon="4.82429">
        <ele>309</ele>
        <time>2018-09-30T08:59:16Z</time>
      </trkpt>
      <trkpt lat="45.97382" lon="4.82441">
        <ele>309</ele>
        <time>2018-09-30T08:59:18Z</time>
      </trkpt>
      <trkpt lat="45.97382" lon="4.82448">
        <ele>309</ele>
        <time>2018-09-30T08:59:19Z</time>
      </trkpt>
      <trkpt lat="45.97383" lon="4.82456">
        <ele>310</ele>
        <time>2018-09-30T08:59:20Z</time>
      </trkpt>
      <trkpt lat="45.97383" lon="4.82462">
        <ele>309</ele>
        <time>2018-09-30T08:59:21Z</time>
      </trkpt>
      <trkpt lat="45.97384" lon="4.82469">
        <ele>309</ele>
        <time>2018-09-30T08:59:22Z</time>
      </trkpt>
      <trkpt lat="45.97384" lon="4.82476">
        <ele>310</ele>
        <time>2018-09-30T08:59:23Z</time>
      </trkpt>
      <trkpt lat="45.97383" lon="4.82488">
        <ele>310</ele>
        <time>2018-09-30T08:59:25Z</time>
      </trkpt>
      <trkpt lat="45.97385" lon="4.82494">
        <ele>310</ele>
        <time>2018-09-30T08:59:26Z</time>
      </trkpt>
      <trkpt lat="45.97386" lon="4.82501">
        <ele>311</ele>
        <time>2018-09-30T08:59:27Z</time>
      </trkpt>
      <trkpt lat="45.97386" lon="4.82507">
        <ele>311</ele>
        <time>2018-09-30T08:59:28Z</time>
      </trkpt>
      <trkpt lat="45.97387" lon="4.82514">
        <ele>311</ele>
        <time>2018-09-30T08:59:29Z</time>
      </trkpt>
      <trkpt lat="45.97387" lon="4.8252">
        <ele>311</ele>
        <time>2018-09-30T08:59:30Z</time>
      </trkpt>
      <trkpt lat="45.97389" lon="4.82531">
        <ele>312</ele>
        <time>2018-09-30T08:59:32Z</time>
      </trkpt>
      <trkpt lat="45.97389" lon="4.82537">
        <ele>312</ele>
        <time>2018-09-30T08:59:33Z</time>
      </trkpt>
      <trkpt lat="45.97392" lon="4.82549">
        <ele>313</ele>
        <time>2018-09-30T08:59:35Z</time>
      </trkpt>
      <trkpt lat="45.97393" lon="4.82557">
        <ele>313</ele>
        <time>2018-09-30T08:59:36Z</time>
      </trkpt>
      <trkpt lat="45.97393" lon="4.82564">
        <ele>313</ele>
        <time>2018-09-30T08:59:37Z</time>
      </trkpt>
      <trkpt lat="45.97394" lon="4.82571">
        <ele>313</ele>
        <time>2018-09-30T08:59:38Z</time>
      </trkpt>
      <trkpt lat="45.97396" lon="4.82581">
        <ele>313</ele>
        <time>2018-09-30T08:59:40Z</time>
      </trkpt>
      <trkpt lat="45.97396" lon="4.82589">
        <ele>313</ele>
        <time>2018-09-30T08:59:41Z</time>
      </trkpt>
      <trkpt lat="45.97397" lon="4.82595">
        <ele>311</ele>
        <time>2018-09-30T08:59:42Z</time>
      </trkpt>
      <trkpt lat="45.97397" lon="4.82601">
        <ele>311</ele>
        <time>2018-09-30T08:59:43Z</time>
      </trkpt>
      <trkpt lat="45.97397" lon="4.82608">
        <ele>310</ele>
        <time>2018-09-30T08:59:44Z</time>
      </trkpt>
      <trkpt lat="45.97398" lon="4.82615">
        <ele>310</ele>
        <time>2018-09-30T08:59:45Z</time>
      </trkpt>
      <trkpt lat="45.97399" lon="4.82623">
        <ele>310</ele>
        <time>2018-09-30T08:59:47Z</time>
      </trkpt>
      <trkpt lat="45.974" lon="4.8263">
        <ele>310</ele>
        <time>2018-09-30T08:59:48Z</time>
      </trkpt>
      <trkpt lat="45.97401" lon="4.82636">
        <ele>310</ele>
        <time>2018-09-30T08:59:49Z</time>
      </trkpt>
      <trkpt lat="45.97404" lon="4.82643">
        <ele>310</ele>
        <time>2018-09-30T08:59:50Z</time>
      </trkpt>
      <trkpt lat="45.97405" lon="4.82651">
        <ele>310</ele>
        <time>2018-09-30T08:59:51Z</time>
      </trkpt>
      <trkpt lat="45.97406" lon="4.82658">
        <ele>311</ele>
        <time>2018-09-30T08:59:52Z</time>
      </trkpt>
      <trkpt lat="45.97408" lon="4.82666">
        <ele>312</ele>
        <time>2018-09-30T08:59:53Z</time>
      </trkpt>
      <trkpt lat="45.97409" lon="4.82672">
        <ele>312</ele>
        <time>2018-09-30T08:59:54Z</time>
      </trkpt>
      <trkpt lat="45.97409" lon="4.82678">
        <ele>313</ele>
        <time>2018-09-30T08:59:55Z</time>
      </trkpt>
      <trkpt lat="45.9741" lon="4.82686">
        <ele>314</ele>
        <time>2018-09-30T08:59:56Z</time>
      </trkpt>
      <trkpt lat="45.97412" lon="4.82698">
        <ele>313</ele>
        <time>2018-09-30T08:59:58Z</time>
      </trkpt>
      <trkpt lat="45.97413" lon="4.82703">
        <ele>314</ele>
        <time>2018-09-30T08:59:59Z</time>
      </trkpt>
      <trkpt lat="45.97415" lon="4.82708">
        <ele>314</ele>
        <time>2018-09-30T09:00:00Z</time>
      </trkpt>
      <trkpt lat="45.97418" lon="4.82726">
        <ele>313</ele>
        <time>2018-09-30T09:00:03Z</time>
      </trkpt>
      <trkpt lat="45.97419" lon="4.82732">
        <ele>313</ele>
        <time>2018-09-30T09:00:04Z</time>
      </trkpt>
      <trkpt lat="45.9742" lon="4.82739">
        <ele>313</ele>
        <time>2018-09-30T09:00:05Z</time>
      </trkpt>
      <trkpt lat="45.97422" lon="4.82751">
        <ele>313</ele>
        <time>2018-09-30T09:00:07Z</time>
      </trkpt>
      <trkpt lat="45.97423" lon="4.82756">
        <ele>312</ele>
        <time>2018-09-30T09:00:08Z</time>
      </trkpt>
      <trkpt lat="45.97425" lon="4.82768">
        <ele>313</ele>
        <time>2018-09-30T09:00:10Z</time>
      </trkpt>
      <trkpt lat="45.97425" lon="4.82775">
        <ele>314</ele>
        <time>2018-09-30T09:00:11Z</time>
      </trkpt>
      <trkpt lat="45.97427" lon="4.82782">
        <ele>314</ele>
        <time>2018-09-30T09:00:12Z</time>
      </trkpt>
      <trkpt lat="45.97427" lon="4.82788">
        <ele>314</ele>
        <time>2018-09-30T09:00:13Z</time>
      </trkpt>
      <trkpt lat="45.97429" lon="4.828">
        <ele>313</ele>
        <time>2018-09-30T09:00:16Z</time>
      </trkpt>
      <trkpt lat="45.97429" lon="4.82803">
        <ele>313</ele>
        <time>2018-09-30T09:00:17Z</time>
      </trkpt>
      <trkpt lat="45.9743" lon="4.82807">
        <ele>313</ele>
        <time>2018-09-30T09:00:18Z</time>
      </trkpt>
      <trkpt lat="45.97433" lon="4.82819">
        <ele>313</ele>
        <time>2018-09-30T09:00:19Z</time>
      </trkpt>
      <trkpt lat="45.97434" lon="4.82828">
        <ele>313</ele>
        <time>2018-09-30T09:00:21Z</time>
      </trkpt>
      <trkpt lat="45.97435" lon="4.82835">
        <ele>313</ele>
        <time>2018-09-30T09:00:22Z</time>
      </trkpt>
      <trkpt lat="45.97436" lon="4.8284">
        <ele>312</ele>
        <time>2018-09-30T09:00:24Z</time>
      </trkpt>
      <trkpt lat="45.97437" lon="4.82848">
        <ele>312</ele>
        <time>2018-09-30T09:00:25Z</time>
      </trkpt>
      <trkpt lat="45.97439" lon="4.82857">
        <ele>313</ele>
        <time>2018-09-30T09:00:28Z</time>
      </trkpt>
      <trkpt lat="45.9744" lon="4.82861">
        <ele>313</ele>
        <time>2018-09-30T09:00:29Z</time>
      </trkpt>
      <trkpt lat="45.97442" lon="4.82873">
        <ele>314</ele>
        <time>2018-09-30T09:00:32Z</time>
      </trkpt>
      <trkpt lat="45.97443" lon="4.82877">
        <ele>314</ele>
        <time>2018-09-30T09:00:33Z</time>
      </trkpt>
      <trkpt lat="45.97445" lon="4.82886">
        <ele>314</ele>
        <time>2018-09-30T09:00:35Z</time>
      </trkpt>
      <trkpt lat="45.97445" lon="4.82891">
        <ele>313</ele>
        <time>2018-09-30T09:00:36Z</time>
      </trkpt>
      <trkpt lat="45.97447" lon="4.829">
        <ele>313</ele>
        <time>2018-09-30T09:00:38Z</time>
      </trkpt>
      <trkpt lat="45.97449" lon="4.82914">
        <ele>313</ele>
        <time>2018-09-30T09:00:39Z</time>
      </trkpt>
      <trkpt lat="45.9745" lon="4.82925">
        <ele>314</ele>
        <time>2018-09-30T09:00:41Z</time>
      </trkpt>
      <trkpt lat="45.97451" lon="4.82928">
        <ele>315</ele>
        <time>2018-09-30T09:00:42Z</time>
      </trkpt>
      <trkpt lat="45.97453" lon="4.82937">
        <ele>315</ele>
        <time>2018-09-30T09:00:45Z</time>
      </trkpt>
      <trkpt lat="45.97454" lon="4.8294">
        <ele>315</ele>
        <time>2018-09-30T09:00:46Z</time>
      </trkpt>
      <trkpt lat="45.97456" lon="4.82951">
        <ele>315</ele>
        <time>2018-09-30T09:00:49Z</time>
      </trkpt>
      <trkpt lat="45.97459" lon="4.82964">
        <ele>315</ele>
        <time>2018-09-30T09:00:50Z</time>
      </trkpt>
      <trkpt lat="45.9746" lon="4.82974">
        <ele>316</ele>
        <time>2018-09-30T09:00:52Z</time>
      </trkpt>
      <trkpt lat="45.97461" lon="4.82979">
        <ele>315</ele>
        <time>2018-09-30T09:00:53Z</time>
      </trkpt>
      <trkpt lat="45.97463" lon="4.8299">
        <ele>316</ele>
        <time>2018-09-30T09:00:55Z</time>
      </trkpt>
      <trkpt lat="45.97463" lon="4.82995">
        <ele>316</ele>
        <time>2018-09-30T09:00:56Z</time>
      </trkpt>
      <trkpt lat="45.97466" lon="4.83006">
        <ele>317</ele>
        <time>2018-09-30T09:00:58Z</time>
      </trkpt>
      <trkpt lat="45.97467" lon="4.83011">
        <ele>317</ele>
        <time>2018-09-30T09:00:59Z</time>
      </trkpt>
      <trkpt lat="45.97469" lon="4.83021">
        <ele>317</ele>
        <time>2018-09-30T09:01:01Z</time>
      </trkpt>
      <trkpt lat="45.9747" lon="4.83026">
        <ele>317</ele>
        <time>2018-09-30T09:01:02Z</time>
      </trkpt>
      <trkpt lat="45.97473" lon="4.83036">
        <ele>317</ele>
        <time>2018-09-30T09:01:04Z</time>
      </trkpt>
      <trkpt lat="45.97474" lon="4.83038">
        <ele>318</ele>
        <time>2018-09-30T09:01:05Z</time>
      </trkpt>
      <trkpt lat="45.97478" lon="4.83049">
        <ele>318</ele>
        <time>2018-09-30T09:01:07Z</time>
      </trkpt>
      <trkpt lat="45.97479" lon="4.83054">
        <ele>318</ele>
        <time>2018-09-30T09:01:08Z</time>
      </trkpt>
      <trkpt lat="45.97482" lon="4.83065">
        <ele>318</ele>
        <time>2018-09-30T09:01:10Z</time>
      </trkpt>
      <trkpt lat="45.97483" lon="4.83067">
        <ele>318</ele>
        <time>2018-09-30T09:01:11Z</time>
      </trkpt>
      <trkpt lat="45.97486" lon="4.83076">
        <ele>318</ele>
        <time>2018-09-30T09:01:14Z</time>
      </trkpt>
      <trkpt lat="45.97487" lon="4.8308">
        <ele>318</ele>
        <time>2018-09-30T09:01:15Z</time>
      </trkpt>
      <trkpt lat="45.9749" lon="4.83089">
        <ele>317</ele>
        <time>2018-09-30T09:01:18Z</time>
      </trkpt>
      <trkpt lat="45.97491" lon="4.83093">
        <ele>318</ele>
        <time>2018-09-30T09:01:19Z</time>
      </trkpt>
      <trkpt lat="45.97494" lon="4.83102">
        <ele>317</ele>
        <time>2018-09-30T09:01:21Z</time>
      </trkpt>
      <trkpt lat="45.97494" lon="4.83105">
        <ele>317</ele>
        <time>2018-09-30T09:01:22Z</time>
      </trkpt>
      <trkpt lat="45.97497" lon="4.83115">
        <ele>317</ele>
        <time>2018-09-30T09:01:25Z</time>
      </trkpt>
      <trkpt lat="45.97498" lon="4.83119">
        <ele>318</ele>
        <time>2018-09-30T09:01:26Z</time>
      </trkpt>
      <trkpt lat="45.97501" lon="4.83129">
        <ele>318</ele>
        <time>2018-09-30T09:01:29Z</time>
      </trkpt>
      <trkpt lat="45.97502" lon="4.83132">
        <ele>318</ele>
        <time>2018-09-30T09:01:30Z</time>
      </trkpt>
      <trkpt lat="45.97504" lon="4.83141">
        <ele>318</ele>
        <time>2018-09-30T09:01:32Z</time>
      </trkpt>
      <trkpt lat="45.97505" lon="4.83145">
        <ele>319</ele>
        <time>2018-09-30T09:01:33Z</time>
      </trkpt>
      <trkpt lat="45.97508" lon="4.83155">
        <ele>297</ele>
        <time>2018-09-30T09:01:36Z</time>
      </trkpt>
      <trkpt lat="45.97509" lon="4.83158">
        <ele>301</ele>
        <time>2018-09-30T09:01:37Z</time>
      </trkpt>
      <trkpt lat="45.97512" lon="4.83167">
        <ele>311</ele>
        <time>2018-09-30T09:01:40Z</time>
      </trkpt>
      <trkpt lat="45.97514" lon="4.8317">
        <ele>312</ele>
        <time>2018-09-30T09:01:41Z</time>
      </trkpt>
      <trkpt lat="45.97518" lon="4.8318">
        <ele>313</ele>
        <time>2018-09-30T09:01:44Z</time>
      </trkpt>
      <trkpt lat="45.9752" lon="4.83183">
        <ele>314</ele>
        <time>2018-09-30T09:01:45Z</time>
      </trkpt>
      <trkpt lat="45.97523" lon="4.83191">
        <ele>313</ele>
        <time>2018-09-30T09:01:47Z</time>
      </trkpt>
      <trkpt lat="45.97528" lon="4.83201">
        <ele>313</ele>
        <time>2018-09-30T09:01:48Z</time>
      </trkpt>
      <trkpt lat="45.97531" lon="4.83211">
        <ele>315</ele>
        <time>2018-09-30T09:01:51Z</time>
      </trkpt>
      <trkpt lat="45.97532" lon="4.83213">
        <ele>315</ele>
        <time>2018-09-30T09:01:52Z</time>
      </trkpt>
      <trkpt lat="45.97536" lon="4.83224">
        <ele>315</ele>
        <time>2018-09-30T09:01:56Z</time>
      </trkpt>
      <trkpt lat="45.97537" lon="4.83228">
        <ele>316</ele>
        <time>2018-09-30T09:01:57Z</time>
      </trkpt>
      <trkpt lat="45.97539" lon="4.83235">
        <ele>317</ele>
        <time>2018-09-30T09:01:59Z</time>
      </trkpt>
      <trkpt lat="45.97543" lon="4.83248">
        <ele>317</ele>
        <time>2018-09-30T09:02:00Z</time>
      </trkpt>
      <trkpt lat="45.97545" lon="4.83259">
        <ele>317</ele>
        <time>2018-09-30T09:02:02Z</time>
      </trkpt>
      <trkpt lat="45.97545" lon="4.83265">
        <ele>317</ele>
        <time>2018-09-30T09:02:03Z</time>
      </trkpt>
      <trkpt lat="45.97545" lon="4.83277">
        <ele>318</ele>
        <time>2018-09-30T09:02:05Z</time>
      </trkpt>
      <trkpt lat="45.97545" lon="4.8328">
        <ele>319</ele>
        <time>2018-09-30T09:02:06Z</time>
      </trkpt>
      <trkpt lat="45.97546" lon="4.8329">
        <ele>306</ele>
        <time>2018-09-30T09:02:09Z</time>
      </trkpt>
      <trkpt lat="45.97546" lon="4.83294">
        <ele>310</ele>
        <time>2018-09-30T09:02:10Z</time>
      </trkpt>
      <trkpt lat="45.97546" lon="4.83302">
        <ele>315</ele>
        <time>2018-09-30T09:02:12Z</time>
      </trkpt>
      <trkpt lat="45.97546" lon="4.83307">
        <ele>317</ele>
        <time>2018-09-30T09:02:13Z</time>
      </trkpt>
      <trkpt lat="45.97547" lon="4.83316">
        <ele>318</ele>
        <time>2018-09-30T09:02:15Z</time>
      </trkpt>
      <trkpt lat="45.97547" lon="4.8332">
        <ele>318</ele>
        <time>2018-09-30T09:02:16Z</time>
      </trkpt>
      <trkpt lat="45.97547" lon="4.8333">
        <ele>320</ele>
        <time>2018-09-30T09:02:18Z</time>
      </trkpt>
      <trkpt lat="45.97547" lon="4.83335">
        <ele>301</ele>
        <time>2018-09-30T09:02:19Z</time>
      </trkpt>
      <trkpt lat="45.97546" lon="4.83348">
        <ele>313</ele>
        <time>2018-09-30T09:02:22Z</time>
      </trkpt>
      <trkpt lat="45.97546" lon="4.83352">
        <ele>316</ele>
        <time>2018-09-30T09:02:23Z</time>
      </trkpt>
      <trkpt lat="45.97545" lon="4.83365">
        <ele>317</ele>
        <time>2018-09-30T09:02:24Z</time>
      </trkpt>
      <trkpt lat="45.97545" lon="4.83375">
        <ele>319</ele>
        <time>2018-09-30T09:02:26Z</time>
      </trkpt>
      <trkpt lat="45.97545" lon="4.83381">
        <ele>320</ele>
        <time>2018-09-30T09:02:27Z</time>
      </trkpt>
      <trkpt lat="45.97546" lon="4.83393">
        <ele>301</ele>
        <time>2018-09-30T09:02:29Z</time>
      </trkpt>
      <trkpt lat="45.97545" lon="4.83399">
        <ele>309</ele>
        <time>2018-09-30T09:02:30Z</time>
      </trkpt>
      <trkpt lat="45.97546" lon="4.83411">
        <ele>317</ele>
        <time>2018-09-30T09:02:33Z</time>
      </trkpt>
      <trkpt lat="45.97546" lon="4.83414">
        <ele>318</ele>
        <time>2018-09-30T09:02:34Z</time>
      </trkpt>
      <trkpt lat="45.97546" lon="4.83426">
        <ele>304</ele>
        <time>2018-09-30T09:02:37Z</time>
      </trkpt>
      <trkpt lat="45.97546" lon="4.8343">
        <ele>307</ele>
        <time>2018-09-30T09:02:38Z</time>
      </trkpt>
      <trkpt lat="45.97547" lon="4.83441">
        <ele>313</ele>
        <time>2018-09-30T09:02:39Z</time>
      </trkpt>
      <trkpt lat="45.97547" lon="4.83447">
        <ele>314</ele>
        <time>2018-09-30T09:02:40Z</time>
      </trkpt>
      <trkpt lat="45.97548" lon="4.83458">
        <ele>316</ele>
        <time>2018-09-30T09:02:42Z</time>
      </trkpt>
      <trkpt lat="45.97548" lon="4.83463">
        <ele>317</ele>
        <time>2018-09-30T09:02:43Z</time>
      </trkpt>
      <trkpt lat="45.97548" lon="4.83474">
        <ele>318</ele>
        <time>2018-09-30T09:02:45Z</time>
      </trkpt>
      <trkpt lat="45.97547" lon="4.83479">
        <ele>303</ele>
        <time>2018-09-30T09:02:46Z</time>
      </trkpt>
      <trkpt lat="45.97547" lon="4.83489">
        <ele>315</ele>
        <time>2018-09-30T09:02:49Z</time>
      </trkpt>
      <trkpt lat="45.97547" lon="4.83493">
        <ele>317</ele>
        <time>2018-09-30T09:02:50Z</time>
      </trkpt>
      <trkpt lat="45.97546" lon="4.83498">
        <ele>317</ele>
        <time>2018-09-30T09:02:51Z</time>
      </trkpt>
      <trkpt lat="45.97546" lon="4.8351">
        <ele>303</ele>
        <time>2018-09-30T09:02:52Z</time>
      </trkpt>
      <trkpt lat="45.97547" lon="4.83523">
        <ele>303</ele>
        <time>2018-09-30T09:02:54Z</time>
      </trkpt>
      <trkpt lat="45.97546" lon="4.8353">
        <ele>308</ele>
        <time>2018-09-30T09:02:55Z</time>
      </trkpt>
      <trkpt lat="45.97546" lon="4.83537">
        <ele>310</ele>
        <time>2018-09-30T09:02:56Z</time>
      </trkpt>
      <trkpt lat="45.97546" lon="4.83543">
        <ele>311</ele>
        <time>2018-09-30T09:02:57Z</time>
      </trkpt>
      <trkpt lat="45.97545" lon="4.83553">
        <ele>317</ele>
        <time>2018-09-30T09:02:59Z</time>
      </trkpt>
      <trkpt lat="45.97545" lon="4.83558">
        <ele>301</ele>
        <time>2018-09-30T09:03:00Z</time>
      </trkpt>
      <trkpt lat="45.97545" lon="4.8357">
        <ele>312</ele>
        <time>2018-09-30T09:03:02Z</time>
      </trkpt>
      <trkpt lat="45.97545" lon="4.83575">
        <ele>315</ele>
        <time>2018-09-30T09:03:03Z</time>
      </trkpt>
      <trkpt lat="45.97545" lon="4.83586">
        <ele>316</ele>
        <time>2018-09-30T09:03:05Z</time>
      </trkpt>
      <trkpt lat="45.97544" lon="4.83592">
        <ele>318</ele>
        <time>2018-09-30T09:03:06Z</time>
      </trkpt>
      <trkpt lat="45.97544" lon="4.83604">
        <ele>307</ele>
        <time>2018-09-30T09:03:08Z</time>
      </trkpt>
      <trkpt lat="45.97543" lon="4.83611">
        <ele>312</ele>
        <time>2018-09-30T09:03:09Z</time>
      </trkpt>
      <trkpt lat="45.97543" lon="4.83618">
        <ele>316</ele>
        <time>2018-09-30T09:03:10Z</time>
      </trkpt>
      <trkpt lat="45.97544" lon="4.83625">
        <ele>319</ele>
        <time>2018-09-30T09:03:11Z</time>
      </trkpt>
      <trkpt lat="45.97544" lon="4.83632">
        <ele>319</ele>
        <time>2018-09-30T09:03:12Z</time>
      </trkpt>
      <trkpt lat="45.97544" lon="4.83639">
        <ele>320</ele>
        <time>2018-09-30T09:03:13Z</time>
      </trkpt>
      <trkpt lat="45.97544" lon="4.83645">
        <ele>321</ele>
        <time>2018-09-30T09:03:14Z</time>
      </trkpt>
      <trkpt lat="45.97544" lon="4.83652">
        <ele>321</ele>
        <time>2018-09-30T09:03:15Z</time>
      </trkpt>
      <trkpt lat="45.97544" lon="4.83662">
        <ele>321</ele>
        <time>2018-09-30T09:03:17Z</time>
      </trkpt>
      <trkpt lat="45.97544" lon="4.83668">
        <ele>323</ele>
        <time>2018-09-30T09:03:18Z</time>
      </trkpt>
      <trkpt lat="45.97545" lon="4.83679">
        <ele>323</ele>
        <time>2018-09-30T09:03:20Z</time>
      </trkpt>
      <trkpt lat="45.97545" lon="4.83686">
        <ele>322</ele>
        <time>2018-09-30T09:03:21Z</time>
      </trkpt>
      <trkpt lat="45.97545" lon="4.83693">
        <ele>323</ele>
        <time>2018-09-30T09:03:22Z</time>
      </trkpt>
      <trkpt lat="45.97546" lon="4.83701">
        <ele>325</ele>
        <time>2018-09-30T09:03:23Z</time>
      </trkpt>
      <trkpt lat="45.97546" lon="4.83707">
        <ele>326</ele>
        <time>2018-09-30T09:03:24Z</time>
      </trkpt>
      <trkpt lat="45.97547" lon="4.83715">
        <ele>325</ele>
        <time>2018-09-30T09:03:25Z</time>
      </trkpt>
      <trkpt lat="45.97548" lon="4.83722">
        <ele>325</ele>
        <time>2018-09-30T09:03:26Z</time>
      </trkpt>
      <trkpt lat="45.97548" lon="4.83729">
        <ele>327</ele>
        <time>2018-09-30T09:03:27Z</time>
      </trkpt>
      <trkpt lat="45.97549" lon="4.83741">
        <ele>327</ele>
        <time>2018-09-30T09:03:29Z</time>
      </trkpt>
      <trkpt lat="45.9755" lon="4.83747">
        <ele>327</ele>
        <time>2018-09-30T09:03:30Z</time>
      </trkpt>
      <trkpt lat="45.97549" lon="4.83755">
        <ele>328</ele>
        <time>2018-09-30T09:03:31Z</time>
      </trkpt>
      <trkpt lat="45.9755" lon="4.83761">
        <ele>329</ele>
        <time>2018-09-30T09:03:32Z</time>
      </trkpt>
      <trkpt lat="45.97549" lon="4.83768">
        <ele>329</ele>
        <time>2018-09-30T09:03:33Z</time>
      </trkpt>
      <trkpt lat="45.9755" lon="4.83775">
        <ele>330</ele>
        <time>2018-09-30T09:03:34Z</time>
      </trkpt>
      <trkpt lat="45.97551" lon="4.83782">
        <ele>330</ele>
        <time>2018-09-30T09:03:35Z</time>
      </trkpt>
      <trkpt lat="45.97551" lon="4.83789">
        <ele>329</ele>
        <time>2018-09-30T09:03:36Z</time>
      </trkpt>
      <trkpt lat="45.9755" lon="4.83796">
        <ele>329</ele>
        <time>2018-09-30T09:03:37Z</time>
      </trkpt>
      <trkpt lat="45.9755" lon="4.83802">
        <ele>329</ele>
        <time>2018-09-30T09:03:38Z</time>
      </trkpt>
      <trkpt lat="45.97549" lon="4.8381">
        <ele>329</ele>
        <time>2018-09-30T09:03:39Z</time>
      </trkpt>
      <trkpt lat="45.97548" lon="4.83818">
        <ele>329</ele>
        <time>2018-09-30T09:03:40Z</time>
      </trkpt>
      <trkpt lat="45.97548" lon="4.83825">
        <ele>328</ele>
        <time>2018-09-30T09:03:41Z</time>
      </trkpt>
      <trkpt lat="45.97547" lon="4.83832">
        <ele>328</ele>
        <time>2018-09-30T09:03:42Z</time>
      </trkpt>
      <trkpt lat="45.97547" lon="4.83838">
        <ele>328</ele>
        <time>2018-09-30T09:03:43Z</time>
      </trkpt>
      <trkpt lat="45.97545" lon="4.83844">
        <ele>328</ele>
        <time>2018-09-30T09:03:44Z</time>
      </trkpt>
      <trkpt lat="45.97542" lon="4.83856">
        <ele>329</ele>
        <time>2018-09-30T09:03:46Z</time>
      </trkpt>
      <trkpt lat="45.97542" lon="4.83862">
        <ele>302</ele>
        <time>2018-09-30T09:03:47Z</time>
      </trkpt>
      <trkpt lat="45.97541" lon="4.83868">
        <ele>304</ele>
        <time>2018-09-30T09:03:48Z</time>
      </trkpt>
      <trkpt lat="45.97539" lon="4.83875">
        <ele>303</ele>
        <time>2018-09-30T09:03:49Z</time>
      </trkpt>
      <trkpt lat="45.97538" lon="4.83881">
        <ele>317</ele>
        <time>2018-09-30T09:03:50Z</time>
      </trkpt>
      <trkpt lat="45.97536" lon="4.83887">
        <ele>321</ele>
        <time>2018-09-30T09:03:51Z</time>
      </trkpt>
      <trkpt lat="45.97535" lon="4.83893">
        <ele>325</ele>
        <time>2018-09-30T09:03:52Z</time>
      </trkpt>
      <trkpt lat="45.97534" lon="4.839">
        <ele>326</ele>
        <time>2018-09-30T09:03:53Z</time>
      </trkpt>
      <trkpt lat="45.97532" lon="4.83907">
        <ele>318</ele>
        <time>2018-09-30T09:03:54Z</time>
      </trkpt>
      <trkpt lat="45.9753" lon="4.83914">
        <ele>324</ele>
        <time>2018-09-30T09:03:55Z</time>
      </trkpt>
      <trkpt lat="45.97529" lon="4.83925">
        <ele>325</ele>
        <time>2018-09-30T09:03:57Z</time>
      </trkpt>
      <trkpt lat="45.97528" lon="4.8393">
        <ele>325</ele>
        <time>2018-09-30T09:03:58Z</time>
      </trkpt>
      <trkpt lat="45.97527" lon="4.83942">
        <ele>326</ele>
        <time>2018-09-30T09:04:00Z</time>
      </trkpt>
      <trkpt lat="45.97526" lon="4.83948">
        <ele>327</ele>
        <time>2018-09-30T09:04:01Z</time>
      </trkpt>
      <trkpt lat="45.97525" lon="4.83955">
        <ele>326</ele>
        <time>2018-09-30T09:04:02Z</time>
      </trkpt>
      <trkpt lat="45.97524" lon="4.83961">
        <ele>327</ele>
        <time>2018-09-30T09:04:03Z</time>
      </trkpt>
      <trkpt lat="45.97522" lon="4.83972">
        <ele>326</ele>
        <time>2018-09-30T09:04:05Z</time>
      </trkpt>
      <trkpt lat="45.97522" lon="4.83979">
        <ele>325</ele>
        <time>2018-09-30T09:04:06Z</time>
      </trkpt>
      <trkpt lat="45.9752" lon="4.83988">
        <ele>325</ele>
        <time>2018-09-30T09:04:08Z</time>
      </trkpt>
      <trkpt lat="45.97519" lon="4.83994">
        <ele>325</ele>
        <time>2018-09-30T09:04:09Z</time>
      </trkpt>
      <trkpt lat="45.97518" lon="4.84005">
        <ele>324</ele>
        <time>2018-09-30T09:04:11Z</time>
      </trkpt>
      <trkpt lat="45.9752" lon="4.84012">
        <ele>324</ele>
        <time>2018-09-30T09:04:12Z</time>
      </trkpt>
      <trkpt lat="45.97517" lon="4.84018">
        <ele>324</ele>
        <time>2018-09-30T09:04:13Z</time>
      </trkpt>
      <trkpt lat="45.97515" lon="4.84027">
        <ele>324</ele>
        <time>2018-09-30T09:04:14Z</time>
      </trkpt>
      <trkpt lat="45.97514" lon="4.84034">
        <ele>323</ele>
        <time>2018-09-30T09:04:15Z</time>
      </trkpt>
      <trkpt lat="45.97512" lon="4.8404">
        <ele>324</ele>
        <time>2018-09-30T09:04:16Z</time>
      </trkpt>
      <trkpt lat="45.97511" lon="4.84048">
        <ele>324</ele>
        <time>2018-09-30T09:04:17Z</time>
      </trkpt>
      <trkpt lat="45.97509" lon="4.84054">
        <ele>324</ele>
        <time>2018-09-30T09:04:18Z</time>
      </trkpt>
      <trkpt lat="45.97508" lon="4.84061">
        <ele>325</ele>
        <time>2018-09-30T09:04:19Z</time>
      </trkpt>
      <trkpt lat="45.97506" lon="4.84066">
        <ele>325</ele>
        <time>2018-09-30T09:04:20Z</time>
      </trkpt>
      <trkpt lat="45.97503" lon="4.84076">
        <ele>326</ele>
        <time>2018-09-30T09:04:22Z</time>
      </trkpt>
      <trkpt lat="45.97501" lon="4.84081">
        <ele>327</ele>
        <time>2018-09-30T09:04:23Z</time>
      </trkpt>
      <trkpt lat="45.975" lon="4.84092">
        <ele>327</ele>
        <time>2018-09-30T09:04:25Z</time>
      </trkpt>
      <trkpt lat="45.97499" lon="4.84094">
        <ele>327</ele>
        <time>2018-09-30T09:04:26Z</time>
      </trkpt>
      <trkpt lat="45.97498" lon="4.84097">
        <ele>327</ele>
        <time>2018-09-30T09:04:27Z</time>
      </trkpt>
      <trkpt lat="45.97495" lon="4.84106">
        <ele>328</ele>
        <time>2018-09-30T09:04:28Z</time>
      </trkpt>
      <trkpt lat="45.97493" lon="4.84118">
        <ele>328</ele>
        <time>2018-09-30T09:04:30Z</time>
      </trkpt>
      <trkpt lat="45.97492" lon="4.84124">
        <ele>328</ele>
        <time>2018-09-30T09:04:31Z</time>
      </trkpt>
      <trkpt lat="45.97491" lon="4.84136">
        <ele>327</ele>
        <time>2018-09-30T09:04:33Z</time>
      </trkpt>
      <trkpt lat="45.9749" lon="4.84139">
        <ele>327</ele>
        <time>2018-09-30T09:04:34Z</time>
      </trkpt>
      <trkpt lat="45.97489" lon="4.84151">
        <ele>327</ele>
        <time>2018-09-30T09:04:36Z</time>
      </trkpt>
      <trkpt lat="45.97488" lon="4.84157">
        <ele>327</ele>
        <time>2018-09-30T09:04:37Z</time>
      </trkpt>
      <trkpt lat="45.97487" lon="4.84168">
        <ele>329</ele>
        <time>2018-09-30T09:04:40Z</time>
      </trkpt>
      <trkpt lat="45.97486" lon="4.84172">
        <ele>329</ele>
        <time>2018-09-30T09:04:41Z</time>
      </trkpt>
      <trkpt lat="45.97486" lon="4.84176">
        <ele>329</ele>
        <time>2018-09-30T09:04:42Z</time>
      </trkpt>
      <trkpt lat="45.97484" lon="4.84187">
        <ele>329</ele>
        <time>2018-09-30T09:04:43Z</time>
      </trkpt>
      <trkpt lat="45.97482" lon="4.84192">
        <ele>329</ele>
        <time>2018-09-30T09:04:44Z</time>
      </trkpt>
      <trkpt lat="45.9748" lon="4.84199">
        <ele>329</ele>
        <time>2018-09-30T09:04:45Z</time>
      </trkpt>
      <trkpt lat="45.97479" lon="4.84207">
        <ele>329</ele>
        <time>2018-09-30T09:04:46Z</time>
      </trkpt>
      <trkpt lat="45.97478" lon="4.84214">
        <ele>329</ele>
        <time>2018-09-30T09:04:47Z</time>
      </trkpt>
      <trkpt lat="45.97477" lon="4.84227">
        <ele>329</ele>
        <time>2018-09-30T09:04:49Z</time>
      </trkpt>
      <trkpt lat="45.97476" lon="4.84232">
        <ele>329</ele>
        <time>2018-09-30T09:04:50Z</time>
      </trkpt>
      <trkpt lat="45.97475" lon="4.8424">
        <ele>330</ele>
        <time>2018-09-30T09:04:51Z</time>
      </trkpt>
      <trkpt lat="45.97475" lon="4.84246">
        <ele>331</ele>
        <time>2018-09-30T09:04:52Z</time>
      </trkpt>
      <trkpt lat="45.97474" lon="4.84257">
        <ele>331</ele>
        <time>2018-09-30T09:04:54Z</time>
      </trkpt>
      <trkpt lat="45.97473" lon="4.84262">
        <ele>332</ele>
        <time>2018-09-30T09:04:55Z</time>
      </trkpt>
      <trkpt lat="45.97472" lon="4.84272">
        <ele>331</ele>
        <time>2018-09-30T09:04:57Z</time>
      </trkpt>
      <trkpt lat="45.97471" lon="4.84279">
        <ele>331</ele>
        <time>2018-09-30T09:04:58Z</time>
      </trkpt>
      <trkpt lat="45.9747" lon="4.84286">
        <ele>332</ele>
        <time>2018-09-30T09:04:59Z</time>
      </trkpt>
      <trkpt lat="45.97469" lon="4.84292">
        <ele>330</ele>
        <time>2018-09-30T09:05:00Z</time>
      </trkpt>
      <trkpt lat="45.97468" lon="4.84298">
        <ele>330</ele>
        <time>2018-09-30T09:05:01Z</time>
      </trkpt>
      <trkpt lat="45.97468" lon="4.84305">
        <ele>330</ele>
        <time>2018-09-30T09:05:02Z</time>
      </trkpt>
      <trkpt lat="45.97466" lon="4.84316">
        <ele>330</ele>
        <time>2018-09-30T09:05:04Z</time>
      </trkpt>
      <trkpt lat="45.97466" lon="4.84321">
        <ele>330</ele>
        <time>2018-09-30T09:05:05Z</time>
      </trkpt>
      <trkpt lat="45.97464" lon="4.84331">
        <ele>329</ele>
        <time>2018-09-30T09:05:07Z</time>
      </trkpt>
      <trkpt lat="45.97464" lon="4.84337">
        <ele>329</ele>
        <time>2018-09-30T09:05:08Z</time>
      </trkpt>
      <trkpt lat="45.97463" lon="4.84344">
        <ele>329</ele>
        <time>2018-09-30T09:05:09Z</time>
      </trkpt>
      <trkpt lat="45.97462" lon="4.84351">
        <ele>329</ele>
        <time>2018-09-30T09:05:10Z</time>
      </trkpt>
      <trkpt lat="45.97461" lon="4.84359">
        <ele>331</ele>
        <time>2018-09-30T09:05:11Z</time>
      </trkpt>
      <trkpt lat="45.9746" lon="4.84365">
        <ele>331</ele>
        <time>2018-09-30T09:05:12Z</time>
      </trkpt>
      <trkpt lat="45.97459" lon="4.84372">
        <ele>331</ele>
        <time>2018-09-30T09:05:13Z</time>
      </trkpt>
      <trkpt lat="45.97458" lon="4.84378">
        <ele>329</ele>
        <time>2018-09-30T09:05:14Z</time>
      </trkpt>
      <trkpt lat="45.97457" lon="4.84389">
        <ele>329</ele>
        <time>2018-09-30T09:05:16Z</time>
      </trkpt>
      <trkpt lat="45.97456" lon="4.84395">
        <ele>329</ele>
        <time>2018-09-30T09:05:17Z</time>
      </trkpt>
      <trkpt lat="45.97455" lon="4.84405">
        <ele>329</ele>
        <time>2018-09-30T09:05:19Z</time>
      </trkpt>
      <trkpt lat="45.97454" lon="4.84411">
        <ele>329</ele>
        <time>2018-09-30T09:05:20Z</time>
      </trkpt>
      <trkpt lat="45.97452" lon="4.8442">
        <ele>330</ele>
        <time>2018-09-30T09:05:22Z</time>
      </trkpt>
      <trkpt lat="45.97451" lon="4.84425">
        <ele>331</ele>
        <time>2018-09-30T09:05:23Z</time>
      </trkpt>
      <trkpt lat="45.97449" lon="4.84437">
        <ele>331</ele>
        <time>2018-09-30T09:05:25Z</time>
      </trkpt>
      <trkpt lat="45.97448" lon="4.84443">
        <ele>332</ele>
        <time>2018-09-30T09:05:26Z</time>
      </trkpt>
      <trkpt lat="45.97447" lon="4.8445">
        <ele>331</ele>
        <time>2018-09-30T09:05:27Z</time>
      </trkpt>
      <trkpt lat="45.97446" lon="4.84456">
        <ele>332</ele>
        <time>2018-09-30T09:05:28Z</time>
      </trkpt>
      <trkpt lat="45.97446" lon="4.84463">
        <ele>332</ele>
        <time>2018-09-30T09:05:29Z</time>
      </trkpt>
      <trkpt lat="45.97444" lon="4.84471">
        <ele>332</ele>
        <time>2018-09-30T09:05:30Z</time>
      </trkpt>
      <trkpt lat="45.97444" lon="4.8448">
        <ele>331</ele>
        <time>2018-09-30T09:05:31Z</time>
      </trkpt>
      <trkpt lat="45.97443" lon="4.84487">
        <ele>331</ele>
        <time>2018-09-30T09:05:32Z</time>
      </trkpt>
      <trkpt lat="45.97441" lon="4.84495">
        <ele>330</ele>
        <time>2018-09-30T09:05:33Z</time>
      </trkpt>
      <trkpt lat="45.9744" lon="4.84502">
        <ele>330</ele>
        <time>2018-09-30T09:05:34Z</time>
      </trkpt>
      <trkpt lat="45.9744" lon="4.84508">
        <ele>330</ele>
        <time>2018-09-30T09:05:35Z</time>
      </trkpt>
      <trkpt lat="45.9744" lon="4.84517">
        <ele>328</ele>
        <time>2018-09-30T09:05:36Z</time>
      </trkpt>
      <trkpt lat="45.97438" lon="4.84523">
        <ele>329</ele>
        <time>2018-09-30T09:05:37Z</time>
      </trkpt>
      <trkpt lat="45.97437" lon="4.8453">
        <ele>328</ele>
        <time>2018-09-30T09:05:38Z</time>
      </trkpt>
      <trkpt lat="45.97435" lon="4.84542">
        <ele>329</ele>
        <time>2018-09-30T09:05:40Z</time>
      </trkpt>
      <trkpt lat="45.97434" lon="4.84546">
        <ele>329</ele>
        <time>2018-09-30T09:05:41Z</time>
      </trkpt>
      <trkpt lat="45.97433" lon="4.84557">
        <ele>329</ele>
        <time>2018-09-30T09:05:43Z</time>
      </trkpt>
      <trkpt lat="45.97432" lon="4.84563">
        <ele>330</ele>
        <time>2018-09-30T09:05:44Z</time>
      </trkpt>
      <trkpt lat="45.9743" lon="4.84574">
        <ele>329</ele>
        <time>2018-09-30T09:05:46Z</time>
      </trkpt>
      <trkpt lat="45.9743" lon="4.8458">
        <ele>329</ele>
        <time>2018-09-30T09:05:47Z</time>
      </trkpt>
      <trkpt lat="45.97429" lon="4.84587">
        <ele>329</ele>
        <time>2018-09-30T09:05:48Z</time>
      </trkpt>
      <trkpt lat="45.97428" lon="4.84593">
        <ele>329</ele>
        <time>2018-09-30T09:05:49Z</time>
      </trkpt>
      <trkpt lat="45.97426" lon="4.84603">
        <ele>330</ele>
        <time>2018-09-30T09:05:51Z</time>
      </trkpt>
      <trkpt lat="45.97425" lon="4.84608">
        <ele>330</ele>
        <time>2018-09-30T09:05:52Z</time>
      </trkpt>
      <trkpt lat="45.97423" lon="4.8462">
        <ele>330</ele>
        <time>2018-09-30T09:05:54Z</time>
      </trkpt>
      <trkpt lat="45.97422" lon="4.84627">
        <ele>330</ele>
        <time>2018-09-30T09:05:55Z</time>
      </trkpt>
      <trkpt lat="45.97422" lon="4.84632">
        <ele>330</ele>
        <time>2018-09-30T09:05:56Z</time>
      </trkpt>
      <trkpt lat="45.97421" lon="4.8464">
        <ele>330</ele>
        <time>2018-09-30T09:05:57Z</time>
      </trkpt>
      <trkpt lat="45.9742" lon="4.84647">
        <ele>329</ele>
        <time>2018-09-30T09:05:58Z</time>
      </trkpt>
      <trkpt lat="45.97418" lon="4.84654">
        <ele>329</ele>
        <time>2018-09-30T09:05:59Z</time>
      </trkpt>
      <trkpt lat="45.97417" lon="4.84661">
        <ele>329</ele>
        <time>2018-09-30T09:06:00Z</time>
      </trkpt>
      <trkpt lat="45.97415" lon="4.84667">
        <ele>329</ele>
        <time>2018-09-30T09:06:01Z</time>
      </trkpt>
      <trkpt lat="45.97413" lon="4.84673">
        <ele>329</ele>
        <time>2018-09-30T09:06:02Z</time>
      </trkpt>
      <trkpt lat="45.97409" lon="4.84678">
        <ele>329</ele>
        <time>2018-09-30T09:06:03Z</time>
      </trkpt>
      <trkpt lat="45.97406" lon="4.8469">
        <ele>330</ele>
        <time>2018-09-30T09:06:05Z</time>
      </trkpt>
      <trkpt lat="45.97404" lon="4.84695">
        <ele>330</ele>
        <time>2018-09-30T09:06:06Z</time>
      </trkpt>
      <trkpt lat="45.97401" lon="4.84705">
        <ele>328</ele>
        <time>2018-09-30T09:06:08Z</time>
      </trkpt>
      <trkpt lat="45.97399" lon="4.8471">
        <ele>328</ele>
        <time>2018-09-30T09:06:09Z</time>
      </trkpt>
      <trkpt lat="45.97395" lon="4.8472">
        <ele>330</ele>
        <time>2018-09-30T09:06:11Z</time>
      </trkpt>
      <trkpt lat="45.97393" lon="4.84725">
        <ele>331</ele>
        <time>2018-09-30T09:06:12Z</time>
      </trkpt>
      <trkpt lat="45.9739" lon="4.84734">
        <ele>330</ele>
        <time>2018-09-30T09:06:14Z</time>
      </trkpt>
      <trkpt lat="45.97387" lon="4.84738">
        <ele>330</ele>
        <time>2018-09-30T09:06:15Z</time>
      </trkpt>
      <trkpt lat="45.97384" lon="4.84749">
        <ele>329</ele>
        <time>2018-09-30T09:06:17Z</time>
      </trkpt>
      <trkpt lat="45.97382" lon="4.84754">
        <ele>329</ele>
        <time>2018-09-30T09:06:18Z</time>
      </trkpt>
      <trkpt lat="45.97379" lon="4.84764">
        <ele>329</ele>
        <time>2018-09-30T09:06:20Z</time>
      </trkpt>
      <trkpt lat="45.97377" lon="4.84769">
        <ele>328</ele>
        <time>2018-09-30T09:06:21Z</time>
      </trkpt>
      <trkpt lat="45.97374" lon="4.84775">
        <ele>328</ele>
        <time>2018-09-30T09:06:22Z</time>
      </trkpt>
      <trkpt lat="45.97371" lon="4.84783">
        <ele>328</ele>
        <time>2018-09-30T09:06:23Z</time>
      </trkpt>
      <trkpt lat="45.97368" lon="4.8479">
        <ele>328</ele>
        <time>2018-09-30T09:06:24Z</time>
      </trkpt>
      <trkpt lat="45.97365" lon="4.84797">
        <ele>329</ele>
        <time>2018-09-30T09:06:25Z</time>
      </trkpt>
      <trkpt lat="45.97363" lon="4.84802">
        <ele>329</ele>
        <time>2018-09-30T09:06:26Z</time>
      </trkpt>
      <trkpt lat="45.97361" lon="4.84809">
        <ele>330</ele>
        <time>2018-09-30T09:06:27Z</time>
      </trkpt>
      <trkpt lat="45.97359" lon="4.84816">
        <ele>329</ele>
        <time>2018-09-30T09:06:28Z</time>
      </trkpt>
      <trkpt lat="45.97356" lon="4.84822">
        <ele>329</ele>
        <time>2018-09-30T09:06:29Z</time>
      </trkpt>
      <trkpt lat="45.97352" lon="4.8483">
        <ele>328</ele>
        <time>2018-09-30T09:06:31Z</time>
      </trkpt>
      <trkpt lat="45.97351" lon="4.84834">
        <ele>329</ele>
        <time>2018-09-30T09:06:32Z</time>
      </trkpt>
      <trkpt lat="45.97344" lon="4.84841">
        <ele>329</ele>
        <time>2018-09-30T09:06:34Z</time>
      </trkpt>
      <trkpt lat="45.97342" lon="4.84847">
        <ele>330</ele>
        <time>2018-09-30T09:06:35Z</time>
      </trkpt>
      <trkpt lat="45.97337" lon="4.84857">
        <ele>331</ele>
        <time>2018-09-30T09:06:37Z</time>
      </trkpt>
      <trkpt lat="45.97334" lon="4.84862">
        <ele>330</ele>
        <time>2018-09-30T09:06:38Z</time>
      </trkpt>
      <trkpt lat="45.9733" lon="4.84872">
        <ele>331</ele>
        <time>2018-09-30T09:06:40Z</time>
      </trkpt>
      <trkpt lat="45.97327" lon="4.84878">
        <ele>331</ele>
        <time>2018-09-30T09:06:41Z</time>
      </trkpt>
      <trkpt lat="45.97321" lon="4.84887">
        <ele>332</ele>
        <time>2018-09-30T09:06:43Z</time>
      </trkpt>
      <trkpt lat="45.97319" lon="4.84891">
        <ele>332</ele>
        <time>2018-09-30T09:06:44Z</time>
      </trkpt>
      <trkpt lat="45.97314" lon="4.849">
        <ele>332</ele>
        <time>2018-09-30T09:06:46Z</time>
      </trkpt>
      <trkpt lat="45.97311" lon="4.84904">
        <ele>332</ele>
        <time>2018-09-30T09:06:47Z</time>
      </trkpt>
      <trkpt lat="45.97306" lon="4.84913">
        <ele>333</ele>
        <time>2018-09-30T09:06:49Z</time>
      </trkpt>
      <trkpt lat="45.97303" lon="4.84919">
        <ele>332</ele>
        <time>2018-09-30T09:06:50Z</time>
      </trkpt>
      <trkpt lat="45.97297" lon="4.84929">
        <ele>332</ele>
        <time>2018-09-30T09:06:52Z</time>
      </trkpt>
      <trkpt lat="45.97295" lon="4.84934">
        <ele>332</ele>
        <time>2018-09-30T09:06:53Z</time>
      </trkpt>
      <trkpt lat="45.9729" lon="4.84943">
        <ele>329</ele>
        <time>2018-09-30T09:06:55Z</time>
      </trkpt>
      <trkpt lat="45.97287" lon="4.84948">
        <ele>328</ele>
        <time>2018-09-30T09:06:56Z</time>
      </trkpt>
      <trkpt lat="45.97285" lon="4.84953">
        <ele>328</ele>
        <time>2018-09-30T09:06:57Z</time>
      </trkpt>
      <trkpt lat="45.97282" lon="4.8496">
        <ele>328</ele>
        <time>2018-09-30T09:06:58Z</time>
      </trkpt>
      <trkpt lat="45.97279" lon="4.84964">
        <ele>329</ele>
        <time>2018-09-30T09:06:59Z</time>
      </trkpt>
      <trkpt lat="45.97276" lon="4.84969">
        <ele>328</ele>
        <time>2018-09-30T09:07:00Z</time>
      </trkpt>
      <trkpt lat="45.97272" lon="4.84979">
        <ele>328</ele>
        <time>2018-09-30T09:07:02Z</time>
      </trkpt>
      <trkpt lat="45.9727" lon="4.84984">
        <ele>328</ele>
        <time>2018-09-30T09:07:03Z</time>
      </trkpt>
      <trkpt lat="45.97271" lon="4.84991">
        <ele>328</ele>
        <time>2018-09-30T09:07:04Z</time>
      </trkpt>
      <trkpt lat="45.9727" lon="4.84997">
        <ele>327</ele>
        <time>2018-09-30T09:07:05Z</time>
      </trkpt>
      <trkpt lat="45.97267" lon="4.85003">
        <ele>326</ele>
        <time>2018-09-30T09:07:06Z</time>
      </trkpt>
      <trkpt lat="45.97264" lon="4.85008">
        <ele>325</ele>
        <time>2018-09-30T09:07:07Z</time>
      </trkpt>
      <trkpt lat="45.97257" lon="4.85016">
        <ele>327</ele>
        <time>2018-09-30T09:07:09Z</time>
      </trkpt>
      <trkpt lat="45.97255" lon="4.85021">
        <ele>326</ele>
        <time>2018-09-30T09:07:10Z</time>
      </trkpt>
      <trkpt lat="45.9725" lon="4.85031">
        <ele>327</ele>
        <time>2018-09-30T09:07:12Z</time>
      </trkpt>
      <trkpt lat="45.97248" lon="4.85036">
        <ele>325</ele>
        <time>2018-09-30T09:07:13Z</time>
      </trkpt>
      <trkpt lat="45.97244" lon="4.85044">
        <ele>325</ele>
        <time>2018-09-30T09:07:15Z</time>
      </trkpt>
      <trkpt lat="45.97243" lon="4.85046">
        <ele>325</ele>
        <time>2018-09-30T09:07:16Z</time>
      </trkpt>
      <trkpt lat="45.9724" lon="4.85053">
        <ele>322</ele>
        <time>2018-09-30T09:07:17Z</time>
      </trkpt>
      <trkpt lat="45.97238" lon="4.85059">
        <ele>322</ele>
        <time>2018-09-30T09:07:18Z</time>
      </trkpt>
      <trkpt lat="45.97233" lon="4.85069">
        <ele>323</ele>
        <time>2018-09-30T09:07:20Z</time>
      </trkpt>
      <trkpt lat="45.9723" lon="4.85074">
        <ele>323</ele>
        <time>2018-09-30T09:07:21Z</time>
      </trkpt>
      <trkpt lat="45.97228" lon="4.85083">
        <ele>322</ele>
        <time>2018-09-30T09:07:22Z</time>
      </trkpt>
      <trkpt lat="45.97226" lon="4.85089">
        <ele>322</ele>
        <time>2018-09-30T09:07:23Z</time>
      </trkpt>
      <trkpt lat="45.97221" lon="4.85098">
        <ele>322</ele>
        <time>2018-09-30T09:07:25Z</time>
      </trkpt>
      <trkpt lat="45.9722" lon="4.851">
        <ele>322</ele>
        <time>2018-09-30T09:07:26Z</time>
      </trkpt>
      <trkpt lat="45.97214" lon="4.8511">
        <ele>321</ele>
        <time>2018-09-30T09:07:28Z</time>
      </trkpt>
      <trkpt lat="45.97212" lon="4.85114">
        <ele>322</ele>
        <time>2018-09-30T09:07:29Z</time>
      </trkpt>
      <trkpt lat="45.9721" lon="4.8512">
        <ele>321</ele>
        <time>2018-09-30T09:07:30Z</time>
      </trkpt>
      <trkpt lat="45.97207" lon="4.85125">
        <ele>321</ele>
        <time>2018-09-30T09:07:31Z</time>
      </trkpt>
      <trkpt lat="45.97202" lon="4.85135">
        <ele>319</ele>
        <time>2018-09-30T09:07:33Z</time>
      </trkpt>
      <trkpt lat="45.97201" lon="4.85137">
        <ele>319</ele>
        <time>2018-09-30T09:07:34Z</time>
      </trkpt>
      <trkpt lat="45.97196" lon="4.85146">
        <ele>325</ele>
        <time>2018-09-30T09:07:37Z</time>
      </trkpt>
      <trkpt lat="45.97195" lon="4.85148">
        <ele>325</ele>
        <time>2018-09-30T09:07:38Z</time>
      </trkpt>
      <trkpt lat="45.97193" lon="4.8516">
        <ele>323</ele>
        <time>2018-09-30T09:07:39Z</time>
      </trkpt>
      <trkpt lat="45.97191" lon="4.85164">
        <ele>322</ele>
        <time>2018-09-30T09:07:40Z</time>
      </trkpt>
      <trkpt lat="45.97186" lon="4.85174">
        <ele>317</ele>
        <time>2018-09-30T09:07:43Z</time>
      </trkpt>
      <trkpt lat="45.97185" lon="4.85177">
        <ele>316</ele>
        <time>2018-09-30T09:07:44Z</time>
      </trkpt>
      <trkpt lat="45.97181" lon="4.85186">
        <ele>316</ele>
        <time>2018-09-30T09:07:45Z</time>
      </trkpt>
      <trkpt lat="45.97179" lon="4.8519">
        <ele>315</ele>
        <time>2018-09-30T09:07:46Z</time>
      </trkpt>
      <trkpt lat="45.97173" lon="4.85198">
        <ele>315</ele>
        <time>2018-09-30T09:07:48Z</time>
      </trkpt>
      <trkpt lat="45.97171" lon="4.85205">
        <ele>315</ele>
        <time>2018-09-30T09:07:49Z</time>
      </trkpt>
      <trkpt lat="45.97169" lon="4.85211">
        <ele>315</ele>
        <time>2018-09-30T09:07:50Z</time>
      </trkpt>
      <trkpt lat="45.97166" lon="4.85216">
        <ele>314</ele>
        <time>2018-09-30T09:07:51Z</time>
      </trkpt>
      <trkpt lat="45.9716" lon="4.85226">
        <ele>316</ele>
        <time>2018-09-30T09:07:53Z</time>
      </trkpt>
      <trkpt lat="45.97158" lon="4.85232">
        <ele>316</ele>
        <time>2018-09-30T09:07:54Z</time>
      </trkpt>
      <trkpt lat="45.97152" lon="4.8524">
        <ele>316</ele>
        <time>2018-09-30T09:07:56Z</time>
      </trkpt>
      <trkpt lat="45.9715" lon="4.85244">
        <ele>316</ele>
        <time>2018-09-30T09:07:57Z</time>
      </trkpt>
      <trkpt lat="45.97144" lon="4.85253">
        <ele>316</ele>
        <time>2018-09-30T09:07:59Z</time>
      </trkpt>
      <trkpt lat="45.97142" lon="4.8526">
        <ele>317</ele>
        <time>2018-09-30T09:08:00Z</time>
      </trkpt>
      <trkpt lat="45.97137" lon="4.85269">
        <ele>319</ele>
        <time>2018-09-30T09:08:02Z</time>
      </trkpt>
      <trkpt lat="45.97135" lon="4.85274">
        <ele>318</ele>
        <time>2018-09-30T09:08:03Z</time>
      </trkpt>
      <trkpt lat="45.97131" lon="4.85284">
        <ele>317</ele>
        <time>2018-09-30T09:08:06Z</time>
      </trkpt>
      <trkpt lat="45.97127" lon="4.85292">
        <ele>318</ele>
        <time>2018-09-30T09:08:07Z</time>
      </trkpt>
      <trkpt lat="45.97123" lon="4.85302">
        <ele>319</ele>
        <time>2018-09-30T09:08:09Z</time>
      </trkpt>
      <trkpt lat="45.97119" lon="4.85307">
        <ele>320</ele>
        <time>2018-09-30T09:08:10Z</time>
      </trkpt>
      <trkpt lat="45.97115" lon="4.85317">
        <ele>322</ele>
        <time>2018-09-30T09:08:12Z</time>
      </trkpt>
      <trkpt lat="45.97115" lon="4.85318">
        <ele>321</ele>
        <time>2018-09-30T09:08:13Z</time>
      </trkpt>
      <trkpt lat="45.97114" lon="4.85325">
        <ele>321</ele>
        <time>2018-09-30T09:08:15Z</time>
      </trkpt>
      <trkpt lat="45.97111" lon="4.85333">
        <ele>321</ele>
        <time>2018-09-30T09:08:16Z</time>
      </trkpt>
      <trkpt lat="45.97109" lon="4.85344">
        <ele>320</ele>
        <time>2018-09-30T09:08:19Z</time>
      </trkpt>
      <trkpt lat="45.97108" lon="4.85347">
        <ele>320</ele>
        <time>2018-09-30T09:08:20Z</time>
      </trkpt>
      <trkpt lat="45.97103" lon="4.85357">
        <ele>319</ele>
        <time>2018-09-30T09:08:22Z</time>
      </trkpt>
      <trkpt lat="45.97101" lon="4.85364">
        <ele>320</ele>
        <time>2018-09-30T09:08:23Z</time>
      </trkpt>
      <trkpt lat="45.97097" lon="4.85374">
        <ele>322</ele>
        <time>2018-09-30T09:08:25Z</time>
      </trkpt>
      <trkpt lat="45.97096" lon="4.85377">
        <ele>323</ele>
        <time>2018-09-30T09:08:26Z</time>
      </trkpt>
      <trkpt lat="45.97092" lon="4.85387">
        <ele>324</ele>
        <time>2018-09-30T09:08:28Z</time>
      </trkpt>
      <trkpt lat="45.9709" lon="4.85392">
        <ele>324</ele>
        <time>2018-09-30T09:08:29Z</time>
      </trkpt>
      <trkpt lat="45.97087" lon="4.85402">
        <ele>325</ele>
        <time>2018-09-30T09:08:31Z</time>
      </trkpt>
      <trkpt lat="45.97085" lon="4.85407">
        <ele>325</ele>
        <time>2018-09-30T09:08:32Z</time>
      </trkpt>
      <trkpt lat="45.97083" lon="4.85413">
        <ele>326</ele>
        <time>2018-09-30T09:08:33Z</time>
      </trkpt>
      <trkpt lat="45.9708" lon="4.85418">
        <ele>327</ele>
        <time>2018-09-30T09:08:34Z</time>
      </trkpt>
      <trkpt lat="45.97077" lon="4.85428">
        <ele>327</ele>
        <time>2018-09-30T09:08:36Z</time>
      </trkpt>
      <trkpt lat="45.97077" lon="4.85431">
        <ele>327</ele>
        <time>2018-09-30T09:08:37Z</time>
      </trkpt>
      <trkpt lat="45.97073" lon="4.85442">
        <ele>327</ele>
        <time>2018-09-30T09:08:39Z</time>
      </trkpt>
      <trkpt lat="45.97073" lon="4.85444">
        <ele>327</ele>
        <time>2018-09-30T09:08:40Z</time>
      </trkpt>
      <trkpt lat="45.97069" lon="4.85456">
        <ele>328</ele>
        <time>2018-09-30T09:08:42Z</time>
      </trkpt>
      <trkpt lat="45.97067" lon="4.8546">
        <ele>328</ele>
        <time>2018-09-30T09:08:43Z</time>
      </trkpt>
      <trkpt lat="45.97064" lon="4.8547">
        <ele>327</ele>
        <time>2018-09-30T09:08:45Z</time>
      </trkpt>
      <trkpt lat="45.97062" lon="4.85475">
        <ele>328</ele>
        <time>2018-09-30T09:08:46Z</time>
      </trkpt>
      <trkpt lat="45.97059" lon="4.85486">
        <ele>329</ele>
        <time>2018-09-30T09:08:48Z</time>
      </trkpt>
      <trkpt lat="45.97058" lon="4.85491">
        <ele>329</ele>
        <time>2018-09-30T09:08:49Z</time>
      </trkpt>
      <trkpt lat="45.97055" lon="4.85503">
        <ele>330</ele>
        <time>2018-09-30T09:08:53Z</time>
      </trkpt>
      <trkpt lat="45.97054" lon="4.85506">
        <ele>330</ele>
        <time>2018-09-30T09:08:54Z</time>
      </trkpt>
      <trkpt lat="45.97051" lon="4.85517">
        <ele>330</ele>
        <time>2018-09-30T09:08:55Z</time>
      </trkpt>
      <trkpt lat="45.9705" lon="4.8552">
        <ele>330</ele>
        <time>2018-09-30T09:08:56Z</time>
      </trkpt>
      <trkpt lat="45.97049" lon="4.85526">
        <ele>330</ele>
        <time>2018-09-30T09:08:58Z</time>
      </trkpt>
      <trkpt lat="45.97046" lon="4.85535">
        <ele>330</ele>
        <time>2018-09-30T09:08:59Z</time>
      </trkpt>
      <trkpt lat="45.97043" lon="4.85544">
        <ele>330</ele>
        <time>2018-09-30T09:09:01Z</time>
      </trkpt>
      <trkpt lat="45.97041" lon="4.85549">
        <ele>328</ele>
        <time>2018-09-30T09:09:02Z</time>
      </trkpt>
      <trkpt lat="45.97038" lon="4.85559">
        <ele>327</ele>
        <time>2018-09-30T09:09:04Z</time>
      </trkpt>
      <trkpt lat="45.97036" lon="4.85564">
        <ele>327</ele>
        <time>2018-09-30T09:09:05Z</time>
      </trkpt>
      <trkpt lat="45.97033" lon="4.85574">
        <ele>327</ele>
        <time>2018-09-30T09:09:07Z</time>
      </trkpt>
      <trkpt lat="45.97032" lon="4.8558">
        <ele>328</ele>
        <time>2018-09-30T09:09:08Z</time>
      </trkpt>
      <trkpt lat="45.97029" lon="4.8559">
        <ele>328</ele>
        <time>2018-09-30T09:09:10Z</time>
      </trkpt>
      <trkpt lat="45.97027" lon="4.85594">
        <ele>328</ele>
        <time>2018-09-30T09:09:11Z</time>
      </trkpt>
      <trkpt lat="45.97024" lon="4.85604">
        <ele>327</ele>
        <time>2018-09-30T09:09:13Z</time>
      </trkpt>
      <trkpt lat="45.97022" lon="4.85609">
        <ele>327</ele>
        <time>2018-09-30T09:09:14Z</time>
      </trkpt>
      <trkpt lat="45.9702" lon="4.85617">
        <ele>327</ele>
        <time>2018-09-30T09:09:17Z</time>
      </trkpt>
      <trkpt lat="45.97016" lon="4.85626">
        <ele>328</ele>
        <time>2018-09-30T09:09:18Z</time>
      </trkpt>
      <trkpt lat="45.97014" lon="4.85634">
        <ele>331</ele>
        <time>2018-09-30T09:09:20Z</time>
      </trkpt>
      <trkpt lat="45.97011" lon="4.85641">
        <ele>331</ele>
        <time>2018-09-30T09:09:21Z</time>
      </trkpt>
      <trkpt lat="45.97007" lon="4.85651">
        <ele>333</ele>
        <time>2018-09-30T09:09:23Z</time>
      </trkpt>
      <trkpt lat="45.97005" lon="4.85656">
        <ele>334</ele>
        <time>2018-09-30T09:09:24Z</time>
      </trkpt>
      <trkpt lat="45.97002" lon="4.85666">
        <ele>334</ele>
        <time>2018-09-30T09:09:26Z</time>
      </trkpt>
      <trkpt lat="45.97001" lon="4.85669">
        <ele>332</ele>
        <time>2018-09-30T09:09:27Z</time>
      </trkpt>
      <trkpt lat="45.97001" lon="4.85672">
        <ele>333</ele>
        <time>2018-09-30T09:09:28Z</time>
      </trkpt>
      <trkpt lat="45.96998" lon="4.85681">
        <ele>334</ele>
        <time>2018-09-30T09:09:29Z</time>
      </trkpt>
      <trkpt lat="45.96995" lon="4.85692">
        <ele>333</ele>
        <time>2018-09-30T09:09:31Z</time>
      </trkpt>
      <trkpt lat="45.96994" lon="4.85697">
        <ele>333</ele>
        <time>2018-09-30T09:09:32Z</time>
      </trkpt>
      <trkpt lat="45.96992" lon="4.85706">
        <ele>334</ele>
        <time>2018-09-30T09:09:35Z</time>
      </trkpt>
      <trkpt lat="45.96991" lon="4.8571">
        <ele>334</ele>
        <time>2018-09-30T09:09:36Z</time>
      </trkpt>
      <trkpt lat="45.96989" lon="4.85718">
        <ele>333</ele>
        <time>2018-09-30T09:09:38Z</time>
      </trkpt>
      <trkpt lat="45.96987" lon="4.85722">
        <ele>334</ele>
        <time>2018-09-30T09:09:39Z</time>
      </trkpt>
      <trkpt lat="45.96983" lon="4.85735">
        <ele>334</ele>
        <time>2018-09-30T09:09:40Z</time>
      </trkpt>
      <trkpt lat="45.96981" lon="4.85741">
        <ele>335</ele>
        <time>2018-09-30T09:09:41Z</time>
      </trkpt>
      <trkpt lat="45.96979" lon="4.85747">
        <ele>335</ele>
        <time>2018-09-30T09:09:42Z</time>
      </trkpt>
      <trkpt lat="45.96977" lon="4.85753">
        <ele>335</ele>
        <time>2018-09-30T09:09:43Z</time>
      </trkpt>
      <trkpt lat="45.96975" lon="4.85759">
        <ele>335</ele>
        <time>2018-09-30T09:09:44Z</time>
      </trkpt>
      <trkpt lat="45.96973" lon="4.85771">
        <ele>334</ele>
        <time>2018-09-30T09:09:46Z</time>
      </trkpt>
      <trkpt lat="45.96972" lon="4.85773">
        <ele>334</ele>
        <time>2018-09-30T09:09:47Z</time>
      </trkpt>
      <trkpt lat="45.96969" lon="4.85784">
        <ele>334</ele>
        <time>2018-09-30T09:09:50Z</time>
      </trkpt>
      <trkpt lat="45.96968" lon="4.85788">
        <ele>333</ele>
        <time>2018-09-30T09:09:51Z</time>
      </trkpt>
      <trkpt lat="45.96966" lon="4.85796">
        <ele>334</ele>
        <time>2018-09-30T09:09:53Z</time>
      </trkpt>
      <trkpt lat="45.96963" lon="4.85808">
        <ele>335</ele>
        <time>2018-09-30T09:09:54Z</time>
      </trkpt>
      <trkpt lat="45.96961" lon="4.85819">
        <ele>335</ele>
        <time>2018-09-30T09:09:56Z</time>
      </trkpt>
      <trkpt lat="45.9696" lon="4.85825">
        <ele>335</ele>
        <time>2018-09-30T09:09:57Z</time>
      </trkpt>
      <trkpt lat="45.96957" lon="4.85837">
        <ele>334</ele>
        <time>2018-09-30T09:09:59Z</time>
      </trkpt>
      <trkpt lat="45.96956" lon="4.85843">
        <ele>334</ele>
        <time>2018-09-30T09:10:00Z</time>
      </trkpt>
      <trkpt lat="45.96954" lon="4.85851">
        <ele>334</ele>
        <time>2018-09-30T09:10:03Z</time>
      </trkpt>
      <trkpt lat="45.96951" lon="4.85861">
        <ele>335</ele>
        <time>2018-09-30T09:10:04Z</time>
      </trkpt>
      <trkpt lat="45.96949" lon="4.85872">
        <ele>333</ele>
        <time>2018-09-30T09:10:06Z</time>
      </trkpt>
      <trkpt lat="45.96947" lon="4.85877">
        <ele>334</ele>
        <time>2018-09-30T09:10:07Z</time>
      </trkpt>
      <trkpt lat="45.96945" lon="4.85887">
        <ele>334</ele>
        <time>2018-09-30T09:10:09Z</time>
      </trkpt>
      <trkpt lat="45.96943" lon="4.85892">
        <ele>334</ele>
        <time>2018-09-30T09:10:10Z</time>
      </trkpt>
      <trkpt lat="45.9694" lon="4.85902">
        <ele>334</ele>
        <time>2018-09-30T09:10:13Z</time>
      </trkpt>
      <trkpt lat="45.9694" lon="4.85905">
        <ele>333</ele>
        <time>2018-09-30T09:10:14Z</time>
      </trkpt>
      <trkpt lat="45.96939" lon="4.85908">
        <ele>334</ele>
        <time>2018-09-30T09:10:15Z</time>
      </trkpt>
      <trkpt lat="45.96936" lon="4.85918">
        <ele>334</ele>
        <time>2018-09-30T09:10:16Z</time>
      </trkpt>
      <trkpt lat="45.96933" lon="4.85927">
        <ele>337</ele>
        <time>2018-09-30T09:10:18Z</time>
      </trkpt>
      <trkpt lat="45.96932" lon="4.85932">
        <ele>338</ele>
        <time>2018-09-30T09:10:19Z</time>
      </trkpt>
      <trkpt lat="45.96929" lon="4.85943">
        <ele>336</ele>
        <time>2018-09-30T09:10:21Z</time>
      </trkpt>
      <trkpt lat="45.96927" lon="4.85949">
        <ele>336</ele>
        <time>2018-09-30T09:10:22Z</time>
      </trkpt>
      <trkpt lat="45.96925" lon="4.85961">
        <ele>336</ele>
        <time>2018-09-30T09:10:24Z</time>
      </trkpt>
      <trkpt lat="45.96923" lon="4.85966">
        <ele>336</ele>
        <time>2018-09-30T09:10:25Z</time>
      </trkpt>
      <trkpt lat="45.96921" lon="4.85978">
        <ele>336</ele>
        <time>2018-09-30T09:10:29Z</time>
      </trkpt>
      <trkpt lat="45.96921" lon="4.85981">
        <ele>337</ele>
        <time>2018-09-30T09:10:30Z</time>
      </trkpt>
      <trkpt lat="45.9692" lon="4.85985">
        <ele>336</ele>
        <time>2018-09-30T09:10:31Z</time>
      </trkpt>
      <trkpt lat="45.96918" lon="4.85997">
        <ele>336</ele>
        <time>2018-09-30T09:10:32Z</time>
      </trkpt>
      <trkpt lat="45.96917" lon="4.86005">
        <ele>336</ele>
        <time>2018-09-30T09:10:34Z</time>
      </trkpt>
      <trkpt lat="45.96916" lon="4.86013">
        <ele>336</ele>
        <time>2018-09-30T09:10:35Z</time>
      </trkpt>
      <trkpt lat="45.96915" lon="4.86019">
        <ele>335</ele>
        <time>2018-09-30T09:10:37Z</time>
      </trkpt>
      <trkpt lat="45.96914" lon="4.86029">
        <ele>336</ele>
        <time>2018-09-30T09:10:38Z</time>
      </trkpt>
      <trkpt lat="45.96912" lon="4.86038">
        <ele>336</ele>
        <time>2018-09-30T09:10:41Z</time>
      </trkpt>
      <trkpt lat="45.96912" lon="4.86042">
        <ele>336</ele>
        <time>2018-09-30T09:10:42Z</time>
      </trkpt>
      <trkpt lat="45.96911" lon="4.8605">
        <ele>336</ele>
        <time>2018-09-30T09:10:44Z</time>
      </trkpt>
      <trkpt lat="45.96911" lon="4.86062">
        <ele>336</ele>
        <time>2018-09-30T09:10:45Z</time>
      </trkpt>
      <trkpt lat="45.9691" lon="4.86073">
        <ele>336</ele>
        <time>2018-09-30T09:10:47Z</time>
      </trkpt>
      <trkpt lat="45.96909" lon="4.86076">
        <ele>336</ele>
        <time>2018-09-30T09:10:48Z</time>
      </trkpt>
      <trkpt lat="45.96908" lon="4.86086">
        <ele>336</ele>
        <time>2018-09-30T09:10:51Z</time>
      </trkpt>
      <trkpt lat="45.96908" lon="4.8609">
        <ele>335</ele>
        <time>2018-09-30T09:10:52Z</time>
      </trkpt>
      <trkpt lat="45.96908" lon="4.86101">
        <ele>335</ele>
        <time>2018-09-30T09:10:53Z</time>
      </trkpt>
      <trkpt lat="45.96908" lon="4.86107">
        <ele>335</ele>
        <time>2018-09-30T09:10:54Z</time>
      </trkpt>
      <trkpt lat="45.96906" lon="4.86118">
        <ele>335</ele>
        <time>2018-09-30T09:10:56Z</time>
      </trkpt>
      <trkpt lat="45.96904" lon="4.86123">
        <ele>334</ele>
        <time>2018-09-30T09:10:57Z</time>
      </trkpt>
      <trkpt lat="45.96903" lon="4.8613">
        <ele>334</ele>
        <time>2018-09-30T09:10:58Z</time>
      </trkpt>
      <trkpt lat="45.96902" lon="4.86137">
        <ele>334</ele>
        <time>2018-09-30T09:10:59Z</time>
      </trkpt>
      <trkpt lat="45.96901" lon="4.86149">
        <ele>334</ele>
        <time>2018-09-30T09:11:01Z</time>
      </trkpt>
      <trkpt lat="45.96901" lon="4.86152">
        <ele>334</ele>
        <time>2018-09-30T09:11:02Z</time>
      </trkpt>
      <trkpt lat="45.96898" lon="4.86163">
        <ele>334</ele>
        <time>2018-09-30T09:11:05Z</time>
      </trkpt>
      <trkpt lat="45.96897" lon="4.86167">
        <ele>333</ele>
        <time>2018-09-30T09:11:06Z</time>
      </trkpt>
      <trkpt lat="45.96896" lon="4.86174">
        <ele>332</ele>
        <time>2018-09-30T09:11:08Z</time>
      </trkpt>
      <trkpt lat="45.96895" lon="4.86179">
        <ele>332</ele>
        <time>2018-09-30T09:11:09Z</time>
      </trkpt>
      <trkpt lat="45.96894" lon="4.86191">
        <ele>333</ele>
        <time>2018-09-30T09:11:11Z</time>
      </trkpt>
      <trkpt lat="45.96893" lon="4.86195">
        <ele>332</ele>
        <time>2018-09-30T09:11:12Z</time>
      </trkpt>
      <trkpt lat="45.96892" lon="4.86204">
        <ele>333</ele>
        <time>2018-09-30T09:11:14Z</time>
      </trkpt>
      <trkpt lat="45.96891" lon="4.86217">
        <ele>333</ele>
        <time>2018-09-30T09:11:15Z</time>
      </trkpt>
      <trkpt lat="45.96889" lon="4.86228">
        <ele>333</ele>
        <time>2018-09-30T09:11:17Z</time>
      </trkpt>
      <trkpt lat="45.96888" lon="4.86235">
        <ele>334</ele>
        <time>2018-09-30T09:11:18Z</time>
      </trkpt>
      <trkpt lat="45.96887" lon="4.86246">
        <ele>334</ele>
        <time>2018-09-30T09:11:20Z</time>
      </trkpt>
      <trkpt lat="45.96887" lon="4.86249">
        <ele>334</ele>
        <time>2018-09-30T09:11:21Z</time>
      </trkpt>
      <trkpt lat="45.96886" lon="4.86259">
        <ele>285</ele>
        <time>2018-09-30T09:11:23Z</time>
      </trkpt>
      <trkpt lat="45.96886" lon="4.86262">
        <ele>294</ele>
        <time>2018-09-30T09:11:24Z</time>
      </trkpt>
      <trkpt lat="45.96885" lon="4.86266">
        <ele>301</ele>
        <time>2018-09-30T09:11:25Z</time>
      </trkpt>
      <trkpt lat="45.96884" lon="4.86277">
        <ele>310</ele>
        <time>2018-09-30T09:11:26Z</time>
      </trkpt>
      <trkpt lat="45.96882" lon="4.86288">
        <ele>318</ele>
        <time>2018-09-30T09:11:28Z</time>
      </trkpt>
      <trkpt lat="45.96881" lon="4.86293">
        <ele>320</ele>
        <time>2018-09-30T09:11:29Z</time>
      </trkpt>
      <trkpt lat="45.9688" lon="4.863">
        <ele>321</ele>
        <time>2018-09-30T09:11:30Z</time>
      </trkpt>
      <trkpt lat="45.96879" lon="4.86306">
        <ele>332</ele>
        <time>2018-09-30T09:11:31Z</time>
      </trkpt>
      <trkpt lat="45.96878" lon="4.86318">
        <ele>333</ele>
        <time>2018-09-30T09:11:33Z</time>
      </trkpt>
      <trkpt lat="45.96876" lon="4.86325">
        <ele>333</ele>
        <time>2018-09-30T09:11:34Z</time>
      </trkpt>
      <trkpt lat="45.96873" lon="4.86336">
        <ele>334</ele>
        <time>2018-09-30T09:11:36Z</time>
      </trkpt>
      <trkpt lat="45.96872" lon="4.86343">
        <ele>334</ele>
        <time>2018-09-30T09:11:37Z</time>
      </trkpt>
      <trkpt lat="45.9687" lon="4.86353">
        <ele>333</ele>
        <time>2018-09-30T09:11:39Z</time>
      </trkpt>
      <trkpt lat="45.9687" lon="4.86359">
        <ele>333</ele>
        <time>2018-09-30T09:11:40Z</time>
      </trkpt>
      <trkpt lat="45.96869" lon="4.86366">
        <ele>333</ele>
        <time>2018-09-30T09:11:41Z</time>
      </trkpt>
      <trkpt lat="45.96868" lon="4.86373">
        <ele>334</ele>
        <time>2018-09-30T09:11:42Z</time>
      </trkpt>
      <trkpt lat="45.96867" lon="4.86379">
        <ele>333</ele>
        <time>2018-09-30T09:11:43Z</time>
      </trkpt>
      <trkpt lat="45.96866" lon="4.86388">
        <ele>334</ele>
        <time>2018-09-30T09:11:44Z</time>
      </trkpt>
      <trkpt lat="45.96865" lon="4.86395">
        <ele>334</ele>
        <time>2018-09-30T09:11:45Z</time>
      </trkpt>
      <trkpt lat="45.96863" lon="4.86403">
        <ele>334</ele>
        <time>2018-09-30T09:11:46Z</time>
      </trkpt>
      <trkpt lat="45.96862" lon="4.86413">
        <ele>329</ele>
        <time>2018-09-30T09:11:48Z</time>
      </trkpt>
      <trkpt lat="45.96861" lon="4.86419">
        <ele>329</ele>
        <time>2018-09-30T09:11:49Z</time>
      </trkpt>
      <trkpt lat="45.9686" lon="4.86431">
        <ele>330</ele>
        <time>2018-09-30T09:11:51Z</time>
      </trkpt>
      <trkpt lat="45.9686" lon="4.86439">
        <ele>331</ele>
        <time>2018-09-30T09:11:52Z</time>
      </trkpt>
      <trkpt lat="45.96858" lon="4.86449">
        <ele>333</ele>
        <time>2018-09-30T09:11:54Z</time>
      </trkpt>
      <trkpt lat="45.96856" lon="4.86456">
        <ele>333</ele>
        <time>2018-09-30T09:11:55Z</time>
      </trkpt>
      <trkpt lat="45.96854" lon="4.86463">
        <ele>333</ele>
        <time>2018-09-30T09:11:56Z</time>
      </trkpt>
      <trkpt lat="45.96852" lon="4.86468">
        <ele>333</ele>
        <time>2018-09-30T09:11:57Z</time>
      </trkpt>
      <trkpt lat="45.96849" lon="4.86474">
        <ele>333</ele>
        <time>2018-09-30T09:11:58Z</time>
      </trkpt>
      <trkpt lat="45.96847" lon="4.86481">
        <ele>333</ele>
        <time>2018-09-30T09:11:59Z</time>
      </trkpt>
      <trkpt lat="45.96846" lon="4.86487">
        <ele>333</ele>
        <time>2018-09-30T09:12:00Z</time>
      </trkpt>
      <trkpt lat="45.96844" lon="4.86494">
        <ele>334</ele>
        <time>2018-09-30T09:12:01Z</time>
      </trkpt>
      <trkpt lat="45.96842" lon="4.86501">
        <ele>335</ele>
        <time>2018-09-30T09:12:02Z</time>
      </trkpt>
      <trkpt lat="45.96838" lon="4.86508">
        <ele>335</ele>
        <time>2018-09-30T09:12:03Z</time>
      </trkpt>
      <trkpt lat="45.96836" lon="4.86513">
        <ele>335</ele>
        <time>2018-09-30T09:12:04Z</time>
      </trkpt>
      <trkpt lat="45.96834" lon="4.86519">
        <ele>336</ele>
        <time>2018-09-30T09:12:05Z</time>
      </trkpt>
      <trkpt lat="45.9683" lon="4.86529">
        <ele>337</ele>
        <time>2018-09-30T09:12:07Z</time>
      </trkpt>
      <trkpt lat="45.96826" lon="4.86532">
        <ele>338</ele>
        <time>2018-09-30T09:12:08Z</time>
      </trkpt>
      <trkpt lat="45.96822" lon="4.86535">
        <ele>337</ele>
        <time>2018-09-30T09:12:09Z</time>
      </trkpt>
      <trkpt lat="45.96817" lon="4.86538">
        <ele>337</ele>
        <time>2018-09-30T09:12:10Z</time>
      </trkpt>
      <trkpt lat="45.96812" lon="4.86547">
        <ele>336</ele>
        <time>2018-09-30T09:12:12Z</time>
      </trkpt>
      <trkpt lat="45.9681" lon="4.86554">
        <ele>336</ele>
        <time>2018-09-30T09:12:13Z</time>
      </trkpt>
      <trkpt lat="45.96806" lon="4.86557">
        <ele>336</ele>
        <time>2018-09-30T09:12:14Z</time>
      </trkpt>
      <trkpt lat="45.96802" lon="4.86561">
        <ele>338</ele>
        <time>2018-09-30T09:12:15Z</time>
      </trkpt>
      <trkpt lat="45.96799" lon="4.86567">
        <ele>338</ele>
        <time>2018-09-30T09:12:16Z</time>
      </trkpt>
      <trkpt lat="45.96796" lon="4.86571">
        <ele>330</ele>
        <time>2018-09-30T09:12:17Z</time>
      </trkpt>
      <trkpt lat="45.96792" lon="4.86576">
        <ele>331</ele>
        <time>2018-09-30T09:12:18Z</time>
      </trkpt>
      <trkpt lat="45.96788" lon="4.8658">
        <ele>336</ele>
        <time>2018-09-30T09:12:19Z</time>
      </trkpt>
      <trkpt lat="45.96781" lon="4.86588">
        <ele>338</ele>
        <time>2018-09-30T09:12:21Z</time>
      </trkpt>
      <trkpt lat="45.96778" lon="4.86593">
        <ele>339</ele>
        <time>2018-09-30T09:12:22Z</time>
      </trkpt>
      <trkpt lat="45.96773" lon="4.86604">
        <ele>339</ele>
        <time>2018-09-30T09:12:24Z</time>
      </trkpt>
      <trkpt lat="45.96768" lon="4.86608">
        <ele>341</ele>
        <time>2018-09-30T09:12:25Z</time>
      </trkpt>
      <trkpt lat="45.96766" lon="4.86618">
        <ele>337</ele>
        <time>2018-09-30T09:12:27Z</time>
      </trkpt>
      <trkpt lat="45.96764" lon="4.86624">
        <ele>336</ele>
        <time>2018-09-30T09:12:28Z</time>
      </trkpt>
      <trkpt lat="45.96762" lon="4.86631">
        <ele>335</ele>
        <time>2018-09-30T09:12:29Z</time>
      </trkpt>
      <trkpt lat="45.96758" lon="4.86636">
        <ele>336</ele>
        <time>2018-09-30T09:12:30Z</time>
      </trkpt>
      <trkpt lat="45.96755" lon="4.86643">
        <ele>335</ele>
        <time>2018-09-30T09:12:31Z</time>
      </trkpt>
      <trkpt lat="45.96751" lon="4.86647">
        <ele>337</ele>
        <time>2018-09-30T09:12:32Z</time>
      </trkpt>
      <trkpt lat="45.96748" lon="4.86653">
        <ele>338</ele>
        <time>2018-09-30T09:12:33Z</time>
      </trkpt>
      <trkpt lat="45.96744" lon="4.86659">
        <ele>338</ele>
        <time>2018-09-30T09:12:34Z</time>
      </trkpt>
      <trkpt lat="45.9674" lon="4.86663">
        <ele>338</ele>
        <time>2018-09-30T09:12:35Z</time>
      </trkpt>
      <trkpt lat="45.96736" lon="4.8667">
        <ele>336</ele>
        <time>2018-09-30T09:12:36Z</time>
      </trkpt>
      <trkpt lat="45.96733" lon="4.86677">
        <ele>336</ele>
        <time>2018-09-30T09:12:37Z</time>
      </trkpt>
      <trkpt lat="45.96731" lon="4.86684">
        <ele>334</ele>
        <time>2018-09-30T09:12:38Z</time>
      </trkpt>
      <trkpt lat="45.96728" lon="4.86691">
        <ele>335</ele>
        <time>2018-09-30T09:12:39Z</time>
      </trkpt>
      <trkpt lat="45.96725" lon="4.86696">
        <ele>335</ele>
        <time>2018-09-30T09:12:40Z</time>
      </trkpt>
      <trkpt lat="45.96721" lon="4.86702">
        <ele>333</ele>
        <time>2018-09-30T09:12:41Z</time>
      </trkpt>
      <trkpt lat="45.96719" lon="4.86708">
        <ele>333</ele>
        <time>2018-09-30T09:12:42Z</time>
      </trkpt>
      <trkpt lat="45.96715" lon="4.86714">
        <ele>333</ele>
        <time>2018-09-30T09:12:43Z</time>
      </trkpt>
      <trkpt lat="45.96711" lon="4.86719">
        <ele>334</ele>
        <time>2018-09-30T09:12:44Z</time>
      </trkpt>
      <trkpt lat="45.96709" lon="4.86726">
        <ele>334</ele>
        <time>2018-09-30T09:12:45Z</time>
      </trkpt>
      <trkpt lat="45.96707" lon="4.86732">
        <ele>335</ele>
        <time>2018-09-30T09:12:46Z</time>
      </trkpt>
      <trkpt lat="45.96703" lon="4.86739">
        <ele>333</ele>
        <time>2018-09-30T09:12:47Z</time>
      </trkpt>
      <trkpt lat="45.967" lon="4.86745">
        <ele>333</ele>
        <time>2018-09-30T09:12:48Z</time>
      </trkpt>
      <trkpt lat="45.96697" lon="4.8675">
        <ele>331</ele>
        <time>2018-09-30T09:12:49Z</time>
      </trkpt>
      <trkpt lat="45.96693" lon="4.86754">
        <ele>332</ele>
        <time>2018-09-30T09:12:50Z</time>
      </trkpt>
      <trkpt lat="45.96689" lon="4.86759">
        <ele>333</ele>
        <time>2018-09-30T09:12:51Z</time>
      </trkpt>
      <trkpt lat="45.96688" lon="4.86766">
        <ele>331</ele>
        <time>2018-09-30T09:12:52Z</time>
      </trkpt>
      <trkpt lat="45.96684" lon="4.86771">
        <ele>333</ele>
        <time>2018-09-30T09:12:53Z</time>
      </trkpt>
      <trkpt lat="45.9668" lon="4.86776">
        <ele>333</ele>
        <time>2018-09-30T09:12:54Z</time>
      </trkpt>
      <trkpt lat="45.96674" lon="4.86784">
        <ele>334</ele>
        <time>2018-09-30T09:12:56Z</time>
      </trkpt>
      <trkpt lat="45.96671" lon="4.86789">
        <ele>334</ele>
        <time>2018-09-30T09:12:57Z</time>
      </trkpt>
      <trkpt lat="45.96668" lon="4.86794">
        <ele>334</ele>
        <time>2018-09-30T09:12:58Z</time>
      </trkpt>
      <trkpt lat="45.96665" lon="4.868">
        <ele>332</ele>
        <time>2018-09-30T09:12:59Z</time>
      </trkpt>
      <trkpt lat="45.9666" lon="4.86807">
        <ele>330</ele>
        <time>2018-09-30T09:13:00Z</time>
      </trkpt>
      <trkpt lat="45.96655" lon="4.86813">
        <ele>330</ele>
        <time>2018-09-30T09:13:01Z</time>
      </trkpt>
      <trkpt lat="45.96651" lon="4.86819">
        <ele>330</ele>
        <time>2018-09-30T09:13:02Z</time>
      </trkpt>
      <trkpt lat="45.96647" lon="4.86821">
        <ele>332</ele>
        <time>2018-09-30T09:13:03Z</time>
      </trkpt>
      <trkpt lat="45.96643" lon="4.86828">
        <ele>332</ele>
        <time>2018-09-30T09:13:04Z</time>
      </trkpt>
      <trkpt lat="45.9664" lon="4.86834">
        <ele>331</ele>
        <time>2018-09-30T09:13:05Z</time>
      </trkpt>
      <trkpt lat="45.96636" lon="4.86839">
        <ele>331</ele>
        <time>2018-09-30T09:13:06Z</time>
      </trkpt>
      <trkpt lat="45.96632" lon="4.86845">
        <ele>331</ele>
        <time>2018-09-30T09:13:07Z</time>
      </trkpt>
      <trkpt lat="45.96628" lon="4.8685">
        <ele>330</ele>
        <time>2018-09-30T09:13:08Z</time>
      </trkpt>
      <trkpt lat="45.96624" lon="4.86855">
        <ele>334</ele>
        <time>2018-09-30T09:13:09Z</time>
      </trkpt>
      <trkpt lat="45.9662" lon="4.86861">
        <ele>334</ele>
        <time>2018-09-30T09:13:10Z</time>
      </trkpt>
      <trkpt lat="45.96618" lon="4.86868">
        <ele>333</ele>
        <time>2018-09-30T09:13:11Z</time>
      </trkpt>
      <trkpt lat="45.96613" lon="4.86878">
        <ele>333</ele>
        <time>2018-09-30T09:13:13Z</time>
      </trkpt>
      <trkpt lat="45.9661" lon="4.86883">
        <ele>333</ele>
        <time>2018-09-30T09:13:14Z</time>
      </trkpt>
      <trkpt lat="45.96605" lon="4.8689">
        <ele>334</ele>
        <time>2018-09-30T09:13:15Z</time>
      </trkpt>
      <trkpt lat="45.966" lon="4.86895">
        <ele>334</ele>
        <time>2018-09-30T09:13:16Z</time>
      </trkpt>
      <trkpt lat="45.96597" lon="4.86902">
        <ele>333</ele>
        <time>2018-09-30T09:13:17Z</time>
      </trkpt>
      <trkpt lat="45.96594" lon="4.86907">
        <ele>333</ele>
        <time>2018-09-30T09:13:18Z</time>
      </trkpt>
      <trkpt lat="45.9659" lon="4.86914">
        <ele>333</ele>
        <time>2018-09-30T09:13:19Z</time>
      </trkpt>
      <trkpt lat="45.96586" lon="4.8692">
        <ele>332</ele>
        <time>2018-09-30T09:13:20Z</time>
      </trkpt>
      <trkpt lat="45.96582" lon="4.86925">
        <ele>331</ele>
        <time>2018-09-30T09:13:21Z</time>
      </trkpt>
      <trkpt lat="45.96577" lon="4.86931">
        <ele>334</ele>
        <time>2018-09-30T09:13:22Z</time>
      </trkpt>
      <trkpt lat="45.96573" lon="4.86937">
        <ele>334</ele>
        <time>2018-09-30T09:13:23Z</time>
      </trkpt>
      <trkpt lat="45.9657" lon="4.86942">
        <ele>332</ele>
        <time>2018-09-30T09:13:24Z</time>
      </trkpt>
      <trkpt lat="45.96564" lon="4.86948">
        <ele>333</ele>
        <time>2018-09-30T09:13:25Z</time>
      </trkpt>
      <trkpt lat="45.96561" lon="4.86953">
        <ele>333</ele>
        <time>2018-09-30T09:13:26Z</time>
      </trkpt>
      <trkpt lat="45.96558" lon="4.86959">
        <ele>332</ele>
        <time>2018-09-30T09:13:27Z</time>
      </trkpt>
      <trkpt lat="45.96555" lon="4.86963">
        <ele>332</ele>
        <time>2018-09-30T09:13:28Z</time>
      </trkpt>
      <trkpt lat="45.96548" lon="4.86968">
        <ele>334</ele>
        <time>2018-09-30T09:13:30Z</time>
      </trkpt>
      <trkpt lat="45.96547" lon="4.8697">
        <ele>335</ele>
        <time>2018-09-30T09:13:31Z</time>
      </trkpt>
      <trkpt lat="45.96546" lon="4.86972">
        <ele>333</ele>
        <time>2018-09-30T09:13:32Z</time>
      </trkpt>
      <trkpt lat="45.96541" lon="4.8698">
        <ele>333</ele>
        <time>2018-09-30T09:13:33Z</time>
      </trkpt>
      <trkpt lat="45.9654" lon="4.86986">
        <ele>331</ele>
        <time>2018-09-30T09:13:35Z</time>
      </trkpt>
      <trkpt lat="45.96539" lon="4.86997">
        <ele>329</ele>
        <time>2018-09-30T09:13:36Z</time>
      </trkpt>
      <trkpt lat="45.9654" lon="4.87008">
        <ele>327</ele>
        <time>2018-09-30T09:13:41Z</time>
      </trkpt>
      <trkpt lat="45.96541" lon="4.87011">
        <ele>327</ele>
        <time>2018-09-30T09:13:42Z</time>
      </trkpt>
      <trkpt lat="45.96545" lon="4.8702">
        <ele>324</ele>
        <time>2018-09-30T09:13:46Z</time>
      </trkpt>
      <trkpt lat="45.96547" lon="4.87021">
        <ele>324</ele>
        <time>2018-09-30T09:13:47Z</time>
      </trkpt>
      <trkpt lat="45.96554" lon="4.87024">
        <ele>323</ele>
        <time>2018-09-30T09:13:50Z</time>
      </trkpt>
      <trkpt lat="45.96556" lon="4.87026">
        <ele>323</ele>
        <time>2018-09-30T09:13:51Z</time>
      </trkpt>
      <trkpt lat="45.9656" lon="4.87034">
        <ele>323</ele>
        <time>2018-09-30T09:13:54Z</time>
      </trkpt>
      <trkpt lat="45.9656" lon="4.87037">
        <ele>323</ele>
        <time>2018-09-30T09:13:55Z</time>
      </trkpt>
      <trkpt lat="45.96562" lon="4.8705">
        <ele>324</ele>
        <time>2018-09-30T09:13:58Z</time>
      </trkpt>
      <trkpt lat="45.96562" lon="4.87054">
        <ele>324</ele>
        <time>2018-09-30T09:13:59Z</time>
      </trkpt>
      <trkpt lat="45.96562" lon="4.87066">
        <ele>324</ele>
        <time>2018-09-30T09:14:02Z</time>
      </trkpt>
      <trkpt lat="45.96561" lon="4.87068">
        <ele>324</ele>
        <time>2018-09-30T09:14:03Z</time>
      </trkpt>
      <trkpt lat="45.96553" lon="4.87071">
        <ele>325</ele>
        <time>2018-09-30T09:14:07Z</time>
      </trkpt>
      <trkpt lat="45.96551" lon="4.87071">
        <ele>325</ele>
        <time>2018-09-30T09:14:08Z</time>
      </trkpt>
      <trkpt lat="45.96544" lon="4.87068">
        <ele>325</ele>
        <time>2018-09-30T09:14:11Z</time>
      </trkpt>
      <trkpt lat="45.96543" lon="4.87066">
        <ele>326</ele>
        <time>2018-09-30T09:14:12Z</time>
      </trkpt>
      <trkpt lat="45.96539" lon="4.87056">
        <ele>325</ele>
        <time>2018-09-30T09:14:15Z</time>
      </trkpt>
      <trkpt lat="45.96538" lon="4.87051">
        <ele>325</ele>
        <time>2018-09-30T09:14:16Z</time>
      </trkpt>
      <trkpt lat="45.96537" lon="4.87039">
        <ele>326</ele>
        <time>2018-09-30T09:14:19Z</time>
      </trkpt>
      <trkpt lat="45.96536" lon="4.87036">
        <ele>326</ele>
        <time>2018-09-30T09:14:20Z</time>
      </trkpt>
      <trkpt lat="45.96533" lon="4.87024">
        <ele>339</ele>
        <time>2018-09-30T09:24:54.836Z</time>
      </trkpt>
      <trkpt lat="45.96534" lon="4.87023">
        <ele>334</ele>
        <time>2018-09-30T09:24:55.836Z</time>
      </trkpt>
      <trkpt lat="45.96533" lon="4.87027">
        <ele>332</ele>
        <time>2018-09-30T09:26:07Z</time>
      </trkpt>
      <trkpt lat="45.96533" lon="4.87027">
        <ele>331</ele>
        <time>2018-09-30T09:26:08Z</time>
      </trkpt>
      <trkpt lat="45.96533" lon="4.87028">
        <ele>330</ele>
        <time>2018-09-30T09:26:11Z</time>
      </trkpt>
      <trkpt lat="45.96533" lon="4.87028">
        <ele>330</ele>
        <time>2018-09-30T09:26:12Z</time>
      </trkpt>
      <trkpt lat="45.9653" lon="4.87039">
        <ele>329</ele>
        <time>2018-09-30T09:26:42Z</time>
      </trkpt>
      <trkpt lat="45.96528" lon="4.8704">
        <ele>330</ele>
        <time>2018-09-30T09:26:43Z</time>
      </trkpt>
      <trkpt lat="45.9652" lon="4.87037">
        <ele>329</ele>
        <time>2018-09-30T09:26:48Z</time>
      </trkpt>
      <trkpt lat="45.96519" lon="4.87036">
        <ele>330</ele>
        <time>2018-09-30T09:26:49Z</time>
      </trkpt>
      <trkpt lat="45.9651" lon="4.87035">
        <ele>327</ele>
        <time>2018-09-30T09:26:53Z</time>
      </trkpt>
      <trkpt lat="45.96502" lon="4.8704">
        <ele>325</ele>
        <time>2018-09-30T09:26:54Z</time>
      </trkpt>
      <trkpt lat="45.96495" lon="4.87048">
        <ele>325</ele>
        <time>2018-09-30T09:26:56Z</time>
      </trkpt>
      <trkpt lat="45.96492" lon="4.87052">
        <ele>325</ele>
        <time>2018-09-30T09:26:57Z</time>
      </trkpt>
      <trkpt lat="45.96486" lon="4.8706">
        <ele>324</ele>
        <time>2018-09-30T09:26:59Z</time>
      </trkpt>
      <trkpt lat="45.96483" lon="4.87064">
        <ele>323</ele>
        <time>2018-09-30T09:27:00Z</time>
      </trkpt>
      <trkpt lat="45.96478" lon="4.87072">
        <ele>323</ele>
        <time>2018-09-30T09:27:02Z</time>
      </trkpt>
      <trkpt lat="45.96475" lon="4.87076">
        <ele>323</ele>
        <time>2018-09-30T09:27:03Z</time>
      </trkpt>
      <trkpt lat="45.96469" lon="4.87084">
        <ele>323</ele>
        <time>2018-09-30T09:27:05Z</time>
      </trkpt>
      <trkpt lat="45.96466" lon="4.87088">
        <ele>324</ele>
        <time>2018-09-30T09:27:06Z</time>
      </trkpt>
      <trkpt lat="45.96461" lon="4.87098">
        <ele>322</ele>
        <time>2018-09-30T09:27:08Z</time>
      </trkpt>
      <trkpt lat="45.96457" lon="4.87102">
        <ele>322</ele>
        <time>2018-09-30T09:27:09Z</time>
      </trkpt>
      <trkpt lat="45.96451" lon="4.87109">
        <ele>323</ele>
        <time>2018-09-30T09:27:11Z</time>
      </trkpt>
      <trkpt lat="45.96448" lon="4.87113">
        <ele>322</ele>
        <time>2018-09-30T09:27:12Z</time>
      </trkpt>
      <trkpt lat="45.96443" lon="4.8712">
        <ele>322</ele>
        <time>2018-09-30T09:27:14Z</time>
      </trkpt>
      <trkpt lat="45.9644" lon="4.87124">
        <ele>322</ele>
        <time>2018-09-30T09:27:15Z</time>
      </trkpt>
      <trkpt lat="45.96436" lon="4.87134">
        <ele>319</ele>
        <time>2018-09-30T09:27:17Z</time>
      </trkpt>
      <trkpt lat="45.96431" lon="4.87139">
        <ele>318</ele>
        <time>2018-09-30T09:27:18Z</time>
      </trkpt>
      <trkpt lat="45.96426" lon="4.87149">
        <ele>318</ele>
        <time>2018-09-30T09:27:20Z</time>
      </trkpt>
      <trkpt lat="45.96422" lon="4.87154">
        <ele>317</ele>
        <time>2018-09-30T09:27:21Z</time>
      </trkpt>
      <trkpt lat="45.96418" lon="4.8716">
        <ele>328</ele>
        <time>2018-09-30T09:27:22Z</time>
      </trkpt>
      <trkpt lat="45.96415" lon="4.87164">
        <ele>326</ele>
        <time>2018-09-30T09:27:23Z</time>
      </trkpt>
      <trkpt lat="45.9641" lon="4.87168">
        <ele>324</ele>
        <time>2018-09-30T09:27:24Z</time>
      </trkpt>
      <trkpt lat="45.96407" lon="4.87174">
        <ele>323</ele>
        <time>2018-09-30T09:27:25Z</time>
      </trkpt>
      <trkpt lat="45.96404" lon="4.87178">
        <ele>322</ele>
        <time>2018-09-30T09:27:26Z</time>
      </trkpt>
      <trkpt lat="45.96401" lon="4.87183">
        <ele>321</ele>
        <time>2018-09-30T09:27:27Z</time>
      </trkpt>
      <trkpt lat="45.96397" lon="4.87188">
        <ele>320</ele>
        <time>2018-09-30T09:27:28Z</time>
      </trkpt>
      <trkpt lat="45.96393" lon="4.87193">
        <ele>319</ele>
        <time>2018-09-30T09:27:29Z</time>
      </trkpt>
      <trkpt lat="45.9639" lon="4.87198">
        <ele>319</ele>
        <time>2018-09-30T09:27:30Z</time>
      </trkpt>
      <trkpt lat="45.96386" lon="4.87202">
        <ele>329</ele>
        <time>2018-09-30T09:27:31Z</time>
      </trkpt>
      <trkpt lat="45.96379" lon="4.8721">
        <ele>325</ele>
        <time>2018-09-30T09:27:33Z</time>
      </trkpt>
      <trkpt lat="45.96378" lon="4.87212">
        <ele>324</ele>
        <time>2018-09-30T09:27:34Z</time>
      </trkpt>
      <trkpt lat="45.96374" lon="4.87219">
        <ele>323</ele>
        <time>2018-09-30T09:27:35Z</time>
      </trkpt>
      <trkpt lat="45.96371" lon="4.87222">
        <ele>322</ele>
        <time>2018-09-30T09:27:36Z</time>
      </trkpt>
      <trkpt lat="45.96367" lon="4.8723">
        <ele>318</ele>
        <time>2018-09-30T09:27:38Z</time>
      </trkpt>
      <trkpt lat="45.96364" lon="4.87234">
        <ele>318</ele>
        <time>2018-09-30T09:27:39Z</time>
      </trkpt>
      <trkpt lat="45.96359" lon="4.87243">
        <ele>318</ele>
        <time>2018-09-30T09:27:41Z</time>
      </trkpt>
      <trkpt lat="45.96355" lon="4.87248">
        <ele>317</ele>
        <time>2018-09-30T09:27:42Z</time>
      </trkpt>
      <trkpt lat="45.96349" lon="4.87256">
        <ele>317</ele>
        <time>2018-09-30T09:27:44Z</time>
      </trkpt>
      <trkpt lat="45.96346" lon="4.8726">
        <ele>317</ele>
        <time>2018-09-30T09:27:45Z</time>
      </trkpt>
      <trkpt lat="45.9634" lon="4.87267">
        <ele>317</ele>
        <time>2018-09-30T09:27:47Z</time>
      </trkpt>
      <trkpt lat="45.96335" lon="4.87272">
        <ele>318</ele>
        <time>2018-09-30T09:27:48Z</time>
      </trkpt>
      <trkpt lat="45.96332" lon="4.87277">
        <ele>317</ele>
        <time>2018-09-30T09:27:49Z</time>
      </trkpt>
      <trkpt lat="45.96329" lon="4.87281">
        <ele>317</ele>
        <time>2018-09-30T09:27:50Z</time>
      </trkpt>
      <trkpt lat="45.96325" lon="4.87285">
        <ele>318</ele>
        <time>2018-09-30T09:27:51Z</time>
      </trkpt>
      <trkpt lat="45.9632" lon="4.87289">
        <ele>318</ele>
        <time>2018-09-30T09:27:52Z</time>
      </trkpt>
      <trkpt lat="45.96316" lon="4.87294">
        <ele>319</ele>
        <time>2018-09-30T09:27:53Z</time>
      </trkpt>
      <trkpt lat="45.96314" lon="4.87299">
        <ele>318</ele>
        <time>2018-09-30T09:27:54Z</time>
      </trkpt>
      <trkpt lat="45.9631" lon="4.87303">
        <ele>319</ele>
        <time>2018-09-30T09:27:55Z</time>
      </trkpt>
      <trkpt lat="45.96306" lon="4.87307">
        <ele>319</ele>
        <time>2018-09-30T09:27:56Z</time>
      </trkpt>
      <trkpt lat="45.96302" lon="4.87312">
        <ele>319</ele>
        <time>2018-09-30T09:27:57Z</time>
      </trkpt>
      <trkpt lat="45.96299" lon="4.87315">
        <ele>318</ele>
        <time>2018-09-30T09:27:58Z</time>
      </trkpt>
      <trkpt lat="45.96295" lon="4.87319">
        <ele>318</ele>
        <time>2018-09-30T09:27:59Z</time>
      </trkpt>
      <trkpt lat="45.96291" lon="4.87323">
        <ele>319</ele>
        <time>2018-09-30T09:28:00Z</time>
      </trkpt>
      <trkpt lat="45.96284" lon="4.87331">
        <ele>319</ele>
        <time>2018-09-30T09:28:02Z</time>
      </trkpt>
      <trkpt lat="45.9628" lon="4.87335">
        <ele>319</ele>
        <time>2018-09-30T09:28:03Z</time>
      </trkpt>
      <trkpt lat="45.96275" lon="4.87345">
        <ele>317</ele>
        <time>2018-09-30T09:28:05Z</time>
      </trkpt>
      <trkpt lat="45.96272" lon="4.87349">
        <ele>316</ele>
        <time>2018-09-30T09:28:06Z</time>
      </trkpt>
      <trkpt lat="45.96266" lon="4.87357">
        <ele>317</ele>
        <time>2018-09-30T09:28:08Z</time>
      </trkpt>
      <trkpt lat="45.96263" lon="4.87361">
        <ele>318</ele>
        <time>2018-09-30T09:28:09Z</time>
      </trkpt>
      <trkpt lat="45.96257" lon="4.87369">
        <ele>317</ele>
        <time>2018-09-30T09:28:11Z</time>
      </trkpt>
      <trkpt lat="45.96252" lon="4.87373">
        <ele>319</ele>
        <time>2018-09-30T09:28:12Z</time>
      </trkpt>
      <trkpt lat="45.96247" lon="4.87383">
        <ele>317</ele>
        <time>2018-09-30T09:28:14Z</time>
      </trkpt>
      <trkpt lat="45.96244" lon="4.87387">
        <ele>316</ele>
        <time>2018-09-30T09:28:15Z</time>
      </trkpt>
      <trkpt lat="45.96238" lon="4.87394">
        <ele>316</ele>
        <time>2018-09-30T09:28:17Z</time>
      </trkpt>
      <trkpt lat="45.96236" lon="4.87396">
        <ele>315</ele>
        <time>2018-09-30T09:28:18Z</time>
      </trkpt>
      <trkpt lat="45.96232" lon="4.87402">
        <ele>313</ele>
        <time>2018-09-30T09:28:19Z</time>
      </trkpt>
      <trkpt lat="45.96229" lon="4.87406">
        <ele>314</ele>
        <time>2018-09-30T09:28:20Z</time>
      </trkpt>
      <trkpt lat="45.96224" lon="4.87414">
        <ele>314</ele>
        <time>2018-09-30T09:28:22Z</time>
      </trkpt>
      <trkpt lat="45.96221" lon="4.87418">
        <ele>314</ele>
        <time>2018-09-30T09:28:23Z</time>
      </trkpt>
      <trkpt lat="45.96215" lon="4.87427">
        <ele>313</ele>
        <time>2018-09-30T09:28:25Z</time>
      </trkpt>
      <trkpt lat="45.96212" lon="4.87431">
        <ele>326</ele>
        <time>2018-09-30T09:28:26Z</time>
      </trkpt>
      <trkpt lat="45.96206" lon="4.8744">
        <ele>323</ele>
        <time>2018-09-30T09:28:28Z</time>
      </trkpt>
      <trkpt lat="45.96203" lon="4.87444">
        <ele>321</ele>
        <time>2018-09-30T09:28:29Z</time>
      </trkpt>
      <trkpt lat="45.96197" lon="4.87451">
        <ele>320</ele>
        <time>2018-09-30T09:28:31Z</time>
      </trkpt>
      <trkpt lat="45.96194" lon="4.87455">
        <ele>321</ele>
        <time>2018-09-30T09:28:32Z</time>
      </trkpt>
      <trkpt lat="45.96187" lon="4.87462">
        <ele>321</ele>
        <time>2018-09-30T09:28:34Z</time>
      </trkpt>
      <trkpt lat="45.96184" lon="4.87466">
        <ele>320</ele>
        <time>2018-09-30T09:28:35Z</time>
      </trkpt>
      <trkpt lat="45.96177" lon="4.87473">
        <ele>320</ele>
        <time>2018-09-30T09:28:37Z</time>
      </trkpt>
      <trkpt lat="45.96174" lon="4.87476">
        <ele>319</ele>
        <time>2018-09-30T09:28:38Z</time>
      </trkpt>
      <trkpt lat="45.96167" lon="4.87483">
        <ele>320</ele>
        <time>2018-09-30T09:28:40Z</time>
      </trkpt>
      <trkpt lat="45.96164" lon="4.87486">
        <ele>320</ele>
        <time>2018-09-30T09:28:41Z</time>
      </trkpt>
      <trkpt lat="45.96157" lon="4.87493">
        <ele>320</ele>
        <time>2018-09-30T09:28:43Z</time>
      </trkpt>
      <trkpt lat="45.96154" lon="4.87497">
        <ele>320</ele>
        <time>2018-09-30T09:28:44Z</time>
      </trkpt>
      <trkpt lat="45.96148" lon="4.87503">
        <ele>320</ele>
        <time>2018-09-30T09:28:46Z</time>
      </trkpt>
      <trkpt lat="45.96145" lon="4.87506">
        <ele>321</ele>
        <time>2018-09-30T09:28:47Z</time>
      </trkpt>
      <trkpt lat="45.96138" lon="4.87512">
        <ele>322</ele>
        <time>2018-09-30T09:28:49Z</time>
      </trkpt>
      <trkpt lat="45.96134" lon="4.87516">
        <ele>322</ele>
        <time>2018-09-30T09:28:50Z</time>
      </trkpt>
      <trkpt lat="45.96128" lon="4.87523">
        <ele>324</ele>
        <time>2018-09-30T09:28:52Z</time>
      </trkpt>
      <trkpt lat="45.96125" lon="4.87527">
        <ele>323</ele>
        <time>2018-09-30T09:28:53Z</time>
      </trkpt>
      <trkpt lat="45.96119" lon="4.87534">
        <ele>323</ele>
        <time>2018-09-30T09:28:55Z</time>
      </trkpt>
      <trkpt lat="45.96115" lon="4.87537">
        <ele>324</ele>
        <time>2018-09-30T09:28:56Z</time>
      </trkpt>
      <trkpt lat="45.9611" lon="4.87542">
        <ele>306</ele>
        <time>2018-09-30T09:28:58Z</time>
      </trkpt>
      <trkpt lat="45.96106" lon="4.87547">
        <ele>310</ele>
        <time>2018-09-30T09:28:59Z</time>
      </trkpt>
      <trkpt lat="45.961" lon="4.87555">
        <ele>314</ele>
        <time>2018-09-30T09:29:01Z</time>
      </trkpt>
      <trkpt lat="45.96097" lon="4.87558">
        <ele>317</ele>
        <time>2018-09-30T09:29:02Z</time>
      </trkpt>
      <trkpt lat="45.96091" lon="4.87566">
        <ele>318</ele>
        <time>2018-09-30T09:29:04Z</time>
      </trkpt>
      <trkpt lat="45.96088" lon="4.87569">
        <ele>319</ele>
        <time>2018-09-30T09:29:05Z</time>
      </trkpt>
      <trkpt lat="45.96083" lon="4.87577">
        <ele>318</ele>
        <time>2018-09-30T09:29:07Z</time>
      </trkpt>
      <trkpt lat="45.9608" lon="4.87581">
        <ele>319</ele>
        <time>2018-09-30T09:29:08Z</time>
      </trkpt>
      <trkpt lat="45.96074" lon="4.87586">
        <ele>322</ele>
        <time>2018-09-30T09:29:11Z</time>
      </trkpt>
      <trkpt lat="45.96068" lon="4.87592">
        <ele>322</ele>
        <time>2018-09-30T09:29:12Z</time>
      </trkpt>
      <trkpt lat="45.96065" lon="4.87595">
        <ele>325</ele>
        <time>2018-09-30T09:29:14Z</time>
      </trkpt>
      <trkpt lat="45.96059" lon="4.876">
        <ele>327</ele>
        <time>2018-09-30T09:29:15Z</time>
      </trkpt>
      <trkpt lat="45.96053" lon="4.87605">
        <ele>328</ele>
        <time>2018-09-30T09:29:18Z</time>
      </trkpt>
      <trkpt lat="45.96047" lon="4.87611">
        <ele>329</ele>
        <time>2018-09-30T09:29:19Z</time>
      </trkpt>
      <trkpt lat="45.96041" lon="4.87616">
        <ele>329</ele>
        <time>2018-09-30T09:29:21Z</time>
      </trkpt>
      <trkpt lat="45.96038" lon="4.87619">
        <ele>328</ele>
        <time>2018-09-30T09:29:22Z</time>
      </trkpt>
      <trkpt lat="45.96032" lon="4.87626">
        <ele>330</ele>
        <time>2018-09-30T09:29:24Z</time>
      </trkpt>
      <trkpt lat="45.96028" lon="4.87629">
        <ele>330</ele>
        <time>2018-09-30T09:29:25Z</time>
      </trkpt>
      <trkpt lat="45.96022" lon="4.87635">
        <ele>330</ele>
        <time>2018-09-30T09:29:27Z</time>
      </trkpt>
      <trkpt lat="45.9602" lon="4.87638">
        <ele>329</ele>
        <time>2018-09-30T09:29:28Z</time>
      </trkpt>
      <trkpt lat="45.96014" lon="4.87646">
        <ele>330</ele>
        <time>2018-09-30T09:29:30Z</time>
      </trkpt>
      <trkpt lat="45.96011" lon="4.8765">
        <ele>329</ele>
        <time>2018-09-30T09:29:31Z</time>
      </trkpt>
      <trkpt lat="45.96004" lon="4.87658">
        <ele>328</ele>
        <time>2018-09-30T09:29:33Z</time>
      </trkpt>
      <trkpt lat="45.96001" lon="4.87662">
        <ele>329</ele>
        <time>2018-09-30T09:29:34Z</time>
      </trkpt>
      <trkpt lat="45.95994" lon="4.87669">
        <ele>329</ele>
        <time>2018-09-30T09:29:36Z</time>
      </trkpt>
      <trkpt lat="45.95991" lon="4.87673">
        <ele>328</ele>
        <time>2018-09-30T09:29:37Z</time>
      </trkpt>
      <trkpt lat="45.95985" lon="4.87682">
        <ele>327</ele>
        <time>2018-09-30T09:29:39Z</time>
      </trkpt>
      <trkpt lat="45.95981" lon="4.87685">
        <ele>327</ele>
        <time>2018-09-30T09:29:40Z</time>
      </trkpt>
      <trkpt lat="45.95975" lon="4.87693">
        <ele>327</ele>
        <time>2018-09-30T09:29:42Z</time>
      </trkpt>
      <trkpt lat="45.95974" lon="4.87694">
        <ele>327</ele>
        <time>2018-09-30T09:29:43Z</time>
      </trkpt>
      <trkpt lat="45.9597" lon="4.87699">
        <ele>328</ele>
        <time>2018-09-30T09:29:45Z</time>
      </trkpt>
      <trkpt lat="45.95965" lon="4.87706">
        <ele>327</ele>
        <time>2018-09-30T09:29:46Z</time>
      </trkpt>
      <trkpt lat="45.9596" lon="4.87714">
        <ele>326</ele>
        <time>2018-09-30T09:29:48Z</time>
      </trkpt>
      <trkpt lat="45.95957" lon="4.87717">
        <ele>326</ele>
        <time>2018-09-30T09:29:49Z</time>
      </trkpt>
      <trkpt lat="45.95952" lon="4.87725">
        <ele>325</ele>
        <time>2018-09-30T09:29:51Z</time>
      </trkpt>
      <trkpt lat="45.95948" lon="4.87729">
        <ele>326</ele>
        <time>2018-09-30T09:29:52Z</time>
      </trkpt>
      <trkpt lat="45.95945" lon="4.87734">
        <ele>325</ele>
        <time>2018-09-30T09:29:53Z</time>
      </trkpt>
      <trkpt lat="45.95941" lon="4.87739">
        <ele>325</ele>
        <time>2018-09-30T09:29:54Z</time>
      </trkpt>
      <trkpt lat="45.95935" lon="4.87747">
        <ele>325</ele>
        <time>2018-09-30T09:29:56Z</time>
      </trkpt>
      <trkpt lat="45.95932" lon="4.87752">
        <ele>325</ele>
        <time>2018-09-30T09:29:57Z</time>
      </trkpt>
      <trkpt lat="45.95927" lon="4.8776">
        <ele>326</ele>
        <time>2018-09-30T09:29:59Z</time>
      </trkpt>
      <trkpt lat="45.95924" lon="4.87764">
        <ele>325</ele>
        <time>2018-09-30T09:30:00Z</time>
      </trkpt>
      <trkpt lat="45.9592" lon="4.87774">
        <ele>324</ele>
        <time>2018-09-30T09:30:02Z</time>
      </trkpt>
      <trkpt lat="45.95917" lon="4.87778">
        <ele>324</ele>
        <time>2018-09-30T09:30:03Z</time>
      </trkpt>
      <trkpt lat="45.95914" lon="4.87783">
        <ele>323</ele>
        <time>2018-09-30T09:30:04Z</time>
      </trkpt>
      <trkpt lat="45.95911" lon="4.87788">
        <ele>324</ele>
        <time>2018-09-30T09:30:05Z</time>
      </trkpt>
      <trkpt lat="45.95905" lon="4.87797">
        <ele>322</ele>
        <time>2018-09-30T09:30:07Z</time>
      </trkpt>
      <trkpt lat="45.95903" lon="4.87802">
        <ele>322</ele>
        <time>2018-09-30T09:30:08Z</time>
      </trkpt>
      <trkpt lat="45.95897" lon="4.87811">
        <ele>320</ele>
        <time>2018-09-30T09:30:10Z</time>
      </trkpt>
      <trkpt lat="45.95893" lon="4.87814">
        <ele>321</ele>
        <time>2018-09-30T09:30:11Z</time>
      </trkpt>
      <trkpt lat="45.95887" lon="4.87822">
        <ele>321</ele>
        <time>2018-09-30T09:30:13Z</time>
      </trkpt>
      <trkpt lat="45.95885" lon="4.87827">
        <ele>319</ele>
        <time>2018-09-30T09:30:14Z</time>
      </trkpt>
      <trkpt lat="45.95879" lon="4.87835">
        <ele>317</ele>
        <time>2018-09-30T09:30:16Z</time>
      </trkpt>
      <trkpt lat="45.95875" lon="4.87838">
        <ele>317</ele>
        <time>2018-09-30T09:30:17Z</time>
      </trkpt>
      <trkpt lat="45.95867" lon="4.87843">
        <ele>317</ele>
        <time>2018-09-30T09:30:19Z</time>
      </trkpt>
      <trkpt lat="45.95864" lon="4.87844">
        <ele>317</ele>
        <time>2018-09-30T09:30:20Z</time>
      </trkpt>
      <trkpt lat="45.95857" lon="4.87845">
        <ele>317</ele>
        <time>2018-09-30T09:30:23Z</time>
      </trkpt>
      <trkpt lat="45.95854" lon="4.87846">
        <ele>316</ele>
        <time>2018-09-30T09:30:24Z</time>
      </trkpt>
      <trkpt lat="45.95849" lon="4.87848">
        <ele>315</ele>
        <time>2018-09-30T09:30:26Z</time>
      </trkpt>
      <trkpt lat="45.95839" lon="4.87851">
        <ele>316</ele>
        <time>2018-09-30T09:30:27Z</time>
      </trkpt>
      <trkpt lat="45.95834" lon="4.87857">
        <ele>316</ele>
        <time>2018-09-30T09:30:28Z</time>
      </trkpt>
      <trkpt lat="45.95831" lon="4.8786">
        <ele>317</ele>
        <time>2018-09-30T09:30:29Z</time>
      </trkpt>
      <trkpt lat="45.95827" lon="4.87864">
        <ele>317</ele>
        <time>2018-09-30T09:30:30Z</time>
      </trkpt>
      <trkpt lat="45.95824" lon="4.87869">
        <ele>318</ele>
        <time>2018-09-30T09:30:31Z</time>
      </trkpt>
      <trkpt lat="45.9582" lon="4.87874">
        <ele>317</ele>
        <time>2018-09-30T09:30:32Z</time>
      </trkpt>
      <trkpt lat="45.95816" lon="4.87879">
        <ele>318</ele>
        <time>2018-09-30T09:30:33Z</time>
      </trkpt>
      <trkpt lat="45.9581" lon="4.87887">
        <ele>317</ele>
        <time>2018-09-30T09:30:35Z</time>
      </trkpt>
      <trkpt lat="45.95806" lon="4.8789">
        <ele>317</ele>
        <time>2018-09-30T09:30:36Z</time>
      </trkpt>
      <trkpt lat="45.95798" lon="4.87896">
        <ele>316</ele>
        <time>2018-09-30T09:30:38Z</time>
      </trkpt>
      <trkpt lat="45.95795" lon="4.87902">
        <ele>316</ele>
        <time>2018-09-30T09:30:39Z</time>
      </trkpt>
      <trkpt lat="45.95791" lon="4.87905">
        <ele>316</ele>
        <time>2018-09-30T09:30:40Z</time>
      </trkpt>
      <trkpt lat="45.95785" lon="4.87908">
        <ele>315</ele>
        <time>2018-09-30T09:30:41Z</time>
      </trkpt>
      <trkpt lat="45.95781" lon="4.87911">
        <ele>315</ele>
        <time>2018-09-30T09:30:42Z</time>
      </trkpt>
      <trkpt lat="45.95775" lon="4.87916">
        <ele>315</ele>
        <time>2018-09-30T09:30:43Z</time>
      </trkpt>
      <trkpt lat="45.9577" lon="4.87919">
        <ele>320</ele>
        <time>2018-09-30T09:30:44Z</time>
      </trkpt>
      <trkpt lat="45.95765" lon="4.87922">
        <ele>320</ele>
        <time>2018-09-30T09:30:45Z</time>
      </trkpt>
      <trkpt lat="45.9576" lon="4.87926">
        <ele>319</ele>
        <time>2018-09-30T09:30:46Z</time>
      </trkpt>
      <trkpt lat="45.95754" lon="4.87927">
        <ele>319</ele>
        <time>2018-09-30T09:30:47Z</time>
      </trkpt>
      <trkpt lat="45.95749" lon="4.87929">
        <ele>319</ele>
        <time>2018-09-30T09:30:48Z</time>
      </trkpt>
      <trkpt lat="45.95744" lon="4.87933">
        <ele>319</ele>
        <time>2018-09-30T09:30:49Z</time>
      </trkpt>
      <trkpt lat="45.95739" lon="4.87937">
        <ele>319</ele>
        <time>2018-09-30T09:30:50Z</time>
      </trkpt>
      <trkpt lat="45.95734" lon="4.87942">
        <ele>319</ele>
        <time>2018-09-30T09:30:51Z</time>
      </trkpt>
      <trkpt lat="45.9573" lon="4.87948">
        <ele>318</ele>
        <time>2018-09-30T09:30:52Z</time>
      </trkpt>
      <trkpt lat="45.95724" lon="4.87952">
        <ele>318</ele>
        <time>2018-09-30T09:30:53Z</time>
      </trkpt>
      <trkpt lat="45.95719" lon="4.87957">
        <ele>318</ele>
        <time>2018-09-30T09:30:54Z</time>
      </trkpt>
      <trkpt lat="45.95712" lon="4.87964">
        <ele>316</ele>
        <time>2018-09-30T09:30:55Z</time>
      </trkpt>
      <trkpt lat="45.95706" lon="4.87971">
        <ele>316</ele>
        <time>2018-09-30T09:30:56Z</time>
      </trkpt>
      <trkpt lat="45.95701" lon="4.87974">
        <ele>317</ele>
        <time>2018-09-30T09:30:57Z</time>
      </trkpt>
      <trkpt lat="45.95695" lon="4.8798">
        <ele>317</ele>
        <time>2018-09-30T09:30:58Z</time>
      </trkpt>
      <trkpt lat="45.95689" lon="4.87986">
        <ele>316</ele>
        <time>2018-09-30T09:30:59Z</time>
      </trkpt>
      <trkpt lat="45.95682" lon="4.87991">
        <ele>316</ele>
        <time>2018-09-30T09:31:00Z</time>
      </trkpt>
      <trkpt lat="45.95675" lon="4.87998">
        <ele>316</ele>
        <time>2018-09-30T09:31:01Z</time>
      </trkpt>
      <trkpt lat="45.95669" lon="4.88004">
        <ele>315</ele>
        <time>2018-09-30T09:31:02Z</time>
      </trkpt>
      <trkpt lat="45.95661" lon="4.88011">
        <ele>316</ele>
        <time>2018-09-30T09:31:03Z</time>
      </trkpt>
      <trkpt lat="45.95653" lon="4.88015">
        <ele>317</ele>
        <time>2018-09-30T09:31:04Z</time>
      </trkpt>
      <trkpt lat="45.95646" lon="4.88021">
        <ele>321</ele>
        <time>2018-09-30T09:31:05Z</time>
      </trkpt>
      <trkpt lat="45.9564" lon="4.88026">
        <ele>320</ele>
        <time>2018-09-30T09:31:06Z</time>
      </trkpt>
      <trkpt lat="45.95634" lon="4.88032">
        <ele>319</ele>
        <time>2018-09-30T09:31:07Z</time>
      </trkpt>
      <trkpt lat="45.95628" lon="4.88038">
        <ele>317</ele>
        <time>2018-09-30T09:31:08Z</time>
      </trkpt>
      <trkpt lat="45.95622" lon="4.88044">
        <ele>318</ele>
        <time>2018-09-30T09:31:09Z</time>
      </trkpt>
      <trkpt lat="45.95615" lon="4.88049">
        <ele>317</ele>
        <time>2018-09-30T09:31:10Z</time>
      </trkpt>
      <trkpt lat="45.95609" lon="4.88055">
        <ele>317</ele>
        <time>2018-09-30T09:31:11Z</time>
      </trkpt>
      <trkpt lat="45.95602" lon="4.8806">
        <ele>317</ele>
        <time>2018-09-30T09:31:12Z</time>
      </trkpt>
      <trkpt lat="45.95596" lon="4.88065">
        <ele>317</ele>
        <time>2018-09-30T09:31:13Z</time>
      </trkpt>
      <trkpt lat="45.95591" lon="4.88069">
        <ele>316</ele>
        <time>2018-09-30T09:31:14Z</time>
      </trkpt>
      <trkpt lat="45.95585" lon="4.88074">
        <ele>317</ele>
        <time>2018-09-30T09:31:15Z</time>
      </trkpt>
      <trkpt lat="45.95579" lon="4.88079">
        <ele>317</ele>
        <time>2018-09-30T09:31:16Z</time>
      </trkpt>
      <trkpt lat="45.95572" lon="4.88084">
        <ele>315</ele>
        <time>2018-09-30T09:31:17Z</time>
      </trkpt>
      <trkpt lat="45.95566" lon="4.88087">
        <ele>317</ele>
        <time>2018-09-30T09:31:18Z</time>
      </trkpt>
      <trkpt lat="45.95559" lon="4.8809">
        <ele>317</ele>
        <time>2018-09-30T09:31:19Z</time>
      </trkpt>
      <trkpt lat="45.95553" lon="4.88092">
        <ele>318</ele>
        <time>2018-09-30T09:31:20Z</time>
      </trkpt>
      <trkpt lat="45.95547" lon="4.88095">
        <ele>318</ele>
        <time>2018-09-30T09:31:21Z</time>
      </trkpt>
      <trkpt lat="45.95541" lon="4.88097">
        <ele>317</ele>
        <time>2018-09-30T09:31:22Z</time>
      </trkpt>
      <trkpt lat="45.95536" lon="4.88102">
        <ele>315</ele>
        <time>2018-09-30T09:31:23Z</time>
      </trkpt>
      <trkpt lat="45.9553" lon="4.88105">
        <ele>315</ele>
        <time>2018-09-30T09:31:24Z</time>
      </trkpt>
      <trkpt lat="45.95524" lon="4.88107">
        <ele>315</ele>
        <time>2018-09-30T09:31:25Z</time>
      </trkpt>
      <trkpt lat="45.95518" lon="4.88109">
        <ele>314</ele>
        <time>2018-09-30T09:31:26Z</time>
      </trkpt>
      <trkpt lat="45.95512" lon="4.88111">
        <ele>314</ele>
        <time>2018-09-30T09:31:27Z</time>
      </trkpt>
      <trkpt lat="45.95506" lon="4.88114">
        <ele>314</ele>
        <time>2018-09-30T09:31:28Z</time>
      </trkpt>
      <trkpt lat="45.955" lon="4.88118">
        <ele>314</ele>
        <time>2018-09-30T09:31:29Z</time>
      </trkpt>
      <trkpt lat="45.95494" lon="4.8812">
        <ele>314</ele>
        <time>2018-09-30T09:31:30Z</time>
      </trkpt>
      <trkpt lat="45.95489" lon="4.88123">
        <ele>314</ele>
        <time>2018-09-30T09:31:31Z</time>
      </trkpt>
      <trkpt lat="45.95483" lon="4.88126">
        <ele>314</ele>
        <time>2018-09-30T09:31:32Z</time>
      </trkpt>
      <trkpt lat="45.95478" lon="4.88127">
        <ele>314</ele>
        <time>2018-09-30T09:31:33Z</time>
      </trkpt>
      <trkpt lat="45.95473" lon="4.88129">
        <ele>315</ele>
        <time>2018-09-30T09:31:34Z</time>
      </trkpt>
      <trkpt lat="45.95468" lon="4.88132">
        <ele>315</ele>
        <time>2018-09-30T09:31:35Z</time>
      </trkpt>
      <trkpt lat="45.95462" lon="4.88134">
        <ele>315</ele>
        <time>2018-09-30T09:31:36Z</time>
      </trkpt>
      <trkpt lat="45.95456" lon="4.88136">
        <ele>315</ele>
        <time>2018-09-30T09:31:37Z</time>
      </trkpt>
      <trkpt lat="45.95452" lon="4.88138">
        <ele>315</ele>
        <time>2018-09-30T09:31:38Z</time>
      </trkpt>
      <trkpt lat="45.95447" lon="4.8814">
        <ele>315</ele>
        <time>2018-09-30T09:31:39Z</time>
      </trkpt>
      <trkpt lat="45.95443" lon="4.88143">
        <ele>315</ele>
        <time>2018-09-30T09:31:40Z</time>
      </trkpt>
      <trkpt lat="45.95437" lon="4.88144">
        <ele>315</ele>
        <time>2018-09-30T09:31:41Z</time>
      </trkpt>
      <trkpt lat="45.95432" lon="4.88145">
        <ele>315</ele>
        <time>2018-09-30T09:31:42Z</time>
      </trkpt>
      <trkpt lat="45.95427" lon="4.88148">
        <ele>316</ele>
        <time>2018-09-30T09:31:43Z</time>
      </trkpt>
      <trkpt lat="45.95422" lon="4.8815">
        <ele>319</ele>
        <time>2018-09-30T09:31:44Z</time>
      </trkpt>
      <trkpt lat="45.95417" lon="4.88153">
        <ele>318</ele>
        <time>2018-09-30T09:31:45Z</time>
      </trkpt>
      <trkpt lat="45.95412" lon="4.88155">
        <ele>317</ele>
        <time>2018-09-30T09:31:46Z</time>
      </trkpt>
      <trkpt lat="45.95408" lon="4.88157">
        <ele>316</ele>
        <time>2018-09-30T09:31:47Z</time>
      </trkpt>
      <trkpt lat="45.95402" lon="4.88157">
        <ele>316</ele>
        <time>2018-09-30T09:31:48Z</time>
      </trkpt>
      <trkpt lat="45.95396" lon="4.88161">
        <ele>316</ele>
        <time>2018-09-30T09:31:49Z</time>
      </trkpt>
      <trkpt lat="45.9539" lon="4.88163">
        <ele>315</ele>
        <time>2018-09-30T09:31:50Z</time>
      </trkpt>
      <trkpt lat="45.95385" lon="4.88163">
        <ele>316</ele>
        <time>2018-09-30T09:31:51Z</time>
      </trkpt>
      <trkpt lat="45.95378" lon="4.88164">
        <ele>317</ele>
        <time>2018-09-30T09:31:52Z</time>
      </trkpt>
      <trkpt lat="45.95372" lon="4.88166">
        <ele>317</ele>
        <time>2018-09-30T09:31:53Z</time>
      </trkpt>
      <trkpt lat="45.95367" lon="4.88167">
        <ele>318</ele>
        <time>2018-09-30T09:31:54Z</time>
      </trkpt>
      <trkpt lat="45.95363" lon="4.88167">
        <ele>317</ele>
        <time>2018-09-30T09:31:55Z</time>
      </trkpt>
      <trkpt lat="45.95354" lon="4.88168">
        <ele>324</ele>
        <time>2018-09-30T09:31:57Z</time>
      </trkpt>
      <trkpt lat="45.95348" lon="4.88169">
        <ele>322</ele>
        <time>2018-09-30T09:31:58Z</time>
      </trkpt>
      <trkpt lat="45.9534" lon="4.8817">
        <ele>320</ele>
        <time>2018-09-30T09:32:00Z</time>
      </trkpt>
      <trkpt lat="45.95334" lon="4.8817">
        <ele>320</ele>
        <time>2018-09-30T09:32:01Z</time>
      </trkpt>
      <trkpt lat="45.95329" lon="4.88171">
        <ele>319</ele>
        <time>2018-09-30T09:32:02Z</time>
      </trkpt>
      <trkpt lat="45.95325" lon="4.88169">
        <ele>320</ele>
        <time>2018-09-30T09:32:03Z</time>
      </trkpt>
      <trkpt lat="45.95321" lon="4.88168">
        <ele>320</ele>
        <time>2018-09-30T09:32:04Z</time>
      </trkpt>
      <trkpt lat="45.95316" lon="4.88168">
        <ele>321</ele>
        <time>2018-09-30T09:32:05Z</time>
      </trkpt>
      <trkpt lat="45.95308" lon="4.88166">
        <ele>321</ele>
        <time>2018-09-30T09:32:07Z</time>
      </trkpt>
      <trkpt lat="45.95304" lon="4.88165">
        <ele>321</ele>
        <time>2018-09-30T09:32:08Z</time>
      </trkpt>
      <trkpt lat="45.95296" lon="4.88164">
        <ele>322</ele>
        <time>2018-09-30T09:32:10Z</time>
      </trkpt>
      <trkpt lat="45.95291" lon="4.88164">
        <ele>321</ele>
        <time>2018-09-30T09:32:11Z</time>
      </trkpt>
      <trkpt lat="45.95287" lon="4.88163">
        <ele>321</ele>
        <time>2018-09-30T09:32:12Z</time>
      </trkpt>
      <trkpt lat="45.95282" lon="4.88165">
        <ele>322</ele>
        <time>2018-09-30T09:32:13Z</time>
      </trkpt>
      <trkpt lat="45.95275" lon="4.88164">
        <ele>322</ele>
        <time>2018-09-30T09:32:15Z</time>
      </trkpt>
      <trkpt lat="45.9527" lon="4.88164">
        <ele>322</ele>
        <time>2018-09-30T09:32:16Z</time>
      </trkpt>
      <trkpt lat="45.95266" lon="4.88164">
        <ele>321</ele>
        <time>2018-09-30T09:32:18Z</time>
      </trkpt>
      <trkpt lat="45.9526" lon="4.88164">
        <ele>321</ele>
        <time>2018-09-30T09:32:19Z</time>
      </trkpt>
      <trkpt lat="45.95251" lon="4.88164">
        <ele>323</ele>
        <time>2018-09-30T09:32:23Z</time>
      </trkpt>
      <trkpt lat="45.95249" lon="4.88164">
        <ele>324</ele>
        <time>2018-09-30T09:32:24Z</time>
      </trkpt>
      <trkpt lat="45.9524" lon="4.88164">
        <ele>324</ele>
        <time>2018-09-30T09:32:27Z</time>
      </trkpt>
      <trkpt lat="45.95237" lon="4.88163">
        <ele>325</ele>
        <time>2018-09-30T09:32:28Z</time>
      </trkpt>
      <trkpt lat="45.95231" lon="4.88164">
        <ele>325</ele>
        <time>2018-09-30T09:32:30Z</time>
      </trkpt>
      <trkpt lat="45.95228" lon="4.88165">
        <ele>325</ele>
        <time>2018-09-30T09:32:31Z</time>
      </trkpt>
      <trkpt lat="45.9522" lon="4.88166">
        <ele>325</ele>
        <time>2018-09-30T09:32:32Z</time>
      </trkpt>
      <trkpt lat="45.95219" lon="4.88166">
        <ele>325</ele>
        <time>2018-09-30T09:32:33Z</time>
      </trkpt>
      <trkpt lat="45.9521" lon="4.88166">
        <ele>325</ele>
        <time>2018-09-30T09:32:37Z</time>
      </trkpt>
      <trkpt lat="45.95208" lon="4.88167">
        <ele>325</ele>
        <time>2018-09-30T09:32:38Z</time>
      </trkpt>
      <trkpt lat="45.952" lon="4.88169">
        <ele>325</ele>
        <time>2018-09-30T09:32:41Z</time>
      </trkpt>
      <trkpt lat="45.95197" lon="4.8817">
        <ele>325</ele>
        <time>2018-09-30T09:32:42Z</time>
      </trkpt>
      <trkpt lat="45.95189" lon="4.88171">
        <ele>324</ele>
        <time>2018-09-30T09:32:45Z</time>
      </trkpt>
      <trkpt lat="45.95186" lon="4.88172">
        <ele>324</ele>
        <time>2018-09-30T09:32:46Z</time>
      </trkpt>
      <trkpt lat="45.9518" lon="4.88173">
        <ele>325</ele>
        <time>2018-09-30T09:32:48Z</time>
      </trkpt>
      <trkpt lat="45.95171" lon="4.88175">
        <ele>324</ele>
        <time>2018-09-30T09:32:49Z</time>
      </trkpt>
      <trkpt lat="45.95163" lon="4.88176">
        <ele>324</ele>
        <time>2018-09-30T09:32:52Z</time>
      </trkpt>
      <trkpt lat="45.9516" lon="4.88176">
        <ele>320</ele>
        <time>2018-09-30T09:32:53Z</time>
      </trkpt>
      <trkpt lat="45.95152" lon="4.88178">
        <ele>319</ele>
        <time>2018-09-30T09:32:55Z</time>
      </trkpt>
      <trkpt lat="45.9515" lon="4.8818">
        <ele>319</ele>
        <time>2018-09-30T09:32:56Z</time>
      </trkpt>
      <trkpt lat="45.95142" lon="4.88187">
        <ele>321</ele>
        <time>2018-09-30T09:33:00Z</time>
      </trkpt>
      <trkpt lat="45.9514" lon="4.88189">
        <ele>321</ele>
        <time>2018-09-30T09:33:01Z</time>
      </trkpt>
      <trkpt lat="45.95136" lon="4.88194">
        <ele>321</ele>
        <time>2018-09-30T09:33:03Z</time>
      </trkpt>
      <trkpt lat="45.95134" lon="4.88197">
        <ele>322</ele>
        <time>2018-09-30T09:33:04Z</time>
      </trkpt>
      <trkpt lat="45.95129" lon="4.88204">
        <ele>324</ele>
        <time>2018-09-30T09:33:06Z</time>
      </trkpt>
      <trkpt lat="45.95127" lon="4.88208">
        <ele>324</ele>
        <time>2018-09-30T09:33:07Z</time>
      </trkpt>
      <trkpt lat="45.95125" lon="4.88211">
        <ele>324</ele>
        <time>2018-09-30T09:33:08Z</time>
      </trkpt>
      <trkpt lat="45.95117" lon="4.8822">
        <ele>324</ele>
        <time>2018-09-30T09:33:09Z</time>
      </trkpt>
      <trkpt lat="45.95114" lon="4.88227">
        <ele>325</ele>
        <time>2018-09-30T09:33:12Z</time>
      </trkpt>
      <trkpt lat="45.95109" lon="4.88237">
        <ele>325</ele>
        <time>2018-09-30T09:33:13Z</time>
      </trkpt>
      <trkpt lat="45.95107" lon="4.88242">
        <ele>325</ele>
        <time>2018-09-30T09:33:15Z</time>
      </trkpt>
      <trkpt lat="45.95102" lon="4.88247">
        <ele>325</ele>
        <time>2018-09-30T09:33:16Z</time>
      </trkpt>
      <trkpt lat="45.95094" lon="4.8825">
        <ele>324</ele>
        <time>2018-09-30T09:33:18Z</time>
      </trkpt>
      <trkpt lat="45.95089" lon="4.88251">
        <ele>324</ele>
        <time>2018-09-30T09:33:19Z</time>
      </trkpt>
      <trkpt lat="45.95081" lon="4.88254">
        <ele>323</ele>
        <time>2018-09-30T09:33:21Z</time>
      </trkpt>
      <trkpt lat="45.95077" lon="4.88255">
        <ele>323</ele>
        <time>2018-09-30T09:33:22Z</time>
      </trkpt>
      <trkpt lat="45.95072" lon="4.88258">
        <ele>322</ele>
        <time>2018-09-30T09:33:23Z</time>
      </trkpt>
      <trkpt lat="45.95067" lon="4.88259">
        <ele>322</ele>
        <time>2018-09-30T09:33:24Z</time>
      </trkpt>
      <trkpt lat="45.95062" lon="4.88259">
        <ele>323</ele>
        <time>2018-09-30T09:33:25Z</time>
      </trkpt>
      <trkpt lat="45.95057" lon="4.8826">
        <ele>323</ele>
        <time>2018-09-30T09:33:26Z</time>
      </trkpt>
      <trkpt lat="45.95049" lon="4.88262">
        <ele>323</ele>
        <time>2018-09-30T09:33:28Z</time>
      </trkpt>
      <trkpt lat="45.95046" lon="4.88263">
        <ele>323</ele>
        <time>2018-09-30T09:33:29Z</time>
      </trkpt>
      <trkpt lat="45.9504" lon="4.88264">
        <ele>323</ele>
        <time>2018-09-30T09:33:31Z</time>
      </trkpt>
      <trkpt lat="45.95035" lon="4.88265">
        <ele>324</ele>
        <time>2018-09-30T09:33:32Z</time>
      </trkpt>
      <trkpt lat="45.9503" lon="4.88265">
        <ele>325</ele>
        <time>2018-09-30T09:33:34Z</time>
      </trkpt>
      <trkpt lat="45.95022" lon="4.88266">
        <ele>325</ele>
        <time>2018-09-30T09:33:35Z</time>
      </trkpt>
      <trkpt lat="45.95016" lon="4.88267">
        <ele>325</ele>
        <time>2018-09-30T09:33:36Z</time>
      </trkpt>
      <trkpt lat="45.95012" lon="4.88269">
        <ele>325</ele>
        <time>2018-09-30T09:33:37Z</time>
      </trkpt>
      <trkpt lat="45.95008" lon="4.8827">
        <ele>326</ele>
        <time>2018-09-30T09:33:38Z</time>
      </trkpt>
      <trkpt lat="45.95003" lon="4.88273">
        <ele>326</ele>
        <time>2018-09-30T09:33:39Z</time>
      </trkpt>
      <trkpt lat="45.94995" lon="4.88277">
        <ele>325</ele>
        <time>2018-09-30T09:33:41Z</time>
      </trkpt>
      <trkpt lat="45.9499" lon="4.8828">
        <ele>324</ele>
        <time>2018-09-30T09:33:42Z</time>
      </trkpt>
      <trkpt lat="45.94984" lon="4.88282">
        <ele>324</ele>
        <time>2018-09-30T09:33:43Z</time>
      </trkpt>
      <trkpt lat="45.9498" lon="4.88285">
        <ele>324</ele>
        <time>2018-09-30T09:33:44Z</time>
      </trkpt>
      <trkpt lat="45.94975" lon="4.88286">
        <ele>325</ele>
        <time>2018-09-30T09:33:45Z</time>
      </trkpt>
      <trkpt lat="45.9497" lon="4.88287">
        <ele>324</ele>
        <time>2018-09-30T09:33:46Z</time>
      </trkpt>
      <trkpt lat="45.94962" lon="4.8829">
        <ele>323</ele>
        <time>2018-09-30T09:33:48Z</time>
      </trkpt>
      <trkpt lat="45.94959" lon="4.88292">
        <ele>323</ele>
        <time>2018-09-30T09:33:49Z</time>
      </trkpt>
      <trkpt lat="45.94954" lon="4.88294">
        <ele>324</ele>
        <time>2018-09-30T09:33:50Z</time>
      </trkpt>
      <trkpt lat="45.94949" lon="4.88295">
        <ele>325</ele>
        <time>2018-09-30T09:33:51Z</time>
      </trkpt>
      <trkpt lat="45.94943" lon="4.88297">
        <ele>326</ele>
        <time>2018-09-30T09:33:52Z</time>
      </trkpt>
      <trkpt lat="45.94938" lon="4.88298">
        <ele>326</ele>
        <time>2018-09-30T09:33:53Z</time>
      </trkpt>
      <trkpt lat="45.94933" lon="4.88301">
        <ele>326</ele>
        <time>2018-09-30T09:33:54Z</time>
      </trkpt>
      <trkpt lat="45.94929" lon="4.88303">
        <ele>326</ele>
        <time>2018-09-30T09:33:55Z</time>
      </trkpt>
      <trkpt lat="45.9492" lon="4.88306">
        <ele>325</ele>
        <time>2018-09-30T09:33:57Z</time>
      </trkpt>
      <trkpt lat="45.94916" lon="4.88307">
        <ele>325</ele>
        <time>2018-09-30T09:33:58Z</time>
      </trkpt>
      <trkpt lat="45.94911" lon="4.88309">
        <ele>325</ele>
        <time>2018-09-30T09:33:59Z</time>
      </trkpt>
      <trkpt lat="45.94905" lon="4.88311">
        <ele>324</ele>
        <time>2018-09-30T09:34:00Z</time>
      </trkpt>
      <trkpt lat="45.949" lon="4.88313">
        <ele>324</ele>
        <time>2018-09-30T09:34:01Z</time>
      </trkpt>
      <trkpt lat="45.94895" lon="4.88316">
        <ele>324</ele>
        <time>2018-09-30T09:34:02Z</time>
      </trkpt>
      <trkpt lat="45.94889" lon="4.88318">
        <ele>325</ele>
        <time>2018-09-30T09:34:03Z</time>
      </trkpt>
      <trkpt lat="45.94883" lon="4.88321">
        <ele>325</ele>
        <time>2018-09-30T09:34:04Z</time>
      </trkpt>
      <trkpt lat="45.94877" lon="4.88324">
        <ele>325</ele>
        <time>2018-09-30T09:34:05Z</time>
      </trkpt>
      <trkpt lat="45.94871" lon="4.88327">
        <ele>325</ele>
        <time>2018-09-30T09:34:06Z</time>
      </trkpt>
      <trkpt lat="45.94865" lon="4.88328">
        <ele>324</ele>
        <time>2018-09-30T09:34:07Z</time>
      </trkpt>
      <trkpt lat="45.94859" lon="4.8833">
        <ele>324</ele>
        <time>2018-09-30T09:34:08Z</time>
      </trkpt>
      <trkpt lat="45.94851" lon="4.88332">
        <ele>323</ele>
        <time>2018-09-30T09:34:09Z</time>
      </trkpt>
      <trkpt lat="45.94845" lon="4.88334">
        <ele>322</ele>
        <time>2018-09-30T09:34:10Z</time>
      </trkpt>
      <trkpt lat="45.94838" lon="4.88336">
        <ele>322</ele>
        <time>2018-09-30T09:34:11Z</time>
      </trkpt>
      <trkpt lat="45.9483" lon="4.88336">
        <ele>322</ele>
        <time>2018-09-30T09:34:12Z</time>
      </trkpt>
      <trkpt lat="45.94823" lon="4.88336">
        <ele>321</ele>
        <time>2018-09-30T09:34:13Z</time>
      </trkpt>
      <trkpt lat="45.94815" lon="4.88336">
        <ele>321</ele>
        <time>2018-09-30T09:34:14Z</time>
      </trkpt>
      <trkpt lat="45.94807" lon="4.88336">
        <ele>321</ele>
        <time>2018-09-30T09:34:15Z</time>
      </trkpt>
      <trkpt lat="45.94801" lon="4.88335">
        <ele>321</ele>
        <time>2018-09-30T09:34:16Z</time>
      </trkpt>
      <trkpt lat="45.94792" lon="4.88336">
        <ele>321</ele>
        <time>2018-09-30T09:34:17Z</time>
      </trkpt>
      <trkpt lat="45.94785" lon="4.88336">
        <ele>321</ele>
        <time>2018-09-30T09:34:18Z</time>
      </trkpt>
      <trkpt lat="45.94777" lon="4.88334">
        <ele>321</ele>
        <time>2018-09-30T09:34:19Z</time>
      </trkpt>
      <trkpt lat="45.94771" lon="4.88333">
        <ele>322</ele>
        <time>2018-09-30T09:34:20Z</time>
      </trkpt>
      <trkpt lat="45.94764" lon="4.88332">
        <ele>322</ele>
        <time>2018-09-30T09:34:21Z</time>
      </trkpt>
      <trkpt lat="45.94758" lon="4.88331">
        <ele>321</ele>
        <time>2018-09-30T09:34:22Z</time>
      </trkpt>
      <trkpt lat="45.94752" lon="4.8833">
        <ele>320</ele>
        <time>2018-09-30T09:34:23Z</time>
      </trkpt>
      <trkpt lat="45.94745" lon="4.88329">
        <ele>321</ele>
        <time>2018-09-30T09:34:24Z</time>
      </trkpt>
      <trkpt lat="45.94739" lon="4.88327">
        <ele>320</ele>
        <time>2018-09-30T09:34:25Z</time>
      </trkpt>
      <trkpt lat="45.94733" lon="4.88327">
        <ele>322</ele>
        <time>2018-09-30T09:34:26Z</time>
      </trkpt>
      <trkpt lat="45.94727" lon="4.88326">
        <ele>322</ele>
        <time>2018-09-30T09:34:27Z</time>
      </trkpt>
      <trkpt lat="45.9472" lon="4.88325">
        <ele>322</ele>
        <time>2018-09-30T09:34:28Z</time>
      </trkpt>
      <trkpt lat="45.94715" lon="4.88324">
        <ele>321</ele>
        <time>2018-09-30T09:34:29Z</time>
      </trkpt>
      <trkpt lat="45.9471" lon="4.88323">
        <ele>322</ele>
        <time>2018-09-30T09:34:30Z</time>
      </trkpt>
      <trkpt lat="45.94704" lon="4.88323">
        <ele>322</ele>
        <time>2018-09-30T09:34:31Z</time>
      </trkpt>
      <trkpt lat="45.94699" lon="4.88323">
        <ele>322</ele>
        <time>2018-09-30T09:34:32Z</time>
      </trkpt>
      <trkpt lat="45.94693" lon="4.88319">
        <ele>322</ele>
        <time>2018-09-30T09:34:33Z</time>
      </trkpt>
      <trkpt lat="45.94688" lon="4.88319">
        <ele>322</ele>
        <time>2018-09-30T09:34:34Z</time>
      </trkpt>
      <trkpt lat="45.94683" lon="4.88322">
        <ele>319</ele>
        <time>2018-09-30T09:34:35Z</time>
      </trkpt>
      <trkpt lat="45.94678" lon="4.8832">
        <ele>319</ele>
        <time>2018-09-30T09:34:36Z</time>
      </trkpt>
      <trkpt lat="45.94673" lon="4.88319">
        <ele>319</ele>
        <time>2018-09-30T09:34:37Z</time>
      </trkpt>
      <trkpt lat="45.94668" lon="4.88318">
        <ele>319</ele>
        <time>2018-09-30T09:34:38Z</time>
      </trkpt>
      <trkpt lat="45.9466" lon="4.88321">
        <ele>318</ele>
        <time>2018-09-30T09:34:40Z</time>
      </trkpt>
      <trkpt lat="45.94654" lon="4.8832">
        <ele>318</ele>
        <time>2018-09-30T09:34:41Z</time>
      </trkpt>
      <trkpt lat="45.94649" lon="4.88319">
        <ele>318</ele>
        <time>2018-09-30T09:34:42Z</time>
      </trkpt>
      <trkpt lat="45.94644" lon="4.8832">
        <ele>318</ele>
        <time>2018-09-30T09:34:43Z</time>
      </trkpt>
      <trkpt lat="45.94641" lon="4.88315">
        <ele>320</ele>
        <time>2018-09-30T09:34:44Z</time>
      </trkpt>
      <trkpt lat="45.94635" lon="4.88314">
        <ele>320</ele>
        <time>2018-09-30T09:34:45Z</time>
      </trkpt>
      <trkpt lat="45.94629" lon="4.88313">
        <ele>319</ele>
        <time>2018-09-30T09:34:46Z</time>
      </trkpt>
      <trkpt lat="45.94623" lon="4.88312">
        <ele>321</ele>
        <time>2018-09-30T09:34:47Z</time>
      </trkpt>
      <trkpt lat="45.94615" lon="4.88311">
        <ele>319</ele>
        <time>2018-09-30T09:34:49Z</time>
      </trkpt>
      <trkpt lat="45.94611" lon="4.88311">
        <ele>318</ele>
        <time>2018-09-30T09:34:50Z</time>
      </trkpt>
      <trkpt lat="45.94602" lon="4.8831">
        <ele>318</ele>
        <time>2018-09-30T09:34:52Z</time>
      </trkpt>
      <trkpt lat="45.94598" lon="4.88309">
        <ele>318</ele>
        <time>2018-09-30T09:34:53Z</time>
      </trkpt>
      <trkpt lat="45.94593" lon="4.88308">
        <ele>318</ele>
        <time>2018-09-30T09:34:54Z</time>
      </trkpt>
      <trkpt lat="45.94588" lon="4.88307">
        <ele>317</ele>
        <time>2018-09-30T09:34:55Z</time>
      </trkpt>
      <trkpt lat="45.94583" lon="4.88307">
        <ele>317</ele>
        <time>2018-09-30T09:34:56Z</time>
      </trkpt>
      <trkpt lat="45.94577" lon="4.88306">
        <ele>319</ele>
        <time>2018-09-30T09:34:57Z</time>
      </trkpt>
      <trkpt lat="45.94572" lon="4.88306">
        <ele>318</ele>
        <time>2018-09-30T09:34:58Z</time>
      </trkpt>
      <trkpt lat="45.94567" lon="4.88305">
        <ele>320</ele>
        <time>2018-09-30T09:34:59Z</time>
      </trkpt>
      <trkpt lat="45.94562" lon="4.88304">
        <ele>320</ele>
        <time>2018-09-30T09:35:00Z</time>
      </trkpt>
      <trkpt lat="45.94557" lon="4.88303">
        <ele>319</ele>
        <time>2018-09-30T09:35:01Z</time>
      </trkpt>
      <trkpt lat="45.94549" lon="4.88301">
        <ele>319</ele>
        <time>2018-09-30T09:35:03Z</time>
      </trkpt>
      <trkpt lat="45.94544" lon="4.883">
        <ele>318</ele>
        <time>2018-09-30T09:35:04Z</time>
      </trkpt>
      <trkpt lat="45.94538" lon="4.88299">
        <ele>318</ele>
        <time>2018-09-30T09:35:05Z</time>
      </trkpt>
      <trkpt lat="45.94533" lon="4.88298">
        <ele>318</ele>
        <time>2018-09-30T09:35:06Z</time>
      </trkpt>
      <trkpt lat="45.94528" lon="4.88297">
        <ele>318</ele>
        <time>2018-09-30T09:35:07Z</time>
      </trkpt>
      <trkpt lat="45.94522" lon="4.88296">
        <ele>319</ele>
        <time>2018-09-30T09:35:08Z</time>
      </trkpt>
      <trkpt lat="45.94516" lon="4.88296">
        <ele>319</ele>
        <time>2018-09-30T09:35:09Z</time>
      </trkpt>
      <trkpt lat="45.94508" lon="4.88295">
        <ele>317</ele>
        <time>2018-09-30T09:35:10Z</time>
      </trkpt>
      <trkpt lat="45.94502" lon="4.88294">
        <ele>317</ele>
        <time>2018-09-30T09:35:11Z</time>
      </trkpt>
      <trkpt lat="45.94498" lon="4.88293">
        <ele>317</ele>
        <time>2018-09-30T09:35:12Z</time>
      </trkpt>
      <trkpt lat="45.94493" lon="4.88291">
        <ele>317</ele>
        <time>2018-09-30T09:35:13Z</time>
      </trkpt>
      <trkpt lat="45.94488" lon="4.88291">
        <ele>317</ele>
        <time>2018-09-30T09:35:14Z</time>
      </trkpt>
      <trkpt lat="45.94483" lon="4.8829">
        <ele>317</ele>
        <time>2018-09-30T09:35:15Z</time>
      </trkpt>
      <trkpt lat="45.94478" lon="4.88289">
        <ele>317</ele>
        <time>2018-09-30T09:35:16Z</time>
      </trkpt>
      <trkpt lat="45.94472" lon="4.88289">
        <ele>317</ele>
        <time>2018-09-30T09:35:17Z</time>
      </trkpt>
      <trkpt lat="45.94468" lon="4.88289">
        <ele>316</ele>
        <time>2018-09-30T09:35:18Z</time>
      </trkpt>
      <trkpt lat="45.94463" lon="4.88287">
        <ele>316</ele>
        <time>2018-09-30T09:35:19Z</time>
      </trkpt>
      <trkpt lat="45.94457" lon="4.88286">
        <ele>316</ele>
        <time>2018-09-30T09:35:20Z</time>
      </trkpt>
      <trkpt lat="45.94452" lon="4.88286">
        <ele>315</ele>
        <time>2018-09-30T09:35:21Z</time>
      </trkpt>
      <trkpt lat="45.94447" lon="4.88285">
        <ele>315</ele>
        <time>2018-09-30T09:35:22Z</time>
      </trkpt>
      <trkpt lat="45.94442" lon="4.88283">
        <ele>316</ele>
        <time>2018-09-30T09:35:23Z</time>
      </trkpt>
      <trkpt lat="45.94437" lon="4.88284">
        <ele>316</ele>
        <time>2018-09-30T09:35:24Z</time>
      </trkpt>
      <trkpt lat="45.94432" lon="4.88285">
        <ele>316</ele>
        <time>2018-09-30T09:35:25Z</time>
      </trkpt>
      <trkpt lat="45.94428" lon="4.88283">
        <ele>317</ele>
        <time>2018-09-30T09:35:26Z</time>
      </trkpt>
      <trkpt lat="45.94419" lon="4.88282">
        <ele>317</ele>
        <time>2018-09-30T09:35:28Z</time>
      </trkpt>
      <trkpt lat="45.94415" lon="4.88282">
        <ele>318</ele>
        <time>2018-09-30T09:35:29Z</time>
      </trkpt>
      <trkpt lat="45.94406" lon="4.88282">
        <ele>317</ele>
        <time>2018-09-30T09:35:31Z</time>
      </trkpt>
      <trkpt lat="45.94401" lon="4.88282">
        <ele>317</ele>
        <time>2018-09-30T09:35:32Z</time>
      </trkpt>
      <trkpt lat="45.94396" lon="4.88282">
        <ele>316</ele>
        <time>2018-09-30T09:35:33Z</time>
      </trkpt>
      <trkpt lat="45.94391" lon="4.88281">
        <ele>316</ele>
        <time>2018-09-30T09:35:34Z</time>
      </trkpt>
      <trkpt lat="45.94385" lon="4.8828">
        <ele>316</ele>
        <time>2018-09-30T09:35:35Z</time>
      </trkpt>
      <trkpt lat="45.94379" lon="4.88279">
        <ele>315</ele>
        <time>2018-09-30T09:35:36Z</time>
      </trkpt>
      <trkpt lat="45.94374" lon="4.88279">
        <ele>315</ele>
        <time>2018-09-30T09:35:37Z</time>
      </trkpt>
      <trkpt lat="45.94368" lon="4.88279">
        <ele>315</ele>
        <time>2018-09-30T09:35:38Z</time>
      </trkpt>
      <trkpt lat="45.94362" lon="4.88279">
        <ele>315</ele>
        <time>2018-09-30T09:35:39Z</time>
      </trkpt>
      <trkpt lat="45.94358" lon="4.88277">
        <ele>315</ele>
        <time>2018-09-30T09:35:40Z</time>
      </trkpt>
      <trkpt lat="45.94349" lon="4.88276">
        <ele>315</ele>
        <time>2018-09-30T09:35:42Z</time>
      </trkpt>
      <trkpt lat="45.94344" lon="4.88276">
        <ele>315</ele>
        <time>2018-09-30T09:35:43Z</time>
      </trkpt>
      <trkpt lat="45.94336" lon="4.88277">
        <ele>315</ele>
        <time>2018-09-30T09:35:45Z</time>
      </trkpt>
      <trkpt lat="45.94333" lon="4.88276">
        <ele>316</ele>
        <time>2018-09-30T09:35:46Z</time>
      </trkpt>
      <trkpt lat="45.94324" lon="4.88278">
        <ele>315</ele>
        <time>2018-09-30T09:35:48Z</time>
      </trkpt>
      <trkpt lat="45.94319" lon="4.88277">
        <ele>316</ele>
        <time>2018-09-30T09:35:49Z</time>
      </trkpt>
      <trkpt lat="45.94311" lon="4.88276">
        <ele>314</ele>
        <time>2018-09-30T09:35:51Z</time>
      </trkpt>
      <trkpt lat="45.94307" lon="4.88274">
        <ele>319</ele>
        <time>2018-09-30T09:35:52Z</time>
      </trkpt>
      <trkpt lat="45.94302" lon="4.88273">
        <ele>318</ele>
        <time>2018-09-30T09:35:53Z</time>
      </trkpt>
      <trkpt lat="45.94297" lon="4.88273">
        <ele>315</ele>
        <time>2018-09-30T09:35:54Z</time>
      </trkpt>
      <trkpt lat="45.94292" lon="4.88272">
        <ele>314</ele>
        <time>2018-09-30T09:35:55Z</time>
      </trkpt>
      <trkpt lat="45.94287" lon="4.88271">
        <ele>314</ele>
        <time>2018-09-30T09:35:56Z</time>
      </trkpt>
      <trkpt lat="45.94281" lon="4.88269">
        <ele>313</ele>
        <time>2018-09-30T09:35:57Z</time>
      </trkpt>
      <trkpt lat="45.94276" lon="4.88268">
        <ele>313</ele>
        <time>2018-09-30T09:35:58Z</time>
      </trkpt>
      <trkpt lat="45.94271" lon="4.88266">
        <ele>312</ele>
        <time>2018-09-30T09:35:59Z</time>
      </trkpt>
      <trkpt lat="45.94266" lon="4.88265">
        <ele>311</ele>
        <time>2018-09-30T09:36:00Z</time>
      </trkpt>
      <trkpt lat="45.94262" lon="4.88264">
        <ele>311</ele>
        <time>2018-09-30T09:36:01Z</time>
      </trkpt>
      <trkpt lat="45.94257" lon="4.88263">
        <ele>312</ele>
        <time>2018-09-30T09:36:02Z</time>
      </trkpt>
      <trkpt lat="45.94252" lon="4.88261">
        <ele>311</ele>
        <time>2018-09-30T09:36:03Z</time>
      </trkpt>
      <trkpt lat="45.94248" lon="4.88261">
        <ele>312</ele>
        <time>2018-09-30T09:36:04Z</time>
      </trkpt>
      <trkpt lat="45.94241" lon="4.8826">
        <ele>313</ele>
        <time>2018-09-30T09:36:06Z</time>
      </trkpt>
      <trkpt lat="45.94236" lon="4.8826">
        <ele>313</ele>
        <time>2018-09-30T09:36:07Z</time>
      </trkpt>
      <trkpt lat="45.94229" lon="4.88259">
        <ele>314</ele>
        <time>2018-09-30T09:36:09Z</time>
      </trkpt>
      <trkpt lat="45.94224" lon="4.88257">
        <ele>315</ele>
        <time>2018-09-30T09:36:10Z</time>
      </trkpt>
      <trkpt lat="45.94216" lon="4.88255">
        <ele>316</ele>
        <time>2018-09-30T09:36:12Z</time>
      </trkpt>
      <trkpt lat="45.94211" lon="4.88254">
        <ele>317</ele>
        <time>2018-09-30T09:36:13Z</time>
      </trkpt>
      <trkpt lat="45.94206" lon="4.88254">
        <ele>317</ele>
        <time>2018-09-30T09:36:14Z</time>
      </trkpt>
      <trkpt lat="45.94202" lon="4.88253">
        <ele>317</ele>
        <time>2018-09-30T09:36:15Z</time>
      </trkpt>
      <trkpt lat="45.94197" lon="4.88252">
        <ele>318</ele>
        <time>2018-09-30T09:36:16Z</time>
      </trkpt>
      <trkpt lat="45.94192" lon="4.88252">
        <ele>318</ele>
        <time>2018-09-30T09:36:17Z</time>
      </trkpt>
      <trkpt lat="45.94184" lon="4.88251">
        <ele>318</ele>
        <time>2018-09-30T09:36:19Z</time>
      </trkpt>
      <trkpt lat="45.9418" lon="4.8825">
        <ele>318</ele>
        <time>2018-09-30T09:36:20Z</time>
      </trkpt>
      <trkpt lat="45.94172" lon="4.88248">
        <ele>318</ele>
        <time>2018-09-30T09:36:22Z</time>
      </trkpt>
      <trkpt lat="45.94168" lon="4.8825">
        <ele>318</ele>
        <time>2018-09-30T09:36:23Z</time>
      </trkpt>
      <trkpt lat="45.94162" lon="4.88249">
        <ele>318</ele>
        <time>2018-09-30T09:36:25Z</time>
      </trkpt>
      <trkpt lat="45.94157" lon="4.88248">
        <ele>317</ele>
        <time>2018-09-30T09:36:26Z</time>
      </trkpt>
      <trkpt lat="45.94149" lon="4.88247">
        <ele>318</ele>
        <time>2018-09-30T09:36:28Z</time>
      </trkpt>
      <trkpt lat="45.94146" lon="4.88247">
        <ele>319</ele>
        <time>2018-09-30T09:36:29Z</time>
      </trkpt>
      <trkpt lat="45.94138" lon="4.88246">
        <ele>321</ele>
        <time>2018-09-30T09:36:31Z</time>
      </trkpt>
      <trkpt lat="45.94134" lon="4.88246">
        <ele>320</ele>
        <time>2018-09-30T09:36:32Z</time>
      </trkpt>
      <trkpt lat="45.94126" lon="4.88245">
        <ele>320</ele>
        <time>2018-09-30T09:36:34Z</time>
      </trkpt>
      <trkpt lat="45.94124" lon="4.88245">
        <ele>320</ele>
        <time>2018-09-30T09:36:35Z</time>
      </trkpt>
      <trkpt lat="45.94117" lon="4.88244">
        <ele>319</ele>
        <time>2018-09-30T09:36:38Z</time>
      </trkpt>
      <trkpt lat="45.94115" lon="4.88244">
        <ele>318</ele>
        <time>2018-09-30T09:36:39Z</time>
      </trkpt>
      <trkpt lat="45.94107" lon="4.88243">
        <ele>318</ele>
        <time>2018-09-30T09:36:42Z</time>
      </trkpt>
      <trkpt lat="45.94105" lon="4.88242">
        <ele>317</ele>
        <time>2018-09-30T09:36:43Z</time>
      </trkpt>
      <trkpt lat="45.94096" lon="4.8824">
        <ele>316</ele>
        <time>2018-09-30T09:36:46Z</time>
      </trkpt>
      <trkpt lat="45.94094" lon="4.88239">
        <ele>316</ele>
        <time>2018-09-30T09:36:47Z</time>
      </trkpt>
      <trkpt lat="45.94085" lon="4.88238">
        <ele>317</ele>
        <time>2018-09-30T09:36:48Z</time>
      </trkpt>
      <trkpt lat="45.94082" lon="4.88237">
        <ele>317</ele>
        <time>2018-09-30T09:36:49Z</time>
      </trkpt>
      <trkpt lat="45.94074" lon="4.88236">
        <ele>318</ele>
        <time>2018-09-30T09:36:51Z</time>
      </trkpt>
      <trkpt lat="45.94069" lon="4.88235">
        <ele>319</ele>
        <time>2018-09-30T09:36:52Z</time>
      </trkpt>
      <trkpt lat="45.94065" lon="4.88235">
        <ele>318</ele>
        <time>2018-09-30T09:36:53Z</time>
      </trkpt>
      <trkpt lat="45.9406" lon="4.88234">
        <ele>318</ele>
        <time>2018-09-30T09:36:54Z</time>
      </trkpt>
      <trkpt lat="45.94051" lon="4.88232">
        <ele>318</ele>
        <time>2018-09-30T09:36:56Z</time>
      </trkpt>
      <trkpt lat="45.94047" lon="4.88231">
        <ele>318</ele>
        <time>2018-09-30T09:36:57Z</time>
      </trkpt>
      <trkpt lat="45.94039" lon="4.8823">
        <ele>318</ele>
        <time>2018-09-30T09:36:59Z</time>
      </trkpt>
      <trkpt lat="45.94035" lon="4.8823">
        <ele>318</ele>
        <time>2018-09-30T09:37:00Z</time>
      </trkpt>
      <trkpt lat="45.94026" lon="4.88228">
        <ele>318</ele>
        <time>2018-09-30T09:37:02Z</time>
      </trkpt>
      <trkpt lat="45.94022" lon="4.88228">
        <ele>318</ele>
        <time>2018-09-30T09:37:03Z</time>
      </trkpt>
      <trkpt lat="45.94017" lon="4.88227">
        <ele>318</ele>
        <time>2018-09-30T09:37:04Z</time>
      </trkpt>
      <trkpt lat="45.94012" lon="4.88227">
        <ele>318</ele>
        <time>2018-09-30T09:37:05Z</time>
      </trkpt>
      <trkpt lat="45.94008" lon="4.88226">
        <ele>318</ele>
        <time>2018-09-30T09:37:06Z</time>
      </trkpt>
      <trkpt lat="45.94003" lon="4.88225">
        <ele>319</ele>
        <time>2018-09-30T09:37:07Z</time>
      </trkpt>
      <trkpt lat="45.93995" lon="4.88225">
        <ele>319</ele>
        <time>2018-09-30T09:37:09Z</time>
      </trkpt>
      <trkpt lat="45.93991" lon="4.88224">
        <ele>320</ele>
        <time>2018-09-30T09:37:10Z</time>
      </trkpt>
      <trkpt lat="45.93983" lon="4.88225">
        <ele>321</ele>
        <time>2018-09-30T09:37:12Z</time>
      </trkpt>
      <trkpt lat="45.93979" lon="4.88225">
        <ele>321</ele>
        <time>2018-09-30T09:37:13Z</time>
      </trkpt>
      <trkpt lat="45.93972" lon="4.88222">
        <ele>321</ele>
        <time>2018-09-30T09:37:15Z</time>
      </trkpt>
      <trkpt lat="45.93968" lon="4.88222">
        <ele>321</ele>
        <time>2018-09-30T09:37:16Z</time>
      </trkpt>
      <trkpt lat="45.93959" lon="4.88222">
        <ele>320</ele>
        <time>2018-09-30T09:37:18Z</time>
      </trkpt>
      <trkpt lat="45.93956" lon="4.88222">
        <ele>320</ele>
        <time>2018-09-30T09:37:19Z</time>
      </trkpt>
      <trkpt lat="45.93948" lon="4.88222">
        <ele>321</ele>
        <time>2018-09-30T09:37:21Z</time>
      </trkpt>
      <trkpt lat="45.93945" lon="4.88222">
        <ele>321</ele>
        <time>2018-09-30T09:37:22Z</time>
      </trkpt>
      <trkpt lat="45.93937" lon="4.88222">
        <ele>321</ele>
        <time>2018-09-30T09:37:24Z</time>
      </trkpt>
      <trkpt lat="45.93933" lon="4.88222">
        <ele>322</ele>
        <time>2018-09-30T09:37:25Z</time>
      </trkpt>
      <trkpt lat="45.93925" lon="4.88222">
        <ele>322</ele>
        <time>2018-09-30T09:37:27Z</time>
      </trkpt>
      <trkpt lat="45.93921" lon="4.88223">
        <ele>322</ele>
        <time>2018-09-30T09:37:28Z</time>
      </trkpt>
      <trkpt lat="45.93914" lon="4.88222">
        <ele>322</ele>
        <time>2018-09-30T09:37:30Z</time>
      </trkpt>
      <trkpt lat="45.9391" lon="4.88222">
        <ele>323</ele>
        <time>2018-09-30T09:37:31Z</time>
      </trkpt>
      <trkpt lat="45.93902" lon="4.88221">
        <ele>324</ele>
        <time>2018-09-30T09:37:33Z</time>
      </trkpt>
      <trkpt lat="45.93898" lon="4.88221">
        <ele>324</ele>
        <time>2018-09-30T09:37:34Z</time>
      </trkpt>
      <trkpt lat="45.93894" lon="4.88221">
        <ele>324</ele>
        <time>2018-09-30T09:37:36Z</time>
      </trkpt>
      <trkpt lat="45.93887" lon="4.8822">
        <ele>323</ele>
        <time>2018-09-30T09:37:37Z</time>
      </trkpt>
      <trkpt lat="45.9388" lon="4.88221">
        <ele>323</ele>
        <time>2018-09-30T09:37:39Z</time>
      </trkpt>
      <trkpt lat="45.93876" lon="4.88221">
        <ele>323</ele>
        <time>2018-09-30T09:37:40Z</time>
      </trkpt>
      <trkpt lat="45.9387" lon="4.88222">
        <ele>321</ele>
        <time>2018-09-30T09:37:42Z</time>
      </trkpt>
      <trkpt lat="45.93864" lon="4.88223">
        <ele>320</ele>
        <time>2018-09-30T09:37:43Z</time>
      </trkpt>
      <trkpt lat="45.93857" lon="4.88224">
        <ele>321</ele>
        <time>2018-09-30T09:37:45Z</time>
      </trkpt>
      <trkpt lat="45.93853" lon="4.88224">
        <ele>321</ele>
        <time>2018-09-30T09:37:46Z</time>
      </trkpt>
      <trkpt lat="45.93846" lon="4.88223">
        <ele>321</ele>
        <time>2018-09-30T09:37:48Z</time>
      </trkpt>
      <trkpt lat="45.93842" lon="4.88223">
        <ele>322</ele>
        <time>2018-09-30T09:37:49Z</time>
      </trkpt>
      <trkpt lat="45.93834" lon="4.88223">
        <ele>322</ele>
        <time>2018-09-30T09:37:51Z</time>
      </trkpt>
      <trkpt lat="45.9383" lon="4.88223">
        <ele>321</ele>
        <time>2018-09-30T09:37:52Z</time>
      </trkpt>
      <trkpt lat="45.93823" lon="4.88222">
        <ele>322</ele>
        <time>2018-09-30T09:37:54Z</time>
      </trkpt>
      <trkpt lat="45.93818" lon="4.88221">
        <ele>323</ele>
        <time>2018-09-30T09:37:55Z</time>
      </trkpt>
      <trkpt lat="45.9381" lon="4.88221">
        <ele>324</ele>
        <time>2018-09-30T09:37:58Z</time>
      </trkpt>
      <trkpt lat="45.93807" lon="4.88221">
        <ele>324</ele>
        <time>2018-09-30T09:37:59Z</time>
      </trkpt>
      <trkpt lat="45.938" lon="4.88221">
        <ele>324</ele>
        <time>2018-09-30T09:38:00Z</time>
      </trkpt>
      <trkpt lat="45.93798" lon="4.8822">
        <ele>325</ele>
        <time>2018-09-30T09:38:01Z</time>
      </trkpt>
      <trkpt lat="45.93789" lon="4.88219">
        <ele>325</ele>
        <time>2018-09-30T09:38:03Z</time>
      </trkpt>
      <trkpt lat="45.93787" lon="4.88219">
        <ele>325</ele>
        <time>2018-09-30T09:38:04Z</time>
      </trkpt>
      <trkpt lat="45.93778" lon="4.88219">
        <ele>326</ele>
        <time>2018-09-30T09:38:07Z</time>
      </trkpt>
      <trkpt lat="45.93775" lon="4.88219">
        <ele>327</ele>
        <time>2018-09-30T09:38:08Z</time>
      </trkpt>
      <trkpt lat="45.93766" lon="4.88218">
        <ele>328</ele>
        <time>2018-09-30T09:38:09Z</time>
      </trkpt>
      <trkpt lat="45.93762" lon="4.88218">
        <ele>328</ele>
        <time>2018-09-30T09:38:10Z</time>
      </trkpt>
      <trkpt lat="45.93754" lon="4.88217">
        <ele>328</ele>
        <time>2018-09-30T09:38:12Z</time>
      </trkpt>
      <trkpt lat="45.93752" lon="4.88217">
        <ele>328</ele>
        <time>2018-09-30T09:38:13Z</time>
      </trkpt>
      <trkpt lat="45.93747" lon="4.88216">
        <ele>329</ele>
        <time>2018-09-30T09:38:14Z</time>
      </trkpt>
      <trkpt lat="45.93743" lon="4.88216">
        <ele>329</ele>
        <time>2018-09-30T09:38:15Z</time>
      </trkpt>
      <trkpt lat="45.93736" lon="4.88216">
        <ele>329</ele>
        <time>2018-09-30T09:38:17Z</time>
      </trkpt>
      <trkpt lat="45.93732" lon="4.88217">
        <ele>329</ele>
        <time>2018-09-30T09:38:18Z</time>
      </trkpt>
      <trkpt lat="45.93725" lon="4.88217">
        <ele>328</ele>
        <time>2018-09-30T09:38:20Z</time>
      </trkpt>
      <trkpt lat="45.93721" lon="4.88217">
        <ele>329</ele>
        <time>2018-09-30T09:38:21Z</time>
      </trkpt>
      <trkpt lat="45.93714" lon="4.88217">
        <ele>329</ele>
        <time>2018-09-30T09:38:24Z</time>
      </trkpt>
      <trkpt lat="45.93711" lon="4.88217">
        <ele>328</ele>
        <time>2018-09-30T09:38:25Z</time>
      </trkpt>
      <trkpt lat="45.93705" lon="4.88218">
        <ele>328</ele>
        <time>2018-09-30T09:38:27Z</time>
      </trkpt>
      <trkpt lat="45.93697" lon="4.88219">
        <ele>328</ele>
        <time>2018-09-30T09:38:28Z</time>
      </trkpt>
      <trkpt lat="45.93691" lon="4.88219">
        <ele>328</ele>
        <time>2018-09-30T09:38:30Z</time>
      </trkpt>
      <trkpt lat="45.93686" lon="4.88219">
        <ele>328</ele>
        <time>2018-09-30T09:38:31Z</time>
      </trkpt>
      <trkpt lat="45.93679" lon="4.88219">
        <ele>327</ele>
        <time>2018-09-30T09:38:33Z</time>
      </trkpt>
      <trkpt lat="45.93674" lon="4.88219">
        <ele>327</ele>
        <time>2018-09-30T09:38:34Z</time>
      </trkpt>
      <trkpt lat="45.93666" lon="4.88219">
        <ele>327</ele>
        <time>2018-09-30T09:38:36Z</time>
      </trkpt>
      <trkpt lat="45.93662" lon="4.8822">
        <ele>327</ele>
        <time>2018-09-30T09:38:37Z</time>
      </trkpt>
      <trkpt lat="45.93655" lon="4.88219">
        <ele>327</ele>
        <time>2018-09-30T09:38:39Z</time>
      </trkpt>
      <trkpt lat="45.93651" lon="4.88219">
        <ele>327</ele>
        <time>2018-09-30T09:38:40Z</time>
      </trkpt>
      <trkpt lat="45.93643" lon="4.88218">
        <ele>328</ele>
        <time>2018-09-30T09:38:42Z</time>
      </trkpt>
      <trkpt lat="45.93639" lon="4.88218">
        <ele>328</ele>
        <time>2018-09-30T09:38:43Z</time>
      </trkpt>
      <trkpt lat="45.93632" lon="4.88219">
        <ele>327</ele>
        <time>2018-09-30T09:38:45Z</time>
      </trkpt>
      <trkpt lat="45.93628" lon="4.88219">
        <ele>327</ele>
        <time>2018-09-30T09:38:46Z</time>
      </trkpt>
      <trkpt lat="45.93619" lon="4.88218">
        <ele>326</ele>
        <time>2018-09-30T09:38:48Z</time>
      </trkpt>
      <trkpt lat="45.93615" lon="4.88218">
        <ele>327</ele>
        <time>2018-09-30T09:38:49Z</time>
      </trkpt>
      <trkpt lat="45.93607" lon="4.88218">
        <ele>326</ele>
        <time>2018-09-30T09:38:51Z</time>
      </trkpt>
      <trkpt lat="45.93603" lon="4.88219">
        <ele>326</ele>
        <time>2018-09-30T09:38:52Z</time>
      </trkpt>
      <trkpt lat="45.93595" lon="4.88219">
        <ele>326</ele>
        <time>2018-09-30T09:38:54Z</time>
      </trkpt>
      <trkpt lat="45.93593" lon="4.88219">
        <ele>326</ele>
        <time>2018-09-30T09:38:55Z</time>
      </trkpt>
      <trkpt lat="45.93584" lon="4.88219">
        <ele>328</ele>
        <time>2018-09-30T09:38:59Z</time>
      </trkpt>
      <trkpt lat="45.93582" lon="4.88219">
        <ele>327</ele>
        <time>2018-09-30T09:39:00Z</time>
      </trkpt>
      <trkpt lat="45.93577" lon="4.88219">
        <ele>328</ele>
        <time>2018-09-30T09:39:02Z</time>
      </trkpt>
      <trkpt lat="45.93568" lon="4.88218">
        <ele>328</ele>
        <time>2018-09-30T09:39:03Z</time>
      </trkpt>
      <trkpt lat="45.9356" lon="4.88217">
        <ele>330</ele>
        <time>2018-09-30T09:39:05Z</time>
      </trkpt>
      <trkpt lat="45.93556" lon="4.88216">
        <ele>329</ele>
        <time>2018-09-30T09:39:06Z</time>
      </trkpt>
      <trkpt lat="45.93547" lon="4.88216">
        <ele>330</ele>
        <time>2018-09-30T09:39:08Z</time>
      </trkpt>
      <trkpt lat="45.93544" lon="4.88218">
        <ele>328</ele>
        <time>2018-09-30T09:39:09Z</time>
      </trkpt>
      <trkpt lat="45.93535" lon="4.88217">
        <ele>330</ele>
        <time>2018-09-30T09:39:12Z</time>
      </trkpt>
      <trkpt lat="45.93532" lon="4.88217">
        <ele>331</ele>
        <time>2018-09-30T09:39:13Z</time>
      </trkpt>
      <trkpt lat="45.93527" lon="4.88216">
        <ele>331</ele>
        <time>2018-09-30T09:39:15Z</time>
      </trkpt>
      <trkpt lat="45.93518" lon="4.88217">
        <ele>331</ele>
        <time>2018-09-30T09:39:16Z</time>
      </trkpt>
      <trkpt lat="45.9351" lon="4.88215">
        <ele>330</ele>
        <time>2018-09-30T09:39:20Z</time>
      </trkpt>
      <trkpt lat="45.93504" lon="4.8821">
        <ele>330</ele>
        <time>2018-09-30T09:39:21Z</time>
      </trkpt>
      <trkpt lat="45.93498" lon="4.88202">
        <ele>331</ele>
        <time>2018-09-30T09:39:23Z</time>
      </trkpt>
      <trkpt lat="45.93496" lon="4.88198">
        <ele>331</ele>
        <time>2018-09-30T09:39:24Z</time>
      </trkpt>
      <trkpt lat="45.93492" lon="4.88186">
        <ele>330</ele>
        <time>2018-09-30T09:39:26Z</time>
      </trkpt>
      <trkpt lat="45.93491" lon="4.8818">
        <ele>329</ele>
        <time>2018-09-30T09:39:27Z</time>
      </trkpt>
      <trkpt lat="45.93492" lon="4.88167">
        <ele>329</ele>
        <time>2018-09-30T09:39:29Z</time>
      </trkpt>
      <trkpt lat="45.93492" lon="4.88161">
        <ele>329</ele>
        <time>2018-09-30T09:39:30Z</time>
      </trkpt>
      <trkpt lat="45.93495" lon="4.88149">
        <ele>329</ele>
        <time>2018-09-30T09:39:32Z</time>
      </trkpt>
      <trkpt lat="45.93497" lon="4.88141">
        <ele>329</ele>
        <time>2018-09-30T09:39:33Z</time>
      </trkpt>
      <trkpt lat="45.93498" lon="4.88134">
        <ele>329</ele>
        <time>2018-09-30T09:39:34Z</time>
      </trkpt>
      <trkpt lat="45.935" lon="4.88128">
        <ele>329</ele>
        <time>2018-09-30T09:39:35Z</time>
      </trkpt>
      <trkpt lat="45.93501" lon="4.88121">
        <ele>329</ele>
        <time>2018-09-30T09:39:36Z</time>
      </trkpt>
      <trkpt lat="45.93503" lon="4.88112">
        <ele>328</ele>
        <time>2018-09-30T09:39:37Z</time>
      </trkpt>
      <trkpt lat="45.93504" lon="4.88105">
        <ele>329</ele>
        <time>2018-09-30T09:39:38Z</time>
      </trkpt>
      <trkpt lat="45.93505" lon="4.88099">
        <ele>330</ele>
        <time>2018-09-30T09:39:39Z</time>
      </trkpt>
      <trkpt lat="45.93506" lon="4.88091">
        <ele>330</ele>
        <time>2018-09-30T09:39:40Z</time>
      </trkpt>
      <trkpt lat="45.93506" lon="4.88084">
        <ele>331</ele>
        <time>2018-09-30T09:39:41Z</time>
      </trkpt>
      <trkpt lat="45.93507" lon="4.88076">
        <ele>331</ele>
        <time>2018-09-30T09:39:42Z</time>
      </trkpt>
      <trkpt lat="45.93508" lon="4.88068">
        <ele>331</ele>
        <time>2018-09-30T09:39:43Z</time>
      </trkpt>
      <trkpt lat="45.93509" lon="4.8806">
        <ele>330</ele>
        <time>2018-09-30T09:39:44Z</time>
      </trkpt>
      <trkpt lat="45.93511" lon="4.88053">
        <ele>331</ele>
        <time>2018-09-30T09:39:45Z</time>
      </trkpt>
      <trkpt lat="45.93512" lon="4.88041">
        <ele>330</ele>
        <time>2018-09-30T09:39:47Z</time>
      </trkpt>
      <trkpt lat="45.93513" lon="4.88033">
        <ele>330</ele>
        <time>2018-09-30T09:39:48Z</time>
      </trkpt>
      <trkpt lat="45.93513" lon="4.88027">
        <ele>332</ele>
        <time>2018-09-30T09:39:49Z</time>
      </trkpt>
      <trkpt lat="45.93513" lon="4.8802">
        <ele>332</ele>
        <time>2018-09-30T09:39:50Z</time>
      </trkpt>
      <trkpt lat="45.93515" lon="4.88014">
        <ele>332</ele>
        <time>2018-09-30T09:39:51Z</time>
      </trkpt>
      <trkpt lat="45.93515" lon="4.88007">
        <ele>331</ele>
        <time>2018-09-30T09:39:52Z</time>
      </trkpt>
      <trkpt lat="45.93515" lon="4.87999">
        <ele>332</ele>
        <time>2018-09-30T09:39:53Z</time>
      </trkpt>
      <trkpt lat="45.93515" lon="4.87991">
        <ele>332</ele>
        <time>2018-09-30T09:39:54Z</time>
      </trkpt>
      <trkpt lat="45.93516" lon="4.87984">
        <ele>333</ele>
        <time>2018-09-30T09:39:55Z</time>
      </trkpt>
      <trkpt lat="45.93516" lon="4.87976">
        <ele>332</ele>
        <time>2018-09-30T09:39:56Z</time>
      </trkpt>
      <trkpt lat="45.93517" lon="4.87968">
        <ele>332</ele>
        <time>2018-09-30T09:39:57Z</time>
      </trkpt>
      <trkpt lat="45.93516" lon="4.87961">
        <ele>332</ele>
        <time>2018-09-30T09:39:58Z</time>
      </trkpt>
      <trkpt lat="45.93517" lon="4.87952">
        <ele>331</ele>
        <time>2018-09-30T09:39:59Z</time>
      </trkpt>
      <trkpt lat="45.93517" lon="4.87946">
        <ele>331</ele>
        <time>2018-09-30T09:40:00Z</time>
      </trkpt>
      <trkpt lat="45.93518" lon="4.87939">
        <ele>332</ele>
        <time>2018-09-30T09:40:01Z</time>
      </trkpt>
      <trkpt lat="45.93517" lon="4.87932">
        <ele>330</ele>
        <time>2018-09-30T09:40:02Z</time>
      </trkpt>
      <trkpt lat="45.93517" lon="4.87924">
        <ele>331</ele>
        <time>2018-09-30T09:40:03Z</time>
      </trkpt>
      <trkpt lat="45.93518" lon="4.87915">
        <ele>330</ele>
        <time>2018-09-30T09:40:04Z</time>
      </trkpt>
      <trkpt lat="45.9352" lon="4.87907">
        <ele>330</ele>
        <time>2018-09-30T09:40:05Z</time>
      </trkpt>
      <trkpt lat="45.93521" lon="4.879">
        <ele>331</ele>
        <time>2018-09-30T09:40:06Z</time>
      </trkpt>
      <trkpt lat="45.93522" lon="4.87892">
        <ele>331</ele>
        <time>2018-09-30T09:40:07Z</time>
      </trkpt>
      <trkpt lat="45.93522" lon="4.87882">
        <ele>330</ele>
        <time>2018-09-30T09:40:08Z</time>
      </trkpt>
      <trkpt lat="45.93523" lon="4.87874">
        <ele>330</ele>
        <time>2018-09-30T09:40:09Z</time>
      </trkpt>
      <trkpt lat="45.93525" lon="4.87867">
        <ele>330</ele>
        <time>2018-09-30T09:40:10Z</time>
      </trkpt>
      <trkpt lat="45.93525" lon="4.87858">
        <ele>330</ele>
        <time>2018-09-30T09:40:11Z</time>
      </trkpt>
      <trkpt lat="45.93526" lon="4.87852">
        <ele>330</ele>
        <time>2018-09-30T09:40:12Z</time>
      </trkpt>
      <trkpt lat="45.93527" lon="4.87845">
        <ele>330</ele>
        <time>2018-09-30T09:40:13Z</time>
      </trkpt>
      <trkpt lat="45.93528" lon="4.87837">
        <ele>330</ele>
        <time>2018-09-30T09:40:14Z</time>
      </trkpt>
      <trkpt lat="45.9353" lon="4.87825">
        <ele>332</ele>
        <time>2018-09-30T09:40:16Z</time>
      </trkpt>
      <trkpt lat="45.93532" lon="4.8782">
        <ele>333</ele>
        <time>2018-09-30T09:40:17Z</time>
      </trkpt>
      <trkpt lat="45.93535" lon="4.87809">
        <ele>333</ele>
        <time>2018-09-30T09:40:19Z</time>
      </trkpt>
      <trkpt lat="45.93535" lon="4.87803">
        <ele>333</ele>
        <time>2018-09-30T09:40:20Z</time>
      </trkpt>
      <trkpt lat="45.93536" lon="4.87797">
        <ele>333</ele>
        <time>2018-09-30T09:40:21Z</time>
      </trkpt>
      <trkpt lat="45.93536" lon="4.87789">
        <ele>333</ele>
        <time>2018-09-30T09:40:22Z</time>
      </trkpt>
      <trkpt lat="45.93538" lon="4.87782">
        <ele>332</ele>
        <time>2018-09-30T09:40:23Z</time>
      </trkpt>
      <trkpt lat="45.9354" lon="4.87773">
        <ele>333</ele>
        <time>2018-09-30T09:40:24Z</time>
      </trkpt>
      <trkpt lat="45.93542" lon="4.87765">
        <ele>334</ele>
        <time>2018-09-30T09:40:25Z</time>
      </trkpt>
      <trkpt lat="45.93544" lon="4.87757">
        <ele>335</ele>
        <time>2018-09-30T09:40:26Z</time>
      </trkpt>
      <trkpt lat="45.93546" lon="4.87748">
        <ele>335</ele>
        <time>2018-09-30T09:40:27Z</time>
      </trkpt>
      <trkpt lat="45.93549" lon="4.8774">
        <ele>335</ele>
        <time>2018-09-30T09:40:28Z</time>
      </trkpt>
      <trkpt lat="45.93551" lon="4.87733">
        <ele>335</ele>
        <time>2018-09-30T09:40:29Z</time>
      </trkpt>
      <trkpt lat="45.93553" lon="4.87726">
        <ele>335</ele>
        <time>2018-09-30T09:40:30Z</time>
      </trkpt>
      <trkpt lat="45.93554" lon="4.87718">
        <ele>335</ele>
        <time>2018-09-30T09:40:31Z</time>
      </trkpt>
      <trkpt lat="45.93555" lon="4.87709">
        <ele>335</ele>
        <time>2018-09-30T09:40:32Z</time>
      </trkpt>
      <trkpt lat="45.93557" lon="4.87703">
        <ele>334</ele>
        <time>2018-09-30T09:40:33Z</time>
      </trkpt>
      <trkpt lat="45.9356" lon="4.87696">
        <ele>334</ele>
        <time>2018-09-30T09:40:34Z</time>
      </trkpt>
      <trkpt lat="45.93561" lon="4.8769">
        <ele>333</ele>
        <time>2018-09-30T09:40:35Z</time>
      </trkpt>
      <trkpt lat="45.93563" lon="4.87683">
        <ele>333</ele>
        <time>2018-09-30T09:40:36Z</time>
      </trkpt>
      <trkpt lat="45.93566" lon="4.87676">
        <ele>333</ele>
        <time>2018-09-30T09:40:37Z</time>
      </trkpt>
      <trkpt lat="45.93568" lon="4.87669">
        <ele>333</ele>
        <time>2018-09-30T09:40:38Z</time>
      </trkpt>
      <trkpt lat="45.93571" lon="4.87657">
        <ele>333</ele>
        <time>2018-09-30T09:40:40Z</time>
      </trkpt>
      <trkpt lat="45.93574" lon="4.8765">
        <ele>333</ele>
        <time>2018-09-30T09:40:41Z</time>
      </trkpt>
      <trkpt lat="45.93576" lon="4.87645">
        <ele>333</ele>
        <time>2018-09-30T09:40:42Z</time>
      </trkpt>
      <trkpt lat="45.93577" lon="4.87638">
        <ele>333</ele>
        <time>2018-09-30T09:40:43Z</time>
      </trkpt>
      <trkpt lat="45.93579" lon="4.87631">
        <ele>333</ele>
        <time>2018-09-30T09:40:44Z</time>
      </trkpt>
      <trkpt lat="45.93581" lon="4.87623">
        <ele>333</ele>
        <time>2018-09-30T09:40:45Z</time>
      </trkpt>
      <trkpt lat="45.93583" lon="4.87615">
        <ele>333</ele>
        <time>2018-09-30T09:40:46Z</time>
      </trkpt>
      <trkpt lat="45.93586" lon="4.87607">
        <ele>332</ele>
        <time>2018-09-30T09:40:47Z</time>
      </trkpt>
      <trkpt lat="45.93589" lon="4.876">
        <ele>332</ele>
        <time>2018-09-30T09:40:48Z</time>
      </trkpt>
      <trkpt lat="45.93592" lon="4.87593">
        <ele>332</ele>
        <time>2018-09-30T09:40:49Z</time>
      </trkpt>
      <trkpt lat="45.93596" lon="4.87589">
        <ele>333</ele>
        <time>2018-09-30T09:40:50Z</time>
      </trkpt>
      <trkpt lat="45.93599" lon="4.87582">
        <ele>333</ele>
        <time>2018-09-30T09:40:51Z</time>
      </trkpt>
      <trkpt lat="45.93602" lon="4.87576">
        <ele>334</ele>
        <time>2018-09-30T09:40:52Z</time>
      </trkpt>
      <trkpt lat="45.93605" lon="4.87571">
        <ele>333</ele>
        <time>2018-09-30T09:40:53Z</time>
      </trkpt>
      <trkpt lat="45.93607" lon="4.87564">
        <ele>333</ele>
        <time>2018-09-30T09:40:54Z</time>
      </trkpt>
      <trkpt lat="45.93611" lon="4.87557">
        <ele>333</ele>
        <time>2018-09-30T09:40:55Z</time>
      </trkpt>
      <trkpt lat="45.93614" lon="4.87552">
        <ele>333</ele>
        <time>2018-09-30T09:40:56Z</time>
      </trkpt>
      <trkpt lat="45.93617" lon="4.87545">
        <ele>331</ele>
        <time>2018-09-30T09:40:57Z</time>
      </trkpt>
      <trkpt lat="45.93622" lon="4.87537">
        <ele>331</ele>
        <time>2018-09-30T09:40:59Z</time>
      </trkpt>
      <trkpt lat="45.93625" lon="4.87532">
        <ele>332</ele>
        <time>2018-09-30T09:41:00Z</time>
      </trkpt>
      <trkpt lat="45.93631" lon="4.87522">
        <ele>334</ele>
        <time>2018-09-30T09:41:02Z</time>
      </trkpt>
      <trkpt lat="45.93634" lon="4.87517">
        <ele>335</ele>
        <time>2018-09-30T09:41:03Z</time>
      </trkpt>
      <trkpt lat="45.93638" lon="4.87511">
        <ele>334</ele>
        <time>2018-09-30T09:41:04Z</time>
      </trkpt>
      <trkpt lat="45.93642" lon="4.87504">
        <ele>335</ele>
        <time>2018-09-30T09:41:05Z</time>
      </trkpt>
      <trkpt lat="45.93646" lon="4.87498">
        <ele>336</ele>
        <time>2018-09-30T09:41:06Z</time>
      </trkpt>
      <trkpt lat="45.93649" lon="4.87492">
        <ele>335</ele>
        <time>2018-09-30T09:41:07Z</time>
      </trkpt>
      <trkpt lat="45.93653" lon="4.87484">
        <ele>335</ele>
        <time>2018-09-30T09:41:08Z</time>
      </trkpt>
      <trkpt lat="45.93656" lon="4.87478">
        <ele>335</ele>
        <time>2018-09-30T09:41:09Z</time>
      </trkpt>
      <trkpt lat="45.9366" lon="4.87472">
        <ele>335</ele>
        <time>2018-09-30T09:41:10Z</time>
      </trkpt>
      <trkpt lat="45.93663" lon="4.87467">
        <ele>335</ele>
        <time>2018-09-30T09:41:11Z</time>
      </trkpt>
      <trkpt lat="45.93669" lon="4.87457">
        <ele>336</ele>
        <time>2018-09-30T09:41:13Z</time>
      </trkpt>
      <trkpt lat="45.93672" lon="4.87452">
        <ele>337</ele>
        <time>2018-09-30T09:41:14Z</time>
      </trkpt>
      <trkpt lat="45.93675" lon="4.87446">
        <ele>337</ele>
        <time>2018-09-30T09:41:15Z</time>
      </trkpt>
      <trkpt lat="45.93677" lon="4.87441">
        <ele>338</ele>
        <time>2018-09-30T09:41:16Z</time>
      </trkpt>
      <trkpt lat="45.9368" lon="4.87435">
        <ele>338</ele>
        <time>2018-09-30T09:41:17Z</time>
      </trkpt>
      <trkpt lat="45.93683" lon="4.87429">
        <ele>337</ele>
        <time>2018-09-30T09:41:18Z</time>
      </trkpt>
      <trkpt lat="45.93686" lon="4.87423">
        <ele>336</ele>
        <time>2018-09-30T09:41:19Z</time>
      </trkpt>
      <trkpt lat="45.93689" lon="4.87416">
        <ele>336</ele>
        <time>2018-09-30T09:41:20Z</time>
      </trkpt>
      <trkpt lat="45.93692" lon="4.87407">
        <ele>335</ele>
        <time>2018-09-30T09:41:21Z</time>
      </trkpt>
      <trkpt lat="45.93694" lon="4.87401">
        <ele>335</ele>
        <time>2018-09-30T09:41:22Z</time>
      </trkpt>
      <trkpt lat="45.93696" lon="4.87393">
        <ele>334</ele>
        <time>2018-09-30T09:41:23Z</time>
      </trkpt>
      <trkpt lat="45.93699" lon="4.87385">
        <ele>333</ele>
        <time>2018-09-30T09:41:24Z</time>
      </trkpt>
      <trkpt lat="45.93699" lon="4.87379">
        <ele>333</ele>
        <time>2018-09-30T09:41:25Z</time>
      </trkpt>
      <trkpt lat="45.93701" lon="4.8737">
        <ele>332</ele>
        <time>2018-09-30T09:41:26Z</time>
      </trkpt>
      <trkpt lat="45.93703" lon="4.87363">
        <ele>332</ele>
        <time>2018-09-30T09:41:27Z</time>
      </trkpt>
      <trkpt lat="45.93704" lon="4.87357">
        <ele>332</ele>
        <time>2018-09-30T09:41:28Z</time>
      </trkpt>
      <trkpt lat="45.93705" lon="4.87351">
        <ele>331</ele>
        <time>2018-09-30T09:41:29Z</time>
      </trkpt>
      <trkpt lat="45.93708" lon="4.87345">
        <ele>330</ele>
        <time>2018-09-30T09:41:30Z</time>
      </trkpt>
      <trkpt lat="45.9371" lon="4.87338">
        <ele>330</ele>
        <time>2018-09-30T09:41:31Z</time>
      </trkpt>
      <trkpt lat="45.93713" lon="4.87329">
        <ele>328</ele>
        <time>2018-09-30T09:41:32Z</time>
      </trkpt>
      <trkpt lat="45.93715" lon="4.87323">
        <ele>328</ele>
        <time>2018-09-30T09:41:33Z</time>
      </trkpt>
      <trkpt lat="45.93717" lon="4.87317">
        <ele>328</ele>
        <time>2018-09-30T09:41:34Z</time>
      </trkpt>
      <trkpt lat="45.9372" lon="4.87308">
        <ele>329</ele>
        <time>2018-09-30T09:41:35Z</time>
      </trkpt>
      <trkpt lat="45.93722" lon="4.87301">
        <ele>329</ele>
        <time>2018-09-30T09:41:36Z</time>
      </trkpt>
      <trkpt lat="45.93725" lon="4.87292">
        <ele>328</ele>
        <time>2018-09-30T09:41:37Z</time>
      </trkpt>
      <trkpt lat="45.93728" lon="4.87284">
        <ele>328</ele>
        <time>2018-09-30T09:41:38Z</time>
      </trkpt>
      <trkpt lat="45.93729" lon="4.87275">
        <ele>328</ele>
        <time>2018-09-30T09:41:39Z</time>
      </trkpt>
      <trkpt lat="45.93731" lon="4.87266">
        <ele>327</ele>
        <time>2018-09-30T09:41:40Z</time>
      </trkpt>
      <trkpt lat="45.93731" lon="4.87257">
        <ele>327</ele>
        <time>2018-09-30T09:41:41Z</time>
      </trkpt>
      <trkpt lat="45.93733" lon="4.87248">
        <ele>326</ele>
        <time>2018-09-30T09:41:42Z</time>
      </trkpt>
      <trkpt lat="45.93734" lon="4.87242">
        <ele>327</ele>
        <time>2018-09-30T09:41:43Z</time>
      </trkpt>
      <trkpt lat="45.93736" lon="4.87235">
        <ele>327</ele>
        <time>2018-09-30T09:41:44Z</time>
      </trkpt>
      <trkpt lat="45.93737" lon="4.87223">
        <ele>327</ele>
        <time>2018-09-30T09:41:46Z</time>
      </trkpt>
      <trkpt lat="45.93738" lon="4.87217">
        <ele>328</ele>
        <time>2018-09-30T09:41:47Z</time>
      </trkpt>
      <trkpt lat="45.93739" lon="4.87209">
        <ele>328</ele>
        <time>2018-09-30T09:41:48Z</time>
      </trkpt>
      <trkpt lat="45.9374" lon="4.87202">
        <ele>329</ele>
        <time>2018-09-30T09:41:49Z</time>
      </trkpt>
      <trkpt lat="45.93741" lon="4.87194">
        <ele>329</ele>
        <time>2018-09-30T09:41:50Z</time>
      </trkpt>
      <trkpt lat="45.93743" lon="4.87187">
        <ele>329</ele>
        <time>2018-09-30T09:41:51Z</time>
      </trkpt>
      <trkpt lat="45.93744" lon="4.87181">
        <ele>329</ele>
        <time>2018-09-30T09:41:52Z</time>
      </trkpt>
      <trkpt lat="45.93745" lon="4.87174">
        <ele>330</ele>
        <time>2018-09-30T09:41:53Z</time>
      </trkpt>
      <trkpt lat="45.93746" lon="4.87167">
        <ele>331</ele>
        <time>2018-09-30T09:41:54Z</time>
      </trkpt>
      <trkpt lat="45.93748" lon="4.87159">
        <ele>333</ele>
        <time>2018-09-30T09:41:55Z</time>
      </trkpt>
      <trkpt lat="45.93749" lon="4.87152">
        <ele>333</ele>
        <time>2018-09-30T09:41:56Z</time>
      </trkpt>
      <trkpt lat="45.93751" lon="4.87146">
        <ele>333</ele>
        <time>2018-09-30T09:41:57Z</time>
      </trkpt>
      <trkpt lat="45.93753" lon="4.87138">
        <ele>333</ele>
        <time>2018-09-30T09:41:58Z</time>
      </trkpt>
      <trkpt lat="45.93753" lon="4.87131">
        <ele>334</ele>
        <time>2018-09-30T09:41:59Z</time>
      </trkpt>
      <trkpt lat="45.93754" lon="4.87124">
        <ele>334</ele>
        <time>2018-09-30T09:42:00Z</time>
      </trkpt>
      <trkpt lat="45.93755" lon="4.87118">
        <ele>334</ele>
        <time>2018-09-30T09:42:01Z</time>
      </trkpt>
      <trkpt lat="45.93756" lon="4.8711">
        <ele>334</ele>
        <time>2018-09-30T09:42:02Z</time>
      </trkpt>
      <trkpt lat="45.93757" lon="4.87104">
        <ele>334</ele>
        <time>2018-09-30T09:42:03Z</time>
      </trkpt>
      <trkpt lat="45.93758" lon="4.87096">
        <ele>334</ele>
        <time>2018-09-30T09:42:04Z</time>
      </trkpt>
      <trkpt lat="45.93759" lon="4.8709">
        <ele>334</ele>
        <time>2018-09-30T09:42:05Z</time>
      </trkpt>
      <trkpt lat="45.9376" lon="4.87081">
        <ele>333</ele>
        <time>2018-09-30T09:42:06Z</time>
      </trkpt>
      <trkpt lat="45.93761" lon="4.87074">
        <ele>334</ele>
        <time>2018-09-30T09:42:07Z</time>
      </trkpt>
      <trkpt lat="45.93762" lon="4.87067">
        <ele>336</ele>
        <time>2018-09-30T09:42:08Z</time>
      </trkpt>
      <trkpt lat="45.93763" lon="4.87059">
        <ele>337</ele>
        <time>2018-09-30T09:42:09Z</time>
      </trkpt>
      <trkpt lat="45.93764" lon="4.87047">
        <ele>336</ele>
        <time>2018-09-30T09:42:11Z</time>
      </trkpt>
      <trkpt lat="45.93765" lon="4.87041">
        <ele>336</ele>
        <time>2018-09-30T09:42:12Z</time>
      </trkpt>
      <trkpt lat="45.93766" lon="4.87033">
        <ele>336</ele>
        <time>2018-09-30T09:42:13Z</time>
      </trkpt>
      <trkpt lat="45.93766" lon="4.87027">
        <ele>335</ele>
        <time>2018-09-30T09:42:14Z</time>
      </trkpt>
      <trkpt lat="45.93766" lon="4.87015">
        <ele>336</ele>
        <time>2018-09-30T09:42:16Z</time>
      </trkpt>
      <trkpt lat="45.93769" lon="4.87009">
        <ele>336</ele>
        <time>2018-09-30T09:42:17Z</time>
      </trkpt>
      <trkpt lat="45.93771" lon="4.86999">
        <ele>336</ele>
        <time>2018-09-30T09:42:20Z</time>
      </trkpt>
      <trkpt lat="45.93771" lon="4.86996">
        <ele>336</ele>
        <time>2018-09-30T09:42:21Z</time>
      </trkpt>
      <trkpt lat="45.93771" lon="4.86992">
        <ele>336</ele>
        <time>2018-09-30T09:42:22Z</time>
      </trkpt>
      <trkpt lat="45.93772" lon="4.86981">
        <ele>337</ele>
        <time>2018-09-30T09:42:23Z</time>
      </trkpt>
      <trkpt lat="45.93773" lon="4.86971">
        <ele>337</ele>
        <time>2018-09-30T09:42:25Z</time>
      </trkpt>
      <trkpt lat="45.93774" lon="4.86966">
        <ele>338</ele>
        <time>2018-09-30T09:42:26Z</time>
      </trkpt>
      <trkpt lat="45.93776" lon="4.86954">
        <ele>338</ele>
        <time>2018-09-30T09:42:28Z</time>
      </trkpt>
      <trkpt lat="45.93777" lon="4.86948">
        <ele>338</ele>
        <time>2018-09-30T09:42:29Z</time>
      </trkpt>
      <trkpt lat="45.93779" lon="4.8694">
        <ele>336</ele>
        <time>2018-09-30T09:42:30Z</time>
      </trkpt>
      <trkpt lat="45.93779" lon="4.86933">
        <ele>336</ele>
        <time>2018-09-30T09:42:31Z</time>
      </trkpt>
      <trkpt lat="45.93779" lon="4.86927">
        <ele>336</ele>
        <time>2018-09-30T09:42:32Z</time>
      </trkpt>
      <trkpt lat="45.9378" lon="4.8692">
        <ele>334</ele>
        <time>2018-09-30T09:42:33Z</time>
      </trkpt>
      <trkpt lat="45.93781" lon="4.86914">
        <ele>334</ele>
        <time>2018-09-30T09:42:34Z</time>
      </trkpt>
      <trkpt lat="45.93783" lon="4.86906">
        <ele>334</ele>
        <time>2018-09-30T09:42:35Z</time>
      </trkpt>
      <trkpt lat="45.93784" lon="4.86899">
        <ele>333</ele>
        <time>2018-09-30T09:42:36Z</time>
      </trkpt>
      <trkpt lat="45.93785" lon="4.86894">
        <ele>334</ele>
        <time>2018-09-30T09:42:37Z</time>
      </trkpt>
      <trkpt lat="45.93787" lon="4.86883">
        <ele>334</ele>
        <time>2018-09-30T09:42:39Z</time>
      </trkpt>
      <trkpt lat="45.93787" lon="4.86877">
        <ele>329</ele>
        <time>2018-09-30T09:42:40Z</time>
      </trkpt>
      <trkpt lat="45.93788" lon="4.86866">
        <ele>332</ele>
        <time>2018-09-30T09:42:42Z</time>
      </trkpt>
      <trkpt lat="45.93788" lon="4.86863">
        <ele>332</ele>
        <time>2018-09-30T09:42:43Z</time>
      </trkpt>
      <trkpt lat="45.9379" lon="4.86851">
        <ele>332</ele>
        <time>2018-09-30T09:42:45Z</time>
      </trkpt>
      <trkpt lat="45.9379" lon="4.86849">
        <ele>332</ele>
        <time>2018-09-30T09:42:46Z</time>
      </trkpt>
      <trkpt lat="45.93792" lon="4.86841">
        <ele>332</ele>
        <time>2018-09-30T09:42:47Z</time>
      </trkpt>
      <trkpt lat="45.93792" lon="4.86836">
        <ele>332</ele>
        <time>2018-09-30T09:42:48Z</time>
      </trkpt>
      <trkpt lat="45.93794" lon="4.86827">
        <ele>332</ele>
        <time>2018-09-30T09:42:50Z</time>
      </trkpt>
      <trkpt lat="45.93795" lon="4.86819">
        <ele>333</ele>
        <time>2018-09-30T09:42:51Z</time>
      </trkpt>
      <trkpt lat="45.93797" lon="4.86807">
        <ele>334</ele>
        <time>2018-09-30T09:42:53Z</time>
      </trkpt>
      <trkpt lat="45.93797" lon="4.86802">
        <ele>333</ele>
        <time>2018-09-30T09:42:54Z</time>
      </trkpt>
      <trkpt lat="45.93799" lon="4.8679">
        <ele>335</ele>
        <time>2018-09-30T09:42:56Z</time>
      </trkpt>
      <trkpt lat="45.938" lon="4.86785">
        <ele>337</ele>
        <time>2018-09-30T09:42:57Z</time>
      </trkpt>
      <trkpt lat="45.93802" lon="4.86779">
        <ele>338</ele>
        <time>2018-09-30T09:42:59Z</time>
      </trkpt>
      <trkpt lat="45.93803" lon="4.8677">
        <ele>338</ele>
        <time>2018-09-30T09:43:00Z</time>
      </trkpt>
      <trkpt lat="45.93805" lon="4.86759">
        <ele>338</ele>
        <time>2018-09-30T09:43:02Z</time>
      </trkpt>
      <trkpt lat="45.93806" lon="4.86754">
        <ele>338</ele>
        <time>2018-09-30T09:43:03Z</time>
      </trkpt>
      <trkpt lat="45.93807" lon="4.86743">
        <ele>339</ele>
        <time>2018-09-30T09:43:05Z</time>
      </trkpt>
      <trkpt lat="45.93808" lon="4.86738">
        <ele>339</ele>
        <time>2018-09-30T09:43:06Z</time>
      </trkpt>
      <trkpt lat="45.9381" lon="4.86726">
        <ele>339</ele>
        <time>2018-09-30T09:43:08Z</time>
      </trkpt>
      <trkpt lat="45.93811" lon="4.8672">
        <ele>339</ele>
        <time>2018-09-30T09:43:09Z</time>
      </trkpt>
      <trkpt lat="45.93811" lon="4.86714">
        <ele>339</ele>
        <time>2018-09-30T09:43:10Z</time>
      </trkpt>
      <trkpt lat="45.93812" lon="4.86707">
        <ele>338</ele>
        <time>2018-09-30T09:43:11Z</time>
      </trkpt>
      <trkpt lat="45.93813" lon="4.867">
        <ele>338</ele>
        <time>2018-09-30T09:43:12Z</time>
      </trkpt>
      <trkpt lat="45.93815" lon="4.86694">
        <ele>338</ele>
        <time>2018-09-30T09:43:13Z</time>
      </trkpt>
      <trkpt lat="45.93815" lon="4.86688">
        <ele>337</ele>
        <time>2018-09-30T09:43:14Z</time>
      </trkpt>
      <trkpt lat="45.93816" lon="4.86681">
        <ele>337</ele>
        <time>2018-09-30T09:43:15Z</time>
      </trkpt>
      <trkpt lat="45.93818" lon="4.86669">
        <ele>337</ele>
        <time>2018-09-30T09:43:17Z</time>
      </trkpt>
      <trkpt lat="45.93819" lon="4.86662">
        <ele>337</ele>
        <time>2018-09-30T09:43:18Z</time>
      </trkpt>
      <trkpt lat="45.93821" lon="4.86649">
        <ele>336</ele>
        <time>2018-09-30T09:43:20Z</time>
      </trkpt>
      <trkpt lat="45.93823" lon="4.86642">
        <ele>336</ele>
        <time>2018-09-30T09:43:21Z</time>
      </trkpt>
      <trkpt lat="45.93824" lon="4.86635">
        <ele>336</ele>
        <time>2018-09-30T09:43:22Z</time>
      </trkpt>
      <trkpt lat="45.93825" lon="4.86627">
        <ele>336</ele>
        <time>2018-09-30T09:43:23Z</time>
      </trkpt>
      <trkpt lat="45.93826" lon="4.86618">
        <ele>337</ele>
        <time>2018-09-30T09:43:24Z</time>
      </trkpt>
      <trkpt lat="45.93827" lon="4.86611">
        <ele>337</ele>
        <time>2018-09-30T09:43:25Z</time>
      </trkpt>
      <trkpt lat="45.93829" lon="4.86603">
        <ele>337</ele>
        <time>2018-09-30T09:43:26Z</time>
      </trkpt>
      <trkpt lat="45.93829" lon="4.86594">
        <ele>336</ele>
        <time>2018-09-30T09:43:27Z</time>
      </trkpt>
      <trkpt lat="45.93829" lon="4.86586">
        <ele>330</ele>
        <time>2018-09-30T09:43:28Z</time>
      </trkpt>
      <trkpt lat="45.93831" lon="4.86577">
        <ele>330</ele>
        <time>2018-09-30T09:43:29Z</time>
      </trkpt>
      <trkpt lat="45.93832" lon="4.86568">
        <ele>331</ele>
        <time>2018-09-30T09:43:30Z</time>
      </trkpt>
      <trkpt lat="45.93833" lon="4.86557">
        <ele>330</ele>
        <time>2018-09-30T09:43:31Z</time>
      </trkpt>
      <trkpt lat="45.93832" lon="4.86547">
        <ele>328</ele>
        <time>2018-09-30T09:43:32Z</time>
      </trkpt>
      <trkpt lat="45.93833" lon="4.86538">
        <ele>329</ele>
        <time>2018-09-30T09:43:33Z</time>
      </trkpt>
      <trkpt lat="45.93835" lon="4.8653">
        <ele>329</ele>
        <time>2018-09-30T09:43:34Z</time>
      </trkpt>
      <trkpt lat="45.93836" lon="4.86521">
        <ele>329</ele>
        <time>2018-09-30T09:43:35Z</time>
      </trkpt>
      <trkpt lat="45.93837" lon="4.86514">
        <ele>330</ele>
        <time>2018-09-30T09:43:36Z</time>
      </trkpt>
      <trkpt lat="45.93839" lon="4.86505">
        <ele>331</ele>
        <time>2018-09-30T09:43:37Z</time>
      </trkpt>
      <trkpt lat="45.9384" lon="4.86496">
        <ele>331</ele>
        <time>2018-09-30T09:43:38Z</time>
      </trkpt>
      <trkpt lat="45.93842" lon="4.86488">
        <ele>330</ele>
        <time>2018-09-30T09:43:39Z</time>
      </trkpt>
      <trkpt lat="45.93843" lon="4.86479">
        <ele>330</ele>
        <time>2018-09-30T09:43:40Z</time>
      </trkpt>
      <trkpt lat="45.93844" lon="4.8647">
        <ele>329</ele>
        <time>2018-09-30T09:43:41Z</time>
      </trkpt>
      <trkpt lat="45.93844" lon="4.86463">
        <ele>327</ele>
        <time>2018-09-30T09:43:42Z</time>
      </trkpt>
      <trkpt lat="45.93844" lon="4.86454">
        <ele>327</ele>
        <time>2018-09-30T09:43:43Z</time>
      </trkpt>
      <trkpt lat="45.93846" lon="4.86446">
        <ele>328</ele>
        <time>2018-09-30T09:43:44Z</time>
      </trkpt>
      <trkpt lat="45.93847" lon="4.86439">
        <ele>328</ele>
        <time>2018-09-30T09:43:45Z</time>
      </trkpt>
      <trkpt lat="45.93848" lon="4.86433">
        <ele>328</ele>
        <time>2018-09-30T09:43:46Z</time>
      </trkpt>
      <trkpt lat="45.93849" lon="4.86426">
        <ele>328</ele>
        <time>2018-09-30T09:43:47Z</time>
      </trkpt>
      <trkpt lat="45.93851" lon="4.86419">
        <ele>328</ele>
        <time>2018-09-30T09:43:48Z</time>
      </trkpt>
      <trkpt lat="45.93851" lon="4.86412">
        <ele>328</ele>
        <time>2018-09-30T09:43:49Z</time>
      </trkpt>
      <trkpt lat="45.93852" lon="4.86406">
        <ele>328</ele>
        <time>2018-09-30T09:43:50Z</time>
      </trkpt>
      <trkpt lat="45.93854" lon="4.86399">
        <ele>328</ele>
        <time>2018-09-30T09:43:51Z</time>
      </trkpt>
      <trkpt lat="45.93855" lon="4.86392">
        <ele>328</ele>
        <time>2018-09-30T09:43:52Z</time>
      </trkpt>
      <trkpt lat="45.93856" lon="4.86386">
        <ele>328</ele>
        <time>2018-09-30T09:43:53Z</time>
      </trkpt>
      <trkpt lat="45.93858" lon="4.86376">
        <ele>329</ele>
        <time>2018-09-30T09:43:55Z</time>
      </trkpt>
      <trkpt lat="45.9386" lon="4.86369">
        <ele>330</ele>
        <time>2018-09-30T09:43:56Z</time>
      </trkpt>
      <trkpt lat="45.93861" lon="4.86357">
        <ele>330</ele>
        <time>2018-09-30T09:43:58Z</time>
      </trkpt>
      <trkpt lat="45.93861" lon="4.86351">
        <ele>331</ele>
        <time>2018-09-30T09:43:59Z</time>
      </trkpt>
      <trkpt lat="45.93862" lon="4.86345">
        <ele>332</ele>
        <time>2018-09-30T09:44:00Z</time>
      </trkpt>
      <trkpt lat="45.93863" lon="4.86338">
        <ele>332</ele>
        <time>2018-09-30T09:44:01Z</time>
      </trkpt>
      <trkpt lat="45.93864" lon="4.86331">
        <ele>332</ele>
        <time>2018-09-30T09:44:02Z</time>
      </trkpt>
      <trkpt lat="45.93866" lon="4.86324">
        <ele>329</ele>
        <time>2018-09-30T09:44:03Z</time>
      </trkpt>
      <trkpt lat="45.93867" lon="4.86315">
        <ele>329</ele>
        <time>2018-09-30T09:44:04Z</time>
      </trkpt>
      <trkpt lat="45.93868" lon="4.86307">
        <ele>330</ele>
        <time>2018-09-30T09:44:05Z</time>
      </trkpt>
      <trkpt lat="45.9387" lon="4.86299">
        <ele>330</ele>
        <time>2018-09-30T09:44:06Z</time>
      </trkpt>
      <trkpt lat="45.93869" lon="4.8629">
        <ele>331</ele>
        <time>2018-09-30T09:44:07Z</time>
      </trkpt>
      <trkpt lat="45.9387" lon="4.86282">
        <ele>330</ele>
        <time>2018-09-30T09:44:08Z</time>
      </trkpt>
      <trkpt lat="45.93871" lon="4.86274">
        <ele>331</ele>
        <time>2018-09-30T09:44:09Z</time>
      </trkpt>
      <trkpt lat="45.93872" lon="4.86265">
        <ele>331</ele>
        <time>2018-09-30T09:44:10Z</time>
      </trkpt>
      <trkpt lat="45.93871" lon="4.86257">
        <ele>331</ele>
        <time>2018-09-30T09:44:11Z</time>
      </trkpt>
      <trkpt lat="45.93872" lon="4.86249">
        <ele>331</ele>
        <time>2018-09-30T09:44:12Z</time>
      </trkpt>
      <trkpt lat="45.93871" lon="4.86243">
        <ele>333</ele>
        <time>2018-09-30T09:44:13Z</time>
      </trkpt>
      <trkpt lat="45.93871" lon="4.86236">
        <ele>332</ele>
        <time>2018-09-30T09:44:14Z</time>
      </trkpt>
      <trkpt lat="45.93872" lon="4.86228">
        <ele>332</ele>
        <time>2018-09-30T09:44:15Z</time>
      </trkpt>
      <trkpt lat="45.93871" lon="4.8622">
        <ele>333</ele>
        <time>2018-09-30T09:44:16Z</time>
      </trkpt>
      <trkpt lat="45.9387" lon="4.86212">
        <ele>333</ele>
        <time>2018-09-30T09:44:17Z</time>
      </trkpt>
      <trkpt lat="45.93872" lon="4.86202">
        <ele>335</ele>
        <time>2018-09-30T09:44:18Z</time>
      </trkpt>
      <trkpt lat="45.93871" lon="4.86194">
        <ele>334</ele>
        <time>2018-09-30T09:44:19Z</time>
      </trkpt>
      <trkpt lat="45.93872" lon="4.86188">
        <ele>334</ele>
        <time>2018-09-30T09:44:20Z</time>
      </trkpt>
      <trkpt lat="45.93871" lon="4.86178">
        <ele>333</ele>
        <time>2018-09-30T09:44:21Z</time>
      </trkpt>
      <trkpt lat="45.9387" lon="4.8617">
        <ele>333</ele>
        <time>2018-09-30T09:44:22Z</time>
      </trkpt>
      <trkpt lat="45.93869" lon="4.86161">
        <ele>333</ele>
        <time>2018-09-30T09:44:23Z</time>
      </trkpt>
      <trkpt lat="45.93869" lon="4.86153">
        <ele>333</ele>
        <time>2018-09-30T09:44:24Z</time>
      </trkpt>
      <trkpt lat="45.93868" lon="4.86143">
        <ele>330</ele>
        <time>2018-09-30T09:44:25Z</time>
      </trkpt>
      <trkpt lat="45.93867" lon="4.86135">
        <ele>329</ele>
        <time>2018-09-30T09:44:26Z</time>
      </trkpt>
      <trkpt lat="45.93867" lon="4.86126">
        <ele>331</ele>
        <time>2018-09-30T09:44:27Z</time>
      </trkpt>
      <trkpt lat="45.93867" lon="4.8612">
        <ele>331</ele>
        <time>2018-09-30T09:44:28Z</time>
      </trkpt>
      <trkpt lat="45.93867" lon="4.86111">
        <ele>330</ele>
        <time>2018-09-30T09:44:29Z</time>
      </trkpt>
      <trkpt lat="45.93867" lon="4.86101">
        <ele>330</ele>
        <time>2018-09-30T09:44:30Z</time>
      </trkpt>
      <trkpt lat="45.93867" lon="4.86091">
        <ele>330</ele>
        <time>2018-09-30T09:44:31Z</time>
      </trkpt>
      <trkpt lat="45.93867" lon="4.86082">
        <ele>331</ele>
        <time>2018-09-30T09:44:32Z</time>
      </trkpt>
      <trkpt lat="45.93865" lon="4.86072">
        <ele>331</ele>
        <time>2018-09-30T09:44:33Z</time>
      </trkpt>
      <trkpt lat="45.93863" lon="4.86062">
        <ele>331</ele>
        <time>2018-09-30T09:44:34Z</time>
      </trkpt>
      <trkpt lat="45.93861" lon="4.86053">
        <ele>329</ele>
        <time>2018-09-30T09:44:35Z</time>
      </trkpt>
      <trkpt lat="45.93862" lon="4.86044">
        <ele>330</ele>
        <time>2018-09-30T09:44:36Z</time>
      </trkpt>
      <trkpt lat="45.93861" lon="4.86035">
        <ele>330</ele>
        <time>2018-09-30T09:44:37Z</time>
      </trkpt>
      <trkpt lat="45.9386" lon="4.86027">
        <ele>329</ele>
        <time>2018-09-30T09:44:38Z</time>
      </trkpt>
      <trkpt lat="45.93859" lon="4.8602">
        <ele>329</ele>
        <time>2018-09-30T09:44:39Z</time>
      </trkpt>
      <trkpt lat="45.93858" lon="4.86012">
        <ele>329</ele>
        <time>2018-09-30T09:44:40Z</time>
      </trkpt>
      <trkpt lat="45.93858" lon="4.86004">
        <ele>328</ele>
        <time>2018-09-30T09:44:41Z</time>
      </trkpt>
      <trkpt lat="45.93857" lon="4.85996">
        <ele>329</ele>
        <time>2018-09-30T09:44:42Z</time>
      </trkpt>
      <trkpt lat="45.93857" lon="4.85988">
        <ele>329</ele>
        <time>2018-09-30T09:44:43Z</time>
      </trkpt>
      <trkpt lat="45.93856" lon="4.8598">
        <ele>329</ele>
        <time>2018-09-30T09:44:44Z</time>
      </trkpt>
      <trkpt lat="45.93856" lon="4.85971">
        <ele>329</ele>
        <time>2018-09-30T09:44:45Z</time>
      </trkpt>
      <trkpt lat="45.93854" lon="4.85962">
        <ele>328</ele>
        <time>2018-09-30T09:44:46Z</time>
      </trkpt>
      <trkpt lat="45.93854" lon="4.85951">
        <ele>327</ele>
        <time>2018-09-30T09:44:47Z</time>
      </trkpt>
      <trkpt lat="45.93854" lon="4.85943">
        <ele>327</ele>
        <time>2018-09-30T09:44:48Z</time>
      </trkpt>
      <trkpt lat="45.93852" lon="4.85934">
        <ele>326</ele>
        <time>2018-09-30T09:44:49Z</time>
      </trkpt>
      <trkpt lat="45.93851" lon="4.85925">
        <ele>326</ele>
        <time>2018-09-30T09:44:50Z</time>
      </trkpt>
      <trkpt lat="45.9385" lon="4.85918">
        <ele>327</ele>
        <time>2018-09-30T09:44:51Z</time>
      </trkpt>
      <trkpt lat="45.9385" lon="4.8591">
        <ele>327</ele>
        <time>2018-09-30T09:44:52Z</time>
      </trkpt>
      <trkpt lat="45.93848" lon="4.85901">
        <ele>327</ele>
        <time>2018-09-30T09:44:53Z</time>
      </trkpt>
      <trkpt lat="45.93848" lon="4.85895">
        <ele>328</ele>
        <time>2018-09-30T09:44:54Z</time>
      </trkpt>
      <trkpt lat="45.93846" lon="4.85887">
        <ele>327</ele>
        <time>2018-09-30T09:44:55Z</time>
      </trkpt>
      <trkpt lat="45.93844" lon="4.85879">
        <ele>327</ele>
        <time>2018-09-30T09:44:56Z</time>
      </trkpt>
      <trkpt lat="45.93842" lon="4.85871">
        <ele>326</ele>
        <time>2018-09-30T09:44:57Z</time>
      </trkpt>
      <trkpt lat="45.93841" lon="4.85862">
        <ele>326</ele>
        <time>2018-09-30T09:44:58Z</time>
      </trkpt>
      <trkpt lat="45.93839" lon="4.85856">
        <ele>325</ele>
        <time>2018-09-30T09:44:59Z</time>
      </trkpt>
      <trkpt lat="45.93839" lon="4.85848">
        <ele>325</ele>
        <time>2018-09-30T09:45:00Z</time>
      </trkpt>
      <trkpt lat="45.93838" lon="4.8584">
        <ele>325</ele>
        <time>2018-09-30T09:45:01Z</time>
      </trkpt>
      <trkpt lat="45.93836" lon="4.85833">
        <ele>323</ele>
        <time>2018-09-30T09:45:02Z</time>
      </trkpt>
      <trkpt lat="45.93836" lon="4.85825">
        <ele>323</ele>
        <time>2018-09-30T09:45:03Z</time>
      </trkpt>
      <trkpt lat="45.93835" lon="4.85817">
        <ele>323</ele>
        <time>2018-09-30T09:45:04Z</time>
      </trkpt>
      <trkpt lat="45.93835" lon="4.8581">
        <ele>324</ele>
        <time>2018-09-30T09:45:05Z</time>
      </trkpt>
      <trkpt lat="45.93834" lon="4.85802">
        <ele>325</ele>
        <time>2018-09-30T09:45:06Z</time>
      </trkpt>
      <trkpt lat="45.93832" lon="4.85795">
        <ele>324</ele>
        <time>2018-09-30T09:45:07Z</time>
      </trkpt>
      <trkpt lat="45.9383" lon="4.85786">
        <ele>324</ele>
        <time>2018-09-30T09:45:08Z</time>
      </trkpt>
      <trkpt lat="45.93829" lon="4.85777">
        <ele>325</ele>
        <time>2018-09-30T09:45:09Z</time>
      </trkpt>
      <trkpt lat="45.93827" lon="4.85769">
        <ele>325</ele>
        <time>2018-09-30T09:45:10Z</time>
      </trkpt>
      <trkpt lat="45.93826" lon="4.85761">
        <ele>325</ele>
        <time>2018-09-30T09:45:11Z</time>
      </trkpt>
      <trkpt lat="45.93825" lon="4.85753">
        <ele>325</ele>
        <time>2018-09-30T09:45:12Z</time>
      </trkpt>
      <trkpt lat="45.93824" lon="4.85745">
        <ele>327</ele>
        <time>2018-09-30T09:45:13Z</time>
      </trkpt>
      <trkpt lat="45.93822" lon="4.85737">
        <ele>327</ele>
        <time>2018-09-30T09:45:14Z</time>
      </trkpt>
      <trkpt lat="45.93821" lon="4.8573">
        <ele>327</ele>
        <time>2018-09-30T09:45:15Z</time>
      </trkpt>
      <trkpt lat="45.93819" lon="4.85721">
        <ele>326</ele>
        <time>2018-09-30T09:45:16Z</time>
      </trkpt>
      <trkpt lat="45.93818" lon="4.85715">
        <ele>326</ele>
        <time>2018-09-30T09:45:17Z</time>
      </trkpt>
      <trkpt lat="45.93817" lon="4.85703">
        <ele>326</ele>
        <time>2018-09-30T09:45:19Z</time>
      </trkpt>
      <trkpt lat="45.93815" lon="4.85694">
        <ele>325</ele>
        <time>2018-09-30T09:45:20Z</time>
      </trkpt>
      <trkpt lat="45.93814" lon="4.85686">
        <ele>324</ele>
        <time>2018-09-30T09:45:21Z</time>
      </trkpt>
      <trkpt lat="45.93813" lon="4.85679">
        <ele>324</ele>
        <time>2018-09-30T09:45:22Z</time>
      </trkpt>
      <trkpt lat="45.93814" lon="4.8567">
        <ele>325</ele>
        <time>2018-09-30T09:45:23Z</time>
      </trkpt>
      <trkpt lat="45.93813" lon="4.85663">
        <ele>325</ele>
        <time>2018-09-30T09:45:24Z</time>
      </trkpt>
      <trkpt lat="45.93813" lon="4.85655">
        <ele>323</ele>
        <time>2018-09-30T09:45:25Z</time>
      </trkpt>
      <trkpt lat="45.93813" lon="4.85646">
        <ele>323</ele>
        <time>2018-09-30T09:45:26Z</time>
      </trkpt>
      <trkpt lat="45.93813" lon="4.85636">
        <ele>323</ele>
        <time>2018-09-30T09:45:27Z</time>
      </trkpt>
      <trkpt lat="45.93812" lon="4.85627">
        <ele>323</ele>
        <time>2018-09-30T09:45:28Z</time>
      </trkpt>
      <trkpt lat="45.93815" lon="4.85616">
        <ele>324</ele>
        <time>2018-09-30T09:45:29Z</time>
      </trkpt>
      <trkpt lat="45.93816" lon="4.85607">
        <ele>324</ele>
        <time>2018-09-30T09:45:30Z</time>
      </trkpt>
      <trkpt lat="45.93816" lon="4.85599">
        <ele>323</ele>
        <time>2018-09-30T09:45:31Z</time>
      </trkpt>
      <trkpt lat="45.93817" lon="4.8559">
        <ele>323</ele>
        <time>2018-09-30T09:45:32Z</time>
      </trkpt>
      <trkpt lat="45.93817" lon="4.85581">
        <ele>323</ele>
        <time>2018-09-30T09:45:33Z</time>
      </trkpt>
      <trkpt lat="45.93817" lon="4.85573">
        <ele>323</ele>
        <time>2018-09-30T09:45:34Z</time>
      </trkpt>
      <trkpt lat="45.93818" lon="4.85564">
        <ele>324</ele>
        <time>2018-09-30T09:45:35Z</time>
      </trkpt>
      <trkpt lat="45.93819" lon="4.85555">
        <ele>324</ele>
        <time>2018-09-30T09:45:36Z</time>
      </trkpt>
      <trkpt lat="45.9382" lon="4.85548">
        <ele>324</ele>
        <time>2018-09-30T09:45:37Z</time>
      </trkpt>
      <trkpt lat="45.93821" lon="4.8554">
        <ele>324</ele>
        <time>2018-09-30T09:45:38Z</time>
      </trkpt>
      <trkpt lat="45.93823" lon="4.85533">
        <ele>323</ele>
        <time>2018-09-30T09:45:39Z</time>
      </trkpt>
      <trkpt lat="45.93824" lon="4.85524">
        <ele>277</ele>
        <time>2018-09-30T09:45:40Z</time>
      </trkpt>
      <trkpt lat="45.93825" lon="4.85518">
        <ele>323</ele>
        <time>2018-09-30T09:45:41Z</time>
      </trkpt>
      <trkpt lat="45.93825" lon="4.85511">
        <ele>261</ele>
        <time>2018-09-30T09:45:42Z</time>
      </trkpt>
      <trkpt lat="45.93828" lon="4.85499">
        <ele>269</ele>
        <time>2018-09-30T09:45:44Z</time>
      </trkpt>
      <trkpt lat="45.93829" lon="4.85491">
        <ele>278</ele>
        <time>2018-09-30T09:45:45Z</time>
      </trkpt>
      <trkpt lat="45.93831" lon="4.85482">
        <ele>290</ele>
        <time>2018-09-30T09:45:46Z</time>
      </trkpt>
      <trkpt lat="45.93833" lon="4.85475">
        <ele>297</ele>
        <time>2018-09-30T09:45:47Z</time>
      </trkpt>
      <trkpt lat="45.93834" lon="4.85468">
        <ele>303</ele>
        <time>2018-09-30T09:45:48Z</time>
      </trkpt>
      <trkpt lat="45.93835" lon="4.8546">
        <ele>306</ele>
        <time>2018-09-30T09:45:49Z</time>
      </trkpt>
      <trkpt lat="45.93837" lon="4.85448">
        <ele>313</ele>
        <time>2018-09-30T09:45:51Z</time>
      </trkpt>
      <trkpt lat="45.93837" lon="4.85442">
        <ele>316</ele>
        <time>2018-09-30T09:45:52Z</time>
      </trkpt>
      <trkpt lat="45.9384" lon="4.8543">
        <ele>320</ele>
        <time>2018-09-30T09:45:54Z</time>
      </trkpt>
      <trkpt lat="45.93841" lon="4.85424">
        <ele>321</ele>
        <time>2018-09-30T09:45:55Z</time>
      </trkpt>
      <trkpt lat="45.93842" lon="4.85419">
        <ele>320</ele>
        <time>2018-09-30T09:45:56Z</time>
      </trkpt>
      <trkpt lat="45.93845" lon="4.85412">
        <ele>319</ele>
        <time>2018-09-30T09:45:57Z</time>
      </trkpt>
      <trkpt lat="45.93847" lon="4.85406">
        <ele>318</ele>
        <time>2018-09-30T09:45:58Z</time>
      </trkpt>
      <trkpt lat="45.93849" lon="4.85397">
        <ele>318</ele>
        <time>2018-09-30T09:45:59Z</time>
      </trkpt>
      <trkpt lat="45.93851" lon="4.85389">
        <ele>318</ele>
        <time>2018-09-30T09:46:00Z</time>
      </trkpt>
      <trkpt lat="45.93853" lon="4.85379">
        <ele>318</ele>
        <time>2018-09-30T09:46:01Z</time>
      </trkpt>
      <trkpt lat="45.93855" lon="4.8537">
        <ele>318</ele>
        <time>2018-09-30T09:46:02Z</time>
      </trkpt>
      <trkpt lat="45.93857" lon="4.85361">
        <ele>283</ele>
        <time>2018-09-30T09:46:03Z</time>
      </trkpt>
      <trkpt lat="45.93859" lon="4.85351">
        <ele>291</ele>
        <time>2018-09-30T09:46:04Z</time>
      </trkpt>
      <trkpt lat="45.93861" lon="4.85341">
        <ele>297</ele>
        <time>2018-09-30T09:46:05Z</time>
      </trkpt>
      <trkpt lat="45.93865" lon="4.85332">
        <ele>300</ele>
        <time>2018-09-30T09:46:06Z</time>
      </trkpt>
      <trkpt lat="45.93867" lon="4.85321">
        <ele>304</ele>
        <time>2018-09-30T09:46:07Z</time>
      </trkpt>
      <trkpt lat="45.9387" lon="4.8531">
        <ele>306</ele>
        <time>2018-09-30T09:46:08Z</time>
      </trkpt>
      <trkpt lat="45.93871" lon="4.85297">
        <ele>310</ele>
        <time>2018-09-30T09:46:09Z</time>
      </trkpt>
      <trkpt lat="45.93872" lon="4.85285">
        <ele>313</ele>
        <time>2018-09-30T09:46:10Z</time>
      </trkpt>
      <trkpt lat="45.93873" lon="4.85273">
        <ele>314</ele>
        <time>2018-09-30T09:46:11Z</time>
      </trkpt>
      <trkpt lat="45.93873" lon="4.85261">
        <ele>316</ele>
        <time>2018-09-30T09:46:12Z</time>
      </trkpt>
      <trkpt lat="45.93874" lon="4.85249">
        <ele>316</ele>
        <time>2018-09-30T09:46:13Z</time>
      </trkpt>
      <trkpt lat="45.93873" lon="4.85239">
        <ele>318</ele>
        <time>2018-09-30T09:46:14Z</time>
      </trkpt>
      <trkpt lat="45.93873" lon="4.85226">
        <ele>318</ele>
        <time>2018-09-30T09:46:15Z</time>
      </trkpt>
      <trkpt lat="45.93871" lon="4.85214">
        <ele>321</ele>
        <time>2018-09-30T09:46:16Z</time>
      </trkpt>
      <trkpt lat="45.93872" lon="4.85203">
        <ele>321</ele>
        <time>2018-09-30T09:46:17Z</time>
      </trkpt>
      <trkpt lat="45.93872" lon="4.8519">
        <ele>321</ele>
        <time>2018-09-30T09:46:18Z</time>
      </trkpt>
      <trkpt lat="45.93871" lon="4.85179">
        <ele>320</ele>
        <time>2018-09-30T09:46:19Z</time>
      </trkpt>
      <trkpt lat="45.93871" lon="4.85167">
        <ele>319</ele>
        <time>2018-09-30T09:46:20Z</time>
      </trkpt>
      <trkpt lat="45.9387" lon="4.85155">
        <ele>319</ele>
        <time>2018-09-30T09:46:21Z</time>
      </trkpt>
      <trkpt lat="45.9387" lon="4.8514">
        <ele>319</ele>
        <time>2018-09-30T09:46:22Z</time>
      </trkpt>
      <trkpt lat="45.93869" lon="4.85128">
        <ele>319</ele>
        <time>2018-09-30T09:46:23Z</time>
      </trkpt>
      <trkpt lat="45.93867" lon="4.85114">
        <ele>319</ele>
        <time>2018-09-30T09:46:24Z</time>
      </trkpt>
      <trkpt lat="45.93866" lon="4.85102">
        <ele>281</ele>
        <time>2018-09-30T09:46:25Z</time>
      </trkpt>
      <trkpt lat="45.93865" lon="4.85092">
        <ele>293</ele>
        <time>2018-09-30T09:46:26Z</time>
      </trkpt>
      <trkpt lat="45.93864" lon="4.85082">
        <ele>300</ele>
        <time>2018-09-30T09:46:27Z</time>
      </trkpt>
      <trkpt lat="45.93863" lon="4.85071">
        <ele>306</ele>
        <time>2018-09-30T09:46:28Z</time>
      </trkpt>
      <trkpt lat="45.93862" lon="4.8506">
        <ele>310</ele>
        <time>2018-09-30T09:46:29Z</time>
      </trkpt>
      <trkpt lat="45.93862" lon="4.8505">
        <ele>314</ele>
        <time>2018-09-30T09:46:30Z</time>
      </trkpt>
      <trkpt lat="45.93862" lon="4.85039">
        <ele>315</ele>
        <time>2018-09-30T09:46:31Z</time>
      </trkpt>
      <trkpt lat="45.9386" lon="4.85028">
        <ele>320</ele>
        <time>2018-09-30T09:46:32Z</time>
      </trkpt>
      <trkpt lat="45.93859" lon="4.85019">
        <ele>320</ele>
        <time>2018-09-30T09:46:33Z</time>
      </trkpt>
      <trkpt lat="45.93858" lon="4.85009">
        <ele>321</ele>
        <time>2018-09-30T09:46:34Z</time>
      </trkpt>
      <trkpt lat="45.93858" lon="4.85">
        <ele>321</ele>
        <time>2018-09-30T09:46:35Z</time>
      </trkpt>
      <trkpt lat="45.93856" lon="4.8499">
        <ele>320</ele>
        <time>2018-09-30T09:46:36Z</time>
      </trkpt>
      <trkpt lat="45.93855" lon="4.84981">
        <ele>321</ele>
        <time>2018-09-30T09:46:37Z</time>
      </trkpt>
      <trkpt lat="45.93854" lon="4.84973">
        <ele>321</ele>
        <time>2018-09-30T09:46:38Z</time>
      </trkpt>
      <trkpt lat="45.93853" lon="4.84964">
        <ele>320</ele>
        <time>2018-09-30T09:46:39Z</time>
      </trkpt>
      <trkpt lat="45.93853" lon="4.84956">
        <ele>318</ele>
        <time>2018-09-30T09:46:40Z</time>
      </trkpt>
      <trkpt lat="45.93853" lon="4.84947">
        <ele>318</ele>
        <time>2018-09-30T09:46:41Z</time>
      </trkpt>
      <trkpt lat="45.93852" lon="4.84939">
        <ele>318</ele>
        <time>2018-09-30T09:46:42Z</time>
      </trkpt>
      <trkpt lat="45.93851" lon="4.84931">
        <ele>316</ele>
        <time>2018-09-30T09:46:43Z</time>
      </trkpt>
      <trkpt lat="45.93851" lon="4.84924">
        <ele>315</ele>
        <time>2018-09-30T09:46:44Z</time>
      </trkpt>
      <trkpt lat="45.9385" lon="4.84916">
        <ele>315</ele>
        <time>2018-09-30T09:46:45Z</time>
      </trkpt>
      <trkpt lat="45.93847" lon="4.84907">
        <ele>314</ele>
        <time>2018-09-30T09:46:46Z</time>
      </trkpt>
      <trkpt lat="45.93847" lon="4.84899">
        <ele>314</ele>
        <time>2018-09-30T09:46:47Z</time>
      </trkpt>
      <trkpt lat="45.93847" lon="4.8489">
        <ele>312</ele>
        <time>2018-09-30T09:46:48Z</time>
      </trkpt>
      <trkpt lat="45.93846" lon="4.84881">
        <ele>313</ele>
        <time>2018-09-30T09:46:49Z</time>
      </trkpt>
      <trkpt lat="45.93848" lon="4.84872">
        <ele>311</ele>
        <time>2018-09-30T09:46:50Z</time>
      </trkpt>
      <trkpt lat="45.93847" lon="4.84863">
        <ele>311</ele>
        <time>2018-09-30T09:46:51Z</time>
      </trkpt>
      <trkpt lat="45.93847" lon="4.84856">
        <ele>311</ele>
        <time>2018-09-30T09:46:52Z</time>
      </trkpt>
      <trkpt lat="45.93846" lon="4.84848">
        <ele>312</ele>
        <time>2018-09-30T09:46:53Z</time>
      </trkpt>
      <trkpt lat="45.93845" lon="4.84839">
        <ele>312</ele>
        <time>2018-09-30T09:46:54Z</time>
      </trkpt>
      <trkpt lat="45.93845" lon="4.84831">
        <ele>312</ele>
        <time>2018-09-30T09:46:55Z</time>
      </trkpt>
      <trkpt lat="45.93845" lon="4.84823">
        <ele>313</ele>
        <time>2018-09-30T09:46:56Z</time>
      </trkpt>
      <trkpt lat="45.93843" lon="4.84816">
        <ele>313</ele>
        <time>2018-09-30T09:46:57Z</time>
      </trkpt>
      <trkpt lat="45.93843" lon="4.84807">
        <ele>313</ele>
        <time>2018-09-30T09:46:58Z</time>
      </trkpt>
      <trkpt lat="45.93841" lon="4.84798">
        <ele>313</ele>
        <time>2018-09-30T09:46:59Z</time>
      </trkpt>
      <trkpt lat="45.9384" lon="4.84791">
        <ele>312</ele>
        <time>2018-09-30T09:47:00Z</time>
      </trkpt>
      <trkpt lat="45.93839" lon="4.84782">
        <ele>312</ele>
        <time>2018-09-30T09:47:01Z</time>
      </trkpt>
      <trkpt lat="45.93838" lon="4.84774">
        <ele>311</ele>
        <time>2018-09-30T09:47:02Z</time>
      </trkpt>
      <trkpt lat="45.93836" lon="4.84765">
        <ele>312</ele>
        <time>2018-09-30T09:47:03Z</time>
      </trkpt>
      <trkpt lat="45.93833" lon="4.84755">
        <ele>315</ele>
        <time>2018-09-30T09:47:04Z</time>
      </trkpt>
      <trkpt lat="45.93829" lon="4.84745">
        <ele>313</ele>
        <time>2018-09-30T09:47:05Z</time>
      </trkpt>
      <trkpt lat="45.93829" lon="4.84737">
        <ele>312</ele>
        <time>2018-09-30T09:47:06Z</time>
      </trkpt>
      <trkpt lat="45.93828" lon="4.84727">
        <ele>312</ele>
        <time>2018-09-30T09:47:07Z</time>
      </trkpt>
      <trkpt lat="45.93826" lon="4.84718">
        <ele>311</ele>
        <time>2018-09-30T09:47:08Z</time>
      </trkpt>
      <trkpt lat="45.93826" lon="4.8471">
        <ele>311</ele>
        <time>2018-09-30T09:47:09Z</time>
      </trkpt>
      <trkpt lat="45.93823" lon="4.84702">
        <ele>311</ele>
        <time>2018-09-30T09:47:10Z</time>
      </trkpt>
      <trkpt lat="45.93821" lon="4.84692">
        <ele>310</ele>
        <time>2018-09-30T09:47:11Z</time>
      </trkpt>
      <trkpt lat="45.9382" lon="4.84685">
        <ele>311</ele>
        <time>2018-09-30T09:47:12Z</time>
      </trkpt>
      <trkpt lat="45.93819" lon="4.84677">
        <ele>311</ele>
        <time>2018-09-30T09:47:13Z</time>
      </trkpt>
      <trkpt lat="45.93817" lon="4.84669">
        <ele>310</ele>
        <time>2018-09-30T09:47:14Z</time>
      </trkpt>
      <trkpt lat="45.93815" lon="4.8466">
        <ele>317</ele>
        <time>2018-09-30T09:47:15Z</time>
      </trkpt>
      <trkpt lat="45.93814" lon="4.84652">
        <ele>316</ele>
        <time>2018-09-30T09:47:16Z</time>
      </trkpt>
      <trkpt lat="45.93812" lon="4.84643">
        <ele>316</ele>
        <time>2018-09-30T09:47:17Z</time>
      </trkpt>
      <trkpt lat="45.93811" lon="4.84634">
        <ele>289</ele>
        <time>2018-09-30T09:47:18Z</time>
      </trkpt>
      <trkpt lat="45.93809" lon="4.84625">
        <ele>287</ele>
        <time>2018-09-30T09:47:19Z</time>
      </trkpt>
      <trkpt lat="45.93808" lon="4.84616">
        <ele>295</ele>
        <time>2018-09-30T09:47:20Z</time>
      </trkpt>
      <trkpt lat="45.93807" lon="4.84608">
        <ele>288</ele>
        <time>2018-09-30T09:47:21Z</time>
      </trkpt>
      <trkpt lat="45.93806" lon="4.84599">
        <ele>294</ele>
        <time>2018-09-30T09:47:22Z</time>
      </trkpt>
      <trkpt lat="45.93805" lon="4.84591">
        <ele>299</ele>
        <time>2018-09-30T09:47:23Z</time>
      </trkpt>
      <trkpt lat="45.93805" lon="4.84584">
        <ele>303</ele>
        <time>2018-09-30T09:47:24Z</time>
      </trkpt>
      <trkpt lat="45.93804" lon="4.84575">
        <ele>291</ele>
        <time>2018-09-30T09:47:25Z</time>
      </trkpt>
      <trkpt lat="45.93802" lon="4.84567">
        <ele>297</ele>
        <time>2018-09-30T09:47:26Z</time>
      </trkpt>
      <trkpt lat="45.93802" lon="4.84558">
        <ele>304</ele>
        <time>2018-09-30T09:47:27Z</time>
      </trkpt>
      <trkpt lat="45.938" lon="4.84549">
        <ele>307</ele>
        <time>2018-09-30T09:47:28Z</time>
      </trkpt>
      <trkpt lat="45.93798" lon="4.8454">
        <ele>308</ele>
        <time>2018-09-30T09:47:29Z</time>
      </trkpt>
      <trkpt lat="45.93797" lon="4.84531">
        <ele>310</ele>
        <time>2018-09-30T09:47:30Z</time>
      </trkpt>
      <trkpt lat="45.93796" lon="4.84522">
        <ele>311</ele>
        <time>2018-09-30T09:47:31Z</time>
      </trkpt>
      <trkpt lat="45.93795" lon="4.84513">
        <ele>311</ele>
        <time>2018-09-30T09:47:32Z</time>
      </trkpt>
      <trkpt lat="45.93794" lon="4.84504">
        <ele>315</ele>
        <time>2018-09-30T09:47:33Z</time>
      </trkpt>
      <trkpt lat="45.93792" lon="4.84496">
        <ele>314</ele>
        <time>2018-09-30T09:47:34Z</time>
      </trkpt>
      <trkpt lat="45.9379" lon="4.84488">
        <ele>315</ele>
        <time>2018-09-30T09:47:35Z</time>
      </trkpt>
      <trkpt lat="45.93789" lon="4.84481">
        <ele>314</ele>
        <time>2018-09-30T09:47:36Z</time>
      </trkpt>
      <trkpt lat="45.93787" lon="4.84472">
        <ele>315</ele>
        <time>2018-09-30T09:47:37Z</time>
      </trkpt>
      <trkpt lat="45.93785" lon="4.84465">
        <ele>314</ele>
        <time>2018-09-30T09:47:38Z</time>
      </trkpt>
      <trkpt lat="45.93784" lon="4.84457">
        <ele>313</ele>
        <time>2018-09-30T09:47:39Z</time>
      </trkpt>
      <trkpt lat="45.93783" lon="4.84451">
        <ele>312</ele>
        <time>2018-09-30T09:47:40Z</time>
      </trkpt>
      <trkpt lat="45.93782" lon="4.84443">
        <ele>311</ele>
        <time>2018-09-30T09:47:41Z</time>
      </trkpt>
      <trkpt lat="45.9378" lon="4.84436">
        <ele>312</ele>
        <time>2018-09-30T09:47:42Z</time>
      </trkpt>
      <trkpt lat="45.93779" lon="4.84428">
        <ele>312</ele>
        <time>2018-09-30T09:47:43Z</time>
      </trkpt>
      <trkpt lat="45.93777" lon="4.84421">
        <ele>311</ele>
        <time>2018-09-30T09:47:44Z</time>
      </trkpt>
      <trkpt lat="45.93776" lon="4.84413">
        <ele>312</ele>
        <time>2018-09-30T09:47:45Z</time>
      </trkpt>
      <trkpt lat="45.93775" lon="4.84405">
        <ele>313</ele>
        <time>2018-09-30T09:47:46Z</time>
      </trkpt>
      <trkpt lat="45.93774" lon="4.84398">
        <ele>314</ele>
        <time>2018-09-30T09:47:47Z</time>
      </trkpt>
      <trkpt lat="45.93773" lon="4.84389">
        <ele>316</ele>
        <time>2018-09-30T09:47:48Z</time>
      </trkpt>
      <trkpt lat="45.93772" lon="4.8438">
        <ele>316</ele>
        <time>2018-09-30T09:47:49Z</time>
      </trkpt>
      <trkpt lat="45.9377" lon="4.84372">
        <ele>316</ele>
        <time>2018-09-30T09:47:50Z</time>
      </trkpt>
      <trkpt lat="45.93768" lon="4.84363">
        <ele>316</ele>
        <time>2018-09-30T09:47:51Z</time>
      </trkpt>
      <trkpt lat="45.93767" lon="4.84355">
        <ele>316</ele>
        <time>2018-09-30T09:47:52Z</time>
      </trkpt>
      <trkpt lat="45.93767" lon="4.84345">
        <ele>315</ele>
        <time>2018-09-30T09:47:53Z</time>
      </trkpt>
      <trkpt lat="45.93764" lon="4.84338">
        <ele>315</ele>
        <time>2018-09-30T09:47:54Z</time>
      </trkpt>
      <trkpt lat="45.93763" lon="4.8433">
        <ele>315</ele>
        <time>2018-09-30T09:47:55Z</time>
      </trkpt>
      <trkpt lat="45.93763" lon="4.84322">
        <ele>315</ele>
        <time>2018-09-30T09:47:56Z</time>
      </trkpt>
      <trkpt lat="45.93762" lon="4.84314">
        <ele>317</ele>
        <time>2018-09-30T09:47:57Z</time>
      </trkpt>
      <trkpt lat="45.93761" lon="4.84307">
        <ele>318</ele>
        <time>2018-09-30T09:47:58Z</time>
      </trkpt>
      <trkpt lat="45.93759" lon="4.84299">
        <ele>318</ele>
        <time>2018-09-30T09:47:59Z</time>
      </trkpt>
      <trkpt lat="45.93758" lon="4.84293">
        <ele>318</ele>
        <time>2018-09-30T09:48:00Z</time>
      </trkpt>
      <trkpt lat="45.93757" lon="4.84285">
        <ele>321</ele>
        <time>2018-09-30T09:48:01Z</time>
      </trkpt>
      <trkpt lat="45.93756" lon="4.84276">
        <ele>320</ele>
        <time>2018-09-30T09:48:02Z</time>
      </trkpt>
      <trkpt lat="45.93754" lon="4.84268">
        <ele>319</ele>
        <time>2018-09-30T09:48:03Z</time>
      </trkpt>
      <trkpt lat="45.93753" lon="4.84261">
        <ele>318</ele>
        <time>2018-09-30T09:48:04Z</time>
      </trkpt>
      <trkpt lat="45.93753" lon="4.84253">
        <ele>319</ele>
        <time>2018-09-30T09:48:05Z</time>
      </trkpt>
      <trkpt lat="45.93752" lon="4.84245">
        <ele>318</ele>
        <time>2018-09-30T09:48:06Z</time>
      </trkpt>
      <trkpt lat="45.93751" lon="4.84238">
        <ele>317</ele>
        <time>2018-09-30T09:48:07Z</time>
      </trkpt>
      <trkpt lat="45.9375" lon="4.84232">
        <ele>311</ele>
        <time>2018-09-30T09:48:08Z</time>
      </trkpt>
      <trkpt lat="45.93749" lon="4.84224">
        <ele>312</ele>
        <time>2018-09-30T09:48:09Z</time>
      </trkpt>
      <trkpt lat="45.93749" lon="4.84216">
        <ele>313</ele>
        <time>2018-09-30T09:48:10Z</time>
      </trkpt>
      <trkpt lat="45.93749" lon="4.84209">
        <ele>314</ele>
        <time>2018-09-30T09:48:11Z</time>
      </trkpt>
      <trkpt lat="45.93749" lon="4.84201">
        <ele>314</ele>
        <time>2018-09-30T09:48:12Z</time>
      </trkpt>
      <trkpt lat="45.93747" lon="4.84193">
        <ele>314</ele>
        <time>2018-09-30T09:48:13Z</time>
      </trkpt>
      <trkpt lat="45.93746" lon="4.84184">
        <ele>315</ele>
        <time>2018-09-30T09:48:14Z</time>
      </trkpt>
      <trkpt lat="45.93746" lon="4.84175">
        <ele>314</ele>
        <time>2018-09-30T09:48:15Z</time>
      </trkpt>
      <trkpt lat="45.93746" lon="4.84166">
        <ele>315</ele>
        <time>2018-09-30T09:48:16Z</time>
      </trkpt>
      <trkpt lat="45.93745" lon="4.84157">
        <ele>317</ele>
        <time>2018-09-30T09:48:17Z</time>
      </trkpt>
      <trkpt lat="45.93745" lon="4.8415">
        <ele>317</ele>
        <time>2018-09-30T09:48:18Z</time>
      </trkpt>
      <trkpt lat="45.93745" lon="4.8414">
        <ele>317</ele>
        <time>2018-09-30T09:48:19Z</time>
      </trkpt>
      <trkpt lat="45.93745" lon="4.84131">
        <ele>317</ele>
        <time>2018-09-30T09:48:20Z</time>
      </trkpt>
      <trkpt lat="45.93745" lon="4.84122">
        <ele>317</ele>
        <time>2018-09-30T09:48:21Z</time>
      </trkpt>
      <trkpt lat="45.93745" lon="4.84112">
        <ele>316</ele>
        <time>2018-09-30T09:48:22Z</time>
      </trkpt>
      <trkpt lat="45.93744" lon="4.84101">
        <ele>315</ele>
        <time>2018-09-30T09:48:23Z</time>
      </trkpt>
      <trkpt lat="45.93744" lon="4.84093">
        <ele>315</ele>
        <time>2018-09-30T09:48:24Z</time>
      </trkpt>
      <trkpt lat="45.93744" lon="4.84083">
        <ele>315</ele>
        <time>2018-09-30T09:48:25Z</time>
      </trkpt>
      <trkpt lat="45.93743" lon="4.84074">
        <ele>314</ele>
        <time>2018-09-30T09:48:26Z</time>
      </trkpt>
      <trkpt lat="45.93744" lon="4.84065">
        <ele>314</ele>
        <time>2018-09-30T09:48:27Z</time>
      </trkpt>
      <trkpt lat="45.93744" lon="4.84057">
        <ele>314</ele>
        <time>2018-09-30T09:48:28Z</time>
      </trkpt>
      <trkpt lat="45.93745" lon="4.84048">
        <ele>313</ele>
        <time>2018-09-30T09:48:29Z</time>
      </trkpt>
      <trkpt lat="45.93745" lon="4.84039">
        <ele>313</ele>
        <time>2018-09-30T09:48:30Z</time>
      </trkpt>
      <trkpt lat="45.93746" lon="4.8403">
        <ele>312</ele>
        <time>2018-09-30T09:48:31Z</time>
      </trkpt>
      <trkpt lat="45.93749" lon="4.84024">
        <ele>313</ele>
        <time>2018-09-30T09:48:32Z</time>
      </trkpt>
      <trkpt lat="45.9375" lon="4.84015">
        <ele>317</ele>
        <time>2018-09-30T09:48:33Z</time>
      </trkpt>
      <trkpt lat="45.93751" lon="4.84005">
        <ele>316</ele>
        <time>2018-09-30T09:48:34Z</time>
      </trkpt>
      <trkpt lat="45.93752" lon="4.83995">
        <ele>315</ele>
        <time>2018-09-30T09:48:35Z</time>
      </trkpt>
      <trkpt lat="45.93754" lon="4.83985">
        <ele>314</ele>
        <time>2018-09-30T09:48:36Z</time>
      </trkpt>
      <trkpt lat="45.93755" lon="4.83975">
        <ele>313</ele>
        <time>2018-09-30T09:48:37Z</time>
      </trkpt>
      <trkpt lat="45.93755" lon="4.83963">
        <ele>311</ele>
        <time>2018-09-30T09:48:38Z</time>
      </trkpt>
      <trkpt lat="45.93757" lon="4.83953">
        <ele>311</ele>
        <time>2018-09-30T09:48:39Z</time>
      </trkpt>
      <trkpt lat="45.93758" lon="4.83944">
        <ele>311</ele>
        <time>2018-09-30T09:48:40Z</time>
      </trkpt>
      <trkpt lat="45.9376" lon="4.83933">
        <ele>313</ele>
        <time>2018-09-30T09:48:41Z</time>
      </trkpt>
      <trkpt lat="45.93761" lon="4.83925">
        <ele>312</ele>
        <time>2018-09-30T09:48:42Z</time>
      </trkpt>
      <trkpt lat="45.93763" lon="4.83915">
        <ele>311</ele>
        <time>2018-09-30T09:48:43Z</time>
      </trkpt>
      <trkpt lat="45.93765" lon="4.83907">
        <ele>311</ele>
        <time>2018-09-30T09:48:44Z</time>
      </trkpt>
      <trkpt lat="45.93767" lon="4.83897">
        <ele>311</ele>
        <time>2018-09-30T09:48:45Z</time>
      </trkpt>
      <trkpt lat="45.93769" lon="4.83888">
        <ele>310</ele>
        <time>2018-09-30T09:48:46Z</time>
      </trkpt>
      <trkpt lat="45.93771" lon="4.83878">
        <ele>310</ele>
        <time>2018-09-30T09:48:47Z</time>
      </trkpt>
      <trkpt lat="45.93773" lon="4.8387">
        <ele>310</ele>
        <time>2018-09-30T09:48:48Z</time>
      </trkpt>
      <trkpt lat="45.93775" lon="4.83861">
        <ele>310</ele>
        <time>2018-09-30T09:48:49Z</time>
      </trkpt>
      <trkpt lat="45.93777" lon="4.83853">
        <ele>309</ele>
        <time>2018-09-30T09:48:50Z</time>
      </trkpt>
      <trkpt lat="45.9378" lon="4.83846">
        <ele>309</ele>
        <time>2018-09-30T09:48:51Z</time>
      </trkpt>
      <trkpt lat="45.93782" lon="4.83837">
        <ele>309</ele>
        <time>2018-09-30T09:48:52Z</time>
      </trkpt>
      <trkpt lat="45.93785" lon="4.8383">
        <ele>309</ele>
        <time>2018-09-30T09:48:53Z</time>
      </trkpt>
      <trkpt lat="45.93787" lon="4.83822">
        <ele>307</ele>
        <time>2018-09-30T09:48:54Z</time>
      </trkpt>
      <trkpt lat="45.9379" lon="4.83814">
        <ele>308</ele>
        <time>2018-09-30T09:48:55Z</time>
      </trkpt>
      <trkpt lat="45.93792" lon="4.83806">
        <ele>308</ele>
        <time>2018-09-30T09:48:56Z</time>
      </trkpt>
      <trkpt lat="45.93793" lon="4.83799">
        <ele>307</ele>
        <time>2018-09-30T09:48:57Z</time>
      </trkpt>
      <trkpt lat="45.93796" lon="4.83791">
        <ele>308</ele>
        <time>2018-09-30T09:48:58Z</time>
      </trkpt>
      <trkpt lat="45.93797" lon="4.83783">
        <ele>308</ele>
        <time>2018-09-30T09:48:59Z</time>
      </trkpt>
      <trkpt lat="45.938" lon="4.83775">
        <ele>309</ele>
        <time>2018-09-30T09:49:00Z</time>
      </trkpt>
      <trkpt lat="45.93802" lon="4.83768">
        <ele>314</ele>
        <time>2018-09-30T09:49:01Z</time>
      </trkpt>
      <trkpt lat="45.93804" lon="4.83759">
        <ele>313</ele>
        <time>2018-09-30T09:49:02Z</time>
      </trkpt>
      <trkpt lat="45.93807" lon="4.83751">
        <ele>312</ele>
        <time>2018-09-30T09:49:03Z</time>
      </trkpt>
      <trkpt lat="45.93809" lon="4.83743">
        <ele>312</ele>
        <time>2018-09-30T09:49:04Z</time>
      </trkpt>
      <trkpt lat="45.93812" lon="4.83736">
        <ele>312</ele>
        <time>2018-09-30T09:49:05Z</time>
      </trkpt>
      <trkpt lat="45.93814" lon="4.83727">
        <ele>310</ele>
        <time>2018-09-30T09:49:06Z</time>
      </trkpt>
      <trkpt lat="45.93815" lon="4.83719">
        <ele>309</ele>
        <time>2018-09-30T09:49:07Z</time>
      </trkpt>
      <trkpt lat="45.93817" lon="4.83711">
        <ele>309</ele>
        <time>2018-09-30T09:49:08Z</time>
      </trkpt>
      <trkpt lat="45.93819" lon="4.83703">
        <ele>308</ele>
        <time>2018-09-30T09:49:09Z</time>
      </trkpt>
      <trkpt lat="45.93821" lon="4.83695">
        <ele>308</ele>
        <time>2018-09-30T09:49:10Z</time>
      </trkpt>
      <trkpt lat="45.93823" lon="4.83687">
        <ele>308</ele>
        <time>2018-09-30T09:49:11Z</time>
      </trkpt>
      <trkpt lat="45.93826" lon="4.83679">
        <ele>308</ele>
        <time>2018-09-30T09:49:12Z</time>
      </trkpt>
      <trkpt lat="45.93829" lon="4.83671">
        <ele>309</ele>
        <time>2018-09-30T09:49:13Z</time>
      </trkpt>
      <trkpt lat="45.93831" lon="4.83664">
        <ele>314</ele>
        <time>2018-09-30T09:49:14Z</time>
      </trkpt>
      <trkpt lat="45.93834" lon="4.83656">
        <ele>312</ele>
        <time>2018-09-30T09:49:15Z</time>
      </trkpt>
      <trkpt lat="45.93837" lon="4.83648">
        <ele>312</ele>
        <time>2018-09-30T09:49:16Z</time>
      </trkpt>
      <trkpt lat="45.93841" lon="4.8364">
        <ele>312</ele>
        <time>2018-09-30T09:49:17Z</time>
      </trkpt>
      <trkpt lat="45.93845" lon="4.83632">
        <ele>311</ele>
        <time>2018-09-30T09:49:18Z</time>
      </trkpt>
      <trkpt lat="45.93848" lon="4.83624">
        <ele>311</ele>
        <time>2018-09-30T09:49:19Z</time>
      </trkpt>
      <trkpt lat="45.93852" lon="4.83617">
        <ele>311</ele>
        <time>2018-09-30T09:49:20Z</time>
      </trkpt>
      <trkpt lat="45.93854" lon="4.8361">
        <ele>311</ele>
        <time>2018-09-30T09:49:21Z</time>
      </trkpt>
      <trkpt lat="45.93858" lon="4.83602">
        <ele>311</ele>
        <time>2018-09-30T09:49:22Z</time>
      </trkpt>
      <trkpt lat="45.93861" lon="4.83594">
        <ele>316</ele>
        <time>2018-09-30T09:49:23Z</time>
      </trkpt>
      <trkpt lat="45.93863" lon="4.83587">
        <ele>314</ele>
        <time>2018-09-30T09:49:24Z</time>
      </trkpt>
      <trkpt lat="45.93866" lon="4.83581">
        <ele>313</ele>
        <time>2018-09-30T09:49:25Z</time>
      </trkpt>
      <trkpt lat="45.9387" lon="4.83575">
        <ele>312</ele>
        <time>2018-09-30T09:49:26Z</time>
      </trkpt>
      <trkpt lat="45.93874" lon="4.83569">
        <ele>311</ele>
        <time>2018-09-30T09:49:27Z</time>
      </trkpt>
      <trkpt lat="45.93878" lon="4.83564">
        <ele>311</ele>
        <time>2018-09-30T09:49:28Z</time>
      </trkpt>
      <trkpt lat="45.93881" lon="4.83557">
        <ele>311</ele>
        <time>2018-09-30T09:49:29Z</time>
      </trkpt>
      <trkpt lat="45.93885" lon="4.83552">
        <ele>312</ele>
        <time>2018-09-30T09:49:30Z</time>
      </trkpt>
      <trkpt lat="45.93888" lon="4.83547">
        <ele>312</ele>
        <time>2018-09-30T09:49:31Z</time>
      </trkpt>
      <trkpt lat="45.93892" lon="4.83541">
        <ele>312</ele>
        <time>2018-09-30T09:49:32Z</time>
      </trkpt>
      <trkpt lat="45.93896" lon="4.83535">
        <ele>311</ele>
        <time>2018-09-30T09:49:33Z</time>
      </trkpt>
      <trkpt lat="45.93899" lon="4.83529">
        <ele>311</ele>
        <time>2018-09-30T09:49:34Z</time>
      </trkpt>
      <trkpt lat="45.93903" lon="4.83523">
        <ele>311</ele>
        <time>2018-09-30T09:49:35Z</time>
      </trkpt>
      <trkpt lat="45.93907" lon="4.83518">
        <ele>312</ele>
        <time>2018-09-30T09:49:36Z</time>
      </trkpt>
      <trkpt lat="45.93911" lon="4.83512">
        <ele>312</ele>
        <time>2018-09-30T09:49:37Z</time>
      </trkpt>
      <trkpt lat="45.93915" lon="4.83505">
        <ele>312</ele>
        <time>2018-09-30T09:49:38Z</time>
      </trkpt>
      <trkpt lat="45.93921" lon="4.83499">
        <ele>313</ele>
        <time>2018-09-30T09:49:39Z</time>
      </trkpt>
      <trkpt lat="45.93926" lon="4.83491">
        <ele>313</ele>
        <time>2018-09-30T09:49:40Z</time>
      </trkpt>
      <trkpt lat="45.9393" lon="4.83484">
        <ele>312</ele>
        <time>2018-09-30T09:49:41Z</time>
      </trkpt>
      <trkpt lat="45.93934" lon="4.83476">
        <ele>312</ele>
        <time>2018-09-30T09:49:42Z</time>
      </trkpt>
      <trkpt lat="45.93939" lon="4.83469">
        <ele>312</ele>
        <time>2018-09-30T09:49:43Z</time>
      </trkpt>
      <trkpt lat="45.93943" lon="4.83462">
        <ele>312</ele>
        <time>2018-09-30T09:49:44Z</time>
      </trkpt>
      <trkpt lat="45.93947" lon="4.83457">
        <ele>312</ele>
        <time>2018-09-30T09:49:45Z</time>
      </trkpt>
      <trkpt lat="45.93951" lon="4.83451">
        <ele>312</ele>
        <time>2018-09-30T09:49:46Z</time>
      </trkpt>
      <trkpt lat="45.93955" lon="4.83446">
        <ele>312</ele>
        <time>2018-09-30T09:49:47Z</time>
      </trkpt>
      <trkpt lat="45.93958" lon="4.8344">
        <ele>312</ele>
        <time>2018-09-30T09:49:48Z</time>
      </trkpt>
      <trkpt lat="45.93962" lon="4.83434">
        <ele>312</ele>
        <time>2018-09-30T09:49:49Z</time>
      </trkpt>
      <trkpt lat="45.93966" lon="4.83428">
        <ele>313</ele>
        <time>2018-09-30T09:49:50Z</time>
      </trkpt>
      <trkpt lat="45.93969" lon="4.83423">
        <ele>313</ele>
        <time>2018-09-30T09:49:51Z</time>
      </trkpt>
      <trkpt lat="45.93973" lon="4.83417">
        <ele>313</ele>
        <time>2018-09-30T09:49:52Z</time>
      </trkpt>
      <trkpt lat="45.93977" lon="4.83413">
        <ele>314</ele>
        <time>2018-09-30T09:49:53Z</time>
      </trkpt>
      <trkpt lat="45.93981" lon="4.83407">
        <ele>314</ele>
        <time>2018-09-30T09:49:54Z</time>
      </trkpt>
      <trkpt lat="45.93985" lon="4.83399">
        <ele>314</ele>
        <time>2018-09-30T09:49:55Z</time>
      </trkpt>
      <trkpt lat="45.93989" lon="4.83392">
        <ele>315</ele>
        <time>2018-09-30T09:49:56Z</time>
      </trkpt>
      <trkpt lat="45.93993" lon="4.83386">
        <ele>315</ele>
        <time>2018-09-30T09:49:57Z</time>
      </trkpt>
      <trkpt lat="45.93996" lon="4.83383">
        <ele>316</ele>
        <time>2018-09-30T09:49:58Z</time>
      </trkpt>
      <trkpt lat="45.94" lon="4.83375">
        <ele>315</ele>
        <time>2018-09-30T09:49:59Z</time>
      </trkpt>
      <trkpt lat="45.94004" lon="4.83369">
        <ele>315</ele>
        <time>2018-09-30T09:50:00Z</time>
      </trkpt>
      <trkpt lat="45.94008" lon="4.83362">
        <ele>315</ele>
        <time>2018-09-30T09:50:01Z</time>
      </trkpt>
      <trkpt lat="45.94012" lon="4.83355">
        <ele>314</ele>
        <time>2018-09-30T09:50:02Z</time>
      </trkpt>
      <trkpt lat="45.94016" lon="4.83349">
        <ele>315</ele>
        <time>2018-09-30T09:50:03Z</time>
      </trkpt>
      <trkpt lat="45.9402" lon="4.83343">
        <ele>315</ele>
        <time>2018-09-30T09:50:04Z</time>
      </trkpt>
      <trkpt lat="45.94025" lon="4.83337">
        <ele>314</ele>
        <time>2018-09-30T09:50:05Z</time>
      </trkpt>
      <trkpt lat="45.94029" lon="4.83331">
        <ele>314</ele>
        <time>2018-09-30T09:50:06Z</time>
      </trkpt>
      <trkpt lat="45.94033" lon="4.83328">
        <ele>315</ele>
        <time>2018-09-30T09:50:07Z</time>
      </trkpt>
      <trkpt lat="45.94037" lon="4.83322">
        <ele>316</ele>
        <time>2018-09-30T09:50:08Z</time>
      </trkpt>
      <trkpt lat="45.9404" lon="4.83317">
        <ele>316</ele>
        <time>2018-09-30T09:50:09Z</time>
      </trkpt>
      <trkpt lat="45.94043" lon="4.83311">
        <ele>316</ele>
        <time>2018-09-30T09:50:10Z</time>
      </trkpt>
      <trkpt lat="45.94046" lon="4.83305">
        <ele>316</ele>
        <time>2018-09-30T09:50:11Z</time>
      </trkpt>
      <trkpt lat="45.9405" lon="4.833">
        <ele>316</ele>
        <time>2018-09-30T09:50:12Z</time>
      </trkpt>
      <trkpt lat="45.94054" lon="4.83294">
        <ele>316</ele>
        <time>2018-09-30T09:50:13Z</time>
      </trkpt>
      <trkpt lat="45.94058" lon="4.83289">
        <ele>316</ele>
        <time>2018-09-30T09:50:14Z</time>
      </trkpt>
      <trkpt lat="45.94061" lon="4.83283">
        <ele>316</ele>
        <time>2018-09-30T09:50:15Z</time>
      </trkpt>
      <trkpt lat="45.94065" lon="4.83278">
        <ele>315</ele>
        <time>2018-09-30T09:50:16Z</time>
      </trkpt>
      <trkpt lat="45.9407" lon="4.83271">
        <ele>316</ele>
        <time>2018-09-30T09:50:17Z</time>
      </trkpt>
      <trkpt lat="45.94074" lon="4.83264">
        <ele>315</ele>
        <time>2018-09-30T09:50:18Z</time>
      </trkpt>
      <trkpt lat="45.94078" lon="4.83257">
        <ele>315</ele>
        <time>2018-09-30T09:50:19Z</time>
      </trkpt>
      <trkpt lat="45.94083" lon="4.8325">
        <ele>315</ele>
        <time>2018-09-30T09:50:20Z</time>
      </trkpt>
      <trkpt lat="45.94088" lon="4.83242">
        <ele>314</ele>
        <time>2018-09-30T09:50:21Z</time>
      </trkpt>
      <trkpt lat="45.94091" lon="4.83234">
        <ele>324</ele>
        <time>2018-09-30T09:50:22Z</time>
      </trkpt>
      <trkpt lat="45.94095" lon="4.83229">
        <ele>321</ele>
        <time>2018-09-30T09:50:23Z</time>
      </trkpt>
      <trkpt lat="45.94098" lon="4.83223">
        <ele>320</ele>
        <time>2018-09-30T09:50:24Z</time>
      </trkpt>
      <trkpt lat="45.94103" lon="4.83216">
        <ele>319</ele>
        <time>2018-09-30T09:50:25Z</time>
      </trkpt>
      <trkpt lat="45.94106" lon="4.8321">
        <ele>318</ele>
        <time>2018-09-30T09:50:26Z</time>
      </trkpt>
      <trkpt lat="45.94109" lon="4.83205">
        <ele>317</ele>
        <time>2018-09-30T09:50:27Z</time>
      </trkpt>
      <trkpt lat="45.94113" lon="4.83199">
        <ele>317</ele>
        <time>2018-09-30T09:50:28Z</time>
      </trkpt>
      <trkpt lat="45.94116" lon="4.83194">
        <ele>317</ele>
        <time>2018-09-30T09:50:29Z</time>
      </trkpt>
      <trkpt lat="45.9412" lon="4.83188">
        <ele>317</ele>
        <time>2018-09-30T09:50:30Z</time>
      </trkpt>
      <trkpt lat="45.94123" lon="4.8318">
        <ele>316</ele>
        <time>2018-09-30T09:50:31Z</time>
      </trkpt>
      <trkpt lat="45.94127" lon="4.83174">
        <ele>315</ele>
        <time>2018-09-30T09:50:32Z</time>
      </trkpt>
      <trkpt lat="45.9413" lon="4.83168">
        <ele>315</ele>
        <time>2018-09-30T09:50:33Z</time>
      </trkpt>
      <trkpt lat="45.94134" lon="4.83162">
        <ele>315</ele>
        <time>2018-09-30T09:50:34Z</time>
      </trkpt>
      <trkpt lat="45.94138" lon="4.83157">
        <ele>315</ele>
        <time>2018-09-30T09:50:35Z</time>
      </trkpt>
      <trkpt lat="45.94142" lon="4.83152">
        <ele>315</ele>
        <time>2018-09-30T09:50:36Z</time>
      </trkpt>
      <trkpt lat="45.94145" lon="4.83146">
        <ele>315</ele>
        <time>2018-09-30T09:50:37Z</time>
      </trkpt>
      <trkpt lat="45.9415" lon="4.83142">
        <ele>315</ele>
        <time>2018-09-30T09:50:38Z</time>
      </trkpt>
      <trkpt lat="45.94154" lon="4.83137">
        <ele>315</ele>
        <time>2018-09-30T09:50:39Z</time>
      </trkpt>
      <trkpt lat="45.94159" lon="4.83132">
        <ele>315</ele>
        <time>2018-09-30T09:50:40Z</time>
      </trkpt>
      <trkpt lat="45.94162" lon="4.83127">
        <ele>315</ele>
        <time>2018-09-30T09:50:41Z</time>
      </trkpt>
      <trkpt lat="45.94168" lon="4.8312">
        <ele>314</ele>
        <time>2018-09-30T09:50:42Z</time>
      </trkpt>
      <trkpt lat="45.94172" lon="4.83116">
        <ele>314</ele>
        <time>2018-09-30T09:50:43Z</time>
      </trkpt>
      <trkpt lat="45.94177" lon="4.83111">
        <ele>314</ele>
        <time>2018-09-30T09:50:44Z</time>
      </trkpt>
      <trkpt lat="45.94181" lon="4.83105">
        <ele>313</ele>
        <time>2018-09-30T09:50:45Z</time>
      </trkpt>
      <trkpt lat="45.94185" lon="4.83097">
        <ele>313</ele>
        <time>2018-09-30T09:50:46Z</time>
      </trkpt>
      <trkpt lat="45.94189" lon="4.8309">
        <ele>313</ele>
        <time>2018-09-30T09:50:47Z</time>
      </trkpt>
      <trkpt lat="45.94193" lon="4.83084">
        <ele>313</ele>
        <time>2018-09-30T09:50:48Z</time>
      </trkpt>
      <trkpt lat="45.94197" lon="4.83078">
        <ele>313</ele>
        <time>2018-09-30T09:50:49Z</time>
      </trkpt>
      <trkpt lat="45.94201" lon="4.83073">
        <ele>313</ele>
        <time>2018-09-30T09:50:50Z</time>
      </trkpt>
      <trkpt lat="45.94205" lon="4.83069">
        <ele>314</ele>
        <time>2018-09-30T09:50:51Z</time>
      </trkpt>
      <trkpt lat="45.94209" lon="4.83064">
        <ele>315</ele>
        <time>2018-09-30T09:50:52Z</time>
      </trkpt>
      <trkpt lat="45.94213" lon="4.83058">
        <ele>314</ele>
        <time>2018-09-30T09:50:53Z</time>
      </trkpt>
      <trkpt lat="45.94217" lon="4.83052">
        <ele>316</ele>
        <time>2018-09-30T09:50:54Z</time>
      </trkpt>
      <trkpt lat="45.94221" lon="4.83046">
        <ele>316</ele>
        <time>2018-09-30T09:50:55Z</time>
      </trkpt>
      <trkpt lat="45.94225" lon="4.83041">
        <ele>317</ele>
        <time>2018-09-30T09:50:56Z</time>
      </trkpt>
      <trkpt lat="45.94229" lon="4.83036">
        <ele>318</ele>
        <time>2018-09-30T09:50:57Z</time>
      </trkpt>
      <trkpt lat="45.94232" lon="4.83031">
        <ele>317</ele>
        <time>2018-09-30T09:50:58Z</time>
      </trkpt>
      <trkpt lat="45.94236" lon="4.83026">
        <ele>317</ele>
        <time>2018-09-30T09:50:59Z</time>
      </trkpt>
      <trkpt lat="45.94241" lon="4.8302">
        <ele>317</ele>
        <time>2018-09-30T09:51:00Z</time>
      </trkpt>
      <trkpt lat="45.94245" lon="4.83014">
        <ele>316</ele>
        <time>2018-09-30T09:51:01Z</time>
      </trkpt>
      <trkpt lat="45.9425" lon="4.83007">
        <ele>316</ele>
        <time>2018-09-30T09:51:02Z</time>
      </trkpt>
      <trkpt lat="45.94253" lon="4.83001">
        <ele>317</ele>
        <time>2018-09-30T09:51:03Z</time>
      </trkpt>
      <trkpt lat="45.94256" lon="4.82995">
        <ele>316</ele>
        <time>2018-09-30T09:51:04Z</time>
      </trkpt>
      <trkpt lat="45.9426" lon="4.82988">
        <ele>316</ele>
        <time>2018-09-30T09:51:05Z</time>
      </trkpt>
      <trkpt lat="45.94263" lon="4.82981">
        <ele>316</ele>
        <time>2018-09-30T09:51:06Z</time>
      </trkpt>
      <trkpt lat="45.94267" lon="4.82973">
        <ele>316</ele>
        <time>2018-09-30T09:51:07Z</time>
      </trkpt>
      <trkpt lat="45.9427" lon="4.82966">
        <ele>316</ele>
        <time>2018-09-30T09:51:08Z</time>
      </trkpt>
      <trkpt lat="45.94273" lon="4.82958">
        <ele>316</ele>
        <time>2018-09-30T09:51:09Z</time>
      </trkpt>
      <trkpt lat="45.94275" lon="4.82952">
        <ele>316</ele>
        <time>2018-09-30T09:51:10Z</time>
      </trkpt>
      <trkpt lat="45.94276" lon="4.82945">
        <ele>317</ele>
        <time>2018-09-30T09:51:11Z</time>
      </trkpt>
      <trkpt lat="45.94279" lon="4.82939">
        <ele>317</ele>
        <time>2018-09-30T09:51:12Z</time>
      </trkpt>
      <trkpt lat="45.94281" lon="4.82931">
        <ele>318</ele>
        <time>2018-09-30T09:51:13Z</time>
      </trkpt>
      <trkpt lat="45.94282" lon="4.82924">
        <ele>318</ele>
        <time>2018-09-30T09:51:14Z</time>
      </trkpt>
      <trkpt lat="45.94284" lon="4.82917">
        <ele>318</ele>
        <time>2018-09-30T09:51:15Z</time>
      </trkpt>
      <trkpt lat="45.94284" lon="4.82909">
        <ele>318</ele>
        <time>2018-09-30T09:51:16Z</time>
      </trkpt>
      <trkpt lat="45.94285" lon="4.82902">
        <ele>318</ele>
        <time>2018-09-30T09:51:17Z</time>
      </trkpt>
      <trkpt lat="45.94285" lon="4.82894">
        <ele>318</ele>
        <time>2018-09-30T09:51:18Z</time>
      </trkpt>
      <trkpt lat="45.94286" lon="4.82885">
        <ele>318</ele>
        <time>2018-09-30T09:51:19Z</time>
      </trkpt>
      <trkpt lat="45.94287" lon="4.82877">
        <ele>317</ele>
        <time>2018-09-30T09:51:20Z</time>
      </trkpt>
      <trkpt lat="45.94287" lon="4.82867">
        <ele>317</ele>
        <time>2018-09-30T09:51:21Z</time>
      </trkpt>
      <trkpt lat="45.94288" lon="4.82859">
        <ele>317</ele>
        <time>2018-09-30T09:51:22Z</time>
      </trkpt>
      <trkpt lat="45.94287" lon="4.82849">
        <ele>317</ele>
        <time>2018-09-30T09:51:23Z</time>
      </trkpt>
      <trkpt lat="45.94288" lon="4.8284">
        <ele>318</ele>
        <time>2018-09-30T09:51:24Z</time>
      </trkpt>
      <trkpt lat="45.94288" lon="4.82831">
        <ele>317</ele>
        <time>2018-09-30T09:51:25Z</time>
      </trkpt>
      <trkpt lat="45.94288" lon="4.82822">
        <ele>316</ele>
        <time>2018-09-30T09:51:26Z</time>
      </trkpt>
      <trkpt lat="45.94288" lon="4.82814">
        <ele>316</ele>
        <time>2018-09-30T09:51:27Z</time>
      </trkpt>
      <trkpt lat="45.94288" lon="4.82806">
        <ele>316</ele>
        <time>2018-09-30T09:51:28Z</time>
      </trkpt>
      <trkpt lat="45.94288" lon="4.82798">
        <ele>317</ele>
        <time>2018-09-30T09:51:29Z</time>
      </trkpt>
      <trkpt lat="45.94288" lon="4.82789">
        <ele>316</ele>
        <time>2018-09-30T09:51:30Z</time>
      </trkpt>
      <trkpt lat="45.94287" lon="4.8278">
        <ele>315</ele>
        <time>2018-09-30T09:51:31Z</time>
      </trkpt>
      <trkpt lat="45.94286" lon="4.82772">
        <ele>314</ele>
        <time>2018-09-30T09:51:32Z</time>
      </trkpt>
      <trkpt lat="45.94286" lon="4.82764">
        <ele>313</ele>
        <time>2018-09-30T09:51:33Z</time>
      </trkpt>
      <trkpt lat="45.94287" lon="4.82756">
        <ele>313</ele>
        <time>2018-09-30T09:51:34Z</time>
      </trkpt>
      <trkpt lat="45.94287" lon="4.82749">
        <ele>313</ele>
        <time>2018-09-30T09:51:35Z</time>
      </trkpt>
      <trkpt lat="45.94288" lon="4.82741">
        <ele>313</ele>
        <time>2018-09-30T09:51:36Z</time>
      </trkpt>
      <trkpt lat="45.94287" lon="4.82734">
        <ele>313</ele>
        <time>2018-09-30T09:51:37Z</time>
      </trkpt>
      <trkpt lat="45.94288" lon="4.82726">
        <ele>312</ele>
        <time>2018-09-30T09:51:38Z</time>
      </trkpt>
      <trkpt lat="45.94288" lon="4.82718">
        <ele>312</ele>
        <time>2018-09-30T09:51:39Z</time>
      </trkpt>
      <trkpt lat="45.94288" lon="4.8271">
        <ele>312</ele>
        <time>2018-09-30T09:51:40Z</time>
      </trkpt>
      <trkpt lat="45.94289" lon="4.82703">
        <ele>311</ele>
        <time>2018-09-30T09:51:41Z</time>
      </trkpt>
      <trkpt lat="45.94289" lon="4.82695">
        <ele>311</ele>
        <time>2018-09-30T09:51:42Z</time>
      </trkpt>
      <trkpt lat="45.94289" lon="4.82688">
        <ele>311</ele>
        <time>2018-09-30T09:51:43Z</time>
      </trkpt>
      <trkpt lat="45.9429" lon="4.8268">
        <ele>311</ele>
        <time>2018-09-30T09:51:44Z</time>
      </trkpt>
      <trkpt lat="45.94291" lon="4.82672">
        <ele>311</ele>
        <time>2018-09-30T09:51:45Z</time>
      </trkpt>
      <trkpt lat="45.94291" lon="4.82663">
        <ele>311</ele>
        <time>2018-09-30T09:51:46Z</time>
      </trkpt>
      <trkpt lat="45.94291" lon="4.82654">
        <ele>311</ele>
        <time>2018-09-30T09:51:47Z</time>
      </trkpt>
      <trkpt lat="45.9429" lon="4.82645">
        <ele>310</ele>
        <time>2018-09-30T09:51:48Z</time>
      </trkpt>
      <trkpt lat="45.9429" lon="4.82637">
        <ele>310</ele>
        <time>2018-09-30T09:51:49Z</time>
      </trkpt>
      <trkpt lat="45.94291" lon="4.82628">
        <ele>311</ele>
        <time>2018-09-30T09:51:50Z</time>
      </trkpt>
      <trkpt lat="45.94292" lon="4.82621">
        <ele>311</ele>
        <time>2018-09-30T09:51:51Z</time>
      </trkpt>
      <trkpt lat="45.94291" lon="4.82612">
        <ele>311</ele>
        <time>2018-09-30T09:51:52Z</time>
      </trkpt>
      <trkpt lat="45.94292" lon="4.82606">
        <ele>312</ele>
        <time>2018-09-30T09:51:53Z</time>
      </trkpt>
      <trkpt lat="45.9429" lon="4.82598">
        <ele>311</ele>
        <time>2018-09-30T09:51:54Z</time>
      </trkpt>
      <trkpt lat="45.94291" lon="4.82591">
        <ele>310</ele>
        <time>2018-09-30T09:51:55Z</time>
      </trkpt>
      <trkpt lat="45.94291" lon="4.82583">
        <ele>309</ele>
        <time>2018-09-30T09:51:56Z</time>
      </trkpt>
      <trkpt lat="45.94292" lon="4.82576">
        <ele>309</ele>
        <time>2018-09-30T09:51:57Z</time>
      </trkpt>
      <trkpt lat="45.94292" lon="4.82568">
        <ele>309</ele>
        <time>2018-09-30T09:51:58Z</time>
      </trkpt>
      <trkpt lat="45.94293" lon="4.8256">
        <ele>310</ele>
        <time>2018-09-30T09:51:59Z</time>
      </trkpt>
      <trkpt lat="45.94294" lon="4.82552">
        <ele>309</ele>
        <time>2018-09-30T09:52:00Z</time>
      </trkpt>
      <trkpt lat="45.94292" lon="4.82544">
        <ele>308</ele>
        <time>2018-09-30T09:52:01Z</time>
      </trkpt>
      <trkpt lat="45.94291" lon="4.82536">
        <ele>306</ele>
        <time>2018-09-30T09:52:02Z</time>
      </trkpt>
      <trkpt lat="45.94292" lon="4.82529">
        <ele>306</ele>
        <time>2018-09-30T09:52:03Z</time>
      </trkpt>
      <trkpt lat="45.94291" lon="4.82521">
        <ele>307</ele>
        <time>2018-09-30T09:52:04Z</time>
      </trkpt>
      <trkpt lat="45.94291" lon="4.82514">
        <ele>307</ele>
        <time>2018-09-30T09:52:05Z</time>
      </trkpt>
      <trkpt lat="45.94292" lon="4.82505">
        <ele>307</ele>
        <time>2018-09-30T09:52:06Z</time>
      </trkpt>
      <trkpt lat="45.94292" lon="4.82498">
        <ele>308</ele>
        <time>2018-09-30T09:52:07Z</time>
      </trkpt>
      <trkpt lat="45.94292" lon="4.8249">
        <ele>308</ele>
        <time>2018-09-30T09:52:08Z</time>
      </trkpt>
      <trkpt lat="45.94293" lon="4.82482">
        <ele>308</ele>
        <time>2018-09-30T09:52:09Z</time>
      </trkpt>
      <trkpt lat="45.94292" lon="4.82474">
        <ele>308</ele>
        <time>2018-09-30T09:52:10Z</time>
      </trkpt>
      <trkpt lat="45.94292" lon="4.82465">
        <ele>308</ele>
        <time>2018-09-30T09:52:11Z</time>
      </trkpt>
      <trkpt lat="45.94292" lon="4.82456">
        <ele>307</ele>
        <time>2018-09-30T09:52:12Z</time>
      </trkpt>
      <trkpt lat="45.94292" lon="4.82447">
        <ele>307</ele>
        <time>2018-09-30T09:52:13Z</time>
      </trkpt>
      <trkpt lat="45.9429" lon="4.82437">
        <ele>308</ele>
        <time>2018-09-30T09:52:14Z</time>
      </trkpt>
      <trkpt lat="45.94291" lon="4.82428">
        <ele>309</ele>
        <time>2018-09-30T09:52:15Z</time>
      </trkpt>
      <trkpt lat="45.9429" lon="4.82419">
        <ele>309</ele>
        <time>2018-09-30T09:52:16Z</time>
      </trkpt>
      <trkpt lat="45.9429" lon="4.8241">
        <ele>309</ele>
        <time>2018-09-30T09:52:17Z</time>
      </trkpt>
      <trkpt lat="45.94291" lon="4.82403">
        <ele>308</ele>
        <time>2018-09-30T09:52:18Z</time>
      </trkpt>
      <trkpt lat="45.9429" lon="4.82394">
        <ele>308</ele>
        <time>2018-09-30T09:52:19Z</time>
      </trkpt>
      <trkpt lat="45.94291" lon="4.82387">
        <ele>308</ele>
        <time>2018-09-30T09:52:20Z</time>
      </trkpt>
      <trkpt lat="45.94289" lon="4.82376">
        <ele>309</ele>
        <time>2018-09-30T09:52:21Z</time>
      </trkpt>
      <trkpt lat="45.94288" lon="4.82368">
        <ele>308</ele>
        <time>2018-09-30T09:52:22Z</time>
      </trkpt>
      <trkpt lat="45.94287" lon="4.82356">
        <ele>307</ele>
        <time>2018-09-30T09:52:23Z</time>
      </trkpt>
      <trkpt lat="45.94288" lon="4.82347">
        <ele>307</ele>
        <time>2018-09-30T09:52:24Z</time>
      </trkpt>
      <trkpt lat="45.94287" lon="4.82337">
        <ele>307</ele>
        <time>2018-09-30T09:52:25Z</time>
      </trkpt>
      <trkpt lat="45.94288" lon="4.82329">
        <ele>308</ele>
        <time>2018-09-30T09:52:26Z</time>
      </trkpt>
      <trkpt lat="45.94287" lon="4.8232">
        <ele>307</ele>
        <time>2018-09-30T09:52:27Z</time>
      </trkpt>
      <trkpt lat="45.94287" lon="4.82311">
        <ele>307</ele>
        <time>2018-09-30T09:52:28Z</time>
      </trkpt>
      <trkpt lat="45.94287" lon="4.82301">
        <ele>308</ele>
        <time>2018-09-30T09:52:29Z</time>
      </trkpt>
      <trkpt lat="45.94287" lon="4.82292">
        <ele>308</ele>
        <time>2018-09-30T09:52:30Z</time>
      </trkpt>
      <trkpt lat="45.94287" lon="4.82282">
        <ele>308</ele>
        <time>2018-09-30T09:52:31Z</time>
      </trkpt>
      <trkpt lat="45.94286" lon="4.82274">
        <ele>308</ele>
        <time>2018-09-30T09:52:32Z</time>
      </trkpt>
      <trkpt lat="45.94286" lon="4.82265">
        <ele>308</ele>
        <time>2018-09-30T09:52:33Z</time>
      </trkpt>
      <trkpt lat="45.94285" lon="4.82256">
        <ele>308</ele>
        <time>2018-09-30T09:52:34Z</time>
      </trkpt>
      <trkpt lat="45.94286" lon="4.82248">
        <ele>308</ele>
        <time>2018-09-30T09:52:35Z</time>
      </trkpt>
      <trkpt lat="45.94286" lon="4.8224">
        <ele>308</ele>
        <time>2018-09-30T09:52:36Z</time>
      </trkpt>
      <trkpt lat="45.94285" lon="4.82232">
        <ele>308</ele>
        <time>2018-09-30T09:52:37Z</time>
      </trkpt>
      <trkpt lat="45.94285" lon="4.82223">
        <ele>308</ele>
        <time>2018-09-30T09:52:38Z</time>
      </trkpt>
      <trkpt lat="45.94285" lon="4.82213">
        <ele>309</ele>
        <time>2018-09-30T09:52:39Z</time>
      </trkpt>
      <trkpt lat="45.94283" lon="4.82203">
        <ele>309</ele>
        <time>2018-09-30T09:52:40Z</time>
      </trkpt>
      <trkpt lat="45.94282" lon="4.82194">
        <ele>309</ele>
        <time>2018-09-30T09:52:41Z</time>
      </trkpt>
      <trkpt lat="45.9428" lon="4.82184">
        <ele>308</ele>
        <time>2018-09-30T09:52:42Z</time>
      </trkpt>
      <trkpt lat="45.94279" lon="4.82175">
        <ele>309</ele>
        <time>2018-09-30T09:52:43Z</time>
      </trkpt>
      <trkpt lat="45.94278" lon="4.82167">
        <ele>311</ele>
        <time>2018-09-30T09:52:44Z</time>
      </trkpt>
      <trkpt lat="45.94276" lon="4.82156">
        <ele>311</ele>
        <time>2018-09-30T09:52:45Z</time>
      </trkpt>
      <trkpt lat="45.94275" lon="4.82147">
        <ele>311</ele>
        <time>2018-09-30T09:52:46Z</time>
      </trkpt>
      <trkpt lat="45.94273" lon="4.82138">
        <ele>311</ele>
        <time>2018-09-30T09:52:47Z</time>
      </trkpt>
      <trkpt lat="45.94271" lon="4.82129">
        <ele>311</ele>
        <time>2018-09-30T09:52:48Z</time>
      </trkpt>
      <trkpt lat="45.94269" lon="4.82121">
        <ele>312</ele>
        <time>2018-09-30T09:52:49Z</time>
      </trkpt>
      <trkpt lat="45.94268" lon="4.82113">
        <ele>313</ele>
        <time>2018-09-30T09:52:50Z</time>
      </trkpt>
      <trkpt lat="45.94265" lon="4.82104">
        <ele>312</ele>
        <time>2018-09-30T09:52:51Z</time>
      </trkpt>
      <trkpt lat="45.94263" lon="4.82096">
        <ele>312</ele>
        <time>2018-09-30T09:52:52Z</time>
      </trkpt>
      <trkpt lat="45.94261" lon="4.82089">
        <ele>313</ele>
        <time>2018-09-30T09:52:53Z</time>
      </trkpt>
      <trkpt lat="45.9426" lon="4.82081">
        <ele>313</ele>
        <time>2018-09-30T09:52:54Z</time>
      </trkpt>
      <trkpt lat="45.94257" lon="4.82073">
        <ele>313</ele>
        <time>2018-09-30T09:52:55Z</time>
      </trkpt>
      <trkpt lat="45.94256" lon="4.82064">
        <ele>314</ele>
        <time>2018-09-30T09:52:56Z</time>
      </trkpt>
      <trkpt lat="45.94255" lon="4.82056">
        <ele>313</ele>
        <time>2018-09-30T09:52:57Z</time>
      </trkpt>
      <trkpt lat="45.94253" lon="4.82047">
        <ele>313</ele>
        <time>2018-09-30T09:52:58Z</time>
      </trkpt>
      <trkpt lat="45.94251" lon="4.82039">
        <ele>313</ele>
        <time>2018-09-30T09:52:59Z</time>
      </trkpt>
      <trkpt lat="45.9425" lon="4.8203">
        <ele>311</ele>
        <time>2018-09-30T09:53:00Z</time>
      </trkpt>
      <trkpt lat="45.94249" lon="4.82023">
        <ele>311</ele>
        <time>2018-09-30T09:53:01Z</time>
      </trkpt>
      <trkpt lat="45.94248" lon="4.82016">
        <ele>312</ele>
        <time>2018-09-30T09:53:02Z</time>
      </trkpt>
      <trkpt lat="45.94245" lon="4.82009">
        <ele>313</ele>
        <time>2018-09-30T09:53:03Z</time>
      </trkpt>
      <trkpt lat="45.94243" lon="4.82001">
        <ele>313</ele>
        <time>2018-09-30T09:53:04Z</time>
      </trkpt>
      <trkpt lat="45.94242" lon="4.81993">
        <ele>313</ele>
        <time>2018-09-30T09:53:05Z</time>
      </trkpt>
      <trkpt lat="45.94241" lon="4.81985">
        <ele>313</ele>
        <time>2018-09-30T09:53:06Z</time>
      </trkpt>
      <trkpt lat="45.94238" lon="4.81977">
        <ele>313</ele>
        <time>2018-09-30T09:53:07Z</time>
      </trkpt>
      <trkpt lat="45.94237" lon="4.81969">
        <ele>312</ele>
        <time>2018-09-30T09:53:08Z</time>
      </trkpt>
      <trkpt lat="45.94235" lon="4.81962">
        <ele>312</ele>
        <time>2018-09-30T09:53:09Z</time>
      </trkpt>
      <trkpt lat="45.94233" lon="4.81955">
        <ele>312</ele>
        <time>2018-09-30T09:53:10Z</time>
      </trkpt>
      <trkpt lat="45.94232" lon="4.81948">
        <ele>312</ele>
        <time>2018-09-30T09:53:11Z</time>
      </trkpt>
      <trkpt lat="45.9423" lon="4.81942">
        <ele>312</ele>
        <time>2018-09-30T09:53:12Z</time>
      </trkpt>
      <trkpt lat="45.94229" lon="4.81935">
        <ele>311</ele>
        <time>2018-09-30T09:53:13Z</time>
      </trkpt>
      <trkpt lat="45.94227" lon="4.81929">
        <ele>311</ele>
        <time>2018-09-30T09:53:14Z</time>
      </trkpt>
      <trkpt lat="45.94226" lon="4.81923">
        <ele>308</ele>
        <time>2018-09-30T09:53:15Z</time>
      </trkpt>
      <trkpt lat="45.94224" lon="4.81914">
        <ele>309</ele>
        <time>2018-09-30T09:53:16Z</time>
      </trkpt>
      <trkpt lat="45.94222" lon="4.81907">
        <ele>309</ele>
        <time>2018-09-30T09:53:17Z</time>
      </trkpt>
      <trkpt lat="45.94222" lon="4.819">
        <ele>310</ele>
        <time>2018-09-30T09:53:18Z</time>
      </trkpt>
      <trkpt lat="45.9422" lon="4.81893">
        <ele>310</ele>
        <time>2018-09-30T09:53:19Z</time>
      </trkpt>
      <trkpt lat="45.94219" lon="4.81886">
        <ele>310</ele>
        <time>2018-09-30T09:53:20Z</time>
      </trkpt>
      <trkpt lat="45.94217" lon="4.81874">
        <ele>310</ele>
        <time>2018-09-30T09:53:22Z</time>
      </trkpt>
      <trkpt lat="45.94217" lon="4.81869">
        <ele>310</ele>
        <time>2018-09-30T09:53:23Z</time>
      </trkpt>
      <trkpt lat="45.94215" lon="4.81863">
        <ele>310</ele>
        <time>2018-09-30T09:53:24Z</time>
      </trkpt>
      <trkpt lat="45.94213" lon="4.81857">
        <ele>309</ele>
        <time>2018-09-30T09:53:25Z</time>
      </trkpt>
      <trkpt lat="45.94212" lon="4.81851">
        <ele>310</ele>
        <time>2018-09-30T09:53:26Z</time>
      </trkpt>
      <trkpt lat="45.94209" lon="4.81845">
        <ele>310</ele>
        <time>2018-09-30T09:53:27Z</time>
      </trkpt>
      <trkpt lat="45.94208" lon="4.81833">
        <ele>309</ele>
        <time>2018-09-30T09:53:29Z</time>
      </trkpt>
      <trkpt lat="45.94209" lon="4.81827">
        <ele>310</ele>
        <time>2018-09-30T09:53:30Z</time>
      </trkpt>
      <trkpt lat="45.94208" lon="4.8182">
        <ele>309</ele>
        <time>2018-09-30T09:53:31Z</time>
      </trkpt>
      <trkpt lat="45.94206" lon="4.81812">
        <ele>310</ele>
        <time>2018-09-30T09:53:32Z</time>
      </trkpt>
      <trkpt lat="45.94205" lon="4.81804">
        <ele>309</ele>
        <time>2018-09-30T09:53:33Z</time>
      </trkpt>
      <trkpt lat="45.94205" lon="4.81795">
        <ele>307</ele>
        <time>2018-09-30T09:53:34Z</time>
      </trkpt>
      <trkpt lat="45.94207" lon="4.81789">
        <ele>307</ele>
        <time>2018-09-30T09:53:35Z</time>
      </trkpt>
      <trkpt lat="45.94207" lon="4.81781">
        <ele>306</ele>
        <time>2018-09-30T09:53:36Z</time>
      </trkpt>
      <trkpt lat="45.94209" lon="4.81774">
        <ele>306</ele>
        <time>2018-09-30T09:53:37Z</time>
      </trkpt>
      <trkpt lat="45.9421" lon="4.81768">
        <ele>306</ele>
        <time>2018-09-30T09:53:38Z</time>
      </trkpt>
      <trkpt lat="45.94213" lon="4.81762">
        <ele>306</ele>
        <time>2018-09-30T09:53:39Z</time>
      </trkpt>
      <trkpt lat="45.94216" lon="4.81757">
        <ele>307</ele>
        <time>2018-09-30T09:53:40Z</time>
      </trkpt>
      <trkpt lat="45.94221" lon="4.81747">
        <ele>307</ele>
        <time>2018-09-30T09:53:42Z</time>
      </trkpt>
      <trkpt lat="45.94223" lon="4.8174">
        <ele>308</ele>
        <time>2018-09-30T09:53:43Z</time>
      </trkpt>
      <trkpt lat="45.94223" lon="4.81731">
        <ele>308</ele>
        <time>2018-09-30T09:53:44Z</time>
      </trkpt>
      <trkpt lat="45.94222" lon="4.81724">
        <ele>307</ele>
        <time>2018-09-30T09:53:45Z</time>
      </trkpt>
      <trkpt lat="45.9422" lon="4.81718">
        <ele>308</ele>
        <time>2018-09-30T09:53:46Z</time>
      </trkpt>
      <trkpt lat="45.94217" lon="4.81712">
        <ele>307</ele>
        <time>2018-09-30T09:53:47Z</time>
      </trkpt>
      <trkpt lat="45.94209" lon="4.81706">
        <ele>308</ele>
        <time>2018-09-30T09:53:49Z</time>
      </trkpt>
      <trkpt lat="45.94205" lon="4.81703">
        <ele>308</ele>
        <time>2018-09-30T09:53:50Z</time>
      </trkpt>
      <trkpt lat="45.94196" lon="4.81699">
        <ele>307</ele>
        <time>2018-09-30T09:53:52Z</time>
      </trkpt>
      <trkpt lat="45.94192" lon="4.81695">
        <ele>307</ele>
        <time>2018-09-30T09:53:53Z</time>
      </trkpt>
      <trkpt lat="45.94188" lon="4.81692">
        <ele>306</ele>
        <time>2018-09-30T09:53:54Z</time>
      </trkpt>
      <trkpt lat="45.94184" lon="4.81684">
        <ele>306</ele>
        <time>2018-09-30T09:53:55Z</time>
      </trkpt>
      <trkpt lat="45.94181" lon="4.81677">
        <ele>306</ele>
        <time>2018-09-30T09:53:56Z</time>
      </trkpt>
      <trkpt lat="45.94179" lon="4.81668">
        <ele>305</ele>
        <time>2018-09-30T09:53:57Z</time>
      </trkpt>
      <trkpt lat="45.94178" lon="4.81659">
        <ele>305</ele>
        <time>2018-09-30T09:53:58Z</time>
      </trkpt>
      <trkpt lat="45.94176" lon="4.81648">
        <ele>305</ele>
        <time>2018-09-30T09:53:59Z</time>
      </trkpt>
      <trkpt lat="45.94174" lon="4.81638">
        <ele>305</ele>
        <time>2018-09-30T09:54:00Z</time>
      </trkpt>
      <trkpt lat="45.9417" lon="4.81627">
        <ele>304</ele>
        <time>2018-09-30T09:54:01Z</time>
      </trkpt>
      <trkpt lat="45.94168" lon="4.81615">
        <ele>304</ele>
        <time>2018-09-30T09:54:02Z</time>
      </trkpt>
      <trkpt lat="45.94165" lon="4.81602">
        <ele>305</ele>
        <time>2018-09-30T09:54:03Z</time>
      </trkpt>
      <trkpt lat="45.94159" lon="4.81591">
        <ele>303</ele>
        <time>2018-09-30T09:54:04Z</time>
      </trkpt>
      <trkpt lat="45.94155" lon="4.81579">
        <ele>303</ele>
        <time>2018-09-30T09:54:05Z</time>
      </trkpt>
      <trkpt lat="45.94157" lon="4.81569">
        <ele>303</ele>
        <time>2018-09-30T09:54:06Z</time>
      </trkpt>
      <trkpt lat="45.94155" lon="4.81555">
        <ele>303</ele>
        <time>2018-09-30T09:54:07Z</time>
      </trkpt>
      <trkpt lat="45.94155" lon="4.81546">
        <ele>302</ele>
        <time>2018-09-30T09:54:08Z</time>
      </trkpt>
      <trkpt lat="45.94154" lon="4.81533">
        <ele>302</ele>
        <time>2018-09-30T09:54:09Z</time>
      </trkpt>
      <trkpt lat="45.94154" lon="4.81522">
        <ele>302</ele>
        <time>2018-09-30T09:54:10Z</time>
      </trkpt>
      <trkpt lat="45.94158" lon="4.8151">
        <ele>301</ele>
        <time>2018-09-30T09:54:11Z</time>
      </trkpt>
      <trkpt lat="45.94158" lon="4.815">
        <ele>300</ele>
        <time>2018-09-30T09:54:12Z</time>
      </trkpt>
      <trkpt lat="45.94156" lon="4.81486">
        <ele>241</ele>
        <time>2018-09-30T09:54:13Z</time>
      </trkpt>
      <trkpt lat="45.9416" lon="4.81471">
        <ele>251</ele>
        <time>2018-09-30T09:54:14Z</time>
      </trkpt>
      <trkpt lat="45.94163" lon="4.81457">
        <ele>258</ele>
        <time>2018-09-30T09:54:15Z</time>
      </trkpt>
      <trkpt lat="45.94166" lon="4.81443">
        <ele>265</ele>
        <time>2018-09-30T09:54:16Z</time>
      </trkpt>
      <trkpt lat="45.94166" lon="4.81428">
        <ele>270</ele>
        <time>2018-09-30T09:54:17Z</time>
      </trkpt>
      <trkpt lat="45.94165" lon="4.81412">
        <ele>273</ele>
        <time>2018-09-30T09:54:18Z</time>
      </trkpt>
      <trkpt lat="45.94167" lon="4.81398">
        <ele>277</ele>
        <time>2018-09-30T09:54:19Z</time>
      </trkpt>
      <trkpt lat="45.94168" lon="4.81386">
        <ele>279</ele>
        <time>2018-09-30T09:54:20Z</time>
      </trkpt>
      <trkpt lat="45.94167" lon="4.81373">
        <ele>282</ele>
        <time>2018-09-30T09:54:21Z</time>
      </trkpt>
      <trkpt lat="45.94168" lon="4.81357">
        <ele>286</ele>
        <time>2018-09-30T09:54:22Z</time>
      </trkpt>
      <trkpt lat="45.94171" lon="4.81342">
        <ele>288</ele>
        <time>2018-09-30T09:54:23Z</time>
      </trkpt>
      <trkpt lat="45.9417" lon="4.81328">
        <ele>286</ele>
        <time>2018-09-30T09:54:24Z</time>
      </trkpt>
      <trkpt lat="45.94171" lon="4.81312">
        <ele>286</ele>
        <time>2018-09-30T09:54:25Z</time>
      </trkpt>
      <trkpt lat="45.9417" lon="4.81296">
        <ele>287</ele>
        <time>2018-09-30T09:54:26Z</time>
      </trkpt>
      <trkpt lat="45.94171" lon="4.81281">
        <ele>288</ele>
        <time>2018-09-30T09:54:27Z</time>
      </trkpt>
      <trkpt lat="45.9417" lon="4.81265">
        <ele>286</ele>
        <time>2018-09-30T09:54:28Z</time>
      </trkpt>
      <trkpt lat="45.94168" lon="4.81252">
        <ele>288</ele>
        <time>2018-09-30T09:54:29Z</time>
      </trkpt>
      <trkpt lat="45.94163" lon="4.81236">
        <ele>287</ele>
        <time>2018-09-30T09:54:30Z</time>
      </trkpt>
      <trkpt lat="45.94158" lon="4.8122">
        <ele>248</ele>
        <time>2018-09-30T09:54:31Z</time>
      </trkpt>
      <trkpt lat="45.94156" lon="4.81207">
        <ele>258</ele>
        <time>2018-09-30T09:54:32Z</time>
      </trkpt>
      <trkpt lat="45.94155" lon="4.81193">
        <ele>265</ele>
        <time>2018-09-30T09:54:33Z</time>
      </trkpt>
      <trkpt lat="45.9415" lon="4.81179">
        <ele>272</ele>
        <time>2018-09-30T09:54:34Z</time>
      </trkpt>
      <trkpt lat="45.94144" lon="4.81164">
        <ele>276</ele>
        <time>2018-09-30T09:54:35Z</time>
      </trkpt>
      <trkpt lat="45.94137" lon="4.81149">
        <ele>279</ele>
        <time>2018-09-30T09:54:36Z</time>
      </trkpt>
      <trkpt lat="45.94132" lon="4.81136">
        <ele>281</ele>
        <time>2018-09-30T09:54:37Z</time>
      </trkpt>
      <trkpt lat="45.94126" lon="4.81123">
        <ele>282</ele>
        <time>2018-09-30T09:54:38Z</time>
      </trkpt>
      <trkpt lat="45.9412" lon="4.81111">
        <ele>282</ele>
        <time>2018-09-30T09:54:39Z</time>
      </trkpt>
      <trkpt lat="45.94113" lon="4.811">
        <ele>254</ele>
        <time>2018-09-30T09:54:40Z</time>
      </trkpt>
      <trkpt lat="45.94107" lon="4.81088">
        <ele>262</ele>
        <time>2018-09-30T09:54:41Z</time>
      </trkpt>
      <trkpt lat="45.94101" lon="4.81077">
        <ele>267</ele>
        <time>2018-09-30T09:54:42Z</time>
      </trkpt>
      <trkpt lat="45.94096" lon="4.81064">
        <ele>270</ele>
        <time>2018-09-30T09:54:43Z</time>
      </trkpt>
      <trkpt lat="45.94091" lon="4.81052">
        <ele>272</ele>
        <time>2018-09-30T09:54:44Z</time>
      </trkpt>
      <trkpt lat="45.94088" lon="4.81038">
        <ele>273</ele>
        <time>2018-09-30T09:54:45Z</time>
      </trkpt>
      <trkpt lat="45.94082" lon="4.81024">
        <ele>274</ele>
        <time>2018-09-30T09:54:46Z</time>
      </trkpt>
      <trkpt lat="45.9408" lon="4.81009">
        <ele>275</ele>
        <time>2018-09-30T09:54:47Z</time>
      </trkpt>
      <trkpt lat="45.94078" lon="4.80994">
        <ele>276</ele>
        <time>2018-09-30T09:54:48Z</time>
      </trkpt>
      <trkpt lat="45.94075" lon="4.80979">
        <ele>277</ele>
        <time>2018-09-30T09:54:49Z</time>
      </trkpt>
      <trkpt lat="45.94073" lon="4.80963">
        <ele>277</ele>
        <time>2018-09-30T09:54:50Z</time>
      </trkpt>
      <trkpt lat="45.94071" lon="4.80948">
        <ele>277</ele>
        <time>2018-09-30T09:54:51Z</time>
      </trkpt>
      <trkpt lat="45.94069" lon="4.80933">
        <ele>276</ele>
        <time>2018-09-30T09:54:52Z</time>
      </trkpt>
      <trkpt lat="45.94069" lon="4.80919">
        <ele>276</ele>
        <time>2018-09-30T09:54:53Z</time>
      </trkpt>
      <trkpt lat="45.94068" lon="4.80905">
        <ele>274</ele>
        <time>2018-09-30T09:54:54Z</time>
      </trkpt>
      <trkpt lat="45.94067" lon="4.8089">
        <ele>274</ele>
        <time>2018-09-30T09:54:55Z</time>
      </trkpt>
      <trkpt lat="45.94064" lon="4.80875">
        <ele>273</ele>
        <time>2018-09-30T09:54:56Z</time>
      </trkpt>
      <trkpt lat="45.94061" lon="4.8086">
        <ele>273</ele>
        <time>2018-09-30T09:54:57Z</time>
      </trkpt>
      <trkpt lat="45.94059" lon="4.80844">
        <ele>271</ele>
        <time>2018-09-30T09:54:58Z</time>
      </trkpt>
      <trkpt lat="45.94057" lon="4.80829">
        <ele>271</ele>
        <time>2018-09-30T09:54:59Z</time>
      </trkpt>
      <trkpt lat="45.94055" lon="4.80813">
        <ele>271</ele>
        <time>2018-09-30T09:55:00Z</time>
      </trkpt>
      <trkpt lat="45.94052" lon="4.80798">
        <ele>270</ele>
        <time>2018-09-30T09:55:01Z</time>
      </trkpt>
      <trkpt lat="45.9405" lon="4.80782">
        <ele>270</ele>
        <time>2018-09-30T09:55:02Z</time>
      </trkpt>
      <trkpt lat="45.94048" lon="4.80768">
        <ele>254</ele>
        <time>2018-09-30T09:55:03Z</time>
      </trkpt>
      <trkpt lat="45.94046" lon="4.80752">
        <ele>257</ele>
        <time>2018-09-30T09:55:04Z</time>
      </trkpt>
      <trkpt lat="45.94043" lon="4.80736">
        <ele>259</ele>
        <time>2018-09-30T09:55:05Z</time>
      </trkpt>
      <trkpt lat="45.94042" lon="4.80721">
        <ele>260</ele>
        <time>2018-09-30T09:55:06Z</time>
      </trkpt>
      <trkpt lat="45.94041" lon="4.80705">
        <ele>262</ele>
        <time>2018-09-30T09:55:07Z</time>
      </trkpt>
      <trkpt lat="45.9404" lon="4.80689">
        <ele>262</ele>
        <time>2018-09-30T09:55:08Z</time>
      </trkpt>
      <trkpt lat="45.94039" lon="4.80672">
        <ele>263</ele>
        <time>2018-09-30T09:55:09Z</time>
      </trkpt>
      <trkpt lat="45.94036" lon="4.80655">
        <ele>263</ele>
        <time>2018-09-30T09:55:10Z</time>
      </trkpt>
      <trkpt lat="45.94036" lon="4.80639">
        <ele>263</ele>
        <time>2018-09-30T09:55:11Z</time>
      </trkpt>
      <trkpt lat="45.94034" lon="4.80622">
        <ele>262</ele>
        <time>2018-09-30T09:55:12Z</time>
      </trkpt>
      <trkpt lat="45.94034" lon="4.80606">
        <ele>261</ele>
        <time>2018-09-30T09:55:13Z</time>
      </trkpt>
      <trkpt lat="45.94033" lon="4.8059">
        <ele>262</ele>
        <time>2018-09-30T09:55:14Z</time>
      </trkpt>
      <trkpt lat="45.94038" lon="4.80577">
        <ele>261</ele>
        <time>2018-09-30T09:55:15Z</time>
      </trkpt>
      <trkpt lat="45.94035" lon="4.8056">
        <ele>260</ele>
        <time>2018-09-30T09:55:16Z</time>
      </trkpt>
      <trkpt lat="45.94034" lon="4.80544">
        <ele>260</ele>
        <time>2018-09-30T09:55:17Z</time>
      </trkpt>
      <trkpt lat="45.94028" lon="4.80523">
        <ele>258</ele>
        <time>2018-09-30T09:55:18Z</time>
      </trkpt>
      <trkpt lat="45.94027" lon="4.80508">
        <ele>257</ele>
        <time>2018-09-30T09:55:19Z</time>
      </trkpt>
      <trkpt lat="45.94029" lon="4.80491">
        <ele>259</ele>
        <time>2018-09-30T09:55:20Z</time>
      </trkpt>
      <trkpt lat="45.94029" lon="4.80475">
        <ele>259</ele>
        <time>2018-09-30T09:55:21Z</time>
      </trkpt>
      <trkpt lat="45.94028" lon="4.80457">
        <ele>258</ele>
        <time>2018-09-30T09:55:22Z</time>
      </trkpt>
      <trkpt lat="45.94026" lon="4.80442">
        <ele>257</ele>
        <time>2018-09-30T09:55:23Z</time>
      </trkpt>
      <trkpt lat="45.94023" lon="4.80425">
        <ele>255</ele>
        <time>2018-09-30T09:55:24Z</time>
      </trkpt>
      <trkpt lat="45.94019" lon="4.80409">
        <ele>254</ele>
        <time>2018-09-30T09:55:25Z</time>
      </trkpt>
      <trkpt lat="45.94015" lon="4.80395">
        <ele>254</ele>
        <time>2018-09-30T09:55:26Z</time>
      </trkpt>
      <trkpt lat="45.94011" lon="4.80379">
        <ele>254</ele>
        <time>2018-09-30T09:55:27Z</time>
      </trkpt>
      <trkpt lat="45.94007" lon="4.80361">
        <ele>254</ele>
        <time>2018-09-30T09:55:28Z</time>
      </trkpt>
      <trkpt lat="45.94001" lon="4.80348">
        <ele>254</ele>
        <time>2018-09-30T09:55:29Z</time>
      </trkpt>
      <trkpt lat="45.93995" lon="4.8033">
        <ele>254</ele>
        <time>2018-09-30T09:55:30Z</time>
      </trkpt>
      <trkpt lat="45.93989" lon="4.80312">
        <ele>253</ele>
        <time>2018-09-30T09:55:31Z</time>
      </trkpt>
      <trkpt lat="45.93984" lon="4.80297">
        <ele>254</ele>
        <time>2018-09-30T09:55:32Z</time>
      </trkpt>
      <trkpt lat="45.9398" lon="4.8028">
        <ele>252</ele>
        <time>2018-09-30T09:55:33Z</time>
      </trkpt>
      <trkpt lat="45.93973" lon="4.80264">
        <ele>253</ele>
        <time>2018-09-30T09:55:34Z</time>
      </trkpt>
      <trkpt lat="45.93969" lon="4.80249">
        <ele>253</ele>
        <time>2018-09-30T09:55:35Z</time>
      </trkpt>
      <trkpt lat="45.93967" lon="4.80235">
        <ele>253</ele>
        <time>2018-09-30T09:55:36Z</time>
      </trkpt>
      <trkpt lat="45.93963" lon="4.80221">
        <ele>253</ele>
        <time>2018-09-30T09:55:37Z</time>
      </trkpt>
      <trkpt lat="45.93959" lon="4.80205">
        <ele>253</ele>
        <time>2018-09-30T09:55:38Z</time>
      </trkpt>
      <trkpt lat="45.93955" lon="4.80191">
        <ele>252</ele>
        <time>2018-09-30T09:55:39Z</time>
      </trkpt>
      <trkpt lat="45.93953" lon="4.80179">
        <ele>252</ele>
        <time>2018-09-30T09:55:40Z</time>
      </trkpt>
      <trkpt lat="45.9395" lon="4.80167">
        <ele>252</ele>
        <time>2018-09-30T09:55:41Z</time>
      </trkpt>
      <trkpt lat="45.93949" lon="4.80154">
        <ele>253</ele>
        <time>2018-09-30T09:55:42Z</time>
      </trkpt>
      <trkpt lat="45.93948" lon="4.80141">
        <ele>254</ele>
        <time>2018-09-30T09:55:43Z</time>
      </trkpt>
      <trkpt lat="45.93946" lon="4.80128">
        <ele>254</ele>
        <time>2018-09-30T09:55:44Z</time>
      </trkpt>
      <trkpt lat="45.93945" lon="4.80117">
        <ele>254</ele>
        <time>2018-09-30T09:55:45Z</time>
      </trkpt>
      <trkpt lat="45.93943" lon="4.80105">
        <ele>253</ele>
        <time>2018-09-30T09:55:46Z</time>
      </trkpt>
      <trkpt lat="45.93942" lon="4.80092">
        <ele>250</ele>
        <time>2018-09-30T09:55:47Z</time>
      </trkpt>
      <trkpt lat="45.9394" lon="4.80081">
        <ele>250</ele>
        <time>2018-09-30T09:55:48Z</time>
      </trkpt>
      <trkpt lat="45.9394" lon="4.80072">
        <ele>251</ele>
        <time>2018-09-30T09:55:49Z</time>
      </trkpt>
      <trkpt lat="45.93938" lon="4.80059">
        <ele>249</ele>
        <time>2018-09-30T09:55:50Z</time>
      </trkpt>
      <trkpt lat="45.93939" lon="4.80049">
        <ele>249</ele>
        <time>2018-09-30T09:55:51Z</time>
      </trkpt>
      <trkpt lat="45.93941" lon="4.8004">
        <ele>250</ele>
        <time>2018-09-30T09:55:52Z</time>
      </trkpt>
      <trkpt lat="45.93941" lon="4.80027">
        <ele>248</ele>
        <time>2018-09-30T09:55:53Z</time>
      </trkpt>
      <trkpt lat="45.93941" lon="4.80019">
        <ele>249</ele>
        <time>2018-09-30T09:55:54Z</time>
      </trkpt>
      <trkpt lat="45.93942" lon="4.80012">
        <ele>250</ele>
        <time>2018-09-30T09:55:55Z</time>
      </trkpt>
      <trkpt lat="45.93945" lon="4.80003">
        <ele>251</ele>
        <time>2018-09-30T09:55:56Z</time>
      </trkpt>
      <trkpt lat="45.93946" lon="4.79996">
        <ele>240</ele>
        <time>2018-09-30T09:55:57Z</time>
      </trkpt>
      <trkpt lat="45.93947" lon="4.79987">
        <ele>243</ele>
        <time>2018-09-30T09:55:58Z</time>
      </trkpt>
      <trkpt lat="45.93948" lon="4.7998">
        <ele>244</ele>
        <time>2018-09-30T09:55:59Z</time>
      </trkpt>
      <trkpt lat="45.9395" lon="4.79972">
        <ele>246</ele>
        <time>2018-09-30T09:56:00Z</time>
      </trkpt>
      <trkpt lat="45.93951" lon="4.79964">
        <ele>248</ele>
        <time>2018-09-30T09:56:01Z</time>
      </trkpt>
      <trkpt lat="45.93952" lon="4.79955">
        <ele>249</ele>
        <time>2018-09-30T09:56:02Z</time>
      </trkpt>
      <trkpt lat="45.93953" lon="4.79948">
        <ele>249</ele>
        <time>2018-09-30T09:56:03Z</time>
      </trkpt>
      <trkpt lat="45.93956" lon="4.79939">
        <ele>248</ele>
        <time>2018-09-30T09:56:04Z</time>
      </trkpt>
      <trkpt lat="45.93957" lon="4.7993">
        <ele>249</ele>
        <time>2018-09-30T09:56:05Z</time>
      </trkpt>
      <trkpt lat="45.93958" lon="4.79922">
        <ele>249</ele>
        <time>2018-09-30T09:56:06Z</time>
      </trkpt>
      <trkpt lat="45.93959" lon="4.79914">
        <ele>249</ele>
        <time>2018-09-30T09:56:07Z</time>
      </trkpt>
      <trkpt lat="45.9396" lon="4.79907">
        <ele>249</ele>
        <time>2018-09-30T09:56:08Z</time>
      </trkpt>
      <trkpt lat="45.93962" lon="4.79899">
        <ele>249</ele>
        <time>2018-09-30T09:56:09Z</time>
      </trkpt>
      <trkpt lat="45.93963" lon="4.79892">
        <ele>249</ele>
        <time>2018-09-30T09:56:10Z</time>
      </trkpt>
      <trkpt lat="45.93964" lon="4.79885">
        <ele>249</ele>
        <time>2018-09-30T09:56:11Z</time>
      </trkpt>
      <trkpt lat="45.93965" lon="4.79877">
        <ele>249</ele>
        <time>2018-09-30T09:56:12Z</time>
      </trkpt>
      <trkpt lat="45.93966" lon="4.79869">
        <ele>249</ele>
        <time>2018-09-30T09:56:13Z</time>
      </trkpt>
      <trkpt lat="45.93964" lon="4.79859">
        <ele>248</ele>
        <time>2018-09-30T09:56:14Z</time>
      </trkpt>
      <trkpt lat="45.93964" lon="4.7985">
        <ele>247</ele>
        <time>2018-09-30T09:56:15Z</time>
      </trkpt>
      <trkpt lat="45.93966" lon="4.79843">
        <ele>247</ele>
        <time>2018-09-30T09:56:16Z</time>
      </trkpt>
      <trkpt lat="45.93967" lon="4.79836">
        <ele>248</ele>
        <time>2018-09-30T09:56:17Z</time>
      </trkpt>
      <trkpt lat="45.9397" lon="4.79828">
        <ele>249</ele>
        <time>2018-09-30T09:56:18Z</time>
      </trkpt>
      <trkpt lat="45.93971" lon="4.79821">
        <ele>249</ele>
        <time>2018-09-30T09:56:19Z</time>
      </trkpt>
      <trkpt lat="45.93973" lon="4.79813">
        <ele>249</ele>
        <time>2018-09-30T09:56:20Z</time>
      </trkpt>
      <trkpt lat="45.93973" lon="4.79805">
        <ele>248</ele>
        <time>2018-09-30T09:56:21Z</time>
      </trkpt>
      <trkpt lat="45.93973" lon="4.79797">
        <ele>248</ele>
        <time>2018-09-30T09:56:22Z</time>
      </trkpt>
      <trkpt lat="45.93975" lon="4.7979">
        <ele>249</ele>
        <time>2018-09-30T09:56:23Z</time>
      </trkpt>
      <trkpt lat="45.93975" lon="4.79784">
        <ele>250</ele>
        <time>2018-09-30T09:56:24Z</time>
      </trkpt>
      <trkpt lat="45.93976" lon="4.79777">
        <ele>250</ele>
        <time>2018-09-30T09:56:25Z</time>
      </trkpt>
      <trkpt lat="45.93977" lon="4.7977">
        <ele>251</ele>
        <time>2018-09-30T09:56:26Z</time>
      </trkpt>
      <trkpt lat="45.93976" lon="4.79762">
        <ele>251</ele>
        <time>2018-09-30T09:56:27Z</time>
      </trkpt>
      <trkpt lat="45.93975" lon="4.79755">
        <ele>251</ele>
        <time>2018-09-30T09:56:28Z</time>
      </trkpt>
      <trkpt lat="45.93974" lon="4.79748">
        <ele>251</ele>
        <time>2018-09-30T09:56:29Z</time>
      </trkpt>
      <trkpt lat="45.93973" lon="4.79741">
        <ele>250</ele>
        <time>2018-09-30T09:56:30Z</time>
      </trkpt>
      <trkpt lat="45.93973" lon="4.79735">
        <ele>250</ele>
        <time>2018-09-30T09:56:31Z</time>
      </trkpt>
      <trkpt lat="45.93972" lon="4.79728">
        <ele>250</ele>
        <time>2018-09-30T09:56:32Z</time>
      </trkpt>
      <trkpt lat="45.93971" lon="4.79721">
        <ele>250</ele>
        <time>2018-09-30T09:56:33Z</time>
      </trkpt>
      <trkpt lat="45.93971" lon="4.79715">
        <ele>251</ele>
        <time>2018-09-30T09:56:34Z</time>
      </trkpt>
      <trkpt lat="45.93972" lon="4.79707">
        <ele>252</ele>
        <time>2018-09-30T09:56:35Z</time>
      </trkpt>
      <trkpt lat="45.93971" lon="4.79699">
        <ele>252</ele>
        <time>2018-09-30T09:56:36Z</time>
      </trkpt>
      <trkpt lat="45.93971" lon="4.79692">
        <ele>252</ele>
        <time>2018-09-30T09:56:37Z</time>
      </trkpt>
      <trkpt lat="45.93969" lon="4.79684">
        <ele>252</ele>
        <time>2018-09-30T09:56:38Z</time>
      </trkpt>
      <trkpt lat="45.9397" lon="4.79676">
        <ele>252</ele>
        <time>2018-09-30T09:56:39Z</time>
      </trkpt>
      <trkpt lat="45.93966" lon="4.79665">
        <ele>250</ele>
        <time>2018-09-30T09:56:40Z</time>
      </trkpt>
      <trkpt lat="45.93965" lon="4.79658">
        <ele>250</ele>
        <time>2018-09-30T09:56:41Z</time>
      </trkpt>
      <trkpt lat="45.93965" lon="4.79651">
        <ele>251</ele>
        <time>2018-09-30T09:56:42Z</time>
      </trkpt>
      <trkpt lat="45.93967" lon="4.79644">
        <ele>251</ele>
        <time>2018-09-30T09:56:43Z</time>
      </trkpt>
      <trkpt lat="45.93966" lon="4.79636">
        <ele>251</ele>
        <time>2018-09-30T09:56:44Z</time>
      </trkpt>
      <trkpt lat="45.93966" lon="4.79627">
        <ele>250</ele>
        <time>2018-09-30T09:56:45Z</time>
      </trkpt>
      <trkpt lat="45.93968" lon="4.7962">
        <ele>251</ele>
        <time>2018-09-30T09:56:46Z</time>
      </trkpt>
      <trkpt lat="45.93967" lon="4.79611">
        <ele>251</ele>
        <time>2018-09-30T09:56:47Z</time>
      </trkpt>
      <trkpt lat="45.93965" lon="4.79601">
        <ele>250</ele>
        <time>2018-09-30T09:56:48Z</time>
      </trkpt>
      <trkpt lat="45.93963" lon="4.7959">
        <ele>249</ele>
        <time>2018-09-30T09:56:49Z</time>
      </trkpt>
      <trkpt lat="45.93959" lon="4.7958">
        <ele>247</ele>
        <time>2018-09-30T09:56:50Z</time>
      </trkpt>
      <trkpt lat="45.93959" lon="4.79572">
        <ele>248</ele>
        <time>2018-09-30T09:56:51Z</time>
      </trkpt>
      <trkpt lat="45.93956" lon="4.7956">
        <ele>248</ele>
        <time>2018-09-30T09:56:52Z</time>
      </trkpt>
      <trkpt lat="45.93956" lon="4.79552">
        <ele>247</ele>
        <time>2018-09-30T09:56:53Z</time>
      </trkpt>
      <trkpt lat="45.93956" lon="4.79543">
        <ele>248</ele>
        <time>2018-09-30T09:56:54Z</time>
      </trkpt>
      <trkpt lat="45.93958" lon="4.79532">
        <ele>248</ele>
        <time>2018-09-30T09:56:55Z</time>
      </trkpt>
      <trkpt lat="45.93956" lon="4.79521">
        <ele>248</ele>
        <time>2018-09-30T09:56:56Z</time>
      </trkpt>
      <trkpt lat="45.93958" lon="4.79512">
        <ele>248</ele>
        <time>2018-09-30T09:56:57Z</time>
      </trkpt>
      <trkpt lat="45.93952" lon="4.79499">
        <ele>247</ele>
        <time>2018-09-30T09:56:58Z</time>
      </trkpt>
      <trkpt lat="45.93954" lon="4.79489">
        <ele>247</ele>
        <time>2018-09-30T09:56:59Z</time>
      </trkpt>
      <trkpt lat="45.93955" lon="4.79479">
        <ele>247</ele>
        <time>2018-09-30T09:57:00Z</time>
      </trkpt>
      <trkpt lat="45.93954" lon="4.79468">
        <ele>246</ele>
        <time>2018-09-30T09:57:01Z</time>
      </trkpt>
      <trkpt lat="45.93954" lon="4.79457">
        <ele>246</ele>
        <time>2018-09-30T09:57:02Z</time>
      </trkpt>
      <trkpt lat="45.93953" lon="4.79447">
        <ele>244</ele>
        <time>2018-09-30T09:57:03Z</time>
      </trkpt>
      <trkpt lat="45.93953" lon="4.79436">
        <ele>244</ele>
        <time>2018-09-30T09:57:04Z</time>
      </trkpt>
      <trkpt lat="45.93955" lon="4.79426">
        <ele>243</ele>
        <time>2018-09-30T09:57:05Z</time>
      </trkpt>
      <trkpt lat="45.93956" lon="4.79417">
        <ele>245</ele>
        <time>2018-09-30T09:57:06Z</time>
      </trkpt>
      <trkpt lat="45.93957" lon="4.79403">
        <ele>244</ele>
        <time>2018-09-30T09:57:07Z</time>
      </trkpt>
      <trkpt lat="45.93952" lon="4.79391">
        <ele>243</ele>
        <time>2018-09-30T09:57:08Z</time>
      </trkpt>
      <trkpt lat="45.93951" lon="4.7938">
        <ele>243</ele>
        <time>2018-09-30T09:57:09Z</time>
      </trkpt>
      <trkpt lat="45.93948" lon="4.79366">
        <ele>242</ele>
        <time>2018-09-30T09:57:10Z</time>
      </trkpt>
      <trkpt lat="45.9395" lon="4.79357">
        <ele>244</ele>
        <time>2018-09-30T09:57:11Z</time>
      </trkpt>
      <trkpt lat="45.93951" lon="4.79344">
        <ele>244</ele>
        <time>2018-09-30T09:57:12Z</time>
      </trkpt>
      <trkpt lat="45.9395" lon="4.79334">
        <ele>246</ele>
        <time>2018-09-30T09:57:13Z</time>
      </trkpt>
      <trkpt lat="45.9395" lon="4.79322">
        <ele>247</ele>
        <time>2018-09-30T09:57:14Z</time>
      </trkpt>
      <trkpt lat="45.9395" lon="4.7931">
        <ele>247</ele>
        <time>2018-09-30T09:57:15Z</time>
      </trkpt>
      <trkpt lat="45.9395" lon="4.79299">
        <ele>246</ele>
        <time>2018-09-30T09:57:16Z</time>
      </trkpt>
      <trkpt lat="45.93948" lon="4.79286">
        <ele>244</ele>
        <time>2018-09-30T09:57:17Z</time>
      </trkpt>
      <trkpt lat="45.93949" lon="4.79276">
        <ele>244</ele>
        <time>2018-09-30T09:57:18Z</time>
      </trkpt>
      <trkpt lat="45.93952" lon="4.79267">
        <ele>246</ele>
        <time>2018-09-30T09:57:19Z</time>
      </trkpt>
      <trkpt lat="45.93953" lon="4.79257">
        <ele>244</ele>
        <time>2018-09-30T09:57:20Z</time>
      </trkpt>
      <trkpt lat="45.93953" lon="4.79244">
        <ele>245</ele>
        <time>2018-09-30T09:57:21Z</time>
      </trkpt>
      <trkpt lat="45.93953" lon="4.79234">
        <ele>246</ele>
        <time>2018-09-30T09:57:22Z</time>
      </trkpt>
      <trkpt lat="45.93953" lon="4.79223">
        <ele>247</ele>
        <time>2018-09-30T09:57:23Z</time>
      </trkpt>
      <trkpt lat="45.93952" lon="4.79212">
        <ele>246</ele>
        <time>2018-09-30T09:57:24Z</time>
      </trkpt>
      <trkpt lat="45.93952" lon="4.792">
        <ele>245</ele>
        <time>2018-09-30T09:57:25Z</time>
      </trkpt>
      <trkpt lat="45.93952" lon="4.79188">
        <ele>244</ele>
        <time>2018-09-30T09:57:26Z</time>
      </trkpt>
      <trkpt lat="45.93954" lon="4.79178">
        <ele>244</ele>
        <time>2018-09-30T09:57:27Z</time>
      </trkpt>
      <trkpt lat="45.93953" lon="4.79168">
        <ele>245</ele>
        <time>2018-09-30T09:57:28Z</time>
      </trkpt>
      <trkpt lat="45.93952" lon="4.79157">
        <ele>245</ele>
        <time>2018-09-30T09:57:29Z</time>
      </trkpt>
      <trkpt lat="45.93951" lon="4.79145">
        <ele>247</ele>
        <time>2018-09-30T09:57:30Z</time>
      </trkpt>
      <trkpt lat="45.9395" lon="4.79135">
        <ele>247</ele>
        <time>2018-09-30T09:57:31Z</time>
      </trkpt>
      <trkpt lat="45.9395" lon="4.79123">
        <ele>246</ele>
        <time>2018-09-30T09:57:32Z</time>
      </trkpt>
      <trkpt lat="45.93949" lon="4.79111">
        <ele>244</ele>
        <time>2018-09-30T09:57:33Z</time>
      </trkpt>
      <trkpt lat="45.93947" lon="4.79101">
        <ele>244</ele>
        <time>2018-09-30T09:57:34Z</time>
      </trkpt>
      <trkpt lat="45.93948" lon="4.7909">
        <ele>244</ele>
        <time>2018-09-30T09:57:35Z</time>
      </trkpt>
      <trkpt lat="45.93947" lon="4.7908">
        <ele>245</ele>
        <time>2018-09-30T09:57:36Z</time>
      </trkpt>
      <trkpt lat="45.93948" lon="4.7907">
        <ele>245</ele>
        <time>2018-09-30T09:57:37Z</time>
      </trkpt>
      <trkpt lat="45.93947" lon="4.7906">
        <ele>245</ele>
        <time>2018-09-30T09:57:38Z</time>
      </trkpt>
      <trkpt lat="45.93948" lon="4.79049">
        <ele>244</ele>
        <time>2018-09-30T09:57:39Z</time>
      </trkpt>
      <trkpt lat="45.93946" lon="4.79039">
        <ele>244</ele>
        <time>2018-09-30T09:57:40Z</time>
      </trkpt>
      <trkpt lat="45.93946" lon="4.79027">
        <ele>243</ele>
        <time>2018-09-30T09:57:41Z</time>
      </trkpt>
      <trkpt lat="45.93945" lon="4.79018">
        <ele>243</ele>
        <time>2018-09-30T09:57:42Z</time>
      </trkpt>
      <trkpt lat="45.93943" lon="4.79007">
        <ele>242</ele>
        <time>2018-09-30T09:57:43Z</time>
      </trkpt>
      <trkpt lat="45.93944" lon="4.78999">
        <ele>242</ele>
        <time>2018-09-30T09:57:44Z</time>
      </trkpt>
      <trkpt lat="45.93945" lon="4.78991">
        <ele>241</ele>
        <time>2018-09-30T09:57:45Z</time>
      </trkpt>
      <trkpt lat="45.93943" lon="4.78983">
        <ele>241</ele>
        <time>2018-09-30T09:57:46Z</time>
      </trkpt>
      <trkpt lat="45.93944" lon="4.78974">
        <ele>242</ele>
        <time>2018-09-30T09:57:47Z</time>
      </trkpt>
      <trkpt lat="45.93944" lon="4.78963">
        <ele>242</ele>
        <time>2018-09-30T09:57:48Z</time>
      </trkpt>
      <trkpt lat="45.93943" lon="4.78953">
        <ele>242</ele>
        <time>2018-09-30T09:57:49Z</time>
      </trkpt>
      <trkpt lat="45.93942" lon="4.78942">
        <ele>242</ele>
        <time>2018-09-30T09:57:50Z</time>
      </trkpt>
      <trkpt lat="45.93942" lon="4.78932">
        <ele>241</ele>
        <time>2018-09-30T09:57:51Z</time>
      </trkpt>
      <trkpt lat="45.93942" lon="4.78923">
        <ele>241</ele>
        <time>2018-09-30T09:57:52Z</time>
      </trkpt>
      <trkpt lat="45.93942" lon="4.78912">
        <ele>240</ele>
        <time>2018-09-30T09:57:53Z</time>
      </trkpt>
      <trkpt lat="45.93941" lon="4.78902">
        <ele>240</ele>
        <time>2018-09-30T09:57:54Z</time>
      </trkpt>
      <trkpt lat="45.9394" lon="4.78894">
        <ele>241</ele>
        <time>2018-09-30T09:57:55Z</time>
      </trkpt>
      <trkpt lat="45.9394" lon="4.78886">
        <ele>237</ele>
        <time>2018-09-30T09:57:56Z</time>
      </trkpt>
      <trkpt lat="45.93938" lon="4.78877">
        <ele>238</ele>
        <time>2018-09-30T09:57:57Z</time>
      </trkpt>
      <trkpt lat="45.9394" lon="4.7887">
        <ele>240</ele>
        <time>2018-09-30T09:57:58Z</time>
      </trkpt>
      <trkpt lat="45.9394" lon="4.7886">
        <ele>239</ele>
        <time>2018-09-30T09:57:59Z</time>
      </trkpt>
      <trkpt lat="45.9394" lon="4.78853">
        <ele>240</ele>
        <time>2018-09-30T09:58:00Z</time>
      </trkpt>
      <trkpt lat="45.93939" lon="4.78844">
        <ele>239</ele>
        <time>2018-09-30T09:58:01Z</time>
      </trkpt>
      <trkpt lat="45.93938" lon="4.78835">
        <ele>239</ele>
        <time>2018-09-30T09:58:02Z</time>
      </trkpt>
      <trkpt lat="45.93938" lon="4.78828">
        <ele>240</ele>
        <time>2018-09-30T09:58:03Z</time>
      </trkpt>
      <trkpt lat="45.93937" lon="4.78819">
        <ele>240</ele>
        <time>2018-09-30T09:58:04Z</time>
      </trkpt>
      <trkpt lat="45.93936" lon="4.78811">
        <ele>241</ele>
        <time>2018-09-30T09:58:05Z</time>
      </trkpt>
      <trkpt lat="45.93937" lon="4.78803">
        <ele>241</ele>
        <time>2018-09-30T09:58:06Z</time>
      </trkpt>
      <trkpt lat="45.93937" lon="4.78795">
        <ele>241</ele>
        <time>2018-09-30T09:58:07Z</time>
      </trkpt>
      <trkpt lat="45.93937" lon="4.78788">
        <ele>241</ele>
        <time>2018-09-30T09:58:08Z</time>
      </trkpt>
      <trkpt lat="45.93938" lon="4.7878">
        <ele>241</ele>
        <time>2018-09-30T09:58:09Z</time>
      </trkpt>
      <trkpt lat="45.93935" lon="4.78772">
        <ele>240</ele>
        <time>2018-09-30T09:58:10Z</time>
      </trkpt>
      <trkpt lat="45.93938" lon="4.78766">
        <ele>242</ele>
        <time>2018-09-30T09:58:11Z</time>
      </trkpt>
      <trkpt lat="45.93937" lon="4.78758">
        <ele>242</ele>
        <time>2018-09-30T09:58:12Z</time>
      </trkpt>
      <trkpt lat="45.93937" lon="4.78752">
        <ele>243</ele>
        <time>2018-09-30T09:58:13Z</time>
      </trkpt>
      <trkpt lat="45.93938" lon="4.78744">
        <ele>241</ele>
        <time>2018-09-30T09:58:14Z</time>
      </trkpt>
      <trkpt lat="45.9394" lon="4.78732">
        <ele>243</ele>
        <time>2018-09-30T09:58:16Z</time>
      </trkpt>
      <trkpt lat="45.9394" lon="4.78724">
        <ele>243</ele>
        <time>2018-09-30T09:58:17Z</time>
      </trkpt>
      <trkpt lat="45.93939" lon="4.78717">
        <ele>243</ele>
        <time>2018-09-30T09:58:18Z</time>
      </trkpt>
      <trkpt lat="45.93938" lon="4.78709">
        <ele>242</ele>
        <time>2018-09-30T09:58:19Z</time>
      </trkpt>
      <trkpt lat="45.93938" lon="4.78697">
        <ele>241</ele>
        <time>2018-09-30T09:58:21Z</time>
      </trkpt>
      <trkpt lat="45.93937" lon="4.7869">
        <ele>240</ele>
        <time>2018-09-30T09:58:22Z</time>
      </trkpt>
      <trkpt lat="45.93935" lon="4.78683">
        <ele>240</ele>
        <time>2018-09-30T09:58:23Z</time>
      </trkpt>
      <trkpt lat="45.93934" lon="4.78674">
        <ele>237</ele>
        <time>2018-09-30T09:58:24Z</time>
      </trkpt>
      <trkpt lat="45.93933" lon="4.78661">
        <ele>237</ele>
        <time>2018-09-30T09:58:26Z</time>
      </trkpt>
      <trkpt lat="45.93934" lon="4.78656">
        <ele>237</ele>
        <time>2018-09-30T09:58:27Z</time>
      </trkpt>
      <trkpt lat="45.93935" lon="4.78649">
        <ele>236</ele>
        <time>2018-09-30T09:58:28Z</time>
      </trkpt>
      <trkpt lat="45.93935" lon="4.78641">
        <ele>236</ele>
        <time>2018-09-30T09:58:29Z</time>
      </trkpt>
      <trkpt lat="45.93936" lon="4.78633">
        <ele>236</ele>
        <time>2018-09-30T09:58:30Z</time>
      </trkpt>
      <trkpt lat="45.93936" lon="4.78626">
        <ele>230</ele>
        <time>2018-09-30T09:58:31Z</time>
      </trkpt>
      <trkpt lat="45.93937" lon="4.7862">
        <ele>231</ele>
        <time>2018-09-30T09:58:32Z</time>
      </trkpt>
      <trkpt lat="45.93938" lon="4.78614">
        <ele>232</ele>
        <time>2018-09-30T09:58:33Z</time>
      </trkpt>
      <trkpt lat="45.93935" lon="4.78601">
        <ele>229</ele>
        <time>2018-09-30T09:58:35Z</time>
      </trkpt>
      <trkpt lat="45.93934" lon="4.78594">
        <ele>230</ele>
        <time>2018-09-30T09:58:36Z</time>
      </trkpt>
      <trkpt lat="45.93932" lon="4.78583">
        <ele>232</ele>
        <time>2018-09-30T09:58:38Z</time>
      </trkpt>
      <trkpt lat="45.93931" lon="4.78577">
        <ele>233</ele>
        <time>2018-09-30T09:58:39Z</time>
      </trkpt>
      <trkpt lat="45.93932" lon="4.7857">
        <ele>235</ele>
        <time>2018-09-30T09:58:42Z</time>
      </trkpt>
      <trkpt lat="45.93933" lon="4.78562">
        <ele>234</ele>
        <time>2018-09-30T09:58:43Z</time>
      </trkpt>
      <trkpt lat="45.93932" lon="4.78551">
        <ele>234</ele>
        <time>2018-09-30T09:58:45Z</time>
      </trkpt>
      <trkpt lat="45.93931" lon="4.78546">
        <ele>235</ele>
        <time>2018-09-30T09:58:46Z</time>
      </trkpt>
      <trkpt lat="45.93932" lon="4.78535">
        <ele>237</ele>
        <time>2018-09-30T09:58:48Z</time>
      </trkpt>
      <trkpt lat="45.93932" lon="4.78529">
        <ele>237</ele>
        <time>2018-09-30T09:58:49Z</time>
      </trkpt>
      <trkpt lat="45.93934" lon="4.78516">
        <ele>238</ele>
        <time>2018-09-30T09:58:51Z</time>
      </trkpt>
      <trkpt lat="45.93935" lon="4.7851">
        <ele>239</ele>
        <time>2018-09-30T09:58:52Z</time>
      </trkpt>
      <trkpt lat="45.93937" lon="4.78503">
        <ele>239</ele>
        <time>2018-09-30T09:58:53Z</time>
      </trkpt>
      <trkpt lat="45.93938" lon="4.78497">
        <ele>240</ele>
        <time>2018-09-30T09:58:54Z</time>
      </trkpt>
      <trkpt lat="45.93941" lon="4.78485">
        <ele>243</ele>
        <time>2018-09-30T09:58:56Z</time>
      </trkpt>
      <trkpt lat="45.93941" lon="4.78478">
        <ele>244</ele>
        <time>2018-09-30T09:58:57Z</time>
      </trkpt>
      <trkpt lat="45.93942" lon="4.78471">
        <ele>244</ele>
        <time>2018-09-30T09:58:58Z</time>
      </trkpt>
      <trkpt lat="45.93943" lon="4.78464">
        <ele>245</ele>
        <time>2018-09-30T09:58:59Z</time>
      </trkpt>
      <trkpt lat="45.93945" lon="4.78456">
        <ele>244</ele>
        <time>2018-09-30T09:59:00Z</time>
      </trkpt>
      <trkpt lat="45.93945" lon="4.78449">
        <ele>244</ele>
        <time>2018-09-30T09:59:01Z</time>
      </trkpt>
      <trkpt lat="45.93947" lon="4.78437">
        <ele>244</ele>
        <time>2018-09-30T09:59:03Z</time>
      </trkpt>
      <trkpt lat="45.93948" lon="4.78432">
        <ele>244</ele>
        <time>2018-09-30T09:59:04Z</time>
      </trkpt>
      <trkpt lat="45.93947" lon="4.7842">
        <ele>244</ele>
        <time>2018-09-30T09:59:06Z</time>
      </trkpt>
      <trkpt lat="45.93948" lon="4.78413">
        <ele>245</ele>
        <time>2018-09-30T09:59:07Z</time>
      </trkpt>
      <trkpt lat="45.93949" lon="4.784">
        <ele>244</ele>
        <time>2018-09-30T09:59:09Z</time>
      </trkpt>
      <trkpt lat="45.93949" lon="4.78391">
        <ele>242</ele>
        <time>2018-09-30T09:59:10Z</time>
      </trkpt>
      <trkpt lat="45.93952" lon="4.78382">
        <ele>245</ele>
        <time>2018-09-30T09:59:12Z</time>
      </trkpt>
      <trkpt lat="45.93953" lon="4.78375">
        <ele>246</ele>
        <time>2018-09-30T09:59:13Z</time>
      </trkpt>
      <trkpt lat="45.93955" lon="4.78363">
        <ele>248</ele>
        <time>2018-09-30T09:59:15Z</time>
      </trkpt>
      <trkpt lat="45.93956" lon="4.78358">
        <ele>248</ele>
        <time>2018-09-30T09:59:16Z</time>
      </trkpt>
      <trkpt lat="45.93958" lon="4.78352">
        <ele>249</ele>
        <time>2018-09-30T09:59:17Z</time>
      </trkpt>
      <trkpt lat="45.93959" lon="4.78346">
        <ele>249</ele>
        <time>2018-09-30T09:59:18Z</time>
      </trkpt>
      <trkpt lat="45.93962" lon="4.78338">
        <ele>248</ele>
        <time>2018-09-30T09:59:20Z</time>
      </trkpt>
      <trkpt lat="45.93965" lon="4.7833">
        <ele>248</ele>
        <time>2018-09-30T09:59:21Z</time>
      </trkpt>
      <trkpt lat="45.93967" lon="4.78321">
        <ele>247</ele>
        <time>2018-09-30T09:59:24Z</time>
      </trkpt>
      <trkpt lat="45.93967" lon="4.78317">
        <ele>246</ele>
        <time>2018-09-30T09:59:25Z</time>
      </trkpt>
      <trkpt lat="45.93969" lon="4.78306">
        <ele>246</ele>
        <time>2018-09-30T09:59:26Z</time>
      </trkpt>
      <trkpt lat="45.9397" lon="4.783">
        <ele>246</ele>
        <time>2018-09-30T09:59:27Z</time>
      </trkpt>
      <trkpt lat="45.9397" lon="4.78293">
        <ele>246</ele>
        <time>2018-09-30T09:59:28Z</time>
      </trkpt>
      <trkpt lat="45.93971" lon="4.78286">
        <ele>247</ele>
        <time>2018-09-30T09:59:29Z</time>
      </trkpt>
      <trkpt lat="45.93973" lon="4.7828">
        <ele>246</ele>
        <time>2018-09-30T09:59:30Z</time>
      </trkpt>
      <trkpt lat="45.93974" lon="4.78272">
        <ele>247</ele>
        <time>2018-09-30T09:59:31Z</time>
      </trkpt>
      <trkpt lat="45.93975" lon="4.78265">
        <ele>248</ele>
        <time>2018-09-30T09:59:32Z</time>
      </trkpt>
      <trkpt lat="45.93976" lon="4.78257">
        <ele>247</ele>
        <time>2018-09-30T09:59:33Z</time>
      </trkpt>
      <trkpt lat="45.93976" lon="4.78245">
        <ele>248</ele>
        <time>2018-09-30T09:59:35Z</time>
      </trkpt>
      <trkpt lat="45.93975" lon="4.78239">
        <ele>247</ele>
        <time>2018-09-30T09:59:36Z</time>
      </trkpt>
      <trkpt lat="45.93977" lon="4.78229">
        <ele>249</ele>
        <time>2018-09-30T09:59:38Z</time>
      </trkpt>
      <trkpt lat="45.93977" lon="4.78224">
        <ele>249</ele>
        <time>2018-09-30T09:59:39Z</time>
      </trkpt>
      <trkpt lat="45.93981" lon="4.78214">
        <ele>253</ele>
        <time>2018-09-30T09:59:41Z</time>
      </trkpt>
      <trkpt lat="45.93982" lon="4.78207">
        <ele>252</ele>
        <time>2018-09-30T09:59:42Z</time>
      </trkpt>
      <trkpt lat="45.93984" lon="4.78195">
        <ele>250</ele>
        <time>2018-09-30T09:59:44Z</time>
      </trkpt>
      <trkpt lat="45.93985" lon="4.7819">
        <ele>249</ele>
        <time>2018-09-30T09:59:45Z</time>
      </trkpt>
      <trkpt lat="45.93989" lon="4.7818">
        <ele>249</ele>
        <time>2018-09-30T09:59:47Z</time>
      </trkpt>
      <trkpt lat="45.9399" lon="4.78174">
        <ele>250</ele>
        <time>2018-09-30T09:59:48Z</time>
      </trkpt>
      <trkpt lat="45.93992" lon="4.78169">
        <ele>250</ele>
        <time>2018-09-30T09:59:50Z</time>
      </trkpt>
      <trkpt lat="45.93996" lon="4.78161">
        <ele>250</ele>
        <time>2018-09-30T09:59:51Z</time>
      </trkpt>
      <trkpt lat="45.93996" lon="4.78149">
        <ele>249</ele>
        <time>2018-09-30T09:59:53Z</time>
      </trkpt>
      <trkpt lat="45.93995" lon="4.78143">
        <ele>250</ele>
        <time>2018-09-30T09:59:54Z</time>
      </trkpt>
      <trkpt lat="45.93995" lon="4.78131">
        <ele>250</ele>
        <time>2018-09-30T09:59:56Z</time>
      </trkpt>
      <trkpt lat="45.93996" lon="4.78126">
        <ele>251</ele>
        <time>2018-09-30T09:59:57Z</time>
      </trkpt>
      <trkpt lat="45.93998" lon="4.78114">
        <ele>249</ele>
        <time>2018-09-30T09:59:59Z</time>
      </trkpt>
      <trkpt lat="45.93998" lon="4.78108">
        <ele>248</ele>
        <time>2018-09-30T10:00:00Z</time>
      </trkpt>
      <trkpt lat="45.94" lon="4.78096">
        <ele>248</ele>
        <time>2018-09-30T10:00:02Z</time>
      </trkpt>
      <trkpt lat="45.94" lon="4.78089">
        <ele>247</ele>
        <time>2018-09-30T10:00:03Z</time>
      </trkpt>
      <trkpt lat="45.94002" lon="4.78083">
        <ele>245</ele>
        <time>2018-09-30T10:00:04Z</time>
      </trkpt>
      <trkpt lat="45.94002" lon="4.78076">
        <ele>244</ele>
        <time>2018-09-30T10:00:05Z</time>
      </trkpt>
      <trkpt lat="45.94003" lon="4.7807">
        <ele>244</ele>
        <time>2018-09-30T10:00:06Z</time>
      </trkpt>
      <trkpt lat="45.94005" lon="4.78063">
        <ele>245</ele>
        <time>2018-09-30T10:00:07Z</time>
      </trkpt>
      <trkpt lat="45.94005" lon="4.78056">
        <ele>245</ele>
        <time>2018-09-30T10:00:08Z</time>
      </trkpt>
      <trkpt lat="45.94007" lon="4.7805">
        <ele>245</ele>
        <time>2018-09-30T10:00:09Z</time>
      </trkpt>
      <trkpt lat="45.94009" lon="4.78038">
        <ele>246</ele>
        <time>2018-09-30T10:00:11Z</time>
      </trkpt>
      <trkpt lat="45.94011" lon="4.78031">
        <ele>245</ele>
        <time>2018-09-30T10:00:12Z</time>
      </trkpt>
      <trkpt lat="45.94012" lon="4.78018">
        <ele>246</ele>
        <time>2018-09-30T10:00:14Z</time>
      </trkpt>
      <trkpt lat="45.94014" lon="4.78013">
        <ele>246</ele>
        <time>2018-09-30T10:00:15Z</time>
      </trkpt>
      <trkpt lat="45.94014" lon="4.78004">
        <ele>247</ele>
        <time>2018-09-30T10:00:18Z</time>
      </trkpt>
      <trkpt lat="45.94015" lon="4.77993">
        <ele>247</ele>
        <time>2018-09-30T10:00:19Z</time>
      </trkpt>
      <trkpt lat="45.94018" lon="4.77984">
        <ele>248</ele>
        <time>2018-09-30T10:00:21Z</time>
      </trkpt>
      <trkpt lat="45.94019" lon="4.77977">
        <ele>246</ele>
        <time>2018-09-30T10:00:22Z</time>
      </trkpt>
      <trkpt lat="45.9402" lon="4.77969">
        <ele>244</ele>
        <time>2018-09-30T10:00:23Z</time>
      </trkpt>
      <trkpt lat="45.94021" lon="4.77964">
        <ele>245</ele>
        <time>2018-09-30T10:00:24Z</time>
      </trkpt>
      <trkpt lat="45.94022" lon="4.77956">
        <ele>245</ele>
        <time>2018-09-30T10:00:25Z</time>
      </trkpt>
      <trkpt lat="45.94024" lon="4.7795">
        <ele>244</ele>
        <time>2018-09-30T10:00:26Z</time>
      </trkpt>
      <trkpt lat="45.94028" lon="4.7794">
        <ele>246</ele>
        <time>2018-09-30T10:00:28Z</time>
      </trkpt>
      <trkpt lat="45.94028" lon="4.77934">
        <ele>247</ele>
        <time>2018-09-30T10:00:29Z</time>
      </trkpt>
      <trkpt lat="45.94024" lon="4.77923">
        <ele>246</ele>
        <time>2018-09-30T10:00:31Z</time>
      </trkpt>
      <trkpt lat="45.94018" lon="4.77921">
        <ele>245</ele>
        <time>2018-09-30T10:00:32Z</time>
      </trkpt>
      <trkpt lat="45.94009" lon="4.7792">
        <ele>244</ele>
        <time>2018-09-30T10:00:34Z</time>
      </trkpt>
      <trkpt lat="45.94003" lon="4.77921">
        <ele>245</ele>
        <time>2018-09-30T10:00:35Z</time>
      </trkpt>
      <trkpt lat="45.93997" lon="4.77924">
        <ele>246</ele>
        <time>2018-09-30T10:00:36Z</time>
      </trkpt>
      <trkpt lat="45.93989" lon="4.77926">
        <ele>244</ele>
        <time>2018-09-30T10:00:37Z</time>
      </trkpt>
      <trkpt lat="45.93981" lon="4.77931">
        <ele>245</ele>
        <time>2018-09-30T10:00:38Z</time>
      </trkpt>
      <trkpt lat="45.93974" lon="4.77937">
        <ele>245</ele>
        <time>2018-09-30T10:00:39Z</time>
      </trkpt>
      <trkpt lat="45.93967" lon="4.77944">
        <ele>244</ele>
        <time>2018-09-30T10:00:40Z</time>
      </trkpt>
      <trkpt lat="45.93959" lon="4.77949">
        <ele>244</ele>
        <time>2018-09-30T10:00:41Z</time>
      </trkpt>
      <trkpt lat="45.93951" lon="4.77955">
        <ele>243</ele>
        <time>2018-09-30T10:00:42Z</time>
      </trkpt>
      <trkpt lat="45.93941" lon="4.77963">
        <ele>242</ele>
        <time>2018-09-30T10:00:43Z</time>
      </trkpt>
      <trkpt lat="45.93934" lon="4.77968">
        <ele>243</ele>
        <time>2018-09-30T10:00:44Z</time>
      </trkpt>
      <trkpt lat="45.93928" lon="4.77972">
        <ele>242</ele>
        <time>2018-09-30T10:00:45Z</time>
      </trkpt>
      <trkpt lat="45.9392" lon="4.77976">
        <ele>241</ele>
        <time>2018-09-30T10:00:46Z</time>
      </trkpt>
      <trkpt lat="45.93911" lon="4.77981">
        <ele>240</ele>
        <time>2018-09-30T10:00:47Z</time>
      </trkpt>
      <trkpt lat="45.93905" lon="4.7799">
        <ele>240</ele>
        <time>2018-09-30T10:00:48Z</time>
      </trkpt>
      <trkpt lat="45.93898" lon="4.77996">
        <ele>234</ele>
        <time>2018-09-30T10:00:50Z</time>
      </trkpt>
      <trkpt lat="45.93895" lon="4.77997">
        <ele>235</ele>
        <time>2018-09-30T10:00:51Z</time>
      </trkpt>
      <trkpt lat="45.9389" lon="4.78005">
        <ele>238</ele>
        <time>2018-09-30T10:00:53Z</time>
      </trkpt>
      <trkpt lat="45.93884" lon="4.78008">
        <ele>239</ele>
        <time>2018-09-30T10:00:54Z</time>
      </trkpt>
      <trkpt lat="45.93879" lon="4.78011">
        <ele>238</ele>
        <time>2018-09-30T10:00:55Z</time>
      </trkpt>
      <trkpt lat="45.93874" lon="4.78011">
        <ele>238</ele>
        <time>2018-09-30T10:00:56Z</time>
      </trkpt>
      <trkpt lat="45.93867" lon="4.78003">
        <ele>234</ele>
        <time>2018-09-30T10:00:58Z</time>
      </trkpt>
      <trkpt lat="45.93862" lon="4.78">
        <ele>234</ele>
        <time>2018-09-30T10:00:59Z</time>
      </trkpt>
      <trkpt lat="45.93858" lon="4.77997">
        <ele>230</ele>
        <time>2018-09-30T10:01:00Z</time>
      </trkpt>
      <trkpt lat="45.93852" lon="4.77993">
        <ele>231</ele>
        <time>2018-09-30T10:01:01Z</time>
      </trkpt>
      <trkpt lat="45.93847" lon="4.77989">
        <ele>231</ele>
        <time>2018-09-30T10:01:02Z</time>
      </trkpt>
      <trkpt lat="45.93843" lon="4.77986">
        <ele>230</ele>
        <time>2018-09-30T10:01:03Z</time>
      </trkpt>
      <trkpt lat="45.93838" lon="4.7798">
        <ele>231</ele>
        <time>2018-09-30T10:01:04Z</time>
      </trkpt>
      <trkpt lat="45.93835" lon="4.77974">
        <ele>230</ele>
        <time>2018-09-30T10:01:05Z</time>
      </trkpt>
      <trkpt lat="45.93828" lon="4.77966">
        <ele>230</ele>
        <time>2018-09-30T10:01:07Z</time>
      </trkpt>
      <trkpt lat="45.93825" lon="4.77962">
        <ele>229</ele>
        <time>2018-09-30T10:01:08Z</time>
      </trkpt>
      <trkpt lat="45.9382" lon="4.77958">
        <ele>228</ele>
        <time>2018-09-30T10:01:09Z</time>
      </trkpt>
      <trkpt lat="45.93817" lon="4.77954">
        <ele>228</ele>
        <time>2018-09-30T10:01:10Z</time>
      </trkpt>
      <trkpt lat="45.93814" lon="4.77949">
        <ele>228</ele>
        <time>2018-09-30T10:01:11Z</time>
      </trkpt>
      <trkpt lat="45.9381" lon="4.77944">
        <ele>228</ele>
        <time>2018-09-30T10:01:12Z</time>
      </trkpt>
      <trkpt lat="45.93806" lon="4.7794">
        <ele>228</ele>
        <time>2018-09-30T10:01:13Z</time>
      </trkpt>
      <trkpt lat="45.93804" lon="4.77935">
        <ele>228</ele>
        <time>2018-09-30T10:01:14Z</time>
      </trkpt>
      <trkpt lat="45.93801" lon="4.7793">
        <ele>227</ele>
        <time>2018-09-30T10:01:15Z</time>
      </trkpt>
      <trkpt lat="45.93797" lon="4.77926">
        <ele>228</ele>
        <time>2018-09-30T10:01:16Z</time>
      </trkpt>
      <trkpt lat="45.93793" lon="4.77921">
        <ele>228</ele>
        <time>2018-09-30T10:01:17Z</time>
      </trkpt>
      <trkpt lat="45.9379" lon="4.77916">
        <ele>228</ele>
        <time>2018-09-30T10:01:18Z</time>
      </trkpt>
      <trkpt lat="45.93786" lon="4.77912">
        <ele>228</ele>
        <time>2018-09-30T10:01:19Z</time>
      </trkpt>
      <trkpt lat="45.93782" lon="4.77908">
        <ele>229</ele>
        <time>2018-09-30T10:01:20Z</time>
      </trkpt>
      <trkpt lat="45.93777" lon="4.77901">
        <ele>228</ele>
        <time>2018-09-30T10:01:22Z</time>
      </trkpt>
      <trkpt lat="45.93773" lon="4.77896">
        <ele>228</ele>
        <time>2018-09-30T10:01:23Z</time>
      </trkpt>
      <trkpt lat="45.93769" lon="4.77892">
        <ele>227</ele>
        <time>2018-09-30T10:01:24Z</time>
      </trkpt>
      <trkpt lat="45.93765" lon="4.77888">
        <ele>227</ele>
        <time>2018-09-30T10:01:25Z</time>
      </trkpt>
      <trkpt lat="45.93762" lon="4.77883">
        <ele>228</ele>
        <time>2018-09-30T10:01:26Z</time>
      </trkpt>
      <trkpt lat="45.93759" lon="4.77878">
        <ele>227</ele>
        <time>2018-09-30T10:01:27Z</time>
      </trkpt>
      <trkpt lat="45.93753" lon="4.77871">
        <ele>226</ele>
        <time>2018-09-30T10:01:29Z</time>
      </trkpt>
      <trkpt lat="45.9375" lon="4.77867">
        <ele>226</ele>
        <time>2018-09-30T10:01:30Z</time>
      </trkpt>
      <trkpt lat="45.93743" lon="4.77859">
        <ele>225</ele>
        <time>2018-09-30T10:01:32Z</time>
      </trkpt>
      <trkpt lat="45.93739" lon="4.77856">
        <ele>226</ele>
        <time>2018-09-30T10:01:33Z</time>
      </trkpt>
      <trkpt lat="45.93736" lon="4.7785">
        <ele>226</ele>
        <time>2018-09-30T10:01:34Z</time>
      </trkpt>
      <trkpt lat="45.93732" lon="4.77846">
        <ele>225</ele>
        <time>2018-09-30T10:01:35Z</time>
      </trkpt>
      <trkpt lat="45.93729" lon="4.77841">
        <ele>225</ele>
        <time>2018-09-30T10:01:36Z</time>
      </trkpt>
      <trkpt lat="45.93725" lon="4.77839">
        <ele>224</ele>
        <time>2018-09-30T10:01:37Z</time>
      </trkpt>
      <trkpt lat="45.93719" lon="4.77834">
        <ele>223</ele>
        <time>2018-09-30T10:01:38Z</time>
      </trkpt>
      <trkpt lat="45.93716" lon="4.77829">
        <ele>223</ele>
        <time>2018-09-30T10:01:39Z</time>
      </trkpt>
      <trkpt lat="45.93713" lon="4.77824">
        <ele>223</ele>
        <time>2018-09-30T10:01:40Z</time>
      </trkpt>
      <trkpt lat="45.93709" lon="4.77818">
        <ele>222</ele>
        <time>2018-09-30T10:01:41Z</time>
      </trkpt>
      <trkpt lat="45.93704" lon="4.77812">
        <ele>222</ele>
        <time>2018-09-30T10:01:42Z</time>
      </trkpt>
      <trkpt lat="45.93699" lon="4.77807">
        <ele>222</ele>
        <time>2018-09-30T10:01:43Z</time>
      </trkpt>
      <trkpt lat="45.93694" lon="4.77802">
        <ele>221</ele>
        <time>2018-09-30T10:01:44Z</time>
      </trkpt>
      <trkpt lat="45.9369" lon="4.77797">
        <ele>221</ele>
        <time>2018-09-30T10:01:45Z</time>
      </trkpt>
      <trkpt lat="45.93686" lon="4.77791">
        <ele>221</ele>
        <time>2018-09-30T10:01:46Z</time>
      </trkpt>
      <trkpt lat="45.9368" lon="4.77785">
        <ele>220</ele>
        <time>2018-09-30T10:01:47Z</time>
      </trkpt>
      <trkpt lat="45.93677" lon="4.77778">
        <ele>220</ele>
        <time>2018-09-30T10:01:48Z</time>
      </trkpt>
      <trkpt lat="45.93672" lon="4.77771">
        <ele>224</ele>
        <time>2018-09-30T10:01:49Z</time>
      </trkpt>
      <trkpt lat="45.93666" lon="4.77764">
        <ele>222</ele>
        <time>2018-09-30T10:01:50Z</time>
      </trkpt>
      <trkpt lat="45.93661" lon="4.77757">
        <ele>221</ele>
        <time>2018-09-30T10:01:51Z</time>
      </trkpt>
      <trkpt lat="45.93656" lon="4.77749">
        <ele>220</ele>
        <time>2018-09-30T10:01:52Z</time>
      </trkpt>
      <trkpt lat="45.93651" lon="4.77741">
        <ele>220</ele>
        <time>2018-09-30T10:01:53Z</time>
      </trkpt>
      <trkpt lat="45.93645" lon="4.77733">
        <ele>219</ele>
        <time>2018-09-30T10:01:54Z</time>
      </trkpt>
      <trkpt lat="45.93639" lon="4.77725">
        <ele>218</ele>
        <time>2018-09-30T10:01:55Z</time>
      </trkpt>
      <trkpt lat="45.93633" lon="4.77718">
        <ele>218</ele>
        <time>2018-09-30T10:01:56Z</time>
      </trkpt>
      <trkpt lat="45.93629" lon="4.77708">
        <ele>217</ele>
        <time>2018-09-30T10:01:57Z</time>
      </trkpt>
      <trkpt lat="45.93624" lon="4.777">
        <ele>217</ele>
        <time>2018-09-30T10:01:58Z</time>
      </trkpt>
      <trkpt lat="45.9362" lon="4.77689">
        <ele>216</ele>
        <time>2018-09-30T10:01:59Z</time>
      </trkpt>
      <trkpt lat="45.93615" lon="4.77679">
        <ele>216</ele>
        <time>2018-09-30T10:02:00Z</time>
      </trkpt>
      <trkpt lat="45.93611" lon="4.77668">
        <ele>216</ele>
        <time>2018-09-30T10:02:01Z</time>
      </trkpt>
      <trkpt lat="45.93606" lon="4.77659">
        <ele>216</ele>
        <time>2018-09-30T10:02:02Z</time>
      </trkpt>
      <trkpt lat="45.93603" lon="4.77649">
        <ele>216</ele>
        <time>2018-09-30T10:02:03Z</time>
      </trkpt>
      <trkpt lat="45.93599" lon="4.77639">
        <ele>216</ele>
        <time>2018-09-30T10:02:04Z</time>
      </trkpt>
      <trkpt lat="45.93595" lon="4.77629">
        <ele>217</ele>
        <time>2018-09-30T10:02:05Z</time>
      </trkpt>
      <trkpt lat="45.93592" lon="4.77619">
        <ele>217</ele>
        <time>2018-09-30T10:02:06Z</time>
      </trkpt>
      <trkpt lat="45.93589" lon="4.7761">
        <ele>216</ele>
        <time>2018-09-30T10:02:07Z</time>
      </trkpt>
      <trkpt lat="45.93587" lon="4.77601">
        <ele>216</ele>
        <time>2018-09-30T10:02:08Z</time>
      </trkpt>
      <trkpt lat="45.93585" lon="4.77593">
        <ele>216</ele>
        <time>2018-09-30T10:02:09Z</time>
      </trkpt>
      <trkpt lat="45.93583" lon="4.77584">
        <ele>216</ele>
        <time>2018-09-30T10:02:10Z</time>
      </trkpt>
      <trkpt lat="45.9358" lon="4.77576">
        <ele>217</ele>
        <time>2018-09-30T10:02:11Z</time>
      </trkpt>
      <trkpt lat="45.93578" lon="4.77568">
        <ele>217</ele>
        <time>2018-09-30T10:02:12Z</time>
      </trkpt>
      <trkpt lat="45.93576" lon="4.77559">
        <ele>216</ele>
        <time>2018-09-30T10:02:13Z</time>
      </trkpt>
      <trkpt lat="45.93574" lon="4.77552">
        <ele>217</ele>
        <time>2018-09-30T10:02:14Z</time>
      </trkpt>
      <trkpt lat="45.93572" lon="4.77545">
        <ele>216</ele>
        <time>2018-09-30T10:02:15Z</time>
      </trkpt>
      <trkpt lat="45.9357" lon="4.77539">
        <ele>215</ele>
        <time>2018-09-30T10:02:16Z</time>
      </trkpt>
      <trkpt lat="45.93568" lon="4.77531">
        <ele>214</ele>
        <time>2018-09-30T10:02:17Z</time>
      </trkpt>
      <trkpt lat="45.93567" lon="4.77526">
        <ele>214</ele>
        <time>2018-09-30T10:02:18Z</time>
      </trkpt>
      <trkpt lat="45.93566" lon="4.77518">
        <ele>214</ele>
        <time>2018-09-30T10:02:19Z</time>
      </trkpt>
      <trkpt lat="45.93566" lon="4.77511">
        <ele>214</ele>
        <time>2018-09-30T10:02:20Z</time>
      </trkpt>
      <trkpt lat="45.93564" lon="4.77504">
        <ele>213</ele>
        <time>2018-09-30T10:02:21Z</time>
      </trkpt>
      <trkpt lat="45.93563" lon="4.77496">
        <ele>213</ele>
        <time>2018-09-30T10:02:22Z</time>
      </trkpt>
      <trkpt lat="45.93561" lon="4.77489">
        <ele>213</ele>
        <time>2018-09-30T10:02:23Z</time>
      </trkpt>
      <trkpt lat="45.9356" lon="4.77481">
        <ele>214</ele>
        <time>2018-09-30T10:02:24Z</time>
      </trkpt>
      <trkpt lat="45.93558" lon="4.77473">
        <ele>215</ele>
        <time>2018-09-30T10:02:25Z</time>
      </trkpt>
      <trkpt lat="45.93556" lon="4.77466">
        <ele>215</ele>
        <time>2018-09-30T10:02:26Z</time>
      </trkpt>
      <trkpt lat="45.93554" lon="4.77459">
        <ele>215</ele>
        <time>2018-09-30T10:02:27Z</time>
      </trkpt>
      <trkpt lat="45.93551" lon="4.7745">
        <ele>214</ele>
        <time>2018-09-30T10:02:28Z</time>
      </trkpt>
      <trkpt lat="45.93549" lon="4.77442">
        <ele>214</ele>
        <time>2018-09-30T10:02:29Z</time>
      </trkpt>
      <trkpt lat="45.93547" lon="4.77433">
        <ele>214</ele>
        <time>2018-09-30T10:02:30Z</time>
      </trkpt>
      <trkpt lat="45.93546" lon="4.77425">
        <ele>227</ele>
        <time>2018-09-30T10:02:31Z</time>
      </trkpt>
      <trkpt lat="45.93544" lon="4.77416">
        <ele>224</ele>
        <time>2018-09-30T10:02:32Z</time>
      </trkpt>
      <trkpt lat="45.93542" lon="4.77408">
        <ele>221</ele>
        <time>2018-09-30T10:02:33Z</time>
      </trkpt>
      <trkpt lat="45.9354" lon="4.774">
        <ele>219</ele>
        <time>2018-09-30T10:02:34Z</time>
      </trkpt>
      <trkpt lat="45.93538" lon="4.77392">
        <ele>217</ele>
        <time>2018-09-30T10:02:35Z</time>
      </trkpt>
      <trkpt lat="45.93538" lon="4.77386">
        <ele>216</ele>
        <time>2018-09-30T10:02:36Z</time>
      </trkpt>
      <trkpt lat="45.93536" lon="4.77378">
        <ele>215</ele>
        <time>2018-09-30T10:02:37Z</time>
      </trkpt>
      <trkpt lat="45.93534" lon="4.77371">
        <ele>215</ele>
        <time>2018-09-30T10:02:38Z</time>
      </trkpt>
      <trkpt lat="45.93533" lon="4.77363">
        <ele>215</ele>
        <time>2018-09-30T10:02:39Z</time>
      </trkpt>
      <trkpt lat="45.93531" lon="4.77355">
        <ele>216</ele>
        <time>2018-09-30T10:02:40Z</time>
      </trkpt>
      <trkpt lat="45.9353" lon="4.77349">
        <ele>216</ele>
        <time>2018-09-30T10:02:41Z</time>
      </trkpt>
      <trkpt lat="45.93529" lon="4.77342">
        <ele>216</ele>
        <time>2018-09-30T10:02:42Z</time>
      </trkpt>
      <trkpt lat="45.93528" lon="4.77336">
        <ele>217</ele>
        <time>2018-09-30T10:02:43Z</time>
      </trkpt>
      <trkpt lat="45.93527" lon="4.7733">
        <ele>218</ele>
        <time>2018-09-30T10:02:44Z</time>
      </trkpt>
      <trkpt lat="45.93524" lon="4.77323">
        <ele>218</ele>
        <time>2018-09-30T10:02:45Z</time>
      </trkpt>
      <trkpt lat="45.93524" lon="4.77317">
        <ele>218</ele>
        <time>2018-09-30T10:02:46Z</time>
      </trkpt>
      <trkpt lat="45.93523" lon="4.77309">
        <ele>216</ele>
        <time>2018-09-30T10:02:47Z</time>
      </trkpt>
      <trkpt lat="45.93521" lon="4.77302">
        <ele>216</ele>
        <time>2018-09-30T10:02:48Z</time>
      </trkpt>
      <trkpt lat="45.93519" lon="4.77294">
        <ele>215</ele>
        <time>2018-09-30T10:02:49Z</time>
      </trkpt>
      <trkpt lat="45.93518" lon="4.77286">
        <ele>214</ele>
        <time>2018-09-30T10:02:50Z</time>
      </trkpt>
      <trkpt lat="45.93516" lon="4.77279">
        <ele>214</ele>
        <time>2018-09-30T10:02:51Z</time>
      </trkpt>
      <trkpt lat="45.93514" lon="4.77271">
        <ele>214</ele>
        <time>2018-09-30T10:02:52Z</time>
      </trkpt>
      <trkpt lat="45.93512" lon="4.77263">
        <ele>213</ele>
        <time>2018-09-30T10:02:53Z</time>
      </trkpt>
      <trkpt lat="45.93511" lon="4.77257">
        <ele>212</ele>
        <time>2018-09-30T10:02:54Z</time>
      </trkpt>
      <trkpt lat="45.93509" lon="4.7725">
        <ele>212</ele>
        <time>2018-09-30T10:02:55Z</time>
      </trkpt>
      <trkpt lat="45.93507" lon="4.77244">
        <ele>214</ele>
        <time>2018-09-30T10:02:56Z</time>
      </trkpt>
      <trkpt lat="45.93507" lon="4.77237">
        <ele>221</ele>
        <time>2018-09-30T10:02:57Z</time>
      </trkpt>
      <trkpt lat="45.93505" lon="4.7723">
        <ele>218</ele>
        <time>2018-09-30T10:02:58Z</time>
      </trkpt>
      <trkpt lat="45.93505" lon="4.77224">
        <ele>217</ele>
        <time>2018-09-30T10:02:59Z</time>
      </trkpt>
      <trkpt lat="45.93504" lon="4.77217">
        <ele>217</ele>
        <time>2018-09-30T10:03:00Z</time>
      </trkpt>
      <trkpt lat="45.93501" lon="4.77209">
        <ele>216</ele>
        <time>2018-09-30T10:03:01Z</time>
      </trkpt>
      <trkpt lat="45.93499" lon="4.77202">
        <ele>215</ele>
        <time>2018-09-30T10:03:02Z</time>
      </trkpt>
      <trkpt lat="45.93497" lon="4.77195">
        <ele>214</ele>
        <time>2018-09-30T10:03:03Z</time>
      </trkpt>
      <trkpt lat="45.93495" lon="4.77187">
        <ele>213</ele>
        <time>2018-09-30T10:03:04Z</time>
      </trkpt>
      <trkpt lat="45.93496" lon="4.77182">
        <ele>215</ele>
        <time>2018-09-30T10:03:05Z</time>
      </trkpt>
      <trkpt lat="45.93495" lon="4.77175">
        <ele>216</ele>
        <time>2018-09-30T10:03:06Z</time>
      </trkpt>
      <trkpt lat="45.93493" lon="4.77167">
        <ele>216</ele>
        <time>2018-09-30T10:03:07Z</time>
      </trkpt>
      <trkpt lat="45.93491" lon="4.7716">
        <ele>215</ele>
        <time>2018-09-30T10:03:08Z</time>
      </trkpt>
      <trkpt lat="45.9349" lon="4.77154">
        <ele>215</ele>
        <time>2018-09-30T10:03:09Z</time>
      </trkpt>
      <trkpt lat="45.93488" lon="4.77146">
        <ele>216</ele>
        <time>2018-09-30T10:03:10Z</time>
      </trkpt>
      <trkpt lat="45.93488" lon="4.77141">
        <ele>215</ele>
        <time>2018-09-30T10:03:11Z</time>
      </trkpt>
      <trkpt lat="45.93487" lon="4.77133">
        <ele>215</ele>
        <time>2018-09-30T10:03:12Z</time>
      </trkpt>
      <trkpt lat="45.93486" lon="4.77127">
        <ele>216</ele>
        <time>2018-09-30T10:03:13Z</time>
      </trkpt>
      <trkpt lat="45.93485" lon="4.77119">
        <ele>215</ele>
        <time>2018-09-30T10:03:14Z</time>
      </trkpt>
      <trkpt lat="45.93484" lon="4.77113">
        <ele>214</ele>
        <time>2018-09-30T10:03:15Z</time>
      </trkpt>
      <trkpt lat="45.93482" lon="4.77106">
        <ele>214</ele>
        <time>2018-09-30T10:03:16Z</time>
      </trkpt>
      <trkpt lat="45.93482" lon="4.77099">
        <ele>214</ele>
        <time>2018-09-30T10:03:17Z</time>
      </trkpt>
      <trkpt lat="45.9348" lon="4.77091">
        <ele>214</ele>
        <time>2018-09-30T10:03:18Z</time>
      </trkpt>
      <trkpt lat="45.93478" lon="4.77085">
        <ele>214</ele>
        <time>2018-09-30T10:03:19Z</time>
      </trkpt>
      <trkpt lat="45.93476" lon="4.77076">
        <ele>214</ele>
        <time>2018-09-30T10:03:20Z</time>
      </trkpt>
      <trkpt lat="45.93475" lon="4.77069">
        <ele>214</ele>
        <time>2018-09-30T10:03:21Z</time>
      </trkpt>
      <trkpt lat="45.93474" lon="4.77063">
        <ele>215</ele>
        <time>2018-09-30T10:03:22Z</time>
      </trkpt>
      <trkpt lat="45.93472" lon="4.77055">
        <ele>215</ele>
        <time>2018-09-30T10:03:23Z</time>
      </trkpt>
      <trkpt lat="45.9347" lon="4.77047">
        <ele>214</ele>
        <time>2018-09-30T10:03:24Z</time>
      </trkpt>
      <trkpt lat="45.93469" lon="4.7704">
        <ele>214</ele>
        <time>2018-09-30T10:03:25Z</time>
      </trkpt>
      <trkpt lat="45.93468" lon="4.77033">
        <ele>213</ele>
        <time>2018-09-30T10:03:26Z</time>
      </trkpt>
      <trkpt lat="45.93466" lon="4.77025">
        <ele>214</ele>
        <time>2018-09-30T10:03:27Z</time>
      </trkpt>
      <trkpt lat="45.93464" lon="4.77017">
        <ele>213</ele>
        <time>2018-09-30T10:03:28Z</time>
      </trkpt>
      <trkpt lat="45.93464" lon="4.77011">
        <ele>213</ele>
        <time>2018-09-30T10:03:29Z</time>
      </trkpt>
      <trkpt lat="45.93464" lon="4.77004">
        <ele>213</ele>
        <time>2018-09-30T10:03:30Z</time>
      </trkpt>
      <trkpt lat="45.93464" lon="4.76998">
        <ele>213</ele>
        <time>2018-09-30T10:03:31Z</time>
      </trkpt>
      <trkpt lat="45.93463" lon="4.7699">
        <ele>221</ele>
        <time>2018-09-30T10:03:32Z</time>
      </trkpt>
      <trkpt lat="45.93463" lon="4.76983">
        <ele>220</ele>
        <time>2018-09-30T10:03:33Z</time>
      </trkpt>
      <trkpt lat="45.93462" lon="4.76977">
        <ele>219</ele>
        <time>2018-09-30T10:03:34Z</time>
      </trkpt>
      <trkpt lat="45.93461" lon="4.7697">
        <ele>218</ele>
        <time>2018-09-30T10:03:35Z</time>
      </trkpt>
      <trkpt lat="45.93458" lon="4.76964">
        <ele>218</ele>
        <time>2018-09-30T10:03:36Z</time>
      </trkpt>
      <trkpt lat="45.93458" lon="4.76957">
        <ele>218</ele>
        <time>2018-09-30T10:03:37Z</time>
      </trkpt>
      <trkpt lat="45.93456" lon="4.76948">
        <ele>217</ele>
        <time>2018-09-30T10:03:38Z</time>
      </trkpt>
      <trkpt lat="45.93455" lon="4.76941">
        <ele>217</ele>
        <time>2018-09-30T10:03:39Z</time>
      </trkpt>
      <trkpt lat="45.93454" lon="4.76934">
        <ele>217</ele>
        <time>2018-09-30T10:03:40Z</time>
      </trkpt>
      <trkpt lat="45.93452" lon="4.76926">
        <ele>218</ele>
        <time>2018-09-30T10:03:41Z</time>
      </trkpt>
      <trkpt lat="45.93451" lon="4.76918">
        <ele>219</ele>
        <time>2018-09-30T10:03:42Z</time>
      </trkpt>
      <trkpt lat="45.93451" lon="4.76911">
        <ele>219</ele>
        <time>2018-09-30T10:03:43Z</time>
      </trkpt>
      <trkpt lat="45.93448" lon="4.76905">
        <ele>219</ele>
        <time>2018-09-30T10:03:44Z</time>
      </trkpt>
      <trkpt lat="45.93446" lon="4.76899">
        <ele>219</ele>
        <time>2018-09-30T10:03:45Z</time>
      </trkpt>
      <trkpt lat="45.93444" lon="4.76892">
        <ele>219</ele>
        <time>2018-09-30T10:03:46Z</time>
      </trkpt>
      <trkpt lat="45.93443" lon="4.76886">
        <ele>219</ele>
        <time>2018-09-30T10:03:47Z</time>
      </trkpt>
      <trkpt lat="45.93439" lon="4.76876">
        <ele>221</ele>
        <time>2018-09-30T10:03:49Z</time>
      </trkpt>
      <trkpt lat="45.93437" lon="4.7687">
        <ele>222</ele>
        <time>2018-09-30T10:03:50Z</time>
      </trkpt>
      <trkpt lat="45.93435" lon="4.76864">
        <ele>222</ele>
        <time>2018-09-30T10:03:51Z</time>
      </trkpt>
      <trkpt lat="45.93432" lon="4.76857">
        <ele>223</ele>
        <time>2018-09-30T10:03:52Z</time>
      </trkpt>
      <trkpt lat="45.93429" lon="4.76851">
        <ele>224</ele>
        <time>2018-09-30T10:03:53Z</time>
      </trkpt>
      <trkpt lat="45.93427" lon="4.76846">
        <ele>225</ele>
        <time>2018-09-30T10:03:54Z</time>
      </trkpt>
      <trkpt lat="45.93423" lon="4.76839">
        <ele>226</ele>
        <time>2018-09-30T10:03:55Z</time>
      </trkpt>
      <trkpt lat="45.9342" lon="4.76833">
        <ele>225</ele>
        <time>2018-09-30T10:03:56Z</time>
      </trkpt>
      <trkpt lat="45.93417" lon="4.76827">
        <ele>225</ele>
        <time>2018-09-30T10:03:57Z</time>
      </trkpt>
      <trkpt lat="45.93413" lon="4.76822">
        <ele>224</ele>
        <time>2018-09-30T10:03:58Z</time>
      </trkpt>
      <trkpt lat="45.9341" lon="4.76819">
        <ele>223</ele>
        <time>2018-09-30T10:03:59Z</time>
      </trkpt>
      <trkpt lat="45.93405" lon="4.76812">
        <ele>222</ele>
        <time>2018-09-30T10:04:00Z</time>
      </trkpt>
      <trkpt lat="45.93399" lon="4.76806">
        <ele>219</ele>
        <time>2018-09-30T10:04:01Z</time>
      </trkpt>
      <trkpt lat="45.93396" lon="4.76802">
        <ele>218</ele>
        <time>2018-09-30T10:04:02Z</time>
      </trkpt>
      <trkpt lat="45.93389" lon="4.76795">
        <ele>218</ele>
        <time>2018-09-30T10:04:04Z</time>
      </trkpt>
      <trkpt lat="45.93387" lon="4.76791">
        <ele>218</ele>
        <time>2018-09-30T10:04:05Z</time>
      </trkpt>
      <trkpt lat="45.93382" lon="4.76783">
        <ele>219</ele>
        <time>2018-09-30T10:04:07Z</time>
      </trkpt>
      <trkpt lat="45.93379" lon="4.7678">
        <ele>219</ele>
        <time>2018-09-30T10:04:08Z</time>
      </trkpt>
      <trkpt lat="45.93374" lon="4.76777">
        <ele>219</ele>
        <time>2018-09-30T10:04:09Z</time>
      </trkpt>
      <trkpt lat="45.9337" lon="4.76774">
        <ele>218</ele>
        <time>2018-09-30T10:04:10Z</time>
      </trkpt>
      <trkpt lat="45.93366" lon="4.76768">
        <ele>218</ele>
        <time>2018-09-30T10:04:11Z</time>
      </trkpt>
      <trkpt lat="45.93362" lon="4.76764">
        <ele>218</ele>
        <time>2018-09-30T10:04:12Z</time>
      </trkpt>
      <trkpt lat="45.93357" lon="4.76759">
        <ele>217</ele>
        <time>2018-09-30T10:04:13Z</time>
      </trkpt>
      <trkpt lat="45.93352" lon="4.76754">
        <ele>217</ele>
        <time>2018-09-30T10:04:14Z</time>
      </trkpt>
      <trkpt lat="45.93346" lon="4.76751">
        <ele>216</ele>
        <time>2018-09-30T10:04:15Z</time>
      </trkpt>
      <trkpt lat="45.93341" lon="4.76748">
        <ele>215</ele>
        <time>2018-09-30T10:04:16Z</time>
      </trkpt>
      <trkpt lat="45.93337" lon="4.76743">
        <ele>216</ele>
        <time>2018-09-30T10:04:17Z</time>
      </trkpt>
      <trkpt lat="45.93333" lon="4.76738">
        <ele>216</ele>
        <time>2018-09-30T10:04:18Z</time>
      </trkpt>
      <trkpt lat="45.93328" lon="4.76735">
        <ele>216</ele>
        <time>2018-09-30T10:04:19Z</time>
      </trkpt>
      <trkpt lat="45.93324" lon="4.76732">
        <ele>216</ele>
        <time>2018-09-30T10:04:20Z</time>
      </trkpt>
      <trkpt lat="45.9332" lon="4.76727">
        <ele>214</ele>
        <time>2018-09-30T10:04:21Z</time>
      </trkpt>
      <trkpt lat="45.93315" lon="4.76723">
        <ele>214</ele>
        <time>2018-09-30T10:04:22Z</time>
      </trkpt>
      <trkpt lat="45.9331" lon="4.76719">
        <ele>213</ele>
        <time>2018-09-30T10:04:23Z</time>
      </trkpt>
      <trkpt lat="45.93306" lon="4.76715">
        <ele>213</ele>
        <time>2018-09-30T10:04:24Z</time>
      </trkpt>
      <trkpt lat="45.93302" lon="4.7671">
        <ele>213</ele>
        <time>2018-09-30T10:04:25Z</time>
      </trkpt>
      <trkpt lat="45.93298" lon="4.76705">
        <ele>212</ele>
        <time>2018-09-30T10:04:26Z</time>
      </trkpt>
      <trkpt lat="45.93294" lon="4.767">
        <ele>211</ele>
        <time>2018-09-30T10:04:27Z</time>
      </trkpt>
      <trkpt lat="45.93291" lon="4.76696">
        <ele>212</ele>
        <time>2018-09-30T10:04:28Z</time>
      </trkpt>
      <trkpt lat="45.93284" lon="4.76691">
        <ele>213</ele>
        <time>2018-09-30T10:04:30Z</time>
      </trkpt>
      <trkpt lat="45.9328" lon="4.76687">
        <ele>213</ele>
        <time>2018-09-30T10:04:31Z</time>
      </trkpt>
      <trkpt lat="45.93275" lon="4.76682">
        <ele>213</ele>
        <time>2018-09-30T10:04:32Z</time>
      </trkpt>
      <trkpt lat="45.93271" lon="4.76677">
        <ele>212</ele>
        <time>2018-09-30T10:04:33Z</time>
      </trkpt>
      <trkpt lat="45.93266" lon="4.7667">
        <ele>212</ele>
        <time>2018-09-30T10:04:34Z</time>
      </trkpt>
      <trkpt lat="45.93261" lon="4.76665">
        <ele>212</ele>
        <time>2018-09-30T10:04:35Z</time>
      </trkpt>
      <trkpt lat="45.93256" lon="4.7666">
        <ele>212</ele>
        <time>2018-09-30T10:04:36Z</time>
      </trkpt>
      <trkpt lat="45.93251" lon="4.76655">
        <ele>212</ele>
        <time>2018-09-30T10:04:37Z</time>
      </trkpt>
      <trkpt lat="45.93247" lon="4.7665">
        <ele>213</ele>
        <time>2018-09-30T10:04:38Z</time>
      </trkpt>
      <trkpt lat="45.93243" lon="4.76646">
        <ele>221</ele>
        <time>2018-09-30T10:04:39Z</time>
      </trkpt>
      <trkpt lat="45.93237" lon="4.76638">
        <ele>220</ele>
        <time>2018-09-30T10:04:41Z</time>
      </trkpt>
      <trkpt lat="45.93233" lon="4.76635">
        <ele>220</ele>
        <time>2018-09-30T10:04:42Z</time>
      </trkpt>
      <trkpt lat="45.93229" lon="4.7663">
        <ele>219</ele>
        <time>2018-09-30T10:04:43Z</time>
      </trkpt>
      <trkpt lat="45.93226" lon="4.76626">
        <ele>218</ele>
        <time>2018-09-30T10:04:44Z</time>
      </trkpt>
      <trkpt lat="45.93223" lon="4.76623">
        <ele>217</ele>
        <time>2018-09-30T10:04:45Z</time>
      </trkpt>
      <trkpt lat="45.93217" lon="4.76619">
        <ele>215</ele>
        <time>2018-09-30T10:04:46Z</time>
      </trkpt>
      <trkpt lat="45.93213" lon="4.76617">
        <ele>214</ele>
        <time>2018-09-30T10:04:47Z</time>
      </trkpt>
      <trkpt lat="45.93208" lon="4.76613">
        <ele>214</ele>
        <time>2018-09-30T10:04:48Z</time>
      </trkpt>
      <trkpt lat="45.93204" lon="4.76608">
        <ele>214</ele>
        <time>2018-09-30T10:04:49Z</time>
      </trkpt>
      <trkpt lat="45.932" lon="4.76604">
        <ele>214</ele>
        <time>2018-09-30T10:04:50Z</time>
      </trkpt>
      <trkpt lat="45.93195" lon="4.76601">
        <ele>212</ele>
        <time>2018-09-30T10:04:51Z</time>
      </trkpt>
      <trkpt lat="45.93191" lon="4.76597">
        <ele>212</ele>
        <time>2018-09-30T10:04:52Z</time>
      </trkpt>
      <trkpt lat="45.93187" lon="4.76594">
        <ele>213</ele>
        <time>2018-09-30T10:04:53Z</time>
      </trkpt>
      <trkpt lat="45.93183" lon="4.76589">
        <ele>212</ele>
        <time>2018-09-30T10:04:54Z</time>
      </trkpt>
      <trkpt lat="45.93178" lon="4.76585">
        <ele>212</ele>
        <time>2018-09-30T10:04:55Z</time>
      </trkpt>
      <trkpt lat="45.93174" lon="4.7658">
        <ele>213</ele>
        <time>2018-09-30T10:04:56Z</time>
      </trkpt>
      <trkpt lat="45.9317" lon="4.76577">
        <ele>220</ele>
        <time>2018-09-30T10:04:57Z</time>
      </trkpt>
      <trkpt lat="45.93165" lon="4.76572">
        <ele>218</ele>
        <time>2018-09-30T10:04:58Z</time>
      </trkpt>
      <trkpt lat="45.93159" lon="4.76565">
        <ele>216</ele>
        <time>2018-09-30T10:05:00Z</time>
      </trkpt>
      <trkpt lat="45.93155" lon="4.76561">
        <ele>216</ele>
        <time>2018-09-30T10:05:01Z</time>
      </trkpt>
      <trkpt lat="45.93148" lon="4.76554">
        <ele>216</ele>
        <time>2018-09-30T10:05:03Z</time>
      </trkpt>
      <trkpt lat="45.93144" lon="4.76551">
        <ele>217</ele>
        <time>2018-09-30T10:05:04Z</time>
      </trkpt>
      <trkpt lat="45.93138" lon="4.76543">
        <ele>216</ele>
        <time>2018-09-30T10:05:06Z</time>
      </trkpt>
      <trkpt lat="45.93134" lon="4.7654">
        <ele>216</ele>
        <time>2018-09-30T10:05:07Z</time>
      </trkpt>
      <trkpt lat="45.93129" lon="4.76532">
        <ele>216</ele>
        <time>2018-09-30T10:05:09Z</time>
      </trkpt>
      <trkpt lat="45.93125" lon="4.76528">
        <ele>216</ele>
        <time>2018-09-30T10:05:10Z</time>
      </trkpt>
      <trkpt lat="45.93122" lon="4.76523">
        <ele>216</ele>
        <time>2018-09-30T10:05:11Z</time>
      </trkpt>
      <trkpt lat="45.93116" lon="4.76519">
        <ele>214</ele>
        <time>2018-09-30T10:05:12Z</time>
      </trkpt>
      <trkpt lat="45.93113" lon="4.76514">
        <ele>221</ele>
        <time>2018-09-30T10:05:13Z</time>
      </trkpt>
      <trkpt lat="45.93109" lon="4.76509">
        <ele>219</ele>
        <time>2018-09-30T10:05:14Z</time>
      </trkpt>
      <trkpt lat="45.93104" lon="4.76505">
        <ele>218</ele>
        <time>2018-09-30T10:05:15Z</time>
      </trkpt>
      <trkpt lat="45.93101" lon="4.765">
        <ele>217</ele>
        <time>2018-09-30T10:05:16Z</time>
      </trkpt>
      <trkpt lat="45.93096" lon="4.76496">
        <ele>217</ele>
        <time>2018-09-30T10:05:17Z</time>
      </trkpt>
      <trkpt lat="45.93092" lon="4.76493">
        <ele>218</ele>
        <time>2018-09-30T10:05:18Z</time>
      </trkpt>
      <trkpt lat="45.93086" lon="4.76486">
        <ele>217</ele>
        <time>2018-09-30T10:05:20Z</time>
      </trkpt>
      <trkpt lat="45.93082" lon="4.76482">
        <ele>217</ele>
        <time>2018-09-30T10:05:21Z</time>
      </trkpt>
      <trkpt lat="45.93075" lon="4.76475">
        <ele>217</ele>
        <time>2018-09-30T10:05:23Z</time>
      </trkpt>
      <trkpt lat="45.93071" lon="4.7647">
        <ele>219</ele>
        <time>2018-09-30T10:05:24Z</time>
      </trkpt>
      <trkpt lat="45.93067" lon="4.76465">
        <ele>219</ele>
        <time>2018-09-30T10:05:25Z</time>
      </trkpt>
      <trkpt lat="45.93062" lon="4.7646">
        <ele>219</ele>
        <time>2018-09-30T10:05:26Z</time>
      </trkpt>
      <trkpt lat="45.93058" lon="4.76456">
        <ele>219</ele>
        <time>2018-09-30T10:05:27Z</time>
      </trkpt>
      <trkpt lat="45.93054" lon="4.76452">
        <ele>218</ele>
        <time>2018-09-30T10:05:28Z</time>
      </trkpt>
      <trkpt lat="45.9305" lon="4.76446">
        <ele>214</ele>
        <time>2018-09-30T10:05:29Z</time>
      </trkpt>
      <trkpt lat="45.93045" lon="4.76442">
        <ele>215</ele>
        <time>2018-09-30T10:05:30Z</time>
      </trkpt>
      <trkpt lat="45.93041" lon="4.76438">
        <ele>215</ele>
        <time>2018-09-30T10:05:31Z</time>
      </trkpt>
      <trkpt lat="45.93036" lon="4.76435">
        <ele>215</ele>
        <time>2018-09-30T10:05:32Z</time>
      </trkpt>
      <trkpt lat="45.93033" lon="4.76431">
        <ele>215</ele>
        <time>2018-09-30T10:05:33Z</time>
      </trkpt>
      <trkpt lat="45.93027" lon="4.76428">
        <ele>216</ele>
        <time>2018-09-30T10:05:34Z</time>
      </trkpt>
      <trkpt lat="45.93023" lon="4.76425">
        <ele>216</ele>
        <time>2018-09-30T10:05:35Z</time>
      </trkpt>
      <trkpt lat="45.93018" lon="4.7642">
        <ele>216</ele>
        <time>2018-09-30T10:05:36Z</time>
      </trkpt>
      <trkpt lat="45.93011" lon="4.76414">
        <ele>215</ele>
        <time>2018-09-30T10:05:38Z</time>
      </trkpt>
      <trkpt lat="45.93008" lon="4.76411">
        <ele>215</ele>
        <time>2018-09-30T10:05:39Z</time>
      </trkpt>
      <trkpt lat="45.93001" lon="4.76403">
        <ele>216</ele>
        <time>2018-09-30T10:05:41Z</time>
      </trkpt>
      <trkpt lat="45.92997" lon="4.76399">
        <ele>217</ele>
        <time>2018-09-30T10:05:42Z</time>
      </trkpt>
      <trkpt lat="45.92991" lon="4.76396">
        <ele>215</ele>
        <time>2018-09-30T10:05:43Z</time>
      </trkpt>
      <trkpt lat="45.92987" lon="4.7639">
        <ele>216</ele>
        <time>2018-09-30T10:05:44Z</time>
      </trkpt>
      <trkpt lat="45.92981" lon="4.76382">
        <ele>216</ele>
        <time>2018-09-30T10:05:46Z</time>
      </trkpt>
      <trkpt lat="45.92976" lon="4.76377">
        <ele>216</ele>
        <time>2018-09-30T10:05:47Z</time>
      </trkpt>
      <trkpt lat="45.92969" lon="4.76369">
        <ele>218</ele>
        <time>2018-09-30T10:05:49Z</time>
      </trkpt>
      <trkpt lat="45.92966" lon="4.76366">
        <ele>218</ele>
        <time>2018-09-30T10:05:50Z</time>
      </trkpt>
      <trkpt lat="45.92961" lon="4.76362">
        <ele>216</ele>
        <time>2018-09-30T10:05:51Z</time>
      </trkpt>
      <trkpt lat="45.92956" lon="4.76357">
        <ele>220</ele>
        <time>2018-09-30T10:05:52Z</time>
      </trkpt>
      <trkpt lat="45.92951" lon="4.76353">
        <ele>219</ele>
        <time>2018-09-30T10:05:53Z</time>
      </trkpt>
      <trkpt lat="45.92946" lon="4.76348">
        <ele>219</ele>
        <time>2018-09-30T10:05:54Z</time>
      </trkpt>
      <trkpt lat="45.9294" lon="4.76344">
        <ele>218</ele>
        <time>2018-09-30T10:05:55Z</time>
      </trkpt>
      <trkpt lat="45.92935" lon="4.76339">
        <ele>219</ele>
        <time>2018-09-30T10:05:56Z</time>
      </trkpt>
      <trkpt lat="45.9293" lon="4.76334">
        <ele>219</ele>
        <time>2018-09-30T10:05:57Z</time>
      </trkpt>
      <trkpt lat="45.92926" lon="4.7633">
        <ele>219</ele>
        <time>2018-09-30T10:05:58Z</time>
      </trkpt>
      <trkpt lat="45.92923" lon="4.76327">
        <ele>219</ele>
        <time>2018-09-30T10:05:59Z</time>
      </trkpt>
      <trkpt lat="45.92918" lon="4.76323">
        <ele>218</ele>
        <time>2018-09-30T10:06:00Z</time>
      </trkpt>
      <trkpt lat="45.92912" lon="4.76316">
        <ele>220</ele>
        <time>2018-09-30T10:06:02Z</time>
      </trkpt>
      <trkpt lat="45.92909" lon="4.76313">
        <ele>221</ele>
        <time>2018-09-30T10:06:03Z</time>
      </trkpt>
      <trkpt lat="45.92905" lon="4.7631">
        <ele>220</ele>
        <time>2018-09-30T10:06:04Z</time>
      </trkpt>
      <trkpt lat="45.92901" lon="4.76306">
        <ele>219</ele>
        <time>2018-09-30T10:06:05Z</time>
      </trkpt>
      <trkpt lat="45.92897" lon="4.76302">
        <ele>221</ele>
        <time>2018-09-30T10:06:06Z</time>
      </trkpt>
      <trkpt lat="45.92892" lon="4.76298">
        <ele>220</ele>
        <time>2018-09-30T10:06:07Z</time>
      </trkpt>
      <trkpt lat="45.92887" lon="4.76295">
        <ele>219</ele>
        <time>2018-09-30T10:06:08Z</time>
      </trkpt>
      <trkpt lat="45.92883" lon="4.76292">
        <ele>219</ele>
        <time>2018-09-30T10:06:09Z</time>
      </trkpt>
      <trkpt lat="45.92876" lon="4.76285">
        <ele>219</ele>
        <time>2018-09-30T10:06:11Z</time>
      </trkpt>
      <trkpt lat="45.92872" lon="4.7628">
        <ele>219</ele>
        <time>2018-09-30T10:06:12Z</time>
      </trkpt>
      <trkpt lat="45.92869" lon="4.76277">
        <ele>220</ele>
        <time>2018-09-30T10:06:13Z</time>
      </trkpt>
      <trkpt lat="45.92865" lon="4.76273">
        <ele>219</ele>
        <time>2018-09-30T10:06:14Z</time>
      </trkpt>
      <trkpt lat="45.92859" lon="4.76268">
        <ele>219</ele>
        <time>2018-09-30T10:06:15Z</time>
      </trkpt>
      <trkpt lat="45.92855" lon="4.76263">
        <ele>219</ele>
        <time>2018-09-30T10:06:16Z</time>
      </trkpt>
      <trkpt lat="45.92851" lon="4.76259">
        <ele>219</ele>
        <time>2018-09-30T10:06:17Z</time>
      </trkpt>
      <trkpt lat="45.92845" lon="4.76253">
        <ele>219</ele>
        <time>2018-09-30T10:06:18Z</time>
      </trkpt>
      <trkpt lat="45.92841" lon="4.76248">
        <ele>219</ele>
        <time>2018-09-30T10:06:19Z</time>
      </trkpt>
      <trkpt lat="45.92838" lon="4.76244">
        <ele>218</ele>
        <time>2018-09-30T10:06:20Z</time>
      </trkpt>
      <trkpt lat="45.92833" lon="4.7624">
        <ele>217</ele>
        <time>2018-09-30T10:06:21Z</time>
      </trkpt>
      <trkpt lat="45.9283" lon="4.76236">
        <ele>217</ele>
        <time>2018-09-30T10:06:22Z</time>
      </trkpt>
      <trkpt lat="45.92823" lon="4.76229">
        <ele>217</ele>
        <time>2018-09-30T10:06:24Z</time>
      </trkpt>
      <trkpt lat="45.92819" lon="4.76226">
        <ele>217</ele>
        <time>2018-09-30T10:06:25Z</time>
      </trkpt>
      <trkpt lat="45.92812" lon="4.7622">
        <ele>216</ele>
        <time>2018-09-30T10:06:27Z</time>
      </trkpt>
      <trkpt lat="45.92808" lon="4.76215">
        <ele>215</ele>
        <time>2018-09-30T10:06:28Z</time>
      </trkpt>
      <trkpt lat="45.92802" lon="4.76208">
        <ele>215</ele>
        <time>2018-09-30T10:06:30Z</time>
      </trkpt>
      <trkpt lat="45.92799" lon="4.76205">
        <ele>215</ele>
        <time>2018-09-30T10:06:31Z</time>
      </trkpt>
      <trkpt lat="45.92791" lon="4.76197">
        <ele>216</ele>
        <time>2018-09-30T10:06:33Z</time>
      </trkpt>
      <trkpt lat="45.92788" lon="4.76193">
        <ele>217</ele>
        <time>2018-09-30T10:06:34Z</time>
      </trkpt>
      <trkpt lat="45.92782" lon="4.76188">
        <ele>217</ele>
        <time>2018-09-30T10:06:36Z</time>
      </trkpt>
      <trkpt lat="45.92779" lon="4.76184">
        <ele>217</ele>
        <time>2018-09-30T10:06:37Z</time>
      </trkpt>
      <trkpt lat="45.92775" lon="4.7618">
        <ele>216</ele>
        <time>2018-09-30T10:06:38Z</time>
      </trkpt>
      <trkpt lat="45.92771" lon="4.76177">
        <ele>215</ele>
        <time>2018-09-30T10:06:39Z</time>
      </trkpt>
      <trkpt lat="45.92764" lon="4.76173">
        <ele>215</ele>
        <time>2018-09-30T10:06:41Z</time>
      </trkpt>
      <trkpt lat="45.9276" lon="4.7617">
        <ele>216</ele>
        <time>2018-09-30T10:06:42Z</time>
      </trkpt>
      <trkpt lat="45.92756" lon="4.76166">
        <ele>215</ele>
        <time>2018-09-30T10:06:43Z</time>
      </trkpt>
      <trkpt lat="45.92752" lon="4.76163">
        <ele>215</ele>
        <time>2018-09-30T10:06:44Z</time>
      </trkpt>
      <trkpt lat="45.92744" lon="4.76157">
        <ele>216</ele>
        <time>2018-09-30T10:06:46Z</time>
      </trkpt>
      <trkpt lat="45.9274" lon="4.76153">
        <ele>216</ele>
        <time>2018-09-30T10:06:47Z</time>
      </trkpt>
      <trkpt lat="45.92734" lon="4.7615">
        <ele>215</ele>
        <time>2018-09-30T10:06:48Z</time>
      </trkpt>
      <trkpt lat="45.9273" lon="4.76145">
        <ele>214</ele>
        <time>2018-09-30T10:06:49Z</time>
      </trkpt>
      <trkpt lat="45.92724" lon="4.7614">
        <ele>215</ele>
        <time>2018-09-30T10:06:51Z</time>
      </trkpt>
      <trkpt lat="45.92721" lon="4.76139">
        <ele>214</ele>
        <time>2018-09-30T10:06:52Z</time>
      </trkpt>
      <trkpt lat="45.92717" lon="4.76136">
        <ele>214</ele>
        <time>2018-09-30T10:06:53Z</time>
      </trkpt>
      <trkpt lat="45.92713" lon="4.76133">
        <ele>214</ele>
        <time>2018-09-30T10:06:54Z</time>
      </trkpt>
      <trkpt lat="45.92705" lon="4.76128">
        <ele>214</ele>
        <time>2018-09-30T10:06:56Z</time>
      </trkpt>
      <trkpt lat="45.92701" lon="4.76125">
        <ele>215</ele>
        <time>2018-09-30T10:06:57Z</time>
      </trkpt>
      <trkpt lat="45.92696" lon="4.76122">
        <ele>215</ele>
        <time>2018-09-30T10:06:58Z</time>
      </trkpt>
      <trkpt lat="45.92692" lon="4.76117">
        <ele>214</ele>
        <time>2018-09-30T10:06:59Z</time>
      </trkpt>
      <trkpt lat="45.92685" lon="4.76109">
        <ele>215</ele>
        <time>2018-09-30T10:07:01Z</time>
      </trkpt>
      <trkpt lat="45.92681" lon="4.76106">
        <ele>217</ele>
        <time>2018-09-30T10:07:02Z</time>
      </trkpt>
      <trkpt lat="45.92676" lon="4.76105">
        <ele>218</ele>
        <time>2018-09-30T10:07:03Z</time>
      </trkpt>
      <trkpt lat="45.92671" lon="4.76104">
        <ele>219</ele>
        <time>2018-09-30T10:07:04Z</time>
      </trkpt>
      <trkpt lat="45.92667" lon="4.76101">
        <ele>220</ele>
        <time>2018-09-30T10:07:05Z</time>
      </trkpt>
      <trkpt lat="45.92663" lon="4.76098">
        <ele>220</ele>
        <time>2018-09-30T10:07:06Z</time>
      </trkpt>
      <trkpt lat="45.92659" lon="4.76094">
        <ele>221</ele>
        <time>2018-09-30T10:07:07Z</time>
      </trkpt>
      <trkpt lat="45.92656" lon="4.76089">
        <ele>221</ele>
        <time>2018-09-30T10:07:08Z</time>
      </trkpt>
      <trkpt lat="45.92652" lon="4.76086">
        <ele>221</ele>
        <time>2018-09-30T10:07:09Z</time>
      </trkpt>
      <trkpt lat="45.92648" lon="4.76082">
        <ele>221</ele>
        <time>2018-09-30T10:07:10Z</time>
      </trkpt>
      <trkpt lat="45.92641" lon="4.76074">
        <ele>221</ele>
        <time>2018-09-30T10:07:12Z</time>
      </trkpt>
      <trkpt lat="45.92638" lon="4.76072">
        <ele>221</ele>
        <time>2018-09-30T10:07:13Z</time>
      </trkpt>
      <trkpt lat="45.92633" lon="4.76068">
        <ele>221</ele>
        <time>2018-09-30T10:07:14Z</time>
      </trkpt>
      <trkpt lat="45.92629" lon="4.76066">
        <ele>221</ele>
        <time>2018-09-30T10:07:15Z</time>
      </trkpt>
      <trkpt lat="45.92624" lon="4.76064">
        <ele>220</ele>
        <time>2018-09-30T10:07:16Z</time>
      </trkpt>
      <trkpt lat="45.9262" lon="4.76061">
        <ele>220</ele>
        <time>2018-09-30T10:07:17Z</time>
      </trkpt>
      <trkpt lat="45.92612" lon="4.76057">
        <ele>222</ele>
        <time>2018-09-30T10:07:19Z</time>
      </trkpt>
      <trkpt lat="45.92608" lon="4.76054">
        <ele>222</ele>
        <time>2018-09-30T10:07:20Z</time>
      </trkpt>
      <trkpt lat="45.92605" lon="4.7605">
        <ele>222</ele>
        <time>2018-09-30T10:07:21Z</time>
      </trkpt>
      <trkpt lat="45.926" lon="4.76048">
        <ele>221</ele>
        <time>2018-09-30T10:07:22Z</time>
      </trkpt>
      <trkpt lat="45.92592" lon="4.76042">
        <ele>221</ele>
        <time>2018-09-30T10:07:24Z</time>
      </trkpt>
      <trkpt lat="45.92587" lon="4.76038">
        <ele>222</ele>
        <time>2018-09-30T10:07:25Z</time>
      </trkpt>
      <trkpt lat="45.92583" lon="4.76034">
        <ele>222</ele>
        <time>2018-09-30T10:07:26Z</time>
      </trkpt>
      <trkpt lat="45.92579" lon="4.76031">
        <ele>222</ele>
        <time>2018-09-30T10:07:27Z</time>
      </trkpt>
      <trkpt lat="45.92573" lon="4.76028">
        <ele>221</ele>
        <time>2018-09-30T10:07:28Z</time>
      </trkpt>
      <trkpt lat="45.92567" lon="4.76024">
        <ele>221</ele>
        <time>2018-09-30T10:07:29Z</time>
      </trkpt>
      <trkpt lat="45.92561" lon="4.76019">
        <ele>222</ele>
        <time>2018-09-30T10:07:31Z</time>
      </trkpt>
      <trkpt lat="45.92558" lon="4.76017">
        <ele>222</ele>
        <time>2018-09-30T10:07:32Z</time>
      </trkpt>
      <trkpt lat="45.9255" lon="4.76011">
        <ele>223</ele>
        <time>2018-09-30T10:07:34Z</time>
      </trkpt>
      <trkpt lat="45.92547" lon="4.76008">
        <ele>222</ele>
        <time>2018-09-30T10:07:35Z</time>
      </trkpt>
      <trkpt lat="45.92542" lon="4.76007">
        <ele>221</ele>
        <time>2018-09-30T10:07:36Z</time>
      </trkpt>
      <trkpt lat="45.92538" lon="4.76004">
        <ele>221</ele>
        <time>2018-09-30T10:07:37Z</time>
      </trkpt>
      <trkpt lat="45.92534" lon="4.75999">
        <ele>221</ele>
        <time>2018-09-30T10:07:38Z</time>
      </trkpt>
      <trkpt lat="45.92529" lon="4.75997">
        <ele>221</ele>
        <time>2018-09-30T10:07:39Z</time>
      </trkpt>
      <trkpt lat="45.92521" lon="4.75992">
        <ele>220</ele>
        <time>2018-09-30T10:07:41Z</time>
      </trkpt>
      <trkpt lat="45.92518" lon="4.75988">
        <ele>222</ele>
        <time>2018-09-30T10:07:42Z</time>
      </trkpt>
      <trkpt lat="45.9251" lon="4.75984">
        <ele>222</ele>
        <time>2018-09-30T10:07:44Z</time>
      </trkpt>
      <trkpt lat="45.92506" lon="4.75981">
        <ele>222</ele>
        <time>2018-09-30T10:07:45Z</time>
      </trkpt>
      <trkpt lat="45.92502" lon="4.75977">
        <ele>222</ele>
        <time>2018-09-30T10:07:46Z</time>
      </trkpt>
      <trkpt lat="45.92498" lon="4.75974">
        <ele>221</ele>
        <time>2018-09-30T10:07:47Z</time>
      </trkpt>
      <trkpt lat="45.9249" lon="4.75968">
        <ele>222</ele>
        <time>2018-09-30T10:07:49Z</time>
      </trkpt>
      <trkpt lat="45.92486" lon="4.75965">
        <ele>222</ele>
        <time>2018-09-30T10:07:50Z</time>
      </trkpt>
      <trkpt lat="45.92479" lon="4.7596">
        <ele>222</ele>
        <time>2018-09-30T10:07:52Z</time>
      </trkpt>
      <trkpt lat="45.92473" lon="4.75958">
        <ele>222</ele>
        <time>2018-09-30T10:07:53Z</time>
      </trkpt>
      <trkpt lat="45.92469" lon="4.75955">
        <ele>222</ele>
        <time>2018-09-30T10:07:54Z</time>
      </trkpt>
      <trkpt lat="45.92463" lon="4.75954">
        <ele>221</ele>
        <time>2018-09-30T10:07:55Z</time>
      </trkpt>
      <trkpt lat="45.92458" lon="4.7595">
        <ele>220</ele>
        <time>2018-09-30T10:07:56Z</time>
      </trkpt>
      <trkpt lat="45.92454" lon="4.75947">
        <ele>220</ele>
        <time>2018-09-30T10:07:57Z</time>
      </trkpt>
      <trkpt lat="45.92449" lon="4.75944">
        <ele>219</ele>
        <time>2018-09-30T10:07:58Z</time>
      </trkpt>
      <trkpt lat="45.92444" lon="4.75941">
        <ele>220</ele>
        <time>2018-09-30T10:07:59Z</time>
      </trkpt>
      <trkpt lat="45.92439" lon="4.75938">
        <ele>220</ele>
        <time>2018-09-30T10:08:00Z</time>
      </trkpt>
      <trkpt lat="45.92434" lon="4.75934">
        <ele>218</ele>
        <time>2018-09-30T10:08:01Z</time>
      </trkpt>
      <trkpt lat="45.92428" lon="4.75931">
        <ele>218</ele>
        <time>2018-09-30T10:08:02Z</time>
      </trkpt>
      <trkpt lat="45.92424" lon="4.75928">
        <ele>215</ele>
        <time>2018-09-30T10:08:03Z</time>
      </trkpt>
      <trkpt lat="45.92418" lon="4.75927">
        <ele>215</ele>
        <time>2018-09-30T10:08:04Z</time>
      </trkpt>
      <trkpt lat="45.92412" lon="4.75924">
        <ele>215</ele>
        <time>2018-09-30T10:08:05Z</time>
      </trkpt>
      <trkpt lat="45.92408" lon="4.75921">
        <ele>215</ele>
        <time>2018-09-30T10:08:06Z</time>
      </trkpt>
      <trkpt lat="45.92401" lon="4.75916">
        <ele>214</ele>
        <time>2018-09-30T10:08:07Z</time>
      </trkpt>
      <trkpt lat="45.92396" lon="4.75913">
        <ele>214</ele>
        <time>2018-09-30T10:08:08Z</time>
      </trkpt>
      <trkpt lat="45.9239" lon="4.75909">
        <ele>215</ele>
        <time>2018-09-30T10:08:09Z</time>
      </trkpt>
      <trkpt lat="45.92386" lon="4.75905">
        <ele>215</ele>
        <time>2018-09-30T10:08:10Z</time>
      </trkpt>
      <trkpt lat="45.92381" lon="4.75902">
        <ele>214</ele>
        <time>2018-09-30T10:08:11Z</time>
      </trkpt>
      <trkpt lat="45.92376" lon="4.75898">
        <ele>214</ele>
        <time>2018-09-30T10:08:12Z</time>
      </trkpt>
      <trkpt lat="45.9237" lon="4.75895">
        <ele>215</ele>
        <time>2018-09-30T10:08:13Z</time>
      </trkpt>
      <trkpt lat="45.92364" lon="4.75893">
        <ele>215</ele>
        <time>2018-09-30T10:08:14Z</time>
      </trkpt>
      <trkpt lat="45.92359" lon="4.7589">
        <ele>214</ele>
        <time>2018-09-30T10:08:15Z</time>
      </trkpt>
      <trkpt lat="45.92352" lon="4.75882">
        <ele>216</ele>
        <time>2018-09-30T10:08:17Z</time>
      </trkpt>
      <trkpt lat="45.92348" lon="4.75877">
        <ele>215</ele>
        <time>2018-09-30T10:08:18Z</time>
      </trkpt>
      <trkpt lat="45.9234" lon="4.75871">
        <ele>216</ele>
        <time>2018-09-30T10:08:20Z</time>
      </trkpt>
      <trkpt lat="45.92336" lon="4.75868">
        <ele>217</ele>
        <time>2018-09-30T10:08:21Z</time>
      </trkpt>
      <trkpt lat="45.92332" lon="4.75864">
        <ele>217</ele>
        <time>2018-09-30T10:08:22Z</time>
      </trkpt>
      <trkpt lat="45.92328" lon="4.75861">
        <ele>217</ele>
        <time>2018-09-30T10:08:23Z</time>
      </trkpt>
      <trkpt lat="45.92323" lon="4.75859">
        <ele>214</ele>
        <time>2018-09-30T10:08:24Z</time>
      </trkpt>
      <trkpt lat="45.92318" lon="4.75856">
        <ele>215</ele>
        <time>2018-09-30T10:08:25Z</time>
      </trkpt>
      <trkpt lat="45.92314" lon="4.75853">
        <ele>216</ele>
        <time>2018-09-30T10:08:26Z</time>
      </trkpt>
      <trkpt lat="45.9231" lon="4.7585">
        <ele>216</ele>
        <time>2018-09-30T10:08:27Z</time>
      </trkpt>
      <trkpt lat="45.92306" lon="4.75847">
        <ele>216</ele>
        <time>2018-09-30T10:08:28Z</time>
      </trkpt>
      <trkpt lat="45.923" lon="4.75845">
        <ele>216</ele>
        <time>2018-09-30T10:08:29Z</time>
      </trkpt>
      <trkpt lat="45.92296" lon="4.75842">
        <ele>216</ele>
        <time>2018-09-30T10:08:30Z</time>
      </trkpt>
      <trkpt lat="45.92291" lon="4.75839">
        <ele>217</ele>
        <time>2018-09-30T10:08:31Z</time>
      </trkpt>
      <trkpt lat="45.92288" lon="4.75835">
        <ele>216</ele>
        <time>2018-09-30T10:08:32Z</time>
      </trkpt>
      <trkpt lat="45.92283" lon="4.75833">
        <ele>215</ele>
        <time>2018-09-30T10:08:33Z</time>
      </trkpt>
      <trkpt lat="45.92278" lon="4.75829">
        <ele>214</ele>
        <time>2018-09-30T10:08:34Z</time>
      </trkpt>
      <trkpt lat="45.92274" lon="4.75826">
        <ele>215</ele>
        <time>2018-09-30T10:08:35Z</time>
      </trkpt>
      <trkpt lat="45.9227" lon="4.75821">
        <ele>215</ele>
        <time>2018-09-30T10:08:36Z</time>
      </trkpt>
      <trkpt lat="45.92266" lon="4.75817">
        <ele>212</ele>
        <time>2018-09-30T10:08:37Z</time>
      </trkpt>
      <trkpt lat="45.92263" lon="4.75812">
        <ele>212</ele>
        <time>2018-09-30T10:08:38Z</time>
      </trkpt>
      <trkpt lat="45.92262" lon="4.75805">
        <ele>213</ele>
        <time>2018-09-30T10:08:39Z</time>
      </trkpt>
      <trkpt lat="45.92261" lon="4.75798">
        <ele>214</ele>
        <time>2018-09-30T10:08:40Z</time>
      </trkpt>
      <trkpt lat="45.92259" lon="4.75791">
        <ele>214</ele>
        <time>2018-09-30T10:08:41Z</time>
      </trkpt>
      <trkpt lat="45.92256" lon="4.75785">
        <ele>221</ele>
        <time>2018-09-30T10:08:42Z</time>
      </trkpt>
      <trkpt lat="45.92255" lon="4.75778">
        <ele>219</ele>
        <time>2018-09-30T10:08:43Z</time>
      </trkpt>
      <trkpt lat="45.92253" lon="4.75772">
        <ele>218</ele>
        <time>2018-09-30T10:08:44Z</time>
      </trkpt>
      <trkpt lat="45.92251" lon="4.75765">
        <ele>216</ele>
        <time>2018-09-30T10:08:45Z</time>
      </trkpt>
      <trkpt lat="45.9225" lon="4.75752">
        <ele>216</ele>
        <time>2018-09-30T10:08:47Z</time>
      </trkpt>
      <trkpt lat="45.92249" lon="4.75746">
        <ele>216</ele>
        <time>2018-09-30T10:08:48Z</time>
      </trkpt>
      <trkpt lat="45.92248" lon="4.75735">
        <ele>217</ele>
        <time>2018-09-30T10:08:50Z</time>
      </trkpt>
      <trkpt lat="45.92248" lon="4.75728">
        <ele>216</ele>
        <time>2018-09-30T10:08:51Z</time>
      </trkpt>
      <trkpt lat="45.92243" lon="4.75717">
        <ele>218</ele>
        <time>2018-09-30T10:08:53Z</time>
      </trkpt>
      <trkpt lat="45.9224" lon="4.75712">
        <ele>218</ele>
        <time>2018-09-30T10:08:54Z</time>
      </trkpt>
      <trkpt lat="45.92237" lon="4.75706">
        <ele>219</ele>
        <time>2018-09-30T10:08:55Z</time>
      </trkpt>
      <trkpt lat="45.92234" lon="4.75702">
        <ele>222</ele>
        <time>2018-09-30T10:08:56Z</time>
      </trkpt>
      <trkpt lat="45.92229" lon="4.75697">
        <ele>226</ele>
        <time>2018-09-30T10:08:57Z</time>
      </trkpt>
      <trkpt lat="45.92225" lon="4.75693">
        <ele>224</ele>
        <time>2018-09-30T10:08:58Z</time>
      </trkpt>
      <trkpt lat="45.9222" lon="4.7569">
        <ele>221</ele>
        <time>2018-09-30T10:08:59Z</time>
      </trkpt>
      <trkpt lat="45.92215" lon="4.75687">
        <ele>219</ele>
        <time>2018-09-30T10:09:00Z</time>
      </trkpt>
      <trkpt lat="45.92209" lon="4.75681">
        <ele>217</ele>
        <time>2018-09-30T10:09:01Z</time>
      </trkpt>
      <trkpt lat="45.92205" lon="4.75676">
        <ele>217</ele>
        <time>2018-09-30T10:09:02Z</time>
      </trkpt>
      <trkpt lat="45.922" lon="4.75671">
        <ele>217</ele>
        <time>2018-09-30T10:09:03Z</time>
      </trkpt>
      <trkpt lat="45.92195" lon="4.75667">
        <ele>217</ele>
        <time>2018-09-30T10:09:04Z</time>
      </trkpt>
      <trkpt lat="45.9219" lon="4.75662">
        <ele>216</ele>
        <time>2018-09-30T10:09:05Z</time>
      </trkpt>
      <trkpt lat="45.92185" lon="4.75658">
        <ele>216</ele>
        <time>2018-09-30T10:09:06Z</time>
      </trkpt>
      <trkpt lat="45.92181" lon="4.75654">
        <ele>216</ele>
        <time>2018-09-30T10:09:07Z</time>
      </trkpt>
      <trkpt lat="45.92177" lon="4.75649">
        <ele>213</ele>
        <time>2018-09-30T10:09:08Z</time>
      </trkpt>
      <trkpt lat="45.9217" lon="4.75643">
        <ele>213</ele>
        <time>2018-09-30T10:09:10Z</time>
      </trkpt>
      <trkpt lat="45.92166" lon="4.75638">
        <ele>223</ele>
        <time>2018-09-30T10:09:11Z</time>
      </trkpt>
      <trkpt lat="45.92162" lon="4.75635">
        <ele>220</ele>
        <time>2018-09-30T10:09:12Z</time>
      </trkpt>
      <trkpt lat="45.92158" lon="4.7563">
        <ele>219</ele>
        <time>2018-09-30T10:09:13Z</time>
      </trkpt>
      <trkpt lat="45.92154" lon="4.75627">
        <ele>218</ele>
        <time>2018-09-30T10:09:14Z</time>
      </trkpt>
      <trkpt lat="45.9215" lon="4.75623">
        <ele>217</ele>
        <time>2018-09-30T10:09:15Z</time>
      </trkpt>
      <trkpt lat="45.92144" lon="4.75617">
        <ele>216</ele>
        <time>2018-09-30T10:09:17Z</time>
      </trkpt>
      <trkpt lat="45.9214" lon="4.75614">
        <ele>216</ele>
        <time>2018-09-30T10:09:18Z</time>
      </trkpt>
      <trkpt lat="45.92136" lon="4.75608">
        <ele>216</ele>
        <time>2018-09-30T10:09:19Z</time>
      </trkpt>
      <trkpt lat="45.92133" lon="4.75604">
        <ele>216</ele>
        <time>2018-09-30T10:09:20Z</time>
      </trkpt>
      <trkpt lat="45.92129" lon="4.75599">
        <ele>215</ele>
        <time>2018-09-30T10:09:21Z</time>
      </trkpt>
      <trkpt lat="45.92126" lon="4.75595">
        <ele>214</ele>
        <time>2018-09-30T10:09:22Z</time>
      </trkpt>
      <trkpt lat="45.92122" lon="4.7559">
        <ele>214</ele>
        <time>2018-09-30T10:09:23Z</time>
      </trkpt>
      <trkpt lat="45.92118" lon="4.75585">
        <ele>214</ele>
        <time>2018-09-30T10:09:24Z</time>
      </trkpt>
      <trkpt lat="45.92115" lon="4.75574">
        <ele>215</ele>
        <time>2018-09-30T10:09:26Z</time>
      </trkpt>
      <trkpt lat="45.92115" lon="4.75568">
        <ele>215</ele>
        <time>2018-09-30T10:09:27Z</time>
      </trkpt>
      <trkpt lat="45.92118" lon="4.75559">
        <ele>220</ele>
        <time>2018-09-30T10:09:29Z</time>
      </trkpt>
      <trkpt lat="45.9212" lon="4.75555">
        <ele>219</ele>
        <time>2018-09-30T10:09:30Z</time>
      </trkpt>
      <trkpt lat="45.92126" lon="4.75546">
        <ele>219</ele>
        <time>2018-09-30T10:09:32Z</time>
      </trkpt>
      <trkpt lat="45.92128" lon="4.75541">
        <ele>222</ele>
        <time>2018-09-30T10:09:33Z</time>
      </trkpt>
      <trkpt lat="45.92131" lon="4.75535">
        <ele>221</ele>
        <time>2018-09-30T10:09:34Z</time>
      </trkpt>
      <trkpt lat="45.92135" lon="4.75531">
        <ele>229</ele>
        <time>2018-09-30T10:09:35Z</time>
      </trkpt>
      <trkpt lat="45.92138" lon="4.75527">
        <ele>228</ele>
        <time>2018-09-30T10:09:36Z</time>
      </trkpt>
      <trkpt lat="45.92141" lon="4.7552">
        <ele>225</ele>
        <time>2018-09-30T10:09:37Z</time>
      </trkpt>
      <trkpt lat="45.92143" lon="4.75514">
        <ele>224</ele>
        <time>2018-09-30T10:09:38Z</time>
      </trkpt>
      <trkpt lat="45.92146" lon="4.75507">
        <ele>223</ele>
        <time>2018-09-30T10:09:39Z</time>
      </trkpt>
      <trkpt lat="45.9215" lon="4.75499">
        <ele>229</ele>
        <time>2018-09-30T10:09:40Z</time>
      </trkpt>
      <trkpt lat="45.92152" lon="4.75493">
        <ele>222</ele>
        <time>2018-09-30T10:09:41Z</time>
      </trkpt>
      <trkpt lat="45.92154" lon="4.75486">
        <ele>220</ele>
        <time>2018-09-30T10:09:42Z</time>
      </trkpt>
      <trkpt lat="45.92157" lon="4.75479">
        <ele>220</ele>
        <time>2018-09-30T10:09:43Z</time>
      </trkpt>
      <trkpt lat="45.9216" lon="4.75473">
        <ele>225</ele>
        <time>2018-09-30T10:09:44Z</time>
      </trkpt>
      <trkpt lat="45.92162" lon="4.75466">
        <ele>224</ele>
        <time>2018-09-30T10:09:45Z</time>
      </trkpt>
      <trkpt lat="45.92165" lon="4.75459">
        <ele>222</ele>
        <time>2018-09-30T10:09:46Z</time>
      </trkpt>
      <trkpt lat="45.92168" lon="4.75453">
        <ele>221</ele>
        <time>2018-09-30T10:09:47Z</time>
      </trkpt>
      <trkpt lat="45.9217" lon="4.75445">
        <ele>221</ele>
        <time>2018-09-30T10:09:48Z</time>
      </trkpt>
      <trkpt lat="45.92173" lon="4.75439">
        <ele>227</ele>
        <time>2018-09-30T10:09:49Z</time>
      </trkpt>
      <trkpt lat="45.92176" lon="4.75432">
        <ele>226</ele>
        <time>2018-09-30T10:09:50Z</time>
      </trkpt>
      <trkpt lat="45.92179" lon="4.75425">
        <ele>226</ele>
        <time>2018-09-30T10:09:51Z</time>
      </trkpt>
      <trkpt lat="45.92182" lon="4.7542">
        <ele>230</ele>
        <time>2018-09-30T10:09:52Z</time>
      </trkpt>
      <trkpt lat="45.92184" lon="4.75414">
        <ele>229</ele>
        <time>2018-09-30T10:09:53Z</time>
      </trkpt>
      <trkpt lat="45.92186" lon="4.75404">
        <ele>226</ele>
        <time>2018-09-30T10:09:55Z</time>
      </trkpt>
      <trkpt lat="45.92187" lon="4.754">
        <ele>225</ele>
        <time>2018-09-30T10:09:56Z</time>
      </trkpt>
      <trkpt lat="45.92189" lon="4.75394">
        <ele>224</ele>
        <time>2018-09-30T10:09:57Z</time>
      </trkpt>
      <trkpt lat="45.92191" lon="4.75387">
        <ele>222</ele>
        <time>2018-09-30T10:09:58Z</time>
      </trkpt>
      <trkpt lat="45.92196" lon="4.75378">
        <ele>221</ele>
        <time>2018-09-30T10:10:00Z</time>
      </trkpt>
      <trkpt lat="45.92198" lon="4.75371">
        <ele>228</ele>
        <time>2018-09-30T10:10:01Z</time>
      </trkpt>
      <trkpt lat="45.922" lon="4.75366">
        <ele>232</ele>
        <time>2018-09-30T10:10:02Z</time>
      </trkpt>
      <trkpt lat="45.92202" lon="4.75359">
        <ele>227</ele>
        <time>2018-09-30T10:10:03Z</time>
      </trkpt>
      <trkpt lat="45.92204" lon="4.75347">
        <ele>223</ele>
        <time>2018-09-30T10:10:05Z</time>
      </trkpt>
      <trkpt lat="45.92206" lon="4.75341">
        <ele>219</ele>
        <time>2018-09-30T10:10:06Z</time>
      </trkpt>
      <trkpt lat="45.92209" lon="4.75329">
        <ele>220</ele>
        <time>2018-09-30T10:10:08Z</time>
      </trkpt>
      <trkpt lat="45.92211" lon="4.75321">
        <ele>220</ele>
        <time>2018-09-30T10:10:09Z</time>
      </trkpt>
      <trkpt lat="45.9221" lon="4.75312">
        <ele>223</ele>
        <time>2018-09-30T10:10:10Z</time>
      </trkpt>
      <trkpt lat="45.92211" lon="4.75305">
        <ele>223</ele>
        <time>2018-09-30T10:10:11Z</time>
      </trkpt>
      <trkpt lat="45.92211" lon="4.75297">
        <ele>221</ele>
        <time>2018-09-30T10:10:12Z</time>
      </trkpt>
      <trkpt lat="45.92211" lon="4.75289">
        <ele>221</ele>
        <time>2018-09-30T10:10:13Z</time>
      </trkpt>
      <trkpt lat="45.9221" lon="4.75281">
        <ele>221</ele>
        <time>2018-09-30T10:10:14Z</time>
      </trkpt>
      <trkpt lat="45.9221" lon="4.75273">
        <ele>220</ele>
        <time>2018-09-30T10:10:15Z</time>
      </trkpt>
      <trkpt lat="45.92209" lon="4.75264">
        <ele>220</ele>
        <time>2018-09-30T10:10:16Z</time>
      </trkpt>
      <trkpt lat="45.9221" lon="4.75256">
        <ele>220</ele>
        <time>2018-09-30T10:10:17Z</time>
      </trkpt>
      <trkpt lat="45.9221" lon="4.75248">
        <ele>219</ele>
        <time>2018-09-30T10:10:18Z</time>
      </trkpt>
      <trkpt lat="45.92211" lon="4.75241">
        <ele>219</ele>
        <time>2018-09-30T10:10:19Z</time>
      </trkpt>
      <trkpt lat="45.92212" lon="4.75231">
        <ele>217</ele>
        <time>2018-09-30T10:10:20Z</time>
      </trkpt>
      <trkpt lat="45.92212" lon="4.75222">
        <ele>217</ele>
        <time>2018-09-30T10:10:21Z</time>
      </trkpt>
      <trkpt lat="45.92213" lon="4.75212">
        <ele>216</ele>
        <time>2018-09-30T10:10:22Z</time>
      </trkpt>
      <trkpt lat="45.92215" lon="4.75205">
        <ele>216</ele>
        <time>2018-09-30T10:10:23Z</time>
      </trkpt>
      <trkpt lat="45.92218" lon="4.75196">
        <ele>217</ele>
        <time>2018-09-30T10:10:24Z</time>
      </trkpt>
      <trkpt lat="45.9222" lon="4.75187">
        <ele>217</ele>
        <time>2018-09-30T10:10:25Z</time>
      </trkpt>
      <trkpt lat="45.92223" lon="4.75178">
        <ele>217</ele>
        <time>2018-09-30T10:10:26Z</time>
      </trkpt>
      <trkpt lat="45.92226" lon="4.75171">
        <ele>218</ele>
        <time>2018-09-30T10:10:27Z</time>
      </trkpt>
      <trkpt lat="45.9223" lon="4.75164">
        <ele>219</ele>
        <time>2018-09-30T10:10:28Z</time>
      </trkpt>
      <trkpt lat="45.92233" lon="4.75157">
        <ele>219</ele>
        <time>2018-09-30T10:10:29Z</time>
      </trkpt>
      <trkpt lat="45.92237" lon="4.75149">
        <ele>229</ele>
        <time>2018-09-30T10:10:30Z</time>
      </trkpt>
      <trkpt lat="45.92241" lon="4.75142">
        <ele>227</ele>
        <time>2018-09-30T10:10:31Z</time>
      </trkpt>
      <trkpt lat="45.92246" lon="4.75136">
        <ele>226</ele>
        <time>2018-09-30T10:10:32Z</time>
      </trkpt>
      <trkpt lat="45.92252" lon="4.7513">
        <ele>225</ele>
        <time>2018-09-30T10:10:33Z</time>
      </trkpt>
      <trkpt lat="45.92256" lon="4.75125">
        <ele>224</ele>
        <time>2018-09-30T10:10:34Z</time>
      </trkpt>
      <trkpt lat="45.9226" lon="4.7512">
        <ele>223</ele>
        <time>2018-09-30T10:10:35Z</time>
      </trkpt>
      <trkpt lat="45.92264" lon="4.75114">
        <ele>223</ele>
        <time>2018-09-30T10:10:36Z</time>
      </trkpt>
      <trkpt lat="45.92269" lon="4.7511">
        <ele>224</ele>
        <time>2018-09-30T10:10:37Z</time>
      </trkpt>
      <trkpt lat="45.92274" lon="4.75104">
        <ele>224</ele>
        <time>2018-09-30T10:10:38Z</time>
      </trkpt>
      <trkpt lat="45.92278" lon="4.75099">
        <ele>224</ele>
        <time>2018-09-30T10:10:39Z</time>
      </trkpt>
      <trkpt lat="45.92285" lon="4.75092">
        <ele>223</ele>
        <time>2018-09-30T10:10:41Z</time>
      </trkpt>
      <trkpt lat="45.92289" lon="4.75088">
        <ele>223</ele>
        <time>2018-09-30T10:10:42Z</time>
      </trkpt>
      <trkpt lat="45.92294" lon="4.75085">
        <ele>223</ele>
        <time>2018-09-30T10:10:43Z</time>
      </trkpt>
      <trkpt lat="45.92297" lon="4.75079">
        <ele>222</ele>
        <time>2018-09-30T10:10:44Z</time>
      </trkpt>
      <trkpt lat="45.92301" lon="4.75074">
        <ele>222</ele>
        <time>2018-09-30T10:10:45Z</time>
      </trkpt>
      <trkpt lat="45.92305" lon="4.75069">
        <ele>222</ele>
        <time>2018-09-30T10:10:46Z</time>
      </trkpt>
      <trkpt lat="45.9231" lon="4.75061">
        <ele>222</ele>
        <time>2018-09-30T10:10:47Z</time>
      </trkpt>
      <trkpt lat="45.92315" lon="4.75054">
        <ele>222</ele>
        <time>2018-09-30T10:10:48Z</time>
      </trkpt>
      <trkpt lat="45.92319" lon="4.75049">
        <ele>223</ele>
        <time>2018-09-30T10:10:49Z</time>
      </trkpt>
      <trkpt lat="45.92323" lon="4.75042">
        <ele>223</ele>
        <time>2018-09-30T10:10:50Z</time>
      </trkpt>
      <trkpt lat="45.92329" lon="4.75034">
        <ele>224</ele>
        <time>2018-09-30T10:10:52Z</time>
      </trkpt>
      <trkpt lat="45.92333" lon="4.75026">
        <ele>224</ele>
        <time>2018-09-30T10:10:53Z</time>
      </trkpt>
      <trkpt lat="45.92336" lon="4.75018">
        <ele>224</ele>
        <time>2018-09-30T10:10:54Z</time>
      </trkpt>
      <trkpt lat="45.92339" lon="4.75012">
        <ele>226</ele>
        <time>2018-09-30T10:10:55Z</time>
      </trkpt>
      <trkpt lat="45.92343" lon="4.75001">
        <ele>225</ele>
        <time>2018-09-30T10:10:57Z</time>
      </trkpt>
      <trkpt lat="45.92346" lon="4.74995">
        <ele>225</ele>
        <time>2018-09-30T10:10:58Z</time>
      </trkpt>
      <trkpt lat="45.92348" lon="4.74988">
        <ele>224</ele>
        <time>2018-09-30T10:10:59Z</time>
      </trkpt>
      <trkpt lat="45.9235" lon="4.74982">
        <ele>224</ele>
        <time>2018-09-30T10:11:00Z</time>
      </trkpt>
      <trkpt lat="45.92353" lon="4.74976">
        <ele>224</ele>
        <time>2018-09-30T10:11:01Z</time>
      </trkpt>
      <trkpt lat="45.92356" lon="4.74969">
        <ele>223</ele>
        <time>2018-09-30T10:11:02Z</time>
      </trkpt>
      <trkpt lat="45.92358" lon="4.74962">
        <ele>222</ele>
        <time>2018-09-30T10:11:03Z</time>
      </trkpt>
      <trkpt lat="45.92361" lon="4.74955">
        <ele>222</ele>
        <time>2018-09-30T10:11:04Z</time>
      </trkpt>
      <trkpt lat="45.92364" lon="4.74947">
        <ele>222</ele>
        <time>2018-09-30T10:11:05Z</time>
      </trkpt>
      <trkpt lat="45.92367" lon="4.74938">
        <ele>222</ele>
        <time>2018-09-30T10:11:06Z</time>
      </trkpt>
      <trkpt lat="45.92371" lon="4.7493">
        <ele>228</ele>
        <time>2018-09-30T10:11:07Z</time>
      </trkpt>
      <trkpt lat="45.92374" lon="4.74922">
        <ele>227</ele>
        <time>2018-09-30T10:11:08Z</time>
      </trkpt>
      <trkpt lat="45.92377" lon="4.74915">
        <ele>225</ele>
        <time>2018-09-30T10:11:09Z</time>
      </trkpt>
      <trkpt lat="45.92381" lon="4.74908">
        <ele>227</ele>
        <time>2018-09-30T10:11:10Z</time>
      </trkpt>
      <trkpt lat="45.92384" lon="4.74901">
        <ele>227</ele>
        <time>2018-09-30T10:11:11Z</time>
      </trkpt>
      <trkpt lat="45.92386" lon="4.74895">
        <ele>225</ele>
        <time>2018-09-30T10:11:12Z</time>
      </trkpt>
      <trkpt lat="45.92389" lon="4.74888">
        <ele>226</ele>
        <time>2018-09-30T10:11:13Z</time>
      </trkpt>
      <trkpt lat="45.92391" lon="4.7488">
        <ele>225</ele>
        <time>2018-09-30T10:11:14Z</time>
      </trkpt>
      <trkpt lat="45.92393" lon="4.74874">
        <ele>225</ele>
        <time>2018-09-30T10:11:15Z</time>
      </trkpt>
      <trkpt lat="45.92395" lon="4.74865">
        <ele>225</ele>
        <time>2018-09-30T10:11:16Z</time>
      </trkpt>
      <trkpt lat="45.92398" lon="4.74856">
        <ele>225</ele>
        <time>2018-09-30T10:11:17Z</time>
      </trkpt>
      <trkpt lat="45.924" lon="4.74849">
        <ele>225</ele>
        <time>2018-09-30T10:11:18Z</time>
      </trkpt>
      <trkpt lat="45.92403" lon="4.74841">
        <ele>224</ele>
        <time>2018-09-30T10:11:19Z</time>
      </trkpt>
      <trkpt lat="45.92405" lon="4.74833">
        <ele>226</ele>
        <time>2018-09-30T10:11:20Z</time>
      </trkpt>
      <trkpt lat="45.92406" lon="4.74826">
        <ele>227</ele>
        <time>2018-09-30T10:11:21Z</time>
      </trkpt>
      <trkpt lat="45.92408" lon="4.74817">
        <ele>226</ele>
        <time>2018-09-30T10:11:22Z</time>
      </trkpt>
      <trkpt lat="45.9241" lon="4.74809">
        <ele>226</ele>
        <time>2018-09-30T10:11:23Z</time>
      </trkpt>
      <trkpt lat="45.92411" lon="4.74801">
        <ele>226</ele>
        <time>2018-09-30T10:11:24Z</time>
      </trkpt>
      <trkpt lat="45.92413" lon="4.74792">
        <ele>224</ele>
        <time>2018-09-30T10:11:25Z</time>
      </trkpt>
      <trkpt lat="45.92415" lon="4.74785">
        <ele>224</ele>
        <time>2018-09-30T10:11:26Z</time>
      </trkpt>
      <trkpt lat="45.92418" lon="4.74778">
        <ele>224</ele>
        <time>2018-09-30T10:11:27Z</time>
      </trkpt>
      <trkpt lat="45.9242" lon="4.74769">
        <ele>226</ele>
        <time>2018-09-30T10:11:28Z</time>
      </trkpt>
      <trkpt lat="45.92421" lon="4.74761">
        <ele>226</ele>
        <time>2018-09-30T10:11:29Z</time>
      </trkpt>
      <trkpt lat="45.92423" lon="4.74753">
        <ele>226</ele>
        <time>2018-09-30T10:11:30Z</time>
      </trkpt>
      <trkpt lat="45.92426" lon="4.74745">
        <ele>226</ele>
        <time>2018-09-30T10:11:31Z</time>
      </trkpt>
      <trkpt lat="45.92429" lon="4.74737">
        <ele>225</ele>
        <time>2018-09-30T10:11:32Z</time>
      </trkpt>
      <trkpt lat="45.92431" lon="4.7473">
        <ele>226</ele>
        <time>2018-09-30T10:11:33Z</time>
      </trkpt>
      <trkpt lat="45.92434" lon="4.74722">
        <ele>226</ele>
        <time>2018-09-30T10:11:34Z</time>
      </trkpt>
      <trkpt lat="45.92435" lon="4.74714">
        <ele>223</ele>
        <time>2018-09-30T10:11:35Z</time>
      </trkpt>
      <trkpt lat="45.92437" lon="4.74707">
        <ele>223</ele>
        <time>2018-09-30T10:11:36Z</time>
      </trkpt>
      <trkpt lat="45.9244" lon="4.747">
        <ele>223</ele>
        <time>2018-09-30T10:11:37Z</time>
      </trkpt>
      <trkpt lat="45.92442" lon="4.74692">
        <ele>223</ele>
        <time>2018-09-30T10:11:38Z</time>
      </trkpt>
      <trkpt lat="45.92444" lon="4.74684">
        <ele>220</ele>
        <time>2018-09-30T10:11:39Z</time>
      </trkpt>
      <trkpt lat="45.92446" lon="4.74677">
        <ele>221</ele>
        <time>2018-09-30T10:11:40Z</time>
      </trkpt>
      <trkpt lat="45.92449" lon="4.7467">
        <ele>221</ele>
        <time>2018-09-30T10:11:41Z</time>
      </trkpt>
      <trkpt lat="45.92453" lon="4.74664">
        <ele>222</ele>
        <time>2018-09-30T10:11:42Z</time>
      </trkpt>
      <trkpt lat="45.92456" lon="4.74656">
        <ele>222</ele>
        <time>2018-09-30T10:11:43Z</time>
      </trkpt>
      <trkpt lat="45.9246" lon="4.74649">
        <ele>222</ele>
        <time>2018-09-30T10:11:44Z</time>
      </trkpt>
      <trkpt lat="45.92465" lon="4.74644">
        <ele>222</ele>
        <time>2018-09-30T10:11:45Z</time>
      </trkpt>
      <trkpt lat="45.92468" lon="4.74636">
        <ele>223</ele>
        <time>2018-09-30T10:11:46Z</time>
      </trkpt>
      <trkpt lat="45.92473" lon="4.74632">
        <ele>223</ele>
        <time>2018-09-30T10:11:47Z</time>
      </trkpt>
      <trkpt lat="45.92479" lon="4.74625">
        <ele>224</ele>
        <time>2018-09-30T10:11:48Z</time>
      </trkpt>
      <trkpt lat="45.92483" lon="4.74621">
        <ele>225</ele>
        <time>2018-09-30T10:11:49Z</time>
      </trkpt>
      <trkpt lat="45.92489" lon="4.74616">
        <ele>226</ele>
        <time>2018-09-30T10:11:50Z</time>
      </trkpt>
      <trkpt lat="45.92493" lon="4.74609">
        <ele>225</ele>
        <time>2018-09-30T10:11:51Z</time>
      </trkpt>
      <trkpt lat="45.92499" lon="4.74604">
        <ele>226</ele>
        <time>2018-09-30T10:11:52Z</time>
      </trkpt>
      <trkpt lat="45.92504" lon="4.74598">
        <ele>227</ele>
        <time>2018-09-30T10:11:53Z</time>
      </trkpt>
      <trkpt lat="45.92509" lon="4.74592">
        <ele>227</ele>
        <time>2018-09-30T10:11:54Z</time>
      </trkpt>
      <trkpt lat="45.92514" lon="4.74587">
        <ele>226</ele>
        <time>2018-09-30T10:11:55Z</time>
      </trkpt>
      <trkpt lat="45.92518" lon="4.74581">
        <ele>226</ele>
        <time>2018-09-30T10:11:56Z</time>
      </trkpt>
      <trkpt lat="45.92523" lon="4.74576">
        <ele>227</ele>
        <time>2018-09-30T10:11:57Z</time>
      </trkpt>
      <trkpt lat="45.92528" lon="4.74571">
        <ele>227</ele>
        <time>2018-09-30T10:11:58Z</time>
      </trkpt>
      <trkpt lat="45.92533" lon="4.74565">
        <ele>227</ele>
        <time>2018-09-30T10:11:59Z</time>
      </trkpt>
      <trkpt lat="45.92537" lon="4.74559">
        <ele>227</ele>
        <time>2018-09-30T10:12:00Z</time>
      </trkpt>
      <trkpt lat="45.92541" lon="4.74553">
        <ele>227</ele>
        <time>2018-09-30T10:12:01Z</time>
      </trkpt>
      <trkpt lat="45.92544" lon="4.74549">
        <ele>227</ele>
        <time>2018-09-30T10:12:02Z</time>
      </trkpt>
      <trkpt lat="45.92548" lon="4.74542">
        <ele>227</ele>
        <time>2018-09-30T10:12:03Z</time>
      </trkpt>
      <trkpt lat="45.92551" lon="4.74534">
        <ele>226</ele>
        <time>2018-09-30T10:12:04Z</time>
      </trkpt>
      <trkpt lat="45.92554" lon="4.74528">
        <ele>226</ele>
        <time>2018-09-30T10:12:05Z</time>
      </trkpt>
      <trkpt lat="45.92558" lon="4.74521">
        <ele>225</ele>
        <time>2018-09-30T10:12:06Z</time>
      </trkpt>
      <trkpt lat="45.92561" lon="4.74515">
        <ele>225</ele>
        <time>2018-09-30T10:12:07Z</time>
      </trkpt>
      <trkpt lat="45.92565" lon="4.74509">
        <ele>225</ele>
        <time>2018-09-30T10:12:08Z</time>
      </trkpt>
      <trkpt lat="45.92568" lon="4.74502">
        <ele>225</ele>
        <time>2018-09-30T10:12:09Z</time>
      </trkpt>
      <trkpt lat="45.92572" lon="4.74496">
        <ele>226</ele>
        <time>2018-09-30T10:12:10Z</time>
      </trkpt>
      <trkpt lat="45.92575" lon="4.74489">
        <ele>226</ele>
        <time>2018-09-30T10:12:11Z</time>
      </trkpt>
      <trkpt lat="45.92579" lon="4.74481">
        <ele>226</ele>
        <time>2018-09-30T10:12:12Z</time>
      </trkpt>
      <trkpt lat="45.92584" lon="4.74474">
        <ele>229</ele>
        <time>2018-09-30T10:12:13Z</time>
      </trkpt>
      <trkpt lat="45.92588" lon="4.74466">
        <ele>228</ele>
        <time>2018-09-30T10:12:14Z</time>
      </trkpt>
      <trkpt lat="45.92593" lon="4.74457">
        <ele>227</ele>
        <time>2018-09-30T10:12:15Z</time>
      </trkpt>
      <trkpt lat="45.92597" lon="4.74449">
        <ele>227</ele>
        <time>2018-09-30T10:12:16Z</time>
      </trkpt>
      <trkpt lat="45.92601" lon="4.74441">
        <ele>227</ele>
        <time>2018-09-30T10:12:17Z</time>
      </trkpt>
      <trkpt lat="45.92605" lon="4.74433">
        <ele>227</ele>
        <time>2018-09-30T10:12:18Z</time>
      </trkpt>
      <trkpt lat="45.92609" lon="4.74427">
        <ele>227</ele>
        <time>2018-09-30T10:12:19Z</time>
      </trkpt>
      <trkpt lat="45.92613" lon="4.74419">
        <ele>227</ele>
        <time>2018-09-30T10:12:20Z</time>
      </trkpt>
      <trkpt lat="45.92616" lon="4.74412">
        <ele>226</ele>
        <time>2018-09-30T10:12:21Z</time>
      </trkpt>
      <trkpt lat="45.9262" lon="4.74406">
        <ele>226</ele>
        <time>2018-09-30T10:12:22Z</time>
      </trkpt>
      <trkpt lat="45.92623" lon="4.744">
        <ele>227</ele>
        <time>2018-09-30T10:12:23Z</time>
      </trkpt>
      <trkpt lat="45.92626" lon="4.74394">
        <ele>228</ele>
        <time>2018-09-30T10:12:24Z</time>
      </trkpt>
      <trkpt lat="45.92629" lon="4.74388">
        <ele>232</ele>
        <time>2018-09-30T10:12:25Z</time>
      </trkpt>
      <trkpt lat="45.92632" lon="4.74383">
        <ele>230</ele>
        <time>2018-09-30T10:12:26Z</time>
      </trkpt>
      <trkpt lat="45.92636" lon="4.74375">
        <ele>229</ele>
        <time>2018-09-30T10:12:27Z</time>
      </trkpt>
      <trkpt lat="45.9264" lon="4.74369">
        <ele>228</ele>
        <time>2018-09-30T10:12:28Z</time>
      </trkpt>
      <trkpt lat="45.92643" lon="4.74363">
        <ele>228</ele>
        <time>2018-09-30T10:12:29Z</time>
      </trkpt>
      <trkpt lat="45.92647" lon="4.74357">
        <ele>228</ele>
        <time>2018-09-30T10:12:30Z</time>
      </trkpt>
      <trkpt lat="45.9265" lon="4.74351">
        <ele>227</ele>
        <time>2018-09-30T10:12:31Z</time>
      </trkpt>
      <trkpt lat="45.92653" lon="4.74345">
        <ele>228</ele>
        <time>2018-09-30T10:12:32Z</time>
      </trkpt>
      <trkpt lat="45.92658" lon="4.74335">
        <ele>228</ele>
        <time>2018-09-30T10:12:34Z</time>
      </trkpt>
      <trkpt lat="45.92662" lon="4.7433">
        <ele>228</ele>
        <time>2018-09-30T10:12:35Z</time>
      </trkpt>
      <trkpt lat="45.92665" lon="4.74323">
        <ele>228</ele>
        <time>2018-09-30T10:12:36Z</time>
      </trkpt>
      <trkpt lat="45.92669" lon="4.74317">
        <ele>227</ele>
        <time>2018-09-30T10:12:37Z</time>
      </trkpt>
      <trkpt lat="45.92672" lon="4.74309">
        <ele>227</ele>
        <time>2018-09-30T10:12:38Z</time>
      </trkpt>
      <trkpt lat="45.92676" lon="4.74301">
        <ele>227</ele>
        <time>2018-09-30T10:12:39Z</time>
      </trkpt>
      <trkpt lat="45.9268" lon="4.74294">
        <ele>225</ele>
        <time>2018-09-30T10:12:40Z</time>
      </trkpt>
      <trkpt lat="45.92684" lon="4.74287">
        <ele>226</ele>
        <time>2018-09-30T10:12:41Z</time>
      </trkpt>
      <trkpt lat="45.92689" lon="4.74279">
        <ele>226</ele>
        <time>2018-09-30T10:12:42Z</time>
      </trkpt>
      <trkpt lat="45.92692" lon="4.74273">
        <ele>226</ele>
        <time>2018-09-30T10:12:43Z</time>
      </trkpt>
      <trkpt lat="45.92697" lon="4.74266">
        <ele>226</ele>
        <time>2018-09-30T10:12:44Z</time>
      </trkpt>
      <trkpt lat="45.92701" lon="4.74259">
        <ele>226</ele>
        <time>2018-09-30T10:12:45Z</time>
      </trkpt>
      <trkpt lat="45.92704" lon="4.74253">
        <ele>225</ele>
        <time>2018-09-30T10:12:46Z</time>
      </trkpt>
      <trkpt lat="45.92708" lon="4.74246">
        <ele>225</ele>
        <time>2018-09-30T10:12:47Z</time>
      </trkpt>
      <trkpt lat="45.92712" lon="4.74239">
        <ele>224</ele>
        <time>2018-09-30T10:12:48Z</time>
      </trkpt>
      <trkpt lat="45.92717" lon="4.74232">
        <ele>225</ele>
        <time>2018-09-30T10:12:49Z</time>
      </trkpt>
      <trkpt lat="45.92722" lon="4.74222">
        <ele>225</ele>
        <time>2018-09-30T10:12:50Z</time>
      </trkpt>
      <trkpt lat="45.92727" lon="4.74216">
        <ele>225</ele>
        <time>2018-09-30T10:12:51Z</time>
      </trkpt>
      <trkpt lat="45.92732" lon="4.74209">
        <ele>226</ele>
        <time>2018-09-30T10:12:52Z</time>
      </trkpt>
      <trkpt lat="45.92736" lon="4.74203">
        <ele>227</ele>
        <time>2018-09-30T10:12:53Z</time>
      </trkpt>
      <trkpt lat="45.92741" lon="4.74197">
        <ele>226</ele>
        <time>2018-09-30T10:12:54Z</time>
      </trkpt>
      <trkpt lat="45.92746" lon="4.7419">
        <ele>227</ele>
        <time>2018-09-30T10:12:55Z</time>
      </trkpt>
      <trkpt lat="45.9275" lon="4.74183">
        <ele>226</ele>
        <time>2018-09-30T10:12:56Z</time>
      </trkpt>
      <trkpt lat="45.92756" lon="4.74179">
        <ele>228</ele>
        <time>2018-09-30T10:12:57Z</time>
      </trkpt>
      <trkpt lat="45.92761" lon="4.74173">
        <ele>228</ele>
        <time>2018-09-30T10:12:58Z</time>
      </trkpt>
      <trkpt lat="45.92766" lon="4.74168">
        <ele>229</ele>
        <time>2018-09-30T10:12:59Z</time>
      </trkpt>
      <trkpt lat="45.92771" lon="4.74163">
        <ele>229</ele>
        <time>2018-09-30T10:13:00Z</time>
      </trkpt>
      <trkpt lat="45.92777" lon="4.74157">
        <ele>229</ele>
        <time>2018-09-30T10:13:01Z</time>
      </trkpt>
      <trkpt lat="45.92782" lon="4.74152">
        <ele>228</ele>
        <time>2018-09-30T10:13:02Z</time>
      </trkpt>
      <trkpt lat="45.92787" lon="4.74146">
        <ele>228</ele>
        <time>2018-09-30T10:13:03Z</time>
      </trkpt>
      <trkpt lat="45.92792" lon="4.74141">
        <ele>228</ele>
        <time>2018-09-30T10:13:04Z</time>
      </trkpt>
      <trkpt lat="45.92798" lon="4.74134">
        <ele>227</ele>
        <time>2018-09-30T10:13:05Z</time>
      </trkpt>
      <trkpt lat="45.92803" lon="4.7413">
        <ele>228</ele>
        <time>2018-09-30T10:13:06Z</time>
      </trkpt>
      <trkpt lat="45.92808" lon="4.74125">
        <ele>229</ele>
        <time>2018-09-30T10:13:07Z</time>
      </trkpt>
      <trkpt lat="45.92811" lon="4.74122">
        <ele>228</ele>
        <time>2018-09-30T10:13:08Z</time>
      </trkpt>
      <trkpt lat="45.92815" lon="4.74118">
        <ele>228</ele>
        <time>2018-09-30T10:13:09Z</time>
      </trkpt>
      <trkpt lat="45.92819" lon="4.74113">
        <ele>228</ele>
        <time>2018-09-30T10:13:10Z</time>
      </trkpt>
      <trkpt lat="45.92824" lon="4.74109">
        <ele>228</ele>
        <time>2018-09-30T10:13:11Z</time>
      </trkpt>
      <trkpt lat="45.92832" lon="4.74102">
        <ele>228</ele>
        <time>2018-09-30T10:13:13Z</time>
      </trkpt>
      <trkpt lat="45.92835" lon="4.74097">
        <ele>228</ele>
        <time>2018-09-30T10:13:14Z</time>
      </trkpt>
      <trkpt lat="45.92838" lon="4.74092">
        <ele>228</ele>
        <time>2018-09-30T10:13:15Z</time>
      </trkpt>
      <trkpt lat="45.92844" lon="4.74087">
        <ele>228</ele>
        <time>2018-09-30T10:13:16Z</time>
      </trkpt>
      <trkpt lat="45.92851" lon="4.74078">
        <ele>229</ele>
        <time>2018-09-30T10:13:18Z</time>
      </trkpt>
      <trkpt lat="45.92854" lon="4.74074">
        <ele>229</ele>
        <time>2018-09-30T10:13:19Z</time>
      </trkpt>
      <trkpt lat="45.92857" lon="4.74068">
        <ele>228</ele>
        <time>2018-09-30T10:13:20Z</time>
      </trkpt>
      <trkpt lat="45.9286" lon="4.74062">
        <ele>229</ele>
        <time>2018-09-30T10:13:21Z</time>
      </trkpt>
      <trkpt lat="45.92864" lon="4.74057">
        <ele>230</ele>
        <time>2018-09-30T10:13:22Z</time>
      </trkpt>
      <trkpt lat="45.92868" lon="4.74053">
        <ele>229</ele>
        <time>2018-09-30T10:13:23Z</time>
      </trkpt>
      <trkpt lat="45.92875" lon="4.74048">
        <ele>230</ele>
        <time>2018-09-30T10:13:25Z</time>
      </trkpt>
      <trkpt lat="45.92879" lon="4.74047">
        <ele>229</ele>
        <time>2018-09-30T10:13:26Z</time>
      </trkpt>
      <trkpt lat="45.92884" lon="4.74048">
        <ele>229</ele>
        <time>2018-09-30T10:13:27Z</time>
      </trkpt>
      <trkpt lat="45.92889" lon="4.74046">
        <ele>229</ele>
        <time>2018-09-30T10:13:28Z</time>
      </trkpt>
      <trkpt lat="45.92895" lon="4.74045">
        <ele>228</ele>
        <time>2018-09-30T10:13:29Z</time>
      </trkpt>
      <trkpt lat="45.92899" lon="4.74043">
        <ele>227</ele>
        <time>2018-09-30T10:13:30Z</time>
      </trkpt>
      <trkpt lat="45.92904" lon="4.74042">
        <ele>228</ele>
        <time>2018-09-30T10:13:31Z</time>
      </trkpt>
      <trkpt lat="45.92908" lon="4.74037">
        <ele>227</ele>
        <time>2018-09-30T10:13:32Z</time>
      </trkpt>
      <trkpt lat="45.92911" lon="4.74032">
        <ele>227</ele>
        <time>2018-09-30T10:13:33Z</time>
      </trkpt>
      <trkpt lat="45.92912" lon="4.74023">
        <ele>228</ele>
        <time>2018-09-30T10:13:34Z</time>
      </trkpt>
      <trkpt lat="45.92913" lon="4.74016">
        <ele>227</ele>
        <time>2018-09-30T10:13:35Z</time>
      </trkpt>
      <trkpt lat="45.92912" lon="4.74007">
        <ele>226</ele>
        <time>2018-09-30T10:13:36Z</time>
      </trkpt>
      <trkpt lat="45.92908" lon="4.73997">
        <ele>221</ele>
        <time>2018-09-30T10:13:38Z</time>
      </trkpt>
      <trkpt lat="45.92905" lon="4.73992">
        <ele>222</ele>
        <time>2018-09-30T10:13:39Z</time>
      </trkpt>
      <trkpt lat="45.92898" lon="4.73983">
        <ele>220</ele>
        <time>2018-09-30T10:13:41Z</time>
      </trkpt>
      <trkpt lat="45.92895" lon="4.73977">
        <ele>220</ele>
        <time>2018-09-30T10:13:42Z</time>
      </trkpt>
      <trkpt lat="45.92892" lon="4.73971">
        <ele>221</ele>
        <time>2018-09-30T10:13:43Z</time>
      </trkpt>
      <trkpt lat="45.92889" lon="4.73965">
        <ele>219</ele>
        <time>2018-09-30T10:13:44Z</time>
      </trkpt>
      <trkpt lat="45.92887" lon="4.73959">
        <ele>220</ele>
        <time>2018-09-30T10:13:45Z</time>
      </trkpt>
      <trkpt lat="45.92888" lon="4.73952">
        <ele>220</ele>
        <time>2018-09-30T10:13:46Z</time>
      </trkpt>
      <trkpt lat="45.92888" lon="4.73943">
        <ele>220</ele>
        <time>2018-09-30T10:13:47Z</time>
      </trkpt>
      <trkpt lat="45.92887" lon="4.73933">
        <ele>221</ele>
        <time>2018-09-30T10:13:48Z</time>
      </trkpt>
      <trkpt lat="45.92886" lon="4.73925">
        <ele>221</ele>
        <time>2018-09-30T10:13:49Z</time>
      </trkpt>
      <trkpt lat="45.92886" lon="4.73915">
        <ele>221</ele>
        <time>2018-09-30T10:13:50Z</time>
      </trkpt>
      <trkpt lat="45.92884" lon="4.73906">
        <ele>221</ele>
        <time>2018-09-30T10:13:51Z</time>
      </trkpt>
      <trkpt lat="45.92883" lon="4.73896">
        <ele>222</ele>
        <time>2018-09-30T10:13:52Z</time>
      </trkpt>
      <trkpt lat="45.92881" lon="4.73887">
        <ele>223</ele>
        <time>2018-09-30T10:13:53Z</time>
      </trkpt>
      <trkpt lat="45.92879" lon="4.73879">
        <ele>222</ele>
        <time>2018-09-30T10:13:54Z</time>
      </trkpt>
      <trkpt lat="45.92879" lon="4.73871">
        <ele>222</ele>
        <time>2018-09-30T10:13:55Z</time>
      </trkpt>
      <trkpt lat="45.92878" lon="4.73864">
        <ele>222</ele>
        <time>2018-09-30T10:13:56Z</time>
      </trkpt>
      <trkpt lat="45.92876" lon="4.73855">
        <ele>222</ele>
        <time>2018-09-30T10:13:57Z</time>
      </trkpt>
      <trkpt lat="45.92872" lon="4.7384">
        <ele>221</ele>
        <time>2018-09-30T10:13:59Z</time>
      </trkpt>
      <trkpt lat="45.9287" lon="4.73833">
        <ele>230</ele>
        <time>2018-09-30T10:14:00Z</time>
      </trkpt>
      <trkpt lat="45.92868" lon="4.73826">
        <ele>228</ele>
        <time>2018-09-30T10:14:01Z</time>
      </trkpt>
      <trkpt lat="45.92866" lon="4.73821">
        <ele>226</ele>
        <time>2018-09-30T10:14:02Z</time>
      </trkpt>
      <trkpt lat="45.92862" lon="4.73814">
        <ele>225</ele>
        <time>2018-09-30T10:14:03Z</time>
      </trkpt>
      <trkpt lat="45.92861" lon="4.73804">
        <ele>222</ele>
        <time>2018-09-30T10:14:05Z</time>
      </trkpt>
      <trkpt lat="45.92857" lon="4.73799">
        <ele>230</ele>
        <time>2018-09-30T10:14:06Z</time>
      </trkpt>
      <trkpt lat="45.92853" lon="4.73796">
        <ele>227</ele>
        <time>2018-09-30T10:14:07Z</time>
      </trkpt>
      <trkpt lat="45.92849" lon="4.73792">
        <ele>225</ele>
        <time>2018-09-30T10:14:08Z</time>
      </trkpt>
      <trkpt lat="45.92841" lon="4.73787">
        <ele>218</ele>
        <time>2018-09-30T10:14:10Z</time>
      </trkpt>
      <trkpt lat="45.92839" lon="4.73786">
        <ele>216</ele>
        <time>2018-09-30T10:14:11Z</time>
      </trkpt>
      <trkpt lat="45.92831" lon="4.73782">
        <ele>213</ele>
        <time>2018-09-30T10:14:14Z</time>
      </trkpt>
      <trkpt lat="45.92829" lon="4.73781">
        <ele>213</ele>
        <time>2018-09-30T10:14:15Z</time>
      </trkpt>
      <trkpt lat="45.92826" lon="4.73779">
        <ele>213</ele>
        <time>2018-09-30T10:14:16Z</time>
      </trkpt>
      <trkpt lat="45.92817" lon="4.73774">
        <ele>212</ele>
        <time>2018-09-30T10:14:17Z</time>
      </trkpt>
      <trkpt lat="45.92814" lon="4.73771">
        <ele>212</ele>
        <time>2018-09-30T10:14:18Z</time>
      </trkpt>
      <trkpt lat="45.92809" lon="4.73768">
        <ele>212</ele>
        <time>2018-09-30T10:14:19Z</time>
      </trkpt>
      <trkpt lat="45.92802" lon="4.73762">
        <ele>214</ele>
        <time>2018-09-30T10:14:21Z</time>
      </trkpt>
      <trkpt lat="45.92798" lon="4.7376">
        <ele>214</ele>
        <time>2018-09-30T10:14:22Z</time>
      </trkpt>
      <trkpt lat="45.92791" lon="4.73756">
        <ele>219</ele>
        <time>2018-09-30T10:14:25Z</time>
      </trkpt>
      <trkpt lat="45.92789" lon="4.73755">
        <ele>219</ele>
        <time>2018-09-30T10:14:26Z</time>
      </trkpt>
      <trkpt lat="45.92784" lon="4.73745">
        <ele>220</ele>
        <time>2018-09-30T10:14:28Z</time>
      </trkpt>
      <trkpt lat="45.92782" lon="4.73739">
        <ele>220</ele>
        <time>2018-09-30T10:14:29Z</time>
      </trkpt>
      <trkpt lat="45.92777" lon="4.73736">
        <ele>219</ele>
        <time>2018-09-30T10:14:30Z</time>
      </trkpt>
      <trkpt lat="45.92774" lon="4.73733">
        <ele>219</ele>
        <time>2018-09-30T10:14:31Z</time>
      </trkpt>
      <trkpt lat="45.92769" lon="4.7373">
        <ele>219</ele>
        <time>2018-09-30T10:14:32Z</time>
      </trkpt>
      <trkpt lat="45.92765" lon="4.73727">
        <ele>219</ele>
        <time>2018-09-30T10:14:33Z</time>
      </trkpt>
      <trkpt lat="45.9276" lon="4.73726">
        <ele>219</ele>
        <time>2018-09-30T10:14:34Z</time>
      </trkpt>
      <trkpt lat="45.92755" lon="4.73724">
        <ele>219</ele>
        <time>2018-09-30T10:14:35Z</time>
      </trkpt>
      <trkpt lat="45.92747" lon="4.73722">
        <ele>221</ele>
        <time>2018-09-30T10:14:37Z</time>
      </trkpt>
      <trkpt lat="45.92742" lon="4.73721">
        <ele>220</ele>
        <time>2018-09-30T10:14:38Z</time>
      </trkpt>
      <trkpt lat="45.92737" lon="4.7372">
        <ele>222</ele>
        <time>2018-09-30T10:14:39Z</time>
      </trkpt>
      <trkpt lat="45.92731" lon="4.73719">
        <ele>222</ele>
        <time>2018-09-30T10:14:40Z</time>
      </trkpt>
      <trkpt lat="45.92726" lon="4.73717">
        <ele>218</ele>
        <time>2018-09-30T10:14:42Z</time>
      </trkpt>
      <trkpt lat="45.92722" lon="4.73717">
        <ele>219</ele>
        <time>2018-09-30T10:14:43Z</time>
      </trkpt>
      <trkpt lat="45.92714" lon="4.73715">
        <ele>220</ele>
        <time>2018-09-30T10:14:45Z</time>
      </trkpt>
      <trkpt lat="45.92708" lon="4.73713">
        <ele>219</ele>
        <time>2018-09-30T10:14:46Z</time>
      </trkpt>
      <trkpt lat="45.92703" lon="4.73712">
        <ele>220</ele>
        <time>2018-09-30T10:14:47Z</time>
      </trkpt>
      <trkpt lat="45.92697" lon="4.73712">
        <ele>218</ele>
        <time>2018-09-30T10:14:48Z</time>
      </trkpt>
      <trkpt lat="45.92692" lon="4.73712">
        <ele>218</ele>
        <time>2018-09-30T10:14:49Z</time>
      </trkpt>
      <trkpt lat="45.92687" lon="4.73712">
        <ele>218</ele>
        <time>2018-09-30T10:14:50Z</time>
      </trkpt>
      <trkpt lat="45.92681" lon="4.7371">
        <ele>215</ele>
        <time>2018-09-30T10:14:51Z</time>
      </trkpt>
      <trkpt lat="45.92677" lon="4.73707">
        <ele>215</ele>
        <time>2018-09-30T10:14:52Z</time>
      </trkpt>
      <trkpt lat="45.92672" lon="4.73704">
        <ele>216</ele>
        <time>2018-09-30T10:14:53Z</time>
      </trkpt>
      <trkpt lat="45.92667" lon="4.737">
        <ele>216</ele>
        <time>2018-09-30T10:14:54Z</time>
      </trkpt>
      <trkpt lat="45.92663" lon="4.73699">
        <ele>217</ele>
        <time>2018-09-30T10:14:55Z</time>
      </trkpt>
      <trkpt lat="45.92659" lon="4.73695">
        <ele>216</ele>
        <time>2018-09-30T10:14:56Z</time>
      </trkpt>
      <trkpt lat="45.92653" lon="4.73691">
        <ele>224</ele>
        <time>2018-09-30T10:14:57Z</time>
      </trkpt>
      <trkpt lat="45.9265" lon="4.73687">
        <ele>222</ele>
        <time>2018-09-30T10:14:58Z</time>
      </trkpt>
      <trkpt lat="45.92643" lon="4.73679">
        <ele>221</ele>
        <time>2018-09-30T10:15:00Z</time>
      </trkpt>
      <trkpt lat="45.92638" lon="4.73674">
        <ele>221</ele>
        <time>2018-09-30T10:15:01Z</time>
      </trkpt>
      <trkpt lat="45.92635" lon="4.73667">
        <ele>222</ele>
        <time>2018-09-30T10:15:03Z</time>
      </trkpt>
      <trkpt lat="45.92633" lon="4.73659">
        <ele>220</ele>
        <time>2018-09-30T10:15:04Z</time>
      </trkpt>
      <trkpt lat="45.92632" lon="4.73653">
        <ele>218</ele>
        <time>2018-09-30T10:15:05Z</time>
      </trkpt>
      <trkpt lat="45.92629" lon="4.73647">
        <ele>217</ele>
        <time>2018-09-30T10:15:06Z</time>
      </trkpt>
      <trkpt lat="45.92623" lon="4.73639">
        <ele>217</ele>
        <time>2018-09-30T10:15:08Z</time>
      </trkpt>
      <trkpt lat="45.92619" lon="4.73633">
        <ele>215</ele>
        <time>2018-09-30T10:15:09Z</time>
      </trkpt>
      <trkpt lat="45.92615" lon="4.7363">
        <ele>216</ele>
        <time>2018-09-30T10:15:10Z</time>
      </trkpt>
      <trkpt lat="45.9261" lon="4.73626">
        <ele>216</ele>
        <time>2018-09-30T10:15:11Z</time>
      </trkpt>
      <trkpt lat="45.92605" lon="4.73623">
        <ele>215</ele>
        <time>2018-09-30T10:15:12Z</time>
      </trkpt>
      <trkpt lat="45.92601" lon="4.73622">
        <ele>214</ele>
        <time>2018-09-30T10:15:13Z</time>
      </trkpt>
      <trkpt lat="45.92595" lon="4.73624">
        <ele>217</ele>
        <time>2018-09-30T10:15:15Z</time>
      </trkpt>
      <trkpt lat="45.9259" lon="4.73623">
        <ele>216</ele>
        <time>2018-09-30T10:15:16Z</time>
      </trkpt>
      <trkpt lat="45.92584" lon="4.73624">
        <ele>215</ele>
        <time>2018-09-30T10:15:17Z</time>
      </trkpt>
      <trkpt lat="45.9258" lon="4.73625">
        <ele>216</ele>
        <time>2018-09-30T10:15:18Z</time>
      </trkpt>
      <trkpt lat="45.92576" lon="4.73627">
        <ele>214</ele>
        <time>2018-09-30T10:15:19Z</time>
      </trkpt>
      <trkpt lat="45.92571" lon="4.73627">
        <ele>214</ele>
        <time>2018-09-30T10:15:20Z</time>
      </trkpt>
      <trkpt lat="45.92566" lon="4.73628">
        <ele>215</ele>
        <time>2018-09-30T10:15:21Z</time>
      </trkpt>
      <trkpt lat="45.92561" lon="4.73629">
        <ele>215</ele>
        <time>2018-09-30T10:15:22Z</time>
      </trkpt>
      <trkpt lat="45.92554" lon="4.7363">
        <ele>215</ele>
        <time>2018-09-30T10:15:23Z</time>
      </trkpt>
      <trkpt lat="45.92549" lon="4.73631">
        <ele>216</ele>
        <time>2018-09-30T10:15:24Z</time>
      </trkpt>
      <trkpt lat="45.92545" lon="4.73635">
        <ele>217</ele>
        <time>2018-09-30T10:15:25Z</time>
      </trkpt>
      <trkpt lat="45.92539" lon="4.73635">
        <ele>216</ele>
        <time>2018-09-30T10:15:26Z</time>
      </trkpt>
      <trkpt lat="45.92535" lon="4.73634">
        <ele>214</ele>
        <time>2018-09-30T10:15:27Z</time>
      </trkpt>
      <trkpt lat="45.9253" lon="4.73635">
        <ele>214</ele>
        <time>2018-09-30T10:15:28Z</time>
      </trkpt>
      <trkpt lat="45.92524" lon="4.73635">
        <ele>225</ele>
        <time>2018-09-30T10:15:29Z</time>
      </trkpt>
      <trkpt lat="45.9252" lon="4.73636">
        <ele>224</ele>
        <time>2018-09-30T10:15:30Z</time>
      </trkpt>
      <trkpt lat="45.92512" lon="4.73635">
        <ele>223</ele>
        <time>2018-09-30T10:15:32Z</time>
      </trkpt>
      <trkpt lat="45.92511" lon="4.73635">
        <ele>222</ele>
        <time>2018-09-30T10:15:33Z</time>
      </trkpt>
      <trkpt lat="45.92504" lon="4.73637">
        <ele>221</ele>
        <time>2018-09-30T10:15:35Z</time>
      </trkpt>
      <trkpt lat="45.92501" lon="4.73636">
        <ele>221</ele>
        <time>2018-09-30T10:15:36Z</time>
      </trkpt>
      <trkpt lat="45.92494" lon="4.73637">
        <ele>231</ele>
        <time>2018-09-30T10:15:37Z</time>
      </trkpt>
      <trkpt lat="45.92491" lon="4.7364">
        <ele>227</ele>
        <time>2018-09-30T10:15:38Z</time>
      </trkpt>
      <trkpt lat="45.92487" lon="4.73639">
        <ele>223</ele>
        <time>2018-09-30T10:15:40Z</time>
      </trkpt>
      <trkpt lat="45.9248" lon="4.73639">
        <ele>222</ele>
        <time>2018-09-30T10:15:41Z</time>
      </trkpt>
      <trkpt lat="45.92472" lon="4.7364">
        <ele>219</ele>
        <time>2018-09-30T10:15:43Z</time>
      </trkpt>
      <trkpt lat="45.92469" lon="4.73643">
        <ele>219</ele>
        <time>2018-09-30T10:15:44Z</time>
      </trkpt>
      <trkpt lat="45.92468" lon="4.7365">
        <ele>219</ele>
        <time>2018-09-30T10:15:45Z</time>
      </trkpt>
      <trkpt lat="45.92466" lon="4.73657">
        <ele>217</ele>
        <time>2018-09-30T10:15:46Z</time>
      </trkpt>
      <trkpt lat="45.92466" lon="4.73667">
        <ele>215</ele>
        <time>2018-09-30T10:15:48Z</time>
      </trkpt>
      <trkpt lat="45.92467" lon="4.73674">
        <ele>213</ele>
        <time>2018-09-30T10:15:49Z</time>
      </trkpt>
      <trkpt lat="45.92467" lon="4.73685">
        <ele>213</ele>
        <time>2018-09-30T10:15:51Z</time>
      </trkpt>
      <trkpt lat="45.92467" lon="4.7369">
        <ele>214</ele>
        <time>2018-09-30T10:15:52Z</time>
      </trkpt>
      <trkpt lat="45.92468" lon="4.73701">
        <ele>213</ele>
        <time>2018-09-30T10:15:55Z</time>
      </trkpt>
      <trkpt lat="45.92468" lon="4.73704">
        <ele>213</ele>
        <time>2018-09-30T10:15:56Z</time>
      </trkpt>
      <trkpt lat="45.9246" lon="4.7371">
        <ele>224</ele>
        <time>2018-09-30T10:16:34Z</time>
      </trkpt>
      <trkpt lat="45.9246" lon="4.7371">
        <ele>224</ele>
        <time>2018-09-30T10:16:35Z</time>
      </trkpt>
      <trkpt lat="45.9246" lon="4.7371">
        <ele>224</ele>
        <time>2018-09-30T10:16:38.652Z</time>
      </trkpt>
    </trkseg>
  </trk>
</gpx>